<?xml version='1.0' encoding='UTF-8'?><gpx version="1.1" creator="JPX - https://github.com/jenetics/jpx" xmlns="http://www.topografix.com/GPX/1/1"><trk><trkseg><trkpt lat="43.15653084762379" lon="12.374558003410273"><ele>533.8571428571429</ele><time>2026-04-10T11:32:05Z</time></trkpt><trkpt lat="43.156584534430024" lon="12.374493474980003"><ele>535.7142857142858</ele><time>2026-04-10T11:32:09Z</time></trkpt><trkpt lat="43.15661808914375" lon="12.374412467655842"><ele>537.5714285714286</ele><time>2026-04-10T11:32:16Z</time></trkpt><trkpt lat="43.15666882368209" lon="12.374353957796393"><ele>539.4285714285714</ele><time>2026-04-10T11:32:28Z</time></trkpt><trkpt lat="43.15670282973107" lon="12.374261502134788"><ele>541.2857142857143</ele><time>2026-04-10T11:32:32Z</time></trkpt><trkpt lat="43.15675620421881" lon="12.37419121421555"><ele>543.1428571428571</ele><time>2026-04-10T11:32:36Z</time></trkpt><trkpt lat="43.156822697225174" lon="12.374140496904786"><ele>545.0</ele><time>2026-04-10T11:32:52Z</time></trkpt><trkpt lat="43.15688696843995" lon="12.374064112620626"><ele>545.0</ele><time>2026-04-10T11:32:55Z</time></trkpt><trkpt lat="43.156921784488" lon="12.37392352439462"><ele>545.0</ele><time>2026-04-10T11:32:59Z</time></trkpt><trkpt lat="43.15697015373883" lon="12.37383298648016"><ele>545.0</ele><time>2026-04-10T11:33:02Z</time></trkpt><trkpt lat="43.157003006583075" lon="12.373757370976579"><ele>545.0</ele><time>2026-04-10T11:33:04Z</time></trkpt><trkpt lat="43.157027488078235" lon="12.373630491663661"><ele>545.0</ele><time>2026-04-10T11:33:08Z</time></trkpt><trkpt lat="43.15703755795999" lon="12.373501118190143"><ele>545.0</ele><time>2026-04-10T11:33:10Z</time></trkpt><trkpt lat="43.157070301465225" lon="12.373394901545007"><ele>542.7142857142858</ele><time>2026-04-10T11:33:12Z</time></trkpt><trkpt lat="43.157086588235764" lon="12.3732994283267"><ele>540.4285714285714</ele><time>2026-04-10T11:33:15Z</time></trkpt><trkpt lat="43.15710536031512" lon="12.373191857453378"><ele>538.1428571428571</ele><time>2026-04-10T11:33:28Z</time></trkpt><trkpt lat="43.15714300673411" lon="12.373103844027101"><ele>535.8571428571429</ele><time>2026-04-10T11:33:32Z</time></trkpt><trkpt lat="43.15716564717567" lon="12.373020010229382"><ele>533.5714285714286</ele><time>2026-04-10T11:33:34Z</time></trkpt><trkpt lat="43.157176050578826" lon="12.372928707475436"><ele>531.2857142857143</ele><time>2026-04-10T11:33:36Z</time></trkpt><trkpt lat="43.15717394023005" lon="12.372824740197684"><ele>529.0</ele><time>2026-04-10T11:33:39Z</time></trkpt><trkpt lat="43.15712518231983" lon="12.372747158472757"><ele>527.5</ele><time>2026-04-10T11:33:43Z</time></trkpt><trkpt lat="43.157022615668204" lon="12.372726861573097"><ele>526.0</ele><time>2026-04-10T11:33:45Z</time></trkpt><trkpt lat="43.15692740583586" lon="12.372678255224125"><ele>524.5</ele><time>2026-04-10T11:33:47Z</time></trkpt><trkpt lat="43.15686925028179" lon="12.372639486427738"><ele>523.0</ele><time>2026-04-10T11:33:50.999Z</time></trkpt><trkpt lat="43.15678622113659" lon="12.372583264053722"><ele>521.5</ele><time>2026-04-10T11:33:53.999Z</time></trkpt><trkpt lat="43.156725989075376" lon="12.372518814006819"><ele>520.0</ele><time>2026-04-10T11:33:55.999Z</time></trkpt><trkpt lat="43.15667193553405" lon="12.372460664349045"><ele>520.0</ele><time>2026-04-10T11:33:59.999Z</time></trkpt><trkpt lat="43.15671863920416" lon="12.37238612574196"><ele>520.0</ele><time>2026-04-10T11:34:19Z</time></trkpt><trkpt lat="43.15677190160158" lon="12.372305703006612"><ele>520.0</ele><time>2026-04-10T11:34:21Z</time></trkpt><trkpt lat="43.15684121546429" lon="12.37229439686824"><ele>520.0</ele><time>2026-04-10T11:34:24Z</time></trkpt><trkpt lat="43.15692754579431" lon="12.372350935187423"><ele>520.0</ele><time>2026-04-10T11:34:29Z</time></trkpt><trkpt lat="43.156995804867094" lon="12.372372984108475"><ele>520.0</ele><time>2026-04-10T11:34:31Z</time></trkpt><trkpt lat="43.157065860350315" lon="12.372366753653214"><ele>520.0000000000001</ele><time>2026-04-10T11:34:33Z</time></trkpt><trkpt lat="43.15713572520868" lon="12.372375073318523"><ele>520.0</ele><time>2026-04-10T11:34:37Z</time></trkpt><trkpt lat="43.15721101409677" lon="12.372389798486934"><ele>520.0</ele><time>2026-04-10T11:34:41Z</time></trkpt><trkpt lat="43.157277342549804" lon="12.372396399871105"><ele>520.0</ele><time>2026-04-10T11:34:44Z</time></trkpt><trkpt lat="43.15733733433443" lon="12.372360984629683"><ele>520.0</ele><time>2026-04-10T11:34:57Z</time></trkpt><trkpt lat="43.15741082850155" lon="12.372358942527056"><ele>520.0000000000001</ele><time>2026-04-10T11:35:00Z</time></trkpt><trkpt lat="43.15748762740846" lon="12.372340313808817"><ele>520.0</ele><time>2026-04-10T11:35:03Z</time></trkpt><trkpt lat="43.157552803672786" lon="12.372303143295218"><ele>521.1666666666667</ele><time>2026-04-10T11:35:06Z</time></trkpt><trkpt lat="43.157622923527335" lon="12.372220656799412"><ele>522.3333333333334</ele><time>2026-04-10T11:35:09Z</time></trkpt><trkpt lat="43.15766472893468" lon="12.37214463621364"><ele>523.5</ele><time>2026-04-10T11:35:11Z</time></trkpt><trkpt lat="43.15769239875413" lon="12.372053044990688"><ele>524.6666666666666</ele><time>2026-04-10T11:35:13Z</time></trkpt><trkpt lat="43.15772515373769" lon="12.371948515952353"><ele>525.8333333333333</ele><time>2026-04-10T11:35:15Z</time></trkpt><trkpt lat="43.15775970006505" lon="12.371876225905394"><ele>527.0</ele><time>2026-04-10T11:35:17Z</time></trkpt><trkpt lat="43.15780964349219" lon="12.37180820981525"><ele>524.0</ele><time>2026-04-10T11:35:19Z</time></trkpt><trkpt lat="43.157866481948844" lon="12.371760798550612"><ele>521.0</ele><time>2026-04-10T11:35:21Z</time></trkpt><trkpt lat="43.15793858404669" lon="12.371706189865506"><ele>518.0</ele><time>2026-04-10T11:35:24Z</time></trkpt><trkpt lat="43.15801935752321" lon="12.371628727134123"><ele>515.0</ele><time>2026-04-10T11:35:27Z</time></trkpt><trkpt lat="43.15807336798633" lon="12.371567854750227"><ele>511.99999999999994</ele><time>2026-04-10T11:35:29Z</time></trkpt><trkpt lat="43.15812282366451" lon="12.371477160800705"><ele>509.0</ele><time>2026-04-10T11:35:31Z</time></trkpt><trkpt lat="43.15814995751393" lon="12.371366064818835"><ele>508.8571428571428</ele><time>2026-04-10T11:35:33Z</time></trkpt><trkpt lat="43.15816433226482" lon="12.371274244301226"><ele>508.71428571428567</ele><time>2026-04-10T11:35:35Z</time></trkpt><trkpt lat="43.15819372136207" lon="12.371162403744314"><ele>508.57142857142856</ele><time>2026-04-10T11:35:37Z</time></trkpt><trkpt lat="43.15823083974915" lon="12.371074157024864"><ele>508.4285714285714</ele><time>2026-04-10T11:35:39Z</time></trkpt><trkpt lat="43.15827446379123" lon="12.370993502780493"><ele>508.2857142857142</ele><time>2026-04-10T11:35:42Z</time></trkpt><trkpt lat="43.15832106106149" lon="12.37092638256952"><ele>508.14285714285717</ele><time>2026-04-10T11:35:44Z</time></trkpt><trkpt lat="43.15837899396262" lon="12.370873606065873"><ele>508.0</ele><time>2026-04-10T11:35:46Z</time></trkpt><trkpt lat="43.15844464284894" lon="12.37084861065176"><ele>508.00000000000006</ele><time>2026-04-10T11:35:48Z</time></trkpt><trkpt lat="43.15851592129775" lon="12.370849117102914"><ele>508.0</ele><time>2026-04-10T11:35:50Z</time></trkpt><trkpt lat="43.15861390030615" lon="12.370847333052598"><ele>508.0</ele><time>2026-04-10T11:35:53Z</time></trkpt><trkpt lat="43.158696454521156" lon="12.370836893573347"><ele>508.0</ele><time>2026-04-10T11:35:55.999Z</time></trkpt><trkpt lat="43.15878426311686" lon="12.370795495484517"><ele>508.00000000000006</ele><time>2026-04-10T11:35:58.999Z</time></trkpt><trkpt lat="43.158855887305954" lon="12.370733179387404"><ele>508.0</ele><time>2026-04-10T11:36:01.999Z</time></trkpt><trkpt lat="43.15892251160783" lon="12.370678567357565"><ele>508.00000000000006</ele><time>2026-04-10T11:36:13Z</time></trkpt><trkpt lat="43.15899190445771" lon="12.370675395579172"><ele>508.0</ele><time>2026-04-10T11:36:16Z</time></trkpt><trkpt lat="43.15906552733586" lon="12.37069632527457"><ele>508.0</ele><time>2026-04-10T11:36:19Z</time></trkpt><trkpt lat="43.15915295685431" lon="12.370718965157584"><ele>508.0</ele><time>2026-04-10T11:36:22Z</time></trkpt><trkpt lat="43.15924071725423" lon="12.37069939930897"><ele>508.00000000000006</ele><time>2026-04-10T11:36:27Z</time></trkpt><trkpt lat="43.1593149712295" lon="12.370700129679635"><ele>508.0</ele><time>2026-04-10T11:36:29Z</time></trkpt><trkpt lat="43.159389667642344" lon="12.370667569355215"><ele>509.0</ele><time>2026-04-10T11:36:31Z</time></trkpt><trkpt lat="43.159466048732625" lon="12.370634193381758"><ele>510.0</ele><time>2026-04-10T11:36:35Z</time></trkpt><trkpt lat="43.1595298315785" lon="12.370574755093896"><ele>511.0</ele><time>2026-04-10T11:36:38Z</time></trkpt><trkpt lat="43.159575371791504" lon="12.370485855035573"><ele>512.0</ele><time>2026-04-10T11:36:41Z</time></trkpt><trkpt lat="43.15960417981172" lon="12.370397956914706"><ele>513.0</ele><time>2026-04-10T11:36:44Z</time></trkpt><trkpt lat="43.1596198875921" lon="12.370313176092953"><ele>514.0</ele><time>2026-04-10T11:36:48Z</time></trkpt><trkpt lat="43.15963089644099" lon="12.370224151342137"><ele>515.0</ele><time>2026-04-10T11:36:53Z</time></trkpt><trkpt lat="43.15965677452528" lon="12.370143609940937"><ele>511.42857142857144</ele><time>2026-04-10T11:36:59Z</time></trkpt><trkpt lat="43.15969944218882" lon="12.370066650639776"><ele>507.85714285714283</ele><time>2026-04-10T11:37:03Z</time></trkpt><trkpt lat="43.15971130993917" lon="12.36997835094212"><ele>504.2857142857143</ele><time>2026-04-10T11:37:08Z</time></trkpt><trkpt lat="43.15973078019866" lon="12.369895754449853"><ele>500.7142857142857</ele><time>2026-04-10T11:37:12Z</time></trkpt><trkpt lat="43.159719319762175" lon="12.369793707695276"><ele>497.1428571428571</ele><time>2026-04-10T11:37:15Z</time></trkpt><trkpt lat="43.15972656175631" lon="12.369694511846399"><ele>493.57142857142856</ele><time>2026-04-10T11:37:20Z</time></trkpt><trkpt lat="43.15972990160511" lon="12.369577198025002"><ele>490.0</ele><time>2026-04-10T11:37:24Z</time></trkpt><trkpt lat="43.15975771646268" lon="12.369488335097914"><ele>489.00000000000006</ele><time>2026-04-10T11:37:27Z</time></trkpt><trkpt lat="43.15982024480038" lon="12.369402961009786"><ele>488.0</ele><time>2026-04-10T11:37:30Z</time></trkpt><trkpt lat="43.15988254287293" lon="12.369356439466417"><ele>487.0</ele><time>2026-04-10T11:37:32Z</time></trkpt><trkpt lat="43.15995284299271" lon="12.369345282147664"><ele>486.0</ele><time>2026-04-10T11:37:35Z</time></trkpt><trkpt lat="43.16003156703116" lon="12.36932493136134"><ele>485.00000000000006</ele><time>2026-04-10T11:37:39Z</time></trkpt><trkpt lat="43.16012011571715" lon="12.369265612516003"><ele>484.0</ele><time>2026-04-10T11:37:42Z</time></trkpt><trkpt lat="43.16019286232988" lon="12.369255257051321"><ele>484.0</ele><time>2026-04-10T11:37:45Z</time></trkpt><trkpt lat="43.160271797693795" lon="12.369251950918049"><ele>484.0</ele><time>2026-04-10T11:37:47Z</time></trkpt><trkpt lat="43.16036399499165" lon="12.369245319671641"><ele>484.0</ele><time>2026-04-10T11:37:49Z</time></trkpt><trkpt lat="43.16046809515598" lon="12.369225918986892"><ele>484.0</ele><time>2026-04-10T11:37:51Z</time></trkpt><trkpt lat="43.16057073903751" lon="12.3691786027281"><ele>484.0</ele><time>2026-04-10T11:37:53Z</time></trkpt><trkpt lat="43.1606407925169" lon="12.369039510518858"><ele>484.00000000000006</ele><time>2026-04-10T11:37:55Z</time></trkpt><trkpt lat="43.160677197817336" lon="12.368928507088796"><ele>484.0</ele><time>2026-04-10T11:37:57Z</time></trkpt><trkpt lat="43.16070775378902" lon="12.36883265067843"><ele>484.0</ele><time>2026-04-10T11:37:59Z</time></trkpt><trkpt lat="43.160750547355626" lon="12.36871408919885"><ele>484.0</ele><time>2026-04-10T11:38:00.999Z</time></trkpt><trkpt lat="43.16080353270609" lon="12.368649090136358"><ele>484.00000000000006</ele><time>2026-04-10T11:38:04Z</time></trkpt><trkpt lat="43.160866698762106" lon="12.368672656218536"><ele>484.0</ele><time>2026-04-10T11:38:06Z</time></trkpt><trkpt lat="43.16095370054613" lon="12.36881597147597"><ele>483.6666666666667</ele><time>2026-04-10T11:38:08Z</time></trkpt><trkpt lat="43.16099782839883" lon="12.368885117361115"><ele>483.33333333333337</ele><time>2026-04-10T11:38:09Z</time></trkpt><trkpt lat="43.161049570152116" lon="12.368962645586459"><ele>483.0</ele><time>2026-04-10T11:38:09.999Z</time></trkpt><trkpt lat="43.16109074136499" lon="12.369057979691673"><ele>482.66666666666663</ele><time>2026-04-10T11:38:10.999Z</time></trkpt><trkpt lat="43.16114593639803" lon="12.36913744268278"><ele>482.3333333333333</ele><time>2026-04-10T11:38:11.999Z</time></trkpt><trkpt lat="43.161205682944136" lon="12.369222782264428"><ele>482.0</ele><time>2026-04-10T11:38:12.999Z</time></trkpt><trkpt lat="43.16126779411219" lon="12.369301669008525"><ele>481.99999999999994</ele><time>2026-04-10T11:38:13.999Z</time></trkpt><trkpt lat="43.161347203958584" lon="12.369357453175082"><ele>482.0</ele><time>2026-04-10T11:38:14.999Z</time></trkpt><trkpt lat="43.161412868676386" lon="12.369436904769872"><ele>482.0</ele><time>2026-04-10T11:38:15.999Z</time></trkpt><trkpt lat="43.161476726624194" lon="12.369512047777793"><ele>482.0</ele><time>2026-04-10T11:38:16.999Z</time></trkpt><trkpt lat="43.16153473019702" lon="12.369593459309431"><ele>481.99999999999994</ele><time>2026-04-10T11:38:17.999Z</time></trkpt><trkpt lat="43.16156433496566" lon="12.369709749745102"><ele>482.0</ele><time>2026-04-10T11:38:18.999Z</time></trkpt><trkpt lat="43.16160956291802" lon="12.369828630760152"><ele>478.8</ele><time>2026-04-10T11:38:19.999Z</time></trkpt><trkpt lat="43.16161606676849" lon="12.369969562914708"><ele>475.6</ele><time>2026-04-10T11:38:20.999Z</time></trkpt><trkpt lat="43.161573897012616" lon="12.370097157759174"><ele>472.40000000000003</ele><time>2026-04-10T11:38:21.999Z</time></trkpt><trkpt lat="43.16154288754043" lon="12.370225644942497"><ele>469.20000000000005</ele><time>2026-04-10T11:38:22.999Z</time></trkpt><trkpt lat="43.161528748943184" lon="12.370349448827492"><ele>466.0</ele><time>2026-04-10T11:38:24Z</time></trkpt><trkpt lat="43.16151743051157" lon="12.370444979243427"><ele>467.6666666666667</ele><time>2026-04-10T11:38:25Z</time></trkpt><trkpt lat="43.161511682370346" lon="12.370534912727445"><ele>469.33333333333337</ele><time>2026-04-10T11:38:26Z</time></trkpt><trkpt lat="43.16155105825945" lon="12.370634989899385"><ele>471.0</ele><time>2026-04-10T11:38:27Z</time></trkpt><trkpt lat="43.1616103111658" lon="12.370708671391023"><ele>472.66666666666663</ele><time>2026-04-10T11:38:28Z</time></trkpt><trkpt lat="43.16167097265388" lon="12.370777333595678"><ele>474.3333333333333</ele><time>2026-04-10T11:38:29Z</time></trkpt><trkpt lat="43.16174314518764" lon="12.370823341032722"><ele>476.0</ele><time>2026-04-10T11:38:30Z</time></trkpt><trkpt lat="43.161835689896286" lon="12.370813279242522"><ele>475.99999999999994</ele><time>2026-04-10T11:38:31Z</time></trkpt><trkpt lat="43.161922343903086" lon="12.370790260303343"><ele>476.0</ele><time>2026-04-10T11:38:32Z</time></trkpt><trkpt lat="43.161989253569836" lon="12.370742710264336"><ele>476.0</ele><time>2026-04-10T11:38:33Z</time></trkpt><trkpt lat="43.16209011321208" lon="12.370646484561648"><ele>476.0</ele><time>2026-04-10T11:38:35Z</time></trkpt><trkpt lat="43.16215179563842" lon="12.370586681549225"><ele>475.99999999999994</ele><time>2026-04-10T11:38:36Z</time></trkpt><trkpt lat="43.162217426589905" lon="12.370520686508657"><ele>476.0</ele><time>2026-04-10T11:38:37Z</time></trkpt><trkpt lat="43.16228740043918" lon="12.370450324632133"><ele>470.8</ele><time>2026-04-10T11:38:38Z</time></trkpt><trkpt lat="43.162364798746616" lon="12.370372497200185"><ele>465.6</ele><time>2026-04-10T11:38:39Z</time></trkpt><trkpt lat="43.16244925494993" lon="12.370287572649316"><ele>460.4</ele><time>2026-04-10T11:38:40Z</time></trkpt><trkpt lat="43.16252805668164" lon="12.37018022261718"><ele>455.2</ele><time>2026-04-10T11:38:41Z</time></trkpt><trkpt lat="43.16262172567284" lon="12.370088726446479"><ele>450.0</ele><time>2026-04-10T11:38:42Z</time></trkpt><trkpt lat="43.162718207155336" lon="12.369990498802135"><ele>450.0</ele><time>2026-04-10T11:38:43Z</time></trkpt><trkpt lat="43.162811260580895" lon="12.369891921437276"><ele>450.0</ele><time>2026-04-10T11:38:44Z</time></trkpt><trkpt lat="43.16290712699742" lon="12.369791338675403"><ele>450.0</ele><time>2026-04-10T11:38:45Z</time></trkpt><trkpt lat="43.16300329930871" lon="12.369696786557334"><ele>450.0</ele><time>2026-04-10T11:38:46Z</time></trkpt><trkpt lat="43.16309971743145" lon="12.369604092844973"><ele>449.0</ele><time>2026-04-10T11:38:47Z</time></trkpt><trkpt lat="43.163192265889826" lon="12.369514968193261"><ele>448.0</ele><time>2026-04-10T11:38:48Z</time></trkpt><trkpt lat="43.16327895572857" lon="12.369425501989792"><ele>447.0</ele><time>2026-04-10T11:38:49Z</time></trkpt><trkpt lat="43.16336262283915" lon="12.36933426427687"><ele>446.0</ele><time>2026-04-10T11:38:50Z</time></trkpt><trkpt lat="43.16344785520082" lon="12.369255291741505"><ele>445.0</ele><time>2026-04-10T11:38:51Z</time></trkpt><trkpt lat="43.16352947034927" lon="12.369173278657316"><ele>443.83333333333337</ele><time>2026-04-10T11:38:52Z</time></trkpt><trkpt lat="43.163612352391795" lon="12.369090653713034"><ele>442.6666666666667</ele><time>2026-04-10T11:38:53Z</time></trkpt><trkpt lat="43.16368871625909" lon="12.369011124586663"><ele>441.5</ele><time>2026-04-10T11:38:54Z</time></trkpt><trkpt lat="43.16375611828141" lon="12.368938184431311"><ele>440.33333333333337</ele><time>2026-04-10T11:38:55Z</time></trkpt><trkpt lat="43.163819675565506" lon="12.36887806389255"><ele>439.1666666666667</ele><time>2026-04-10T11:38:56Z</time></trkpt><trkpt lat="43.16387740212282" lon="12.368834579073685"><ele>438.0</ele><time>2026-04-10T11:38:57Z</time></trkpt><trkpt lat="43.16394257539312" lon="12.368806087766924"><ele>436.0</ele><time>2026-04-10T11:38:58Z</time></trkpt><trkpt lat="43.16404163512498" lon="12.368785320065607"><ele>433.99999999999994</ele><time>2026-04-10T11:39:00Z</time></trkpt><trkpt lat="43.164120652220284" lon="12.368767434655291"><ele>431.99999999999994</ele><time>2026-04-10T11:39:03Z</time></trkpt><trkpt lat="43.164210641778716" lon="12.36871091114618"><ele>430.0</ele><time>2026-04-10T11:39:05Z</time></trkpt><trkpt lat="43.164312649652096" lon="12.368608892080719"><ele>428.0</ele><time>2026-04-10T11:39:07Z</time></trkpt><trkpt lat="43.16437739092605" lon="12.368564316689767"><ele>428.0</ele><time>2026-04-10T11:39:09Z</time></trkpt><trkpt lat="43.16444594112471" lon="12.368580467464243"><ele>427.99999999999994</ele><time>2026-04-10T11:39:10Z</time></trkpt><trkpt lat="43.164478951146506" lon="12.368495700540207"><ele>427.99999999999994</ele><time>2026-04-10T11:39:11Z</time></trkpt><trkpt lat="43.16445675944044" lon="12.368402997849529"><ele>428.0</ele><time>2026-04-10T11:39:12Z</time></trkpt><trkpt lat="43.16431620617674" lon="12.368372027208729"><ele>428.0</ele><time>2026-04-10T11:39:13Z</time></trkpt><trkpt lat="43.164222853598986" lon="12.36844209272106"><ele>427.99999999999994</ele><time>2026-04-10T11:39:14Z</time></trkpt><trkpt lat="43.16415078877865" lon="12.36844969072815"><ele>428.0</ele><time>2026-04-10T11:39:15Z</time></trkpt><trkpt lat="43.16407744143118" lon="12.36845784791466"><ele>428.0</ele><time>2026-04-10T11:39:16Z</time></trkpt><trkpt lat="43.163995084989615" lon="12.368467683758567"><ele>428.0</ele><time>2026-04-10T11:39:17Z</time></trkpt><trkpt lat="43.16390851374133" lon="12.368479355579964"><ele>427.99999999999994</ele><time>2026-04-10T11:39:18Z</time></trkpt><trkpt lat="43.163818851982796" lon="12.368505314483818"><ele>428.0</ele><time>2026-04-10T11:39:19Z</time></trkpt><trkpt lat="43.16373237923236" lon="12.368562928517742"><ele>428.0</ele><time>2026-04-10T11:39:20Z</time></trkpt><trkpt lat="43.163638877069225" lon="12.368597939007525"><ele>427.99999999999994</ele><time>2026-04-10T11:39:21Z</time></trkpt><trkpt lat="43.163544588735824" lon="12.368637923595568"><ele>427.99999999999994</ele><time>2026-04-10T11:39:22Z</time></trkpt><trkpt lat="43.16344668035248" lon="12.368685522891314"><ele>428.0</ele><time>2026-04-10T11:39:23Z</time></trkpt><trkpt lat="43.16334931563676" lon="12.368734007561189"><ele>428.0</ele><time>2026-04-10T11:39:24Z</time></trkpt><trkpt lat="43.16325944926333" lon="12.368746345793772"><ele>427.99999999999994</ele><time>2026-04-10T11:39:25Z</time></trkpt><trkpt lat="43.163189009547125" lon="12.368748626357466"><ele>428.0</ele><time>2026-04-10T11:39:27Z</time></trkpt><trkpt lat="43.1631154777684" lon="12.368695655128288"><ele>428.0</ele><time>2026-04-10T11:39:30Z</time></trkpt><trkpt lat="43.16309921695939" lon="12.368610710675954"><ele>428.0</ele><time>2026-04-10T11:39:32Z</time></trkpt><trkpt lat="43.16314059827577" lon="12.368518358686721"><ele>427.99999999999994</ele><time>2026-04-10T11:39:34Z</time></trkpt><trkpt lat="43.163228726467594" lon="12.3684085521245"><ele>428.0</ele><time>2026-04-10T11:39:36Z</time></trkpt><trkpt lat="43.16328076248721" lon="12.368349664706752"><ele>427.99999999999994</ele><time>2026-04-10T11:39:37Z</time></trkpt><trkpt lat="43.16333016864927" lon="12.36827093415757"><ele>428.0</ele><time>2026-04-10T11:39:38Z</time></trkpt><trkpt lat="43.16340026456504" lon="12.368204774532048"><ele>428.0</ele><time>2026-04-10T11:39:39Z</time></trkpt><trkpt lat="43.16345194572782" lon="12.36809805267174"><ele>428.0</ele><time>2026-04-10T11:39:40Z</time></trkpt><trkpt lat="43.163518674213336" lon="12.368009574848347"><ele>427.99999999999994</ele><time>2026-04-10T11:39:41Z</time></trkpt><trkpt lat="43.16360231632916" lon="12.367938024899322"><ele>428.0</ele><time>2026-04-10T11:39:42Z</time></trkpt><trkpt lat="43.16367885143597" lon="12.367891904481443"><ele>427.8571428571429</ele><time>2026-04-10T11:39:43Z</time></trkpt><trkpt lat="43.16375385728363" lon="12.367850394857825"><ele>427.7142857142857</ele><time>2026-04-10T11:39:44Z</time></trkpt><trkpt lat="43.16382114201509" lon="12.367793887012782"><ele>427.57142857142856</ele><time>2026-04-10T11:39:45Z</time></trkpt><trkpt lat="43.16388443251472" lon="12.36775835657493"><ele>427.42857142857144</ele><time>2026-04-10T11:39:46Z</time></trkpt><trkpt lat="43.163944179552416" lon="12.367701227072027"><ele>427.2857142857143</ele><time>2026-04-10T11:39:47Z</time></trkpt><trkpt lat="43.16400553881184" lon="12.367639652686895"><ele>427.14285714285717</ele><time>2026-04-10T11:39:48Z</time></trkpt><trkpt lat="43.16406307059601" lon="12.367585597779604"><ele>427.0</ele><time>2026-04-10T11:39:49Z</time></trkpt><trkpt lat="43.16412128039075" lon="12.367510669489977"><ele>424.0</ele><time>2026-04-10T11:39:50Z</time></trkpt><trkpt lat="43.16417543526896" lon="12.367426164039895"><ele>421.00000000000006</ele><time>2026-04-10T11:39:51Z</time></trkpt><trkpt lat="43.164239465621606" lon="12.36733450307004"><ele>418.0</ele><time>2026-04-10T11:39:52Z</time></trkpt><trkpt lat="43.164304626828944" lon="12.367244290184951"><ele>415.0</ele><time>2026-04-10T11:39:53Z</time></trkpt><trkpt lat="43.16436948934424" lon="12.367142554175482"><ele>412.0</ele><time>2026-04-10T11:39:54Z</time></trkpt><trkpt lat="43.164429883406626" lon="12.367026395975165"><ele>409.8</ele><time>2026-04-10T11:39:55Z</time></trkpt><trkpt lat="43.164491272754134" lon="12.366907779161384"><ele>407.6</ele><time>2026-04-10T11:39:56Z</time></trkpt><trkpt lat="43.164553899944984" lon="12.366790791488834"><ele>405.40000000000003</ele><time>2026-04-10T11:39:57Z</time></trkpt><trkpt lat="43.16461358985485" lon="12.366676335255503"><ele>403.20000000000005</ele><time>2026-04-10T11:39:58Z</time></trkpt><trkpt lat="43.164671976898305" lon="12.366566706181453"><ele>401.0</ele><time>2026-04-10T11:39:59Z</time></trkpt><trkpt lat="43.164735189000034" lon="12.36645390101823"><ele>398.8</ele><time>2026-04-10T11:40:00Z</time></trkpt><trkpt lat="43.164803298935446" lon="12.366344229517198"><ele>396.6</ele><time>2026-04-10T11:40:01Z</time></trkpt><trkpt lat="43.164872390462435" lon="12.366246288425085"><ele>394.4</ele><time>2026-04-10T11:40:02Z</time></trkpt><trkpt lat="43.16495096248118" lon="12.36619883979531"><ele>392.2</ele><time>2026-04-10T11:40:03Z</time></trkpt><trkpt lat="43.16501681810065" lon="12.366160717194798"><ele>390.0</ele><time>2026-04-10T11:40:04Z</time></trkpt><trkpt lat="43.16513666392687" lon="12.36613742356767"><ele>387.4</ele><time>2026-04-10T11:40:06Z</time></trkpt><trkpt lat="43.165263093968164" lon="12.366195451004176"><ele>384.8</ele><time>2026-04-10T11:40:08Z</time></trkpt><trkpt lat="43.16533422155151" lon="12.366247178741345"><ele>382.20000000000005</ele><time>2026-04-10T11:40:09Z</time></trkpt><trkpt lat="43.16541196597637" lon="12.36631464324021"><ele>379.6</ele><time>2026-04-10T11:40:10Z</time></trkpt><trkpt lat="43.165494678768106" lon="12.366395128247442"><ele>377.0</ele><time>2026-04-10T11:40:11Z</time></trkpt><trkpt lat="43.16557742678381" lon="12.366479177927888"><ele>378.40000000000003</ele><time>2026-04-10T11:40:12Z</time></trkpt><trkpt lat="43.1656585169504" lon="12.366573444386734"><ele>379.8</ele><time>2026-04-10T11:40:13Z</time></trkpt><trkpt lat="43.16574187639724" lon="12.366678203167671"><ele>381.2</ele><time>2026-04-10T11:40:14Z</time></trkpt><trkpt lat="43.165826693203535" lon="12.366788382306531"><ele>382.6</ele><time>2026-04-10T11:40:15Z</time></trkpt><trkpt lat="43.16590612393221" lon="12.36689402333141"><ele>384.0</ele><time>2026-04-10T11:40:16Z</time></trkpt><trkpt lat="43.16598608308266" lon="12.367001642545281"><ele>384.0</ele><time>2026-04-10T11:40:17Z</time></trkpt><trkpt lat="43.166071764226416" lon="12.367120300261666"><ele>384.0</ele><time>2026-04-10T11:40:18Z</time></trkpt><trkpt lat="43.16614875432096" lon="12.367230692398191"><ele>384.0</ele><time>2026-04-10T11:40:19Z</time></trkpt><trkpt lat="43.16621935961109" lon="12.367339587922215"><ele>384.0</ele><time>2026-04-10T11:40:20Z</time></trkpt><trkpt lat="43.166286394391435" lon="12.36744813597584"><ele>384.0</ele><time>2026-04-10T11:40:21Z</time></trkpt><trkpt lat="43.16636028460659" lon="12.367545620614724"><ele>382.0</ele><time>2026-04-10T11:40:22Z</time></trkpt><trkpt lat="43.16641697280353" lon="12.36765826951276"><ele>380.0</ele><time>2026-04-10T11:40:23Z</time></trkpt><trkpt lat="43.166466531949254" lon="12.367780805028314"><ele>378.0</ele><time>2026-04-10T11:40:24Z</time></trkpt><trkpt lat="43.166515549777394" lon="12.367892567757648"><ele>376.0</ele><time>2026-04-10T11:40:25Z</time></trkpt><trkpt lat="43.16655423533564" lon="12.368001081115143"><ele>374.0</ele><time>2026-04-10T11:40:26Z</time></trkpt><trkpt lat="43.166586460232175" lon="12.368107843762376"><ele>374.0</ele><time>2026-04-10T11:40:27Z</time></trkpt><trkpt lat="43.16662097453852" lon="12.368220715057689"><ele>374.0</ele><time>2026-04-10T11:40:28Z</time></trkpt><trkpt lat="43.166636895432205" lon="12.368351967088982"><ele>374.0</ele><time>2026-04-10T11:40:29Z</time></trkpt><trkpt lat="43.16664642097012" lon="12.368475280864512"><ele>374.0</ele><time>2026-04-10T11:40:30Z</time></trkpt><trkpt lat="43.16666765485651" lon="12.368571021692983"><ele>374.0</ele><time>2026-04-10T11:40:31Z</time></trkpt><trkpt lat="43.16670075551799" lon="12.368656277695631"><ele>374.0</ele><time>2026-04-10T11:40:32Z</time></trkpt><trkpt lat="43.166757349039116" lon="12.368715487907265"><ele>374.0</ele><time>2026-04-10T11:40:33Z</time></trkpt><trkpt lat="43.1668307951997" lon="12.368747720371847"><ele>374.0</ele><time>2026-04-10T11:40:34Z</time></trkpt><trkpt lat="43.16690796199027" lon="12.36875912697185"><ele>374.0</ele><time>2026-04-10T11:40:35Z</time></trkpt><trkpt lat="43.16702795400568" lon="12.368700325827195"><ele>374.0</ele><time>2026-04-10T11:40:37Z</time></trkpt><trkpt lat="43.16707657233896" lon="12.36863182606502"><ele>374.0</ele><time>2026-04-10T11:40:38Z</time></trkpt><trkpt lat="43.16711572027658" lon="12.368561813553901"><ele>374.0</ele><time>2026-04-10T11:40:39Z</time></trkpt><trkpt lat="43.16719620705283" lon="12.36843508983222"><ele>374.0</ele><time>2026-04-10T11:40:41Z</time></trkpt><trkpt lat="43.16727802785173" lon="12.368317715045778"><ele>374.0</ele><time>2026-04-10T11:40:43Z</time></trkpt><trkpt lat="43.167350308705075" lon="12.368215389521199"><ele>374.0</ele><time>2026-04-10T11:40:45Z</time></trkpt><trkpt lat="43.16740948885413" lon="12.36809883369853"><ele>374.0</ele><time>2026-04-10T11:40:47Z</time></trkpt><trkpt lat="43.16737740686588" lon="12.367945359249372"><ele>374.0</ele><time>2026-04-10T11:40:49Z</time></trkpt><trkpt lat="43.1673520436958" lon="12.367770218999945"><ele>372.2</ele><time>2026-04-10T11:40:51Z</time></trkpt><trkpt lat="43.167294564209755" lon="12.367610552417451"><ele>370.4</ele><time>2026-04-10T11:40:53Z</time></trkpt><trkpt lat="43.16728236432986" lon="12.367519796477866"><ele>368.6</ele><time>2026-04-10T11:40:54Z</time></trkpt><trkpt lat="43.16723593177846" lon="12.367387414136427"><ele>366.8</ele><time>2026-04-10T11:40:56Z</time></trkpt><trkpt lat="43.167203504512734" lon="12.367246447846593"><ele>365.0</ele><time>2026-04-10T11:40:58Z</time></trkpt><trkpt lat="43.167180853457154" lon="12.367163262329454"><ele>363.5</ele><time>2026-04-10T11:40:59Z</time></trkpt><trkpt lat="43.16714125535514" lon="12.366988590988852"><ele>362.0</ele><time>2026-04-10T11:41:01Z</time></trkpt><trkpt lat="43.16712074857955" lon="12.366893751354658"><ele>360.5</ele><time>2026-04-10T11:41:02Z</time></trkpt><trkpt lat="43.16709841178764" lon="12.366804324523688"><ele>359.0</ele><time>2026-04-10T11:41:03Z</time></trkpt><trkpt lat="43.167062863508676" lon="12.366720765745033"><ele>357.5</ele><time>2026-04-10T11:41:04Z</time></trkpt><trkpt lat="43.16703078041615" lon="12.366629167610185"><ele>356.0</ele><time>2026-04-10T11:41:05Z</time></trkpt><trkpt lat="43.167012441578144" lon="12.366546570766754"><ele>356.0</ele><time>2026-04-10T11:41:06Z</time></trkpt><trkpt lat="43.16707782934194" lon="12.366595964234333"><ele>356.0</ele><time>2026-04-10T11:41:12Z</time></trkpt><trkpt lat="43.16711865315129" lon="12.366708564988517"><ele>356.0</ele><time>2026-04-10T11:41:14Z</time></trkpt><trkpt lat="43.16717773630282" lon="12.366815525818206"><ele>356.0</ele><time>2026-04-10T11:41:16Z</time></trkpt><trkpt lat="43.167236713191514" lon="12.366938052523896"><ele>356.0</ele><time>2026-04-10T11:41:18Z</time></trkpt><trkpt lat="43.16730508303586" lon="12.367059509590609"><ele>358.5</ele><time>2026-04-10T11:41:20Z</time></trkpt><trkpt lat="43.16737087853601" lon="12.367189666929576"><ele>361.0</ele><time>2026-04-10T11:41:22Z</time></trkpt><trkpt lat="43.16743806480971" lon="12.367320772739856"><ele>363.5</ele><time>2026-04-10T11:41:24Z</time></trkpt><trkpt lat="43.16751603365396" lon="12.367444058846305"><ele>366.0</ele><time>2026-04-10T11:41:26Z</time></trkpt><trkpt lat="43.16760336791872" lon="12.367558275188834"><ele>366.0</ele><time>2026-04-10T11:41:28Z</time></trkpt><trkpt lat="43.16768622065691" lon="12.367676037241614"><ele>366.0</ele><time>2026-04-10T11:41:30Z</time></trkpt><trkpt lat="43.16773830168365" lon="12.367724552759679"><ele>366.0</ele><time>2026-04-10T11:41:31Z</time></trkpt><trkpt lat="43.167844289619154" lon="12.367789524470279"><ele>366.0</ele><time>2026-04-10T11:41:33Z</time></trkpt><trkpt lat="43.16795474643742" lon="12.367832228809537"><ele>366.0</ele><time>2026-04-10T11:41:35Z</time></trkpt><trkpt lat="43.16806580323092" lon="12.367862752845074"><ele>366.0</ele><time>2026-04-10T11:41:37Z</time></trkpt><trkpt lat="43.16817728919411" lon="12.36790830494704"><ele>366.0</ele><time>2026-04-10T11:41:39Z</time></trkpt><trkpt lat="43.168291073409534" lon="12.367934592949958"><ele>366.0</ele><time>2026-04-10T11:41:41Z</time></trkpt><trkpt lat="43.16835456774193" lon="12.367951995955893"><ele>366.0</ele><time>2026-04-10T11:41:42Z</time></trkpt><trkpt lat="43.16847484908764" lon="12.367989734264949"><ele>366.0</ele><time>2026-04-10T11:41:44Z</time></trkpt><trkpt lat="43.16859885425708" lon="12.36801912063757"><ele>366.8333333333333</ele><time>2026-04-10T11:41:46Z</time></trkpt><trkpt lat="43.16872250631182" lon="12.368058764397698"><ele>367.6666666666667</ele><time>2026-04-10T11:41:48Z</time></trkpt><trkpt lat="43.168787725581176" lon="12.36807448118092"><ele>368.5</ele><time>2026-04-10T11:41:49Z</time></trkpt><trkpt lat="43.16885274233297" lon="12.368096653566427"><ele>369.33333333333337</ele><time>2026-04-10T11:41:50Z</time></trkpt><trkpt lat="43.168919480563325" lon="12.36811864673367"><ele>370.1666666666667</ele><time>2026-04-10T11:41:51Z</time></trkpt><trkpt lat="43.16898637157211" lon="12.368144712582447"><ele>371.0</ele><time>2026-04-10T11:41:52Z</time></trkpt><trkpt lat="43.16905132308977" lon="12.368167662946858"><ele>372.0</ele><time>2026-04-10T11:41:53Z</time></trkpt><trkpt lat="43.16911820053333" lon="12.368188774646965"><ele>373.0</ele><time>2026-04-10T11:41:54Z</time></trkpt><trkpt lat="43.169186920560925" lon="12.368205471064549"><ele>374.0</ele><time>2026-04-10T11:41:55Z</time></trkpt><trkpt lat="43.16925515540017" lon="12.368220909288626"><ele>375.0</ele><time>2026-04-10T11:41:56Z</time></trkpt><trkpt lat="43.16932250319778" lon="12.368240952797455"><ele>376.0</ele><time>2026-04-10T11:41:57Z</time></trkpt><trkpt lat="43.16938697683322" lon="12.368263371559049"><ele>377.0</ele><time>2026-04-10T11:41:58Z</time></trkpt><trkpt lat="43.169448945826375" lon="12.368280677569308"><ele>378.0</ele><time>2026-04-10T11:41:59Z</time></trkpt><trkpt lat="43.16957455935884" lon="12.368319078386552"><ele>378.0</ele><time>2026-04-10T11:42:01Z</time></trkpt><trkpt lat="43.1696971417443" lon="12.368357251038615"><ele>378.0</ele><time>2026-04-10T11:42:03Z</time></trkpt><trkpt lat="43.169817324811994" lon="12.368393012287811"><ele>378.0</ele><time>2026-04-10T11:42:05Z</time></trkpt><trkpt lat="43.1699315640871" lon="12.368427720868771"><ele>378.0</ele><time>2026-04-10T11:42:07Z</time></trkpt><trkpt lat="43.170053666961365" lon="12.368463255928566"><ele>380.75</ele><time>2026-04-10T11:42:09Z</time></trkpt><trkpt lat="43.17017050939582" lon="12.368507363236619"><ele>383.5</ele><time>2026-04-10T11:42:11Z</time></trkpt><trkpt lat="43.17029459585787" lon="12.368543004997534"><ele>386.25</ele><time>2026-04-10T11:42:13Z</time></trkpt><trkpt lat="43.17040293016267" lon="12.36854207536077"><ele>389.0</ele><time>2026-04-10T11:42:15Z</time></trkpt><trkpt lat="43.17049896963093" lon="12.368475247059623"><ele>389.0</ele><time>2026-04-10T11:42:17Z</time></trkpt><trkpt lat="43.17056995927899" lon="12.36835610017937"><ele>389.0</ele><time>2026-04-10T11:42:19Z</time></trkpt><trkpt lat="43.1705863116202" lon="12.36827081142856"><ele>389.0</ele><time>2026-04-10T11:42:20Z</time></trkpt><trkpt lat="43.17058333052853" lon="12.36810654698535"><ele>389.0</ele><time>2026-04-10T11:42:22Z</time></trkpt><trkpt lat="43.17052526388158" lon="12.367954309167697"><ele>389.0</ele><time>2026-04-10T11:42:24Z</time></trkpt><trkpt lat="43.170477379381495" lon="12.367894641621378"><ele>390.7142857142857</ele><time>2026-04-10T11:42:25Z</time></trkpt><trkpt lat="43.17041880446239" lon="12.367854954678615"><ele>392.4285714285714</ele><time>2026-04-10T11:42:26Z</time></trkpt><trkpt lat="43.17035684462296" lon="12.36782964522007"><ele>394.1428571428571</ele><time>2026-04-10T11:42:27Z</time></trkpt><trkpt lat="43.17029418754424" lon="12.367807831840771"><ele>395.8571428571429</ele><time>2026-04-10T11:42:28Z</time></trkpt><trkpt lat="43.17023071625723" lon="12.367786605065476"><ele>397.57142857142856</ele><time>2026-04-10T11:42:29Z</time></trkpt><trkpt lat="43.17016409943293" lon="12.36776819601143"><ele>399.2857142857143</ele><time>2026-04-10T11:42:30Z</time></trkpt><trkpt lat="43.17010270210426" lon="12.367745522124205"><ele>401.0</ele><time>2026-04-10T11:42:31Z</time></trkpt><trkpt lat="43.170038302320336" lon="12.367719712306569"><ele>401.0</ele><time>2026-04-10T11:42:32Z</time></trkpt><trkpt lat="43.169973609059916" lon="12.36769409462281"><ele>401.0</ele><time>2026-04-10T11:42:33.001Z</time></trkpt><trkpt lat="43.169912858120185" lon="12.36765820425938"><ele>401.0</ele><time>2026-04-10T11:42:34.001Z</time></trkpt><trkpt lat="43.16984243331316" lon="12.36763445580727"><ele>401.0</ele><time>2026-04-10T11:42:35.001Z</time></trkpt><trkpt lat="43.169772096426776" lon="12.36761345530548"><ele>401.0</ele><time>2026-04-10T11:42:36.001Z</time></trkpt><trkpt lat="43.16970730652393" lon="12.367582018473138"><ele>401.0</ele><time>2026-04-10T11:42:37.001Z</time></trkpt><trkpt lat="43.16964233317203" lon="12.367551196755413"><ele>401.0</ele><time>2026-04-10T11:42:38.001Z</time></trkpt><trkpt lat="43.169575984896966" lon="12.367524587393069"><ele>400.57142857142856</ele><time>2026-04-10T11:42:39.001Z</time></trkpt><trkpt lat="43.16951594845459" lon="12.367470621110641"><ele>400.14285714285717</ele><time>2026-04-10T11:42:40.001Z</time></trkpt><trkpt lat="43.16945405692478" lon="12.367424681050597"><ele>399.71428571428567</ele><time>2026-04-10T11:42:41.001Z</time></trkpt><trkpt lat="43.169409533129986" lon="12.367363554313783"><ele>399.2857142857143</ele><time>2026-04-10T11:42:42.001Z</time></trkpt><trkpt lat="43.169371663270674" lon="12.36729417202681"><ele>398.85714285714283</ele><time>2026-04-10T11:42:43.001Z</time></trkpt><trkpt lat="43.169327780313004" lon="12.367229768322927"><ele>398.4285714285714</ele><time>2026-04-10T11:42:44.001Z</time></trkpt><trkpt lat="43.16930074038537" lon="12.367139997115853"><ele>398.0</ele><time>2026-04-10T11:42:45.001Z</time></trkpt><trkpt lat="43.16928883534022" lon="12.367047595591801"><ele>397.99999999999994</ele><time>2026-04-10T11:42:46.001Z</time></trkpt><trkpt lat="43.169283172881975" lon="12.366952642725632"><ele>398.0</ele><time>2026-04-10T11:42:47.001Z</time></trkpt><trkpt lat="43.16929795536038" lon="12.366863119390487"><ele>398.0</ele><time>2026-04-10T11:42:48.001Z</time></trkpt><trkpt lat="43.169316601418814" lon="12.366770826164565"><ele>398.0</ele><time>2026-04-10T11:42:49.001Z</time></trkpt><trkpt lat="43.1693416335558" lon="12.366685640398476"><ele>398.0</ele><time>2026-04-10T11:42:50.001Z</time></trkpt><trkpt lat="43.16939273105893" lon="12.366615972518852"><ele>397.99999999999994</ele><time>2026-04-10T11:42:51.001Z</time></trkpt><trkpt lat="43.16942699393677" lon="12.366539102666701"><ele>398.0</ele><time>2026-04-10T11:42:52.001Z</time></trkpt><trkpt lat="43.16948402919716" lon="12.366486883544002"><ele>397.99999999999994</ele><time>2026-04-10T11:42:53.001Z</time></trkpt><trkpt lat="43.169548335970646" lon="12.36645037504075"><ele>398.0</ele><time>2026-04-10T11:42:54.001Z</time></trkpt><trkpt lat="43.169615795063116" lon="12.36642873186662"><ele>398.0</ele><time>2026-04-10T11:42:55.001Z</time></trkpt><trkpt lat="43.16968509785921" lon="12.366406803489012"><ele>398.0</ele><time>2026-04-10T11:42:56.001Z</time></trkpt><trkpt lat="43.16975126712892" lon="12.366393307927087"><ele>398.0</ele><time>2026-04-10T11:42:57.001Z</time></trkpt><trkpt lat="43.16981738732472" lon="12.366377077590704"><ele>397.99999999999994</ele><time>2026-04-10T11:42:58.001Z</time></trkpt><trkpt lat="43.16988417996278" lon="12.366350485406858"><ele>398.0</ele><time>2026-04-10T11:42:59.001Z</time></trkpt><trkpt lat="43.169949797927146" lon="12.366329701975744"><ele>397.57142857142856</ele><time>2026-04-10T11:43:00.001Z</time></trkpt><trkpt lat="43.17001462603051" lon="12.366310149261652"><ele>397.1428571428571</ele><time>2026-04-10T11:43:01.001Z</time></trkpt><trkpt lat="43.17008470088349" lon="12.366300922734064"><ele>396.71428571428567</ele><time>2026-04-10T11:43:02.001Z</time></trkpt><trkpt lat="43.17015199924389" lon="12.36628826568876"><ele>396.2857142857143</ele><time>2026-04-10T11:43:03.001Z</time></trkpt><trkpt lat="43.17022031637166" lon="12.366271044800337"><ele>395.8571428571429</ele><time>2026-04-10T11:43:04.001Z</time></trkpt><trkpt lat="43.17028619042382" lon="12.36625791069503"><ele>395.4285714285714</ele><time>2026-04-10T11:43:05.001Z</time></trkpt><trkpt lat="43.17035306069307" lon="12.366245931310035"><ele>395.0</ele><time>2026-04-10T11:43:06.001Z</time></trkpt><trkpt lat="43.17048017913016" lon="12.366222656997948"><ele>394.99999999999994</ele><time>2026-04-10T11:43:08.001Z</time></trkpt><trkpt lat="43.17054770018118" lon="12.366201747708452"><ele>395.0</ele><time>2026-04-10T11:43:09.001Z</time></trkpt><trkpt lat="43.170611531627024" lon="12.366184578360231"><ele>395.0</ele><time>2026-04-10T11:43:10.001Z</time></trkpt><trkpt lat="43.170674247582646" lon="12.366171021498921"><ele>395.0</ele><time>2026-04-10T11:43:11.001Z</time></trkpt><trkpt lat="43.17079519349674" lon="12.366147019352843"><ele>394.99999999999994</ele><time>2026-04-10T11:43:13.001Z</time></trkpt><trkpt lat="43.1709070436608" lon="12.366130939677566"><ele>395.0</ele><time>2026-04-10T11:43:15.001Z</time></trkpt><trkpt lat="43.170971421154334" lon="12.366112842080554"><ele>397.2</ele><time>2026-04-10T11:43:16.001Z</time></trkpt><trkpt lat="43.17109229737637" lon="12.366086858869954"><ele>399.4</ele><time>2026-04-10T11:43:18.001Z</time></trkpt><trkpt lat="43.17121750111018" lon="12.3660594149336"><ele>401.6</ele><time>2026-04-10T11:43:20.001Z</time></trkpt><trkpt lat="43.171339943715246" lon="12.366029007806054"><ele>403.8</ele><time>2026-04-10T11:43:22.001Z</time></trkpt><trkpt lat="43.171404858968835" lon="12.366012082836317"><ele>406.0</ele><time>2026-04-10T11:43:23.001Z</time></trkpt><trkpt lat="43.171468976173664" lon="12.365997953302482"><ele>407.14285714285717</ele><time>2026-04-10T11:43:24.001Z</time></trkpt><trkpt lat="43.17153524251085" lon="12.365979605202044"><ele>408.2857142857143</ele><time>2026-04-10T11:43:25.001Z</time></trkpt><trkpt lat="43.17160766657074" lon="12.365962969643856"><ele>409.42857142857144</ele><time>2026-04-10T11:43:26.001Z</time></trkpt><trkpt lat="43.1716742611266" lon="12.365948208536798"><ele>410.57142857142856</ele><time>2026-04-10T11:43:27.001Z</time></trkpt><trkpt lat="43.17174015908322" lon="12.365930754082346"><ele>411.7142857142857</ele><time>2026-04-10T11:43:28.001Z</time></trkpt><trkpt lat="43.17180760476914" lon="12.365907285010023"><ele>412.8571428571429</ele><time>2026-04-10T11:43:29.001Z</time></trkpt><trkpt lat="43.17188272420465" lon="12.365889226854259"><ele>414.0</ele><time>2026-04-10T11:43:30.001Z</time></trkpt><trkpt lat="43.1719530378226" lon="12.365877081044577"><ele>414.00000000000006</ele><time>2026-04-10T11:43:31.001Z</time></trkpt><trkpt lat="43.172027219936055" lon="12.365862179032863"><ele>414.0</ele><time>2026-04-10T11:43:32.001Z</time></trkpt><trkpt lat="43.172091592239234" lon="12.365849679438037"><ele>414.0</ele><time>2026-04-10T11:43:33.001Z</time></trkpt><trkpt lat="43.172163667889215" lon="12.365830546176575"><ele>414.0</ele><time>2026-04-10T11:43:34.001Z</time></trkpt><trkpt lat="43.17223449320799" lon="12.365810336172347"><ele>414.0</ele><time>2026-04-10T11:43:35.001Z</time></trkpt><trkpt lat="43.17230056387181" lon="12.365802526970228"><ele>414.00000000000006</ele><time>2026-04-10T11:43:36.001Z</time></trkpt><trkpt lat="43.17236905784689" lon="12.365787298316338"><ele>414.0</ele><time>2026-04-10T11:43:37.001Z</time></trkpt><trkpt lat="43.17243614507423" lon="12.365771506944652"><ele>415.00000000000006</ele><time>2026-04-10T11:43:38.001Z</time></trkpt><trkpt lat="43.17250375308627" lon="12.365750689775382"><ele>416.0</ele><time>2026-04-10T11:43:39.001Z</time></trkpt><trkpt lat="43.17256848031392" lon="12.365734574005632"><ele>417.0</ele><time>2026-04-10T11:43:40.001Z</time></trkpt><trkpt lat="43.17263658601787" lon="12.365721435041607"><ele>418.0</ele><time>2026-04-10T11:43:41.001Z</time></trkpt><trkpt lat="43.1727031642978" lon="12.365706307942116"><ele>419.0</ele><time>2026-04-10T11:43:42.001Z</time></trkpt><trkpt lat="43.17277390459637" lon="12.365688511220508"><ele>420.00000000000006</ele><time>2026-04-10T11:43:43.001Z</time></trkpt><trkpt lat="43.17284289893299" lon="12.365682623364993"><ele>421.0</ele><time>2026-04-10T11:43:44.001Z</time></trkpt><trkpt lat="43.172912068842244" lon="12.365675415766797"><ele>421.00000000000006</ele><time>2026-04-10T11:43:45.001Z</time></trkpt><trkpt lat="43.172984018632626" lon="12.365677546825808"><ele>421.0</ele><time>2026-04-10T11:43:46.001Z</time></trkpt><trkpt lat="43.17305765622055" lon="12.36568505575867"><ele>421.0</ele><time>2026-04-10T11:43:47.001Z</time></trkpt><trkpt lat="43.17312821187841" lon="12.365713517531018"><ele>421.0</ele><time>2026-04-10T11:43:48.001Z</time></trkpt><trkpt lat="43.17318651603832" lon="12.365759174511888"><ele>421.0</ele><time>2026-04-10T11:43:49.001Z</time></trkpt><trkpt lat="43.17324716186054" lon="12.365814318586953"><ele>421.00000000000006</ele><time>2026-04-10T11:43:50.001Z</time></trkpt><trkpt lat="43.17330542414172" lon="12.365866973871267"><ele>421.0</ele><time>2026-04-10T11:43:51.001Z</time></trkpt><trkpt lat="43.17336251385393" lon="12.365918086440221"><ele>421.50000000000006</ele><time>2026-04-10T11:43:52.001Z</time></trkpt><trkpt lat="43.173431410842994" lon="12.365936161378837"><ele>422.0</ele><time>2026-04-10T11:43:53.001Z</time></trkpt><trkpt lat="43.17348146673241" lon="12.366027891163855"><ele>422.5</ele><time>2026-04-10T11:43:54.001Z</time></trkpt><trkpt lat="43.173544589294" lon="12.366079048921526"><ele>423.0</ele><time>2026-04-10T11:43:55.001Z</time></trkpt><trkpt lat="43.173613959250325" lon="12.366128018508386"><ele>423.50000000000006</ele><time>2026-04-10T11:43:56.001Z</time></trkpt><trkpt lat="43.1736840983809" lon="12.366167984320958"><ele>424.0</ele><time>2026-04-10T11:43:57.001Z</time></trkpt><trkpt lat="43.1737596084956" lon="12.36620363404801"><ele>424.00000000000006</ele><time>2026-04-10T11:43:58.001Z</time></trkpt><trkpt lat="43.17383479569154" lon="12.366235088849411"><ele>424.0</ele><time>2026-04-10T11:43:59.001Z</time></trkpt><trkpt lat="43.173908165844516" lon="12.366256232458229"><ele>424.0</ele><time>2026-04-10T11:44:00.001Z</time></trkpt><trkpt lat="43.17398658105832" lon="12.366261352646184"><ele>424.0</ele><time>2026-04-10T11:44:01.001Z</time></trkpt><trkpt lat="43.17405852048938" lon="12.366257673924492"><ele>424.00000000000006</ele><time>2026-04-10T11:44:02.001Z</time></trkpt><trkpt lat="43.174141106995386" lon="12.366219245209521"><ele>424.0</ele><time>2026-04-10T11:44:03.001Z</time></trkpt><trkpt lat="43.17420499607377" lon="12.36621807490593"><ele>423.42857142857144</ele><time>2026-04-10T11:44:04.001Z</time></trkpt><trkpt lat="43.17427561405372" lon="12.366211120408426"><ele>422.85714285714283</ele><time>2026-04-10T11:44:05.001Z</time></trkpt><trkpt lat="43.17434569167683" lon="12.366202839988366"><ele>422.2857142857143</ele><time>2026-04-10T11:44:06.001Z</time></trkpt><trkpt lat="43.17441350559029" lon="12.36619407723197"><ele>421.7142857142857</ele><time>2026-04-10T11:44:07.001Z</time></trkpt><trkpt lat="43.17448144919398" lon="12.366178948077506"><ele>421.1428571428571</ele><time>2026-04-10T11:44:08.001Z</time></trkpt><trkpt lat="43.174549399827114" lon="12.366177886120465"><ele>420.57142857142856</ele><time>2026-04-10T11:44:09.001Z</time></trkpt><trkpt lat="43.17462044967755" lon="12.36618369123022"><ele>420.0</ele><time>2026-04-10T11:44:10.001Z</time></trkpt><trkpt lat="43.17468378792499" lon="12.366199563617318"><ele>420.0</ele><time>2026-04-10T11:44:11.001Z</time></trkpt><trkpt lat="43.1747506125592" lon="12.366236290601673"><ele>420.0</ele><time>2026-04-10T11:44:12.001Z</time></trkpt><trkpt lat="43.174810607884" lon="12.36627738343024"><ele>420.0</ele><time>2026-04-10T11:44:13.001Z</time></trkpt><trkpt lat="43.17491642794961" lon="12.366376930399161"><ele>420.0</ele><time>2026-04-10T11:44:15.001Z</time></trkpt><trkpt lat="43.175022798846804" lon="12.366475296150846"><ele>420.0</ele><time>2026-04-10T11:44:17.001Z</time></trkpt><trkpt lat="43.175078158526226" lon="12.366525037570314"><ele>423.5</ele><time>2026-04-10T11:44:18.001Z</time></trkpt><trkpt lat="43.17513087462067" lon="12.366576401289018"><ele>427.0</ele><time>2026-04-10T11:44:19.001Z</time></trkpt><trkpt lat="43.17518395723482" lon="12.36662363886457"><ele>430.5</ele><time>2026-04-10T11:44:20.001Z</time></trkpt><trkpt lat="43.17523800437604" lon="12.366671684412486"><ele>434.0</ele><time>2026-04-10T11:44:21.001Z</time></trkpt><trkpt lat="43.17533993190314" lon="12.36676930266785"><ele>437.5</ele><time>2026-04-10T11:44:23.001Z</time></trkpt><trkpt lat="43.175443778747386" lon="12.366866459397235"><ele>441.0</ele><time>2026-04-10T11:44:25.001Z</time></trkpt><trkpt lat="43.17549516077365" lon="12.366916963849103"><ele>441.0</ele><time>2026-04-10T11:44:26.001Z</time></trkpt><trkpt lat="43.175592416262774" lon="12.367027421587323"><ele>441.0</ele><time>2026-04-10T11:44:28.001Z</time></trkpt><trkpt lat="43.175645845191085" lon="12.367075755418323"><ele>441.0</ele><time>2026-04-10T11:44:29.001Z</time></trkpt><trkpt lat="43.17570110172136" lon="12.367127784171254"><ele>441.0</ele><time>2026-04-10T11:44:30.001Z</time></trkpt><trkpt lat="43.17580288536205" lon="12.367231652630652"><ele>441.0</ele><time>2026-04-10T11:44:32.001Z</time></trkpt><trkpt lat="43.175853990056176" lon="12.367284353668504"><ele>441.0</ele><time>2026-04-10T11:44:33.001Z</time></trkpt><trkpt lat="43.17590684718346" lon="12.367335143220103"><ele>442.6</ele><time>2026-04-10T11:44:34.001Z</time></trkpt><trkpt lat="43.176006902096994" lon="12.367439306430141"><ele>444.20000000000005</ele><time>2026-04-10T11:44:36.001Z</time></trkpt><trkpt lat="43.176110456035104" lon="12.367543027215401"><ele>445.79999999999995</ele><time>2026-04-10T11:44:38.001Z</time></trkpt><trkpt lat="43.17620024163132" lon="12.367662674702338"><ele>447.4</ele><time>2026-04-10T11:44:40.001Z</time></trkpt><trkpt lat="43.1762386776523" lon="12.367731390523815"><ele>449.0</ele><time>2026-04-10T11:44:41.001Z</time></trkpt><trkpt lat="43.17627765037288" lon="12.367806768993352"><ele>448.99999999999994</ele><time>2026-04-10T11:44:42.001Z</time></trkpt><trkpt lat="43.176338652324965" lon="12.36795156656307"><ele>449.0</ele><time>2026-04-10T11:44:44.001Z</time></trkpt><trkpt lat="43.176399580165494" lon="12.368092206871486"><ele>449.0</ele><time>2026-04-10T11:44:46.001Z</time></trkpt><trkpt lat="43.17642923498026" lon="12.368168653727308"><ele>449.0</ele><time>2026-04-10T11:44:47.001Z</time></trkpt><trkpt lat="43.17646318394866" lon="12.368247401324398"><ele>448.99999999999994</ele><time>2026-04-10T11:44:48.001Z</time></trkpt><trkpt lat="43.176499364941115" lon="12.368325100712799"><ele>449.0</ele><time>2026-04-10T11:44:49.001Z</time></trkpt><trkpt lat="43.17657490090679" lon="12.368475848430975"><ele>449.49999999999994</ele><time>2026-04-10T11:44:51.001Z</time></trkpt><trkpt lat="43.17666942234605" lon="12.36858876562004"><ele>450.0</ele><time>2026-04-10T11:44:53.001Z</time></trkpt><trkpt lat="43.176774674562914" lon="12.368683146428811"><ele>450.5</ele><time>2026-04-10T11:44:55.001Z</time></trkpt><trkpt lat="43.17683100075883" lon="12.368725962751284"><ele>451.0</ele><time>2026-04-10T11:44:56.001Z</time></trkpt><trkpt lat="43.17688610425672" lon="12.368770974310136"><ele>451.49999999999994</ele><time>2026-04-10T11:44:57.001Z</time></trkpt><trkpt lat="43.17694330268601" lon="12.368821502436251"><ele>452.0</ele><time>2026-04-10T11:44:58.001Z</time></trkpt><trkpt lat="43.17699608568571" lon="12.368870952651692"><ele>454.75</ele><time>2026-04-10T11:44:59.001Z</time></trkpt><trkpt lat="43.17709857858349" lon="12.368969903420068"><ele>457.5</ele><time>2026-04-10T11:45:01.001Z</time></trkpt><trkpt lat="43.177182761187034" lon="12.369092850370592"><ele>460.25</ele><time>2026-04-10T11:45:03.001Z</time></trkpt><trkpt lat="43.177221011701654" lon="12.36924637719142"><ele>463.0</ele><time>2026-04-10T11:45:05.001Z</time></trkpt><trkpt lat="43.17719173774076" lon="12.369408343612058"><ele>463.00000000000006</ele><time>2026-04-10T11:45:07.001Z</time></trkpt><trkpt lat="43.17717532828702" lon="12.369576808983116"><ele>463.0</ele><time>2026-04-10T11:45:09.001Z</time></trkpt><trkpt lat="43.17716123894473" lon="12.369662872480104"><ele>463.0</ele><time>2026-04-10T11:45:10.001Z</time></trkpt><trkpt lat="43.17714401580626" lon="12.369749332322804"><ele>463.0</ele><time>2026-04-10T11:45:11.001Z</time></trkpt><trkpt lat="43.1771301366563" lon="12.369835989251177"><ele>463.00000000000006</ele><time>2026-04-10T11:45:12.001Z</time></trkpt><trkpt lat="43.17711312463711" lon="12.369924179988718"><ele>463.0</ele><time>2026-04-10T11:45:13.001Z</time></trkpt><trkpt lat="43.17709688388022" lon="12.370010840033704"><ele>463.85714285714283</ele><time>2026-04-10T11:45:14.001Z</time></trkpt><trkpt lat="43.177069460695826" lon="12.37009753629837"><ele>464.71428571428567</ele><time>2026-04-10T11:45:15.001Z</time></trkpt><trkpt lat="43.1770635865807" lon="12.370183931678302"><ele>465.57142857142856</ele><time>2026-04-10T11:45:16.001Z</time></trkpt><trkpt lat="43.17705301107958" lon="12.370278350686169"><ele>466.42857142857144</ele><time>2026-04-10T11:45:17.001Z</time></trkpt><trkpt lat="43.177038062377946" lon="12.37036857534708"><ele>467.2857142857143</ele><time>2026-04-10T11:45:18.001Z</time></trkpt><trkpt lat="43.17702363222694" lon="12.370459937859044"><ele>468.1428571428571</ele><time>2026-04-10T11:45:19.001Z</time></trkpt><trkpt lat="43.17702254125685" lon="12.37055537814276"><ele>469.0</ele><time>2026-04-10T11:45:20.001Z</time></trkpt><trkpt lat="43.17703009862108" lon="12.370653967838377"><ele>469.50000000000006</ele><time>2026-04-10T11:45:21.001Z</time></trkpt><trkpt lat="43.177054841216766" lon="12.370749076847387"><ele>470.0</ele><time>2026-04-10T11:45:22.001Z</time></trkpt><trkpt lat="43.17709139868425" lon="12.370845091002733"><ele>470.5</ele><time>2026-04-10T11:45:23.001Z</time></trkpt><trkpt lat="43.177136013909674" lon="12.370926880786612"><ele>471.0</ele><time>2026-04-10T11:45:24.001Z</time></trkpt><trkpt lat="43.17719888518455" lon="12.370992075865674"><ele>471.50000000000006</ele><time>2026-04-10T11:45:25.001Z</time></trkpt><trkpt lat="43.17725481426643" lon="12.371064961168214"><ele>472.0</ele><time>2026-04-10T11:45:26.001Z</time></trkpt><trkpt lat="43.177304291647154" lon="12.371142095451418"><ele>470.83333333333337</ele><time>2026-04-10T11:45:27.001Z</time></trkpt><trkpt lat="43.1773682659019" lon="12.371213286576623"><ele>469.6666666666667</ele><time>2026-04-10T11:45:28.001Z</time></trkpt><trkpt lat="43.17742746956934" lon="12.371287238299564"><ele>468.5</ele><time>2026-04-10T11:45:29.001Z</time></trkpt><trkpt lat="43.17748869877608" lon="12.371359794951115"><ele>467.33333333333337</ele><time>2026-04-10T11:45:30.001Z</time></trkpt><trkpt lat="43.177545564223216" lon="12.371431937108555"><ele>466.1666666666667</ele><time>2026-04-10T11:45:31.001Z</time></trkpt><trkpt lat="43.177601155785375" lon="12.371500855144204"><ele>465.0</ele><time>2026-04-10T11:45:32.001Z</time></trkpt><trkpt lat="43.177663543140454" lon="12.371571797684616"><ele>465.0</ele><time>2026-04-10T11:45:33.001Z</time></trkpt><trkpt lat="43.17772308865235" lon="12.371649018201936"><ele>465.0</ele><time>2026-04-10T11:45:34.001Z</time></trkpt><trkpt lat="43.177780946464" lon="12.371722220419418"><ele>465.0</ele><time>2026-04-10T11:45:35.001Z</time></trkpt><trkpt lat="43.17783982391085" lon="12.371792676405851"><ele>465.0</ele><time>2026-04-10T11:45:36.001Z</time></trkpt><trkpt lat="43.17790082749641" lon="12.371868711952395"><ele>465.0</ele><time>2026-04-10T11:45:37.001Z</time></trkpt><trkpt lat="43.17795829482589" lon="12.371939984147406"><ele>465.0</ele><time>2026-04-10T11:45:38.001Z</time></trkpt><trkpt lat="43.17801479565389" lon="12.372008357354362"><ele>465.0</ele><time>2026-04-10T11:45:39.001Z</time></trkpt><trkpt lat="43.1780695996736" lon="12.372076078384792"><ele>465.0</ele><time>2026-04-10T11:45:40.001Z</time></trkpt><trkpt lat="43.17811936082894" lon="12.372137755787122"><ele>465.0</ele><time>2026-04-10T11:45:41.001Z</time></trkpt><trkpt lat="43.178179650385175" lon="12.372201773135782"><ele>465.0</ele><time>2026-04-10T11:45:42.001Z</time></trkpt><trkpt lat="43.178235015567836" lon="12.372261081861835"><ele>465.0</ele><time>2026-04-10T11:45:43.001Z</time></trkpt><trkpt lat="43.178309067410865" lon="12.372305120081053"><ele>465.0</ele><time>2026-04-10T11:45:44.001Z</time></trkpt><trkpt lat="43.1783649910764" lon="12.37234843960578"><ele>465.0</ele><time>2026-04-10T11:45:45.001Z</time></trkpt><trkpt lat="43.17843312516431" lon="12.372385237029865"><ele>466.0</ele><time>2026-04-10T11:45:46.001Z</time></trkpt><trkpt lat="43.178494894030564" lon="12.372427368927807"><ele>467.0</ele><time>2026-04-10T11:45:47.001Z</time></trkpt><trkpt lat="43.178556227933164" lon="12.372467628784111"><ele>468.0</ele><time>2026-04-10T11:45:48.001Z</time></trkpt><trkpt lat="43.178617282382994" lon="12.372523490566168"><ele>469.0</ele><time>2026-04-10T11:45:49.001Z</time></trkpt><trkpt lat="43.17873859219786" lon="12.372580190722305"><ele>470.0</ele><time>2026-04-10T11:45:51.001Z</time></trkpt><trkpt lat="43.17880418256566" lon="12.37260853850132"><ele>471.0</ele><time>2026-04-10T11:45:52.001Z</time></trkpt><trkpt lat="43.1788714168356" lon="12.372644225070175"><ele>471.00000000000006</ele><time>2026-04-10T11:45:53.001Z</time></trkpt><trkpt lat="43.17893076461285" lon="12.37268223143097"><ele>471.0</ele><time>2026-04-10T11:45:54.001Z</time></trkpt><trkpt lat="43.17898302431488" lon="12.372733753248736"><ele>471.00000000000006</ele><time>2026-04-10T11:45:55.001Z</time></trkpt><trkpt lat="43.17904753654333" lon="12.372773392494535"><ele>471.00000000000006</ele><time>2026-04-10T11:45:56.001Z</time></trkpt><trkpt lat="43.179113630667835" lon="12.372813896091428"><ele>471.0</ele><time>2026-04-10T11:45:57.001Z</time></trkpt><trkpt lat="43.179176881942304" lon="12.37285174179188"><ele>471.00000000000006</ele><time>2026-04-10T11:45:58.001Z</time></trkpt><trkpt lat="43.17925354468714" lon="12.372876860882688"><ele>471.00000000000006</ele><time>2026-04-10T11:45:59.001Z</time></trkpt><trkpt lat="43.179316678113835" lon="12.372926200926086"><ele>470.0</ele><time>2026-04-10T11:46:00.001Z</time></trkpt><trkpt lat="43.179388023817715" lon="12.372960888989368"><ele>469.0</ele><time>2026-04-10T11:46:01.001Z</time></trkpt><trkpt lat="43.179457972493154" lon="12.373008695582424"><ele>468.0</ele><time>2026-04-10T11:46:02.001Z</time></trkpt><trkpt lat="43.17952688189611" lon="12.373056289901303"><ele>467.0</ele><time>2026-04-10T11:46:03.001Z</time></trkpt><trkpt lat="43.179599414839636" lon="12.373113623249777"><ele>466.0</ele><time>2026-04-10T11:46:04.001Z</time></trkpt><trkpt lat="43.17966743047157" lon="12.37316309819122"><ele>465.0</ele><time>2026-04-10T11:46:05.001Z</time></trkpt><trkpt lat="43.17972868072658" lon="12.373237591275055"><ele>466.5</ele><time>2026-04-10T11:46:06.001Z</time></trkpt><trkpt lat="43.17980500592924" lon="12.373274896624709"><ele>468.0</ele><time>2026-04-10T11:46:07.001Z</time></trkpt><trkpt lat="43.179870158959496" lon="12.373332878305416"><ele>469.5</ele><time>2026-04-10T11:46:08.001Z</time></trkpt><trkpt lat="43.17992914762139" lon="12.373402948415574"><ele>471.0</ele><time>2026-04-10T11:46:09.001Z</time></trkpt><trkpt lat="43.17999514661242" lon="12.373457388281444"><ele>472.5</ele><time>2026-04-10T11:46:10.001Z</time></trkpt><trkpt lat="43.18006984356487" lon="12.373493403050146"><ele>474.0</ele><time>2026-04-10T11:46:11.001Z</time></trkpt><trkpt lat="43.180134748619345" lon="12.373553033915714"><ele>474.0</ele><time>2026-04-10T11:46:12.001Z</time></trkpt><trkpt lat="43.18020276136314" lon="12.373606661241725"><ele>474.0</ele><time>2026-04-10T11:46:13.001Z</time></trkpt><trkpt lat="43.18026820016278" lon="12.373668602202516"><ele>474.0</ele><time>2026-04-10T11:46:14.001Z</time></trkpt><trkpt lat="43.18033838526028" lon="12.37372219167895"><ele>474.0</ele><time>2026-04-10T11:46:15.001Z</time></trkpt><trkpt lat="43.180404231892425" lon="12.373778978792718"><ele>474.0</ele><time>2026-04-10T11:46:16.001Z</time></trkpt><trkpt lat="43.18047020329" lon="12.373842869951469"><ele>474.0</ele><time>2026-04-10T11:46:17.001Z</time></trkpt><trkpt lat="43.18053899496187" lon="12.37389643140262"><ele>475.5</ele><time>2026-04-10T11:46:18.001Z</time></trkpt><trkpt lat="43.18060718056573" lon="12.373954286847042"><ele>477.0</ele><time>2026-04-10T11:46:19.001Z</time></trkpt><trkpt lat="43.18067731879" lon="12.374013393082869"><ele>478.5</ele><time>2026-04-10T11:46:20.001Z</time></trkpt><trkpt lat="43.18074415214848" lon="12.374072391374229"><ele>480.0</ele><time>2026-04-10T11:46:21.001Z</time></trkpt><trkpt lat="43.18081036881229" lon="12.374131017191303"><ele>481.5</ele><time>2026-04-10T11:46:22.001Z</time></trkpt><trkpt lat="43.180878852858505" lon="12.374190571861071"><ele>483.0</ele><time>2026-04-10T11:46:23.001Z</time></trkpt><trkpt lat="43.18094177561431" lon="12.374248320523755"><ele>483.0</ele><time>2026-04-10T11:46:24.001Z</time></trkpt><trkpt lat="43.18098994037359" lon="12.374327244099769"><ele>483.0</ele><time>2026-04-10T11:46:25.001Z</time></trkpt><trkpt lat="43.18105732778309" lon="12.37438439455784"><ele>483.0</ele><time>2026-04-10T11:46:26.001Z</time></trkpt><trkpt lat="43.181105198784806" lon="12.374468199099088"><ele>483.0</ele><time>2026-04-10T11:46:27.001Z</time></trkpt><trkpt lat="43.18115219981128" lon="12.374540929777769"><ele>483.0</ele><time>2026-04-10T11:46:28.001Z</time></trkpt><trkpt lat="43.181188321774364" lon="12.374618991330394"><ele>483.0</ele><time>2026-04-10T11:46:29.001Z</time></trkpt><trkpt lat="43.181241522605966" lon="12.374705912409619"><ele>483.3333333333333</ele><time>2026-04-10T11:46:30.001Z</time></trkpt><trkpt lat="43.181287842931646" lon="12.374784380809078"><ele>483.66666666666663</ele><time>2026-04-10T11:46:31.001Z</time></trkpt><trkpt lat="43.18133763442813" lon="12.374862306256848"><ele>484.0</ele><time>2026-04-10T11:46:32.001Z</time></trkpt><trkpt lat="43.18137520518523" lon="12.374955594618879"><ele>484.3333333333333</ele><time>2026-04-10T11:46:33.001Z</time></trkpt><trkpt lat="43.18143101163678" lon="12.375025850634065"><ele>484.66666666666663</ele><time>2026-04-10T11:46:34.001Z</time></trkpt><trkpt lat="43.18147766674793" lon="12.375101226268047"><ele>485.0</ele><time>2026-04-10T11:46:35.001Z</time></trkpt><trkpt lat="43.1815281657239" lon="12.375188946178177"><ele>485.0</ele><time>2026-04-10T11:46:37.001Z</time></trkpt><trkpt lat="43.18156542106115" lon="12.375269161791687"><ele>485.0</ele><time>2026-04-10T11:46:40.001Z</time></trkpt><trkpt lat="43.18160125893974" lon="12.375346740015615"><ele>485.0</ele><time>2026-04-10T11:46:51Z</time></trkpt><trkpt lat="43.18172920859844" lon="12.375287343836517"><ele>485.0</ele><time>2026-04-10T11:46:53Z</time></trkpt><trkpt lat="43.18183901353204" lon="12.375275131808188"><ele>485.0</ele><time>2026-04-10T11:46:55Z</time></trkpt><trkpt lat="43.181945371541126" lon="12.37523101389033"><ele>485.0</ele><time>2026-04-10T11:46:57Z</time></trkpt><trkpt lat="43.18203131224225" lon="12.375205709603133"><ele>485.0</ele><time>2026-04-10T11:46:59Z</time></trkpt><trkpt lat="43.182106291482086" lon="12.375202359966929"><ele>485.0</ele><time>2026-04-10T11:47:03Z</time></trkpt><trkpt lat="43.18218643634972" lon="12.375159590701024"><ele>485.0</ele><time>2026-04-10T11:47:06Z</time></trkpt><trkpt lat="43.18226141340598" lon="12.375145041715705"><ele>485.0</ele><time>2026-04-10T11:47:11Z</time></trkpt><trkpt lat="43.18236519902638" lon="12.375385631438304"><ele>486.16666666666663</ele><time>2026-04-10T11:47:13Z</time></trkpt><trkpt lat="43.1824205449654" lon="12.375452349532324"><ele>487.3333333333333</ele><time>2026-04-10T11:47:16Z</time></trkpt><trkpt lat="43.18246836837405" lon="12.375517470224931"><ele>488.5</ele><time>2026-04-10T11:47:19Z</time></trkpt><trkpt lat="43.18251895382037" lon="12.375597992673736"><ele>489.66666666666663</ele><time>2026-04-10T11:47:22Z</time></trkpt><trkpt lat="43.18257548722771" lon="12.37570754627089"><ele>490.8333333333333</ele><time>2026-04-10T11:47:25Z</time></trkpt><trkpt lat="43.18260861268875" lon="12.375809527034402"><ele>492.0</ele><time>2026-04-10T11:47:27Z</time></trkpt><trkpt lat="43.18265343968879" lon="12.37593088747753"><ele>492.0</ele><time>2026-04-10T11:47:29Z</time></trkpt><trkpt lat="43.18272598695425" lon="12.376054956754587"><ele>492.00000000000006</ele><time>2026-04-10T11:47:31Z</time></trkpt><trkpt lat="43.182797298396615" lon="12.376170819171362"><ele>492.00000000000006</ele><time>2026-04-10T11:47:33Z</time></trkpt><trkpt lat="43.18283898528583" lon="12.376259168207607"><ele>492.0</ele><time>2026-04-10T11:47:35Z</time></trkpt><trkpt lat="43.18289024767418" lon="12.376336324963956"><ele>492.0</ele><time>2026-04-10T11:47:38Z</time></trkpt><trkpt lat="43.18293451410803" lon="12.376437198629773"><ele>492.40000000000003</ele><time>2026-04-10T11:48:24Z</time></trkpt><trkpt lat="43.18299346427245" lon="12.37651298935041"><ele>492.80000000000007</ele><time>2026-04-10T11:48:26Z</time></trkpt><trkpt lat="43.18306763866106" lon="12.376617032810993"><ele>493.2</ele><time>2026-04-10T11:48:28Z</time></trkpt><trkpt lat="43.183138267476245" lon="12.376742588580822"><ele>493.6</ele><time>2026-04-10T11:48:30Z</time></trkpt><trkpt lat="43.18321041571823" lon="12.376854297670036"><ele>494.0</ele><time>2026-04-10T11:48:32Z</time></trkpt><trkpt lat="43.18330097190909" lon="12.376943663750822"><ele>494.4</ele><time>2026-04-10T11:48:34Z</time></trkpt><trkpt lat="43.18336445370064" lon="12.377040611818417"><ele>494.79999999999995</ele><time>2026-04-10T11:48:36Z</time></trkpt><trkpt lat="43.18342712042503" lon="12.377217826977034"><ele>495.20000000000005</ele><time>2026-04-10T11:48:39Z</time></trkpt><trkpt lat="43.183505485377026" lon="12.37723489064535"><ele>495.6</ele><time>2026-04-10T11:48:44Z</time></trkpt><trkpt lat="43.183574085884466" lon="12.377240141239943"><ele>496.0</ele><time>2026-04-10T11:48:46Z</time></trkpt><trkpt lat="43.1836455383003" lon="12.377271984431324"><ele>496.0</ele><time>2026-04-10T11:48:48Z</time></trkpt><trkpt lat="43.18371547866345" lon="12.377314957439813"><ele>496.00000000000006</ele><time>2026-04-10T11:48:50Z</time></trkpt><trkpt lat="43.183763779382616" lon="12.377382189587525"><ele>496.0</ele><time>2026-04-10T11:48:52Z</time></trkpt><trkpt lat="43.18380214484211" lon="12.377453170393567"><ele>496.0</ele><time>2026-04-10T11:48:54Z</time></trkpt><trkpt lat="43.18383813475997" lon="12.377540113350985"><ele>496.00000000000006</ele><time>2026-04-10T11:48:56Z</time></trkpt><trkpt lat="43.183871862480736" lon="12.377633744636507"><ele>496.0</ele><time>2026-04-10T11:48:58Z</time></trkpt><trkpt lat="43.183910210743804" lon="12.377739079726533"><ele>496.0</ele><time>2026-04-10T11:49:00Z</time></trkpt><trkpt lat="43.18394609072464" lon="12.37785671616438"><ele>496.0</ele><time>2026-04-10T11:49:02Z</time></trkpt><trkpt lat="43.18400265687053" lon="12.377959413188224"><ele>496.0</ele><time>2026-04-10T11:49:04Z</time></trkpt><trkpt lat="43.18405168022707" lon="12.3780728373027"><ele>496.0</ele><time>2026-04-10T11:49:06Z</time></trkpt><trkpt lat="43.18410081371839" lon="12.378189684259034"><ele>496.0</ele><time>2026-04-10T11:49:08Z</time></trkpt><trkpt lat="43.18415504350485" lon="12.378313210776813"><ele>496.0</ele><time>2026-04-10T11:49:10Z</time></trkpt><trkpt lat="43.18420055991584" lon="12.378445882596635"><ele>496.33333333333337</ele><time>2026-04-10T11:49:12Z</time></trkpt><trkpt lat="43.18426074638611" lon="12.37857337467051"><ele>496.6666666666667</ele><time>2026-04-10T11:49:14Z</time></trkpt><trkpt lat="43.18432155337482" lon="12.378661182649276"><ele>497.0</ele><time>2026-04-10T11:49:16Z</time></trkpt><trkpt lat="43.18436445173051" lon="12.378757082581904"><ele>497.33333333333337</ele><time>2026-04-10T11:49:19Z</time></trkpt><trkpt lat="43.18440065808493" lon="12.378842318385617"><ele>497.6666666666667</ele><time>2026-04-10T11:49:51Z</time></trkpt><trkpt lat="43.18442844182268" lon="12.378934037920878"><ele>498.0</ele><time>2026-04-10T11:49:53Z</time></trkpt><trkpt lat="43.184477512974354" lon="12.379034030302094"><ele>498.0</ele><time>2026-04-10T11:49:55Z</time></trkpt><trkpt lat="43.184530414296205" lon="12.37914557428759"><ele>497.99999999999994</ele><time>2026-04-10T11:49:57Z</time></trkpt><trkpt lat="43.18458457599169" lon="12.379258377278735"><ele>497.99999999999994</ele><time>2026-04-10T11:49:59Z</time></trkpt><trkpt lat="43.18463995468909" lon="12.379379021773474"><ele>498.0</ele><time>2026-04-10T11:50:01Z</time></trkpt><trkpt lat="43.184703902190044" lon="12.379511355931559"><ele>498.0</ele><time>2026-04-10T11:50:03Z</time></trkpt><trkpt lat="43.18475015095673" lon="12.379576869277185"><ele>499.59999999999997</ele><time>2026-04-10T11:50:04Z</time></trkpt><trkpt lat="43.184849206473366" lon="12.379666515800716"><ele>501.19999999999993</ele><time>2026-04-10T11:50:06Z</time></trkpt><trkpt lat="43.1849640417454" lon="12.379711504687547"><ele>502.8</ele><time>2026-04-10T11:50:08Z</time></trkpt><trkpt lat="43.18506914545033" lon="12.379701865967332"><ele>504.4</ele><time>2026-04-10T11:50:10Z</time></trkpt><trkpt lat="43.18516962347145" lon="12.379688343562437"><ele>506.0</ele><time>2026-04-10T11:50:12Z</time></trkpt><trkpt lat="43.18527224431062" lon="12.379664459413217"><ele>510.4</ele><time>2026-04-10T11:50:14Z</time></trkpt><trkpt lat="43.18537622150924" lon="12.379633622526613"><ele>514.8</ele><time>2026-04-10T11:50:16Z</time></trkpt><trkpt lat="43.18548290942905" lon="12.379596675847534"><ele>519.1999999999999</ele><time>2026-04-10T11:50:18Z</time></trkpt><trkpt lat="43.185587288435315" lon="12.379550399512988"><ele>523.6</ele><time>2026-04-10T11:50:20Z</time></trkpt><trkpt lat="43.18569963868178" lon="12.379504840969428"><ele>528.0</ele><time>2026-04-10T11:50:22Z</time></trkpt><trkpt lat="43.18581730183617" lon="12.379470142887357"><ele>529.1999999999999</ele><time>2026-04-10T11:50:24Z</time></trkpt><trkpt lat="43.185923588418916" lon="12.379426604317878"><ele>530.4</ele><time>2026-04-10T11:50:26Z</time></trkpt><trkpt lat="43.18600434353589" lon="12.37938963564246"><ele>531.5999999999999</ele><time>2026-04-10T11:50:28Z</time></trkpt><trkpt lat="43.18608323981131" lon="12.379340371662842"><ele>532.8</ele><time>2026-04-10T11:50:30Z</time></trkpt><trkpt lat="43.186178739353245" lon="12.37926993075122"><ele>534.0</ele><time>2026-04-10T11:50:32Z</time></trkpt><trkpt lat="43.18627079396315" lon="12.379198933371947"><ele>534.0</ele><time>2026-04-10T11:50:34Z</time></trkpt><trkpt lat="43.186364519646666" lon="12.37912684708593"><ele>534.0</ele><time>2026-04-10T11:50:36Z</time></trkpt><trkpt lat="43.18645931559997" lon="12.379051598645606"><ele>534.0</ele><time>2026-04-10T11:50:38Z</time></trkpt><trkpt lat="43.18656684156365" lon="12.378972654565702"><ele>534.0</ele><time>2026-04-10T11:50:40Z</time></trkpt><trkpt lat="43.18662820695848" lon="12.378925445547981"><ele>534.0</ele><time>2026-04-10T11:50:41Z</time></trkpt><trkpt lat="43.186729160563566" lon="12.378842869981083"><ele>535.4</ele><time>2026-04-10T11:50:43Z</time></trkpt><trkpt lat="43.18680894255443" lon="12.378754651849436"><ele>536.8</ele><time>2026-04-10T11:50:45Z</time></trkpt><trkpt lat="43.186889850044984" lon="12.378638064495881"><ele>538.2</ele><time>2026-04-10T11:50:47Z</time></trkpt><trkpt lat="43.18694225144355" lon="12.378509600601632"><ele>539.6</ele><time>2026-04-10T11:50:49Z</time></trkpt><trkpt lat="43.18698951866019" lon="12.378397603189997"><ele>541.0</ele><time>2026-04-10T11:50:51Z</time></trkpt><trkpt lat="43.187026324480485" lon="12.37832269921708"><ele>541.0</ele><time>2026-04-10T11:50:53Z</time></trkpt><trkpt lat="43.187064086843634" lon="12.378233586360372"><ele>541.0</ele><time>2026-04-10T11:50:56Z</time></trkpt><trkpt lat="43.18709917648519" lon="12.378148904321577"><ele>541.0</ele><time>2026-04-10T11:51:09Z</time></trkpt><trkpt lat="43.187137555327595" lon="12.37806984963283"><ele>541.0</ele><time>2026-04-10T11:51:11Z</time></trkpt><trkpt lat="43.18718036972877" lon="12.377969208167409"><ele>541.0</ele><time>2026-04-10T11:51:13Z</time></trkpt><trkpt lat="43.18722311093186" lon="12.37786183416625"><ele>541.0</ele><time>2026-04-10T11:51:15Z</time></trkpt><trkpt lat="43.187251680960685" lon="12.377751326750868"><ele>543.1666666666667</ele><time>2026-04-10T11:51:17Z</time></trkpt><trkpt lat="43.18727241124622" lon="12.377645034945918"><ele>545.3333333333334</ele><time>2026-04-10T11:51:19Z</time></trkpt><trkpt lat="43.18728958885533" lon="12.377545704334254"><ele>547.5</ele><time>2026-04-10T11:51:21Z</time></trkpt><trkpt lat="43.18730331318774" lon="12.37745810496851"><ele>549.6666666666666</ele><time>2026-04-10T11:51:23Z</time></trkpt><trkpt lat="43.18729631288964" lon="12.377344828074131"><ele>551.8333333333333</ele><time>2026-04-10T11:51:25Z</time></trkpt><trkpt lat="43.18730499246787" lon="12.37720840371174"><ele>554.0</ele><time>2026-04-10T11:51:27Z</time></trkpt><trkpt lat="43.18730034636261" lon="12.377035652435454"><ele>554.3333333333333</ele><time>2026-04-10T11:51:29Z</time></trkpt><trkpt lat="43.187297910824235" lon="12.376945094523926"><ele>554.6666666666666</ele><time>2026-04-10T11:51:30Z</time></trkpt><trkpt lat="43.18729559865308" lon="12.376843648424977"><ele>555.0</ele><time>2026-04-10T11:51:31Z</time></trkpt><trkpt lat="43.18729480249064" lon="12.376731468594834"><ele>555.3333333333334</ele><time>2026-04-10T11:51:32Z</time></trkpt><trkpt lat="43.18729547475804" lon="12.376628315896625"><ele>555.6666666666667</ele><time>2026-04-10T11:51:33Z</time></trkpt><trkpt lat="43.18729628799022" lon="12.376520359480331"><ele>556.0</ele><time>2026-04-10T11:51:34Z</time></trkpt><trkpt lat="43.187296750834385" lon="12.376410431998911"><ele>555.6666666666667</ele><time>2026-04-10T11:51:35Z</time></trkpt><trkpt lat="43.18729675083494" lon="12.376305351496883"><ele>555.3333333333334</ele><time>2026-04-10T11:51:36Z</time></trkpt><trkpt lat="43.187296479662045" lon="12.376193800831121"><ele>555.0</ele><time>2026-04-10T11:51:37Z</time></trkpt><trkpt lat="43.1872786677562" lon="12.376082684314843"><ele>554.6666666666666</ele><time>2026-04-10T11:51:38Z</time></trkpt><trkpt lat="43.18728166380632" lon="12.375962657904562"><ele>554.3333333333333</ele><time>2026-04-10T11:51:39Z</time></trkpt><trkpt lat="43.187283707837445" lon="12.375839149595294"><ele>554.0</ele><time>2026-04-10T11:51:40Z</time></trkpt><trkpt lat="43.18728074790192" lon="12.37571514319726"><ele>554.0</ele><time>2026-04-10T11:51:41Z</time></trkpt><trkpt lat="43.187276958541695" lon="12.375594670352422"><ele>554.0</ele><time>2026-04-10T11:51:42Z</time></trkpt><trkpt lat="43.187271129342854" lon="12.375475842794277"><ele>554.0</ele><time>2026-04-10T11:51:43Z</time></trkpt><trkpt lat="43.1872643461544" lon="12.375365488033681"><ele>554.0</ele><time>2026-04-10T11:51:44Z</time></trkpt><trkpt lat="43.18725639175255" lon="12.375258497626323"><ele>554.0</ele><time>2026-04-10T11:51:45Z</time></trkpt><trkpt lat="43.18726558722917" lon="12.375105327875632"><ele>554.0</ele><time>2026-04-10T11:51:47Z</time></trkpt><trkpt lat="43.187330234196274" lon="12.375044669725902"><ele>550.0</ele><time>2026-04-10T11:51:49Z</time></trkpt><trkpt lat="43.187424047872156" lon="12.375029073836576"><ele>546.0</ele><time>2026-04-10T11:51:51Z</time></trkpt><trkpt lat="43.18748426478859" lon="12.375073852878959"><ele>542.0</ele><time>2026-04-10T11:51:52Z</time></trkpt><trkpt lat="43.18756400951755" lon="12.375189753391806"><ele>538.0</ele><time>2026-04-10T11:51:54Z</time></trkpt><trkpt lat="43.187659163225646" lon="12.375310339115362"><ele>534.0</ele><time>2026-04-10T11:51:56Z</time></trkpt><trkpt lat="43.187709869031245" lon="12.375375267855388"><ele>534.0000000000001</ele><time>2026-04-10T11:51:57Z</time></trkpt><trkpt lat="43.18775629693807" lon="12.375443475702417"><ele>534.0</ele><time>2026-04-10T11:51:58Z</time></trkpt><trkpt lat="43.18781117075881" lon="12.37550968778634"><ele>534.0</ele><time>2026-04-10T11:51:59Z</time></trkpt><trkpt lat="43.18786073357185" lon="12.375583923991947"><ele>534.0</ele><time>2026-04-10T11:52:00Z</time></trkpt><trkpt lat="43.1879078652778" lon="12.375656085966275"><ele>534.0</ele><time>2026-04-10T11:52:01Z</time></trkpt><trkpt lat="43.18795961202406" lon="12.375740362259835"><ele>534.0000000000001</ele><time>2026-04-10T11:52:02Z</time></trkpt><trkpt lat="43.18800293379132" lon="12.375823455244925"><ele>534.0</ele><time>2026-04-10T11:52:03Z</time></trkpt><trkpt lat="43.18804563513386" lon="12.375910436687827"><ele>534.3333333333334</ele><time>2026-04-10T11:52:04Z</time></trkpt><trkpt lat="43.18808525505481" lon="12.376000109308935"><ele>534.6666666666666</ele><time>2026-04-10T11:52:05Z</time></trkpt><trkpt lat="43.18811937433388" lon="12.376092170020643"><ele>535.0</ele><time>2026-04-10T11:52:06Z</time></trkpt><trkpt lat="43.18813247523196" lon="12.376196183114143"><ele>535.3333333333333</ele><time>2026-04-10T11:52:07Z</time></trkpt><trkpt lat="43.18818075505242" lon="12.376276127045893"><ele>535.6666666666666</ele><time>2026-04-10T11:52:08Z</time></trkpt><trkpt lat="43.188216743922624" lon="12.376362062930541"><ele>536.0</ele><time>2026-04-10T11:52:09Z</time></trkpt><trkpt lat="43.188262660595505" lon="12.376446836039104"><ele>533.5</ele><time>2026-04-10T11:52:10Z</time></trkpt><trkpt lat="43.18831084483904" lon="12.376519604998258"><ele>531.0</ele><time>2026-04-10T11:52:11Z</time></trkpt><trkpt lat="43.188346330367445" lon="12.376614164299845"><ele>528.5</ele><time>2026-04-10T11:52:12Z</time></trkpt><trkpt lat="43.18839511401502" lon="12.376693413130534"><ele>526.0</ele><time>2026-04-10T11:52:13Z</time></trkpt><trkpt lat="43.1884609870471" lon="12.376761844808561"><ele>523.5</ele><time>2026-04-10T11:52:14Z</time></trkpt><trkpt lat="43.18850436486886" lon="12.37684630601069"><ele>521.0</ele><time>2026-04-10T11:52:15Z</time></trkpt><trkpt lat="43.18856091873973" lon="12.376922744884876"><ele>521.0</ele><time>2026-04-10T11:52:16Z</time></trkpt><trkpt lat="43.18861110283344" lon="12.37699277218477"><ele>521.0</ele><time>2026-04-10T11:52:17Z</time></trkpt><trkpt lat="43.188671264064574" lon="12.377065707906498"><ele>521.0</ele><time>2026-04-10T11:52:18Z</time></trkpt><trkpt lat="43.188715558789276" lon="12.37714937063051"><ele>521.0</ele><time>2026-04-10T11:52:19Z</time></trkpt><trkpt lat="43.18877650512867" lon="12.377208889937013"><ele>521.0</ele><time>2026-04-10T11:52:20Z</time></trkpt><trkpt lat="43.18882756492551" lon="12.377272764989874"><ele>521.0</ele><time>2026-04-10T11:52:21Z</time></trkpt><trkpt lat="43.18887598662285" lon="12.377341889006498"><ele>521.0</ele><time>2026-04-10T11:52:22Z</time></trkpt><trkpt lat="43.18896593246095" lon="12.377423286095176"><ele>519.8</ele><time>2026-04-10T11:52:24Z</time></trkpt><trkpt lat="43.18904349582312" lon="12.377427391001222"><ele>518.6</ele><time>2026-04-10T11:52:26Z</time></trkpt><trkpt lat="43.18911395179646" lon="12.377368775002662"><ele>517.4</ele><time>2026-04-10T11:52:28Z</time></trkpt><trkpt lat="43.18918826036769" lon="12.37730059894484"><ele>516.2</ele><time>2026-04-10T11:52:30Z</time></trkpt><trkpt lat="43.1892690156887" lon="12.377213175996548"><ele>515.0</ele><time>2026-04-10T11:52:32Z</time></trkpt><trkpt lat="43.18935432468043" lon="12.377122015109327"><ele>521.5</ele><time>2026-04-10T11:52:34Z</time></trkpt><trkpt lat="43.18945099794467" lon="12.377026441973902"><ele>528.0</ele><time>2026-04-10T11:52:36Z</time></trkpt><trkpt lat="43.18955108195752" lon="12.376931396141334"><ele>534.5</ele><time>2026-04-10T11:52:38Z</time></trkpt><trkpt lat="43.18965608964438" lon="12.37684908387655"><ele>541.0</ele><time>2026-04-10T11:52:40Z</time></trkpt><trkpt lat="43.189756588158865" lon="12.376755932920426"><ele>540.0</ele><time>2026-04-10T11:52:42Z</time></trkpt><trkpt lat="43.18985762622633" lon="12.376694638049354"><ele>539.0</ele><time>2026-04-10T11:52:44Z</time></trkpt><trkpt lat="43.18997171378858" lon="12.37664210402469"><ele>538.0</ele><time>2026-04-10T11:52:46Z</time></trkpt><trkpt lat="43.190031970279506" lon="12.376611145813838"><ele>537.0</ele><time>2026-04-10T11:52:47Z</time></trkpt><trkpt lat="43.190094506984636" lon="12.376578381942155"><ele>536.0</ele><time>2026-04-10T11:52:48Z</time></trkpt><trkpt lat="43.19015455776016" lon="12.376550985629622"><ele>535.0</ele><time>2026-04-10T11:52:49Z</time></trkpt><trkpt lat="43.190218175983986" lon="12.376514191349173"><ele>535.0</ele><time>2026-04-10T11:52:50Z</time></trkpt><trkpt lat="43.190280939408694" lon="12.376471808239378"><ele>535.0</ele><time>2026-04-10T11:52:51Z</time></trkpt><trkpt lat="43.19033892250388" lon="12.376433455695297"><ele>535.0</ele><time>2026-04-10T11:52:52Z</time></trkpt><trkpt lat="43.19039468415114" lon="12.37638785820091"><ele>535.0</ele><time>2026-04-10T11:52:53Z</time></trkpt><trkpt lat="43.190452356160556" lon="12.376338290345283"><ele>535.0</ele><time>2026-04-10T11:52:54Z</time></trkpt><trkpt lat="43.19050973872227" lon="12.376290118679588"><ele>535.0</ele><time>2026-04-10T11:52:55Z</time></trkpt><trkpt lat="43.190566302049675" lon="12.376239671408825"><ele>535.0</ele><time>2026-04-10T11:52:56Z</time></trkpt><trkpt lat="43.19062299829067" lon="12.376188782435964"><ele>537.3333333333334</ele><time>2026-04-10T11:52:57Z</time></trkpt><trkpt lat="43.19068218527664" lon="12.376138654190681"><ele>539.6666666666667</ele><time>2026-04-10T11:52:58Z</time></trkpt><trkpt lat="43.19074244154194" lon="12.376082060006391"><ele>542.0</ele><time>2026-04-10T11:52:59Z</time></trkpt><trkpt lat="43.19080393297912" lon="12.376030478465019"><ele>544.3333333333334</ele><time>2026-04-10T11:53:00Z</time></trkpt><trkpt lat="43.19087111238813" lon="12.375976253986163"><ele>546.6666666666666</ele><time>2026-04-10T11:53:01Z</time></trkpt><trkpt lat="43.190942382789984" lon="12.375930214714092"><ele>549.0</ele><time>2026-04-10T11:53:02Z</time></trkpt><trkpt lat="43.19101805675772" lon="12.375886494669876"><ele>549.0</ele><time>2026-04-10T11:53:03Z</time></trkpt><trkpt lat="43.1910954290142" lon="12.37583822002125"><ele>549.0</ele><time>2026-04-10T11:53:04Z</time></trkpt><trkpt lat="43.1911698940935" lon="12.37577633497734"><ele>549.0</ele><time>2026-04-10T11:53:05Z</time></trkpt><trkpt lat="43.19123972997903" lon="12.375702387265148"><ele>549.0</ele><time>2026-04-10T11:53:06Z</time></trkpt><trkpt lat="43.19130460888365" lon="12.3756302735837"><ele>549.0</ele><time>2026-04-10T11:53:07Z</time></trkpt><trkpt lat="43.191370266427846" lon="12.375559262752036"><ele>549.0</ele><time>2026-04-10T11:53:08Z</time></trkpt><trkpt lat="43.19143728990627" lon="12.37548793846271"><ele>549.8333333333334</ele><time>2026-04-10T11:53:09Z</time></trkpt><trkpt lat="43.1915100564241" lon="12.375425191942918"><ele>550.6666666666666</ele><time>2026-04-10T11:53:10Z</time></trkpt><trkpt lat="43.1915873813623" lon="12.375365059828368"><ele>551.5</ele><time>2026-04-10T11:53:11Z</time></trkpt><trkpt lat="43.19166287444345" lon="12.375308655744346"><ele>552.3333333333333</ele><time>2026-04-10T11:53:12Z</time></trkpt><trkpt lat="43.19174120708725" lon="12.375249114053256"><ele>553.1666666666666</ele><time>2026-04-10T11:53:13Z</time></trkpt><trkpt lat="43.19181323825295" lon="12.37518392703579"><ele>554.0</ele><time>2026-04-10T11:53:14Z</time></trkpt><trkpt lat="43.1918914354176" lon="12.37511173566838"><ele>554.0</ele><time>2026-04-10T11:53:15Z</time></trkpt><trkpt lat="43.191979083568484" lon="12.37507502578744"><ele>554.0</ele><time>2026-04-10T11:53:16Z</time></trkpt><trkpt lat="43.19205549764779" lon="12.375001037971693"><ele>554.0</ele><time>2026-04-10T11:53:17Z</time></trkpt><trkpt lat="43.19214192342415" lon="12.374950302326468"><ele>554.0</ele><time>2026-04-10T11:53:18Z</time></trkpt><trkpt lat="43.19222919496378" lon="12.374897024986073"><ele>554.0</ele><time>2026-04-10T11:53:19Z</time></trkpt><trkpt lat="43.19230826748325" lon="12.37484625110705"><ele>550.1666666666666</ele><time>2026-04-10T11:53:20Z</time></trkpt><trkpt lat="43.19237940819289" lon="12.374800833643263"><ele>546.3333333333333</ele><time>2026-04-10T11:53:21Z</time></trkpt><trkpt lat="43.19245318931291" lon="12.374784444094274"><ele>542.5</ele><time>2026-04-10T11:53:22Z</time></trkpt><trkpt lat="43.19251818952585" lon="12.37476328733196"><ele>538.6666666666666</ele><time>2026-04-10T11:53:23Z</time></trkpt><trkpt lat="43.192584194029614" lon="12.37475845873558"><ele>534.8333333333334</ele><time>2026-04-10T11:53:24Z</time></trkpt><trkpt lat="43.192659497200445" lon="12.37474001465789"><ele>531.0</ele><time>2026-04-10T11:53:25Z</time></trkpt><trkpt lat="43.19273716478262" lon="12.374808962069416"><ele>531.0</ele><time>2026-04-10T11:53:26Z</time></trkpt><trkpt lat="43.1928311637372" lon="12.374824482823742"><ele>531.0</ele><time>2026-04-10T11:53:27Z</time></trkpt><trkpt lat="43.192919527113176" lon="12.374888057125542"><ele>531.0</ele><time>2026-04-10T11:53:28Z</time></trkpt><trkpt lat="43.19300596903666" lon="12.374960698731936"><ele>531.0</ele><time>2026-04-10T11:53:29Z</time></trkpt><trkpt lat="43.19307089460835" lon="12.37503964526977"><ele>531.0</ele><time>2026-04-10T11:53:30Z</time></trkpt><trkpt lat="43.19311405402577" lon="12.375154436726458"><ele>532.0</ele><time>2026-04-10T11:53:31Z</time></trkpt><trkpt lat="43.193176090534614" lon="12.375235785895056"><ele>533.0</ele><time>2026-04-10T11:53:32Z</time></trkpt><trkpt lat="43.19324292215774" lon="12.37530064133326"><ele>534.0</ele><time>2026-04-10T11:53:33Z</time></trkpt><trkpt lat="43.19329803423926" lon="12.375369774052142"><ele>535.0</ele><time>2026-04-10T11:53:34Z</time></trkpt><trkpt lat="43.193348084804626" lon="12.375424986888136"><ele>536.0</ele><time>2026-04-10T11:53:35Z</time></trkpt><trkpt lat="43.193399420782676" lon="12.375490547408658"><ele>537.0</ele><time>2026-04-10T11:53:36Z</time></trkpt><trkpt lat="43.193484196220076" lon="12.375578819327618"><ele>534.8333333333334</ele><time>2026-04-10T11:53:38Z</time></trkpt><trkpt lat="43.19355405285316" lon="12.375636818174412"><ele>532.6666666666666</ele><time>2026-04-10T11:53:40Z</time></trkpt><trkpt lat="43.19364358238565" lon="12.375737946349863"><ele>530.5</ele><time>2026-04-10T11:53:42Z</time></trkpt><trkpt lat="43.19371275494157" lon="12.375789252783482"><ele>528.3333333333333</ele><time>2026-04-10T11:53:43Z</time></trkpt><trkpt lat="43.19378244991402" lon="12.375820597798219"><ele>526.1666666666666</ele><time>2026-04-10T11:53:44Z</time></trkpt><trkpt lat="43.19387829795152" lon="12.375839052151965"><ele>524.0</ele><time>2026-04-10T11:53:45Z</time></trkpt><trkpt lat="43.193976734885716" lon="12.375866351443387"><ele>526.2</ele><time>2026-04-10T11:53:46Z</time></trkpt><trkpt lat="43.194070152058046" lon="12.37590409729193"><ele>528.4</ele><time>2026-04-10T11:53:47Z</time></trkpt><trkpt lat="43.19416530865104" lon="12.375948631934714"><ele>530.6</ele><time>2026-04-10T11:53:48Z</time></trkpt><trkpt lat="43.19425822391116" lon="12.37599637435463"><ele>532.8</ele><time>2026-04-10T11:53:49Z</time></trkpt><trkpt lat="43.194332541149464" lon="12.376077635506189"><ele>535.0</ele><time>2026-04-10T11:53:50Z</time></trkpt><trkpt lat="43.194401073423336" lon="12.376149330520255"><ele>535.0</ele><time>2026-04-10T11:53:51Z</time></trkpt><trkpt lat="43.19447327365608" lon="12.376226646603742"><ele>535.0</ele><time>2026-04-10T11:53:52Z</time></trkpt><trkpt lat="43.194547163161346" lon="12.376306837867459"><ele>535.0</ele><time>2026-04-10T11:53:53Z</time></trkpt><trkpt lat="43.19461817256338" lon="12.376375758444373"><ele>535.0</ele><time>2026-04-10T11:53:54Z</time></trkpt><trkpt lat="43.194689397199944" lon="12.376444993277577"><ele>535.0</ele><time>2026-04-10T11:53:55Z</time></trkpt><trkpt lat="43.19474615881454" lon="12.376529034746314"><ele>535.0</ele><time>2026-04-10T11:53:56Z</time></trkpt><trkpt lat="43.19480266108781" lon="12.37663995750165"><ele>534.8333333333334</ele><time>2026-04-10T11:53:58Z</time></trkpt><trkpt lat="43.19483907817287" lon="12.376764753968788"><ele>534.6666666666667</ele><time>2026-04-10T11:54:00Z</time></trkpt><trkpt lat="43.19490744697475" lon="12.376913314769192"><ele>534.5</ele><time>2026-04-10T11:54:02Z</time></trkpt><trkpt lat="43.194945343208765" lon="12.37699032156561"><ele>534.3333333333334</ele><time>2026-04-10T11:54:03Z</time></trkpt><trkpt lat="43.194991432683686" lon="12.37706042228649"><ele>534.1666666666666</ele><time>2026-04-10T11:54:04Z</time></trkpt><trkpt lat="43.195038448377716" lon="12.377120078189137"><ele>534.0</ele><time>2026-04-10T11:54:05Z</time></trkpt><trkpt lat="43.195090650747716" lon="12.377174021468852"><ele>530.3333333333334</ele><time>2026-04-10T11:54:06Z</time></trkpt><trkpt lat="43.19515327815794" lon="12.377226982150288"><ele>526.6666666666666</ele><time>2026-04-10T11:54:07Z</time></trkpt><trkpt lat="43.19520063614775" lon="12.377311452321937"><ele>523.0</ele><time>2026-04-10T11:54:08Z</time></trkpt><trkpt lat="43.19526739117946" lon="12.377363547034532"><ele>519.3333333333333</ele><time>2026-04-10T11:54:09Z</time></trkpt><trkpt lat="43.19531246840609" lon="12.37742466066544"><ele>515.6666666666666</ele><time>2026-04-10T11:54:10Z</time></trkpt><trkpt lat="43.1953988280135" lon="12.377529958560554"><ele>512.0</ele><time>2026-04-10T11:54:12Z</time></trkpt><trkpt lat="43.19549662513804" lon="12.377587386925034"><ele>511.99999999999994</ele><time>2026-04-10T11:54:14Z</time></trkpt><trkpt lat="43.195563012096656" lon="12.377599949534279"><ele>512.0</ele><time>2026-04-10T11:54:15Z</time></trkpt><trkpt lat="43.195629201495336" lon="12.377595736642082"><ele>512.0</ele><time>2026-04-10T11:54:16Z</time></trkpt><trkpt lat="43.195698270484904" lon="12.377573113773627"><ele>512.0</ele><time>2026-04-10T11:54:17Z</time></trkpt><trkpt lat="43.19575858869174" lon="12.37753917197625"><ele>511.99999999999994</ele><time>2026-04-10T11:54:18Z</time></trkpt><trkpt lat="43.195837778034274" lon="12.377439183847551"><ele>512.0</ele><time>2026-04-10T11:54:20Z</time></trkpt><trkpt lat="43.19586124170975" lon="12.377301411728665"><ele>513.2</ele><time>2026-04-10T11:54:22Z</time></trkpt><trkpt lat="43.195893128529804" lon="12.377169768408681"><ele>514.4000000000001</ele><time>2026-04-10T11:54:24Z</time></trkpt><trkpt lat="43.19594662210189" lon="12.377067321108536"><ele>515.5999999999999</ele><time>2026-04-10T11:54:26Z</time></trkpt><trkpt lat="43.19602347257693" lon="12.37710108243357"><ele>516.8</ele><time>2026-04-10T11:54:28Z</time></trkpt><trkpt lat="43.19609400860062" lon="12.377199044341797"><ele>518.0</ele><time>2026-04-10T11:54:30Z</time></trkpt><trkpt lat="43.19618806082435" lon="12.377325589534575"><ele>518.0</ele><time>2026-04-10T11:54:32Z</time></trkpt><trkpt lat="43.19625054797723" lon="12.377405648135031"><ele>518.0</ele><time>2026-04-10T11:54:33Z</time></trkpt><trkpt lat="43.196305978218774" lon="12.37749608995719"><ele>518.0</ele><time>2026-04-10T11:54:34Z</time></trkpt><trkpt lat="43.19634914367916" lon="12.377600147856466"><ele>518.0</ele><time>2026-04-10T11:54:35Z</time></trkpt><trkpt lat="43.19641227798782" lon="12.377688587814294"><ele>518.0</ele><time>2026-04-10T11:54:36Z</time></trkpt><trkpt lat="43.196479002444164" lon="12.377756558704327"><ele>518.0</ele><time>2026-04-10T11:54:37Z</time></trkpt><trkpt lat="43.196530106845785" lon="12.3778289000085"><ele>519.6</ele><time>2026-04-10T11:54:38Z</time></trkpt><trkpt lat="43.19663723364326" lon="12.37789683712727"><ele>521.1999999999999</ele><time>2026-04-10T11:54:40Z</time></trkpt><trkpt lat="43.1967009739524" lon="12.377893301010598"><ele>522.8</ele><time>2026-04-10T11:54:41Z</time></trkpt><trkpt lat="43.196765543085206" lon="12.377897539027355"><ele>524.4</ele><time>2026-04-10T11:54:42Z</time></trkpt><trkpt lat="43.196852799579325" lon="12.37794670449294"><ele>526.0</ele><time>2026-04-10T11:54:44Z</time></trkpt><trkpt lat="43.19693631466224" lon="12.378043409050248"><ele>523.1428571428571</ele><time>2026-04-10T11:54:46Z</time></trkpt><trkpt lat="43.19697788972418" lon="12.37813360562779"><ele>520.2857142857142</ele><time>2026-04-10T11:54:47Z</time></trkpt><trkpt lat="43.197022374505806" lon="12.378209048123999"><ele>517.4285714285714</ele><time>2026-04-10T11:54:48Z</time></trkpt><trkpt lat="43.197077765470404" lon="12.378251574153856"><ele>514.5714285714286</ele><time>2026-04-10T11:54:49Z</time></trkpt><trkpt lat="43.19713938385981" lon="12.378277584268321"><ele>511.7142857142857</ele><time>2026-04-10T11:54:50Z</time></trkpt><trkpt lat="43.197213497629356" lon="12.378292520649842"><ele>508.8571428571429</ele><time>2026-04-10T11:54:51Z</time></trkpt><trkpt lat="43.19728945945501" lon="12.378298258603541"><ele>506.00000000000006</ele><time>2026-04-10T11:54:52Z</time></trkpt><trkpt lat="43.197365950512655" lon="12.37830521114903"><ele>506.0</ele><time>2026-04-10T11:54:53Z</time></trkpt><trkpt lat="43.19750185471109" lon="12.378316148581767"><ele>506.0</ele><time>2026-04-10T11:54:55Z</time></trkpt><trkpt lat="43.19757004856599" lon="12.378334993103243"><ele>506.0</ele><time>2026-04-10T11:54:56Z</time></trkpt><trkpt lat="43.19763938884013" lon="12.378337055714749"><ele>506.0</ele><time>2026-04-10T11:54:57Z</time></trkpt><trkpt lat="43.19771823160093" lon="12.378353057443395"><ele>506.0</ele><time>2026-04-10T11:54:58Z</time></trkpt><trkpt lat="43.197830459029284" lon="12.378359352423296"><ele>506.0</ele><time>2026-04-10T11:55:00Z</time></trkpt><trkpt lat="43.19790981749849" lon="12.378325833007453"><ele>506.0</ele><time>2026-04-10T11:55:02Z</time></trkpt><trkpt lat="43.19798736265755" lon="12.378264724658326"><ele>506.0</ele><time>2026-04-10T11:55:04Z</time></trkpt><trkpt lat="43.19806781399187" lon="12.378145922931457"><ele>506.0</ele><time>2026-04-10T11:55:06Z</time></trkpt><trkpt lat="43.19810088174422" lon="12.378068785542151"><ele>506.0</ele><time>2026-04-10T11:55:07Z</time></trkpt><trkpt lat="43.198137573161546" lon="12.377934368938757"><ele>507.8333333333333</ele><time>2026-04-10T11:55:09Z</time></trkpt><trkpt lat="43.19816548880181" lon="12.377856750128307"><ele>509.66666666666663</ele><time>2026-04-10T11:55:11Z</time></trkpt><trkpt lat="43.19818282619049" lon="12.377747310099727"><ele>511.5</ele><time>2026-04-10T11:55:15Z</time></trkpt><trkpt lat="43.19819792646916" lon="12.377659909202581"><ele>513.3333333333334</ele><time>2026-04-10T11:55:22Z</time></trkpt><trkpt lat="43.19819057972498" lon="12.377540432302876"><ele>515.1666666666667</ele><time>2026-04-10T11:55:27Z</time></trkpt><trkpt lat="43.19818041213732" lon="12.377440771770813"><ele>517.0</ele><time>2026-04-10T11:55:29Z</time></trkpt><trkpt lat="43.19816703587827" lon="12.377312946555886"><ele>517.0</ele><time>2026-04-10T11:55:31Z</time></trkpt><trkpt lat="43.19816465089338" lon="12.377193110666168"><ele>517.0</ele><time>2026-04-10T11:55:33Z</time></trkpt><trkpt lat="43.19816902012925" lon="12.377025925599487"><ele>517.0</ele><time>2026-04-10T11:55:35Z</time></trkpt><trkpt lat="43.19818002349388" lon="12.376932798820663"><ele>517.0</ele><time>2026-04-10T11:55:36Z</time></trkpt><trkpt lat="43.19818327841225" lon="12.376813933026037"><ele>517.0</ele><time>2026-04-10T11:55:37Z</time></trkpt><trkpt lat="43.19821010339841" lon="12.37670393922541"><ele>517.0</ele><time>2026-04-10T11:55:38Z</time></trkpt><trkpt lat="43.19823908634685" lon="12.376595532040524"><ele>514.3333333333334</ele><time>2026-04-10T11:55:39Z</time></trkpt><trkpt lat="43.19826816947951" lon="12.37650333734677"><ele>511.6666666666667</ele><time>2026-04-10T11:55:40Z</time></trkpt><trkpt lat="43.198295130786875" lon="12.376407518708868"><ele>509.0</ele><time>2026-04-10T11:55:41Z</time></trkpt><trkpt lat="43.19833514272862" lon="12.376233864803417"><ele>506.33333333333337</ele><time>2026-04-10T11:55:43Z</time></trkpt><trkpt lat="43.19835581352857" lon="12.376146737574855"><ele>503.6666666666667</ele><time>2026-04-10T11:55:44Z</time></trkpt><trkpt lat="43.198392327971234" lon="12.376062945311752"><ele>501.0</ele><time>2026-04-10T11:55:45Z</time></trkpt><trkpt lat="43.1984184319207" lon="12.375977217274539"><ele>501.0</ele><time>2026-04-10T11:55:46Z</time></trkpt><trkpt lat="43.198447006127346" lon="12.375895510206076"><ele>501.0</ele><time>2026-04-10T11:55:47Z</time></trkpt><trkpt lat="43.198506711218265" lon="12.375753772162701"><ele>501.0</ele><time>2026-04-10T11:55:49Z</time></trkpt><trkpt lat="43.19854958615611" lon="12.37563128490433"><ele>501.0</ele><time>2026-04-10T11:55:51Z</time></trkpt><trkpt lat="43.19859810356159" lon="12.37555347100498"><ele>501.0</ele><time>2026-04-10T11:55:53Z</time></trkpt><trkpt lat="43.198554419417825" lon="12.375439805815285"><ele>501.57142857142856</ele><time>2026-04-10T11:55:55Z</time></trkpt><trkpt lat="43.19850017898741" lon="12.375384982949381"><ele>502.1428571428571</ele><time>2026-04-10T11:55:57Z</time></trkpt><trkpt lat="43.198456817416016" lon="12.375289758568925"><ele>502.71428571428567</ele><time>2026-04-10T11:56:01Z</time></trkpt><trkpt lat="43.19846699042188" lon="12.375203145772886"><ele>503.2857142857143</ele><time>2026-04-10T11:56:03Z</time></trkpt><trkpt lat="43.19851634790377" lon="12.375128643979926"><ele>503.8571428571428</ele><time>2026-04-10T11:56:06Z</time></trkpt><trkpt lat="43.19856412412485" lon="12.375034064163076"><ele>504.4285714285714</ele><time>2026-04-10T11:56:08Z</time></trkpt><trkpt lat="43.198614518905" lon="12.37495575919849"><ele>505.0</ele><time>2026-04-10T11:56:10Z</time></trkpt><trkpt lat="43.198693019645034" lon="12.374893547635084"><ele>505.00000000000006</ele><time>2026-04-10T11:56:12Z</time></trkpt><trkpt lat="43.19875727984195" lon="12.374847669153537"><ele>505.0</ele><time>2026-04-10T11:56:14Z</time></trkpt><trkpt lat="43.19880709122328" lon="12.374787502722542"><ele>505.0</ele><time>2026-04-10T11:56:16Z</time></trkpt><trkpt lat="43.19887386841007" lon="12.37475750157828"><ele>505.0</ele><time>2026-04-10T11:56:18Z</time></trkpt><trkpt lat="43.19893464365328" lon="12.374674806833019"><ele>505.00000000000006</ele><time>2026-04-10T11:56:20Z</time></trkpt><trkpt lat="43.19899127550083" lon="12.37458435369136"><ele>505.0</ele><time>2026-04-10T11:56:22Z</time></trkpt><trkpt lat="43.19903988595299" lon="12.374473462733919"><ele>501.4</ele><time>2026-04-10T11:56:24Z</time></trkpt><trkpt lat="43.19908897723956" lon="12.37435555584851"><ele>497.8</ele><time>2026-04-10T11:56:26Z</time></trkpt><trkpt lat="43.19913979287588" lon="12.374237280475239"><ele>494.20000000000005</ele><time>2026-04-10T11:56:28Z</time></trkpt><trkpt lat="43.19919269659064" lon="12.374104291171989"><ele>490.6</ele><time>2026-04-10T11:56:30Z</time></trkpt><trkpt lat="43.199251497837686" lon="12.373988221697184"><ele>487.0</ele><time>2026-04-10T11:56:32Z</time></trkpt><trkpt lat="43.19932402817523" lon="12.373863707944915"><ele>489.40000000000003</ele><time>2026-04-10T11:56:34Z</time></trkpt><trkpt lat="43.199391009926615" lon="12.373738536403708"><ele>491.80000000000007</ele><time>2026-04-10T11:56:36Z</time></trkpt><trkpt lat="43.199446813121334" lon="12.373603148660916"><ele>494.2</ele><time>2026-04-10T11:56:38Z</time></trkpt><trkpt lat="43.19949319653009" lon="12.37346938754091"><ele>496.6</ele><time>2026-04-10T11:56:40Z</time></trkpt><trkpt lat="43.19953111869274" lon="12.37333624925743"><ele>499.0</ele><time>2026-04-10T11:56:42Z</time></trkpt><trkpt lat="43.1995418775397" lon="12.373250701319305"><ele>499.0</ele><time>2026-04-10T11:56:43Z</time></trkpt><trkpt lat="43.19956638333613" lon="12.37309705826614"><ele>499.0</ele><time>2026-04-10T11:56:45Z</time></trkpt><trkpt lat="43.199628723653056" lon="12.37296068015677"><ele>499.0</ele><time>2026-04-10T11:56:47Z</time></trkpt><trkpt lat="43.199691407678806" lon="12.3728141829669"><ele>499.0</ele><time>2026-04-10T11:56:49Z</time></trkpt><trkpt lat="43.199726895313404" lon="12.372741761489918"><ele>499.0</ele><time>2026-04-10T11:56:50Z</time></trkpt><trkpt lat="43.19980480209281" lon="12.372650096018168"><ele>499.1666666666667</ele><time>2026-04-10T11:56:52Z</time></trkpt><trkpt lat="43.19985741258806" lon="12.372599748889082"><ele>499.33333333333337</ele><time>2026-04-10T11:56:53Z</time></trkpt><trkpt lat="43.199957632978055" lon="12.372499478771237"><ele>499.5</ele><time>2026-04-10T11:56:55Z</time></trkpt><trkpt lat="43.200013962642956" lon="12.372456671894104"><ele>499.66666666666663</ele><time>2026-04-10T11:56:56Z</time></trkpt><trkpt lat="43.20006253626881" lon="12.372394100827284"><ele>499.8333333333333</ele><time>2026-04-10T11:56:57Z</time></trkpt><trkpt lat="43.2001337350121" lon="12.372262090992473"><ele>500.0</ele><time>2026-04-10T11:56:59Z</time></trkpt><trkpt lat="43.20016374196768" lon="12.372177101070827"><ele>499.99999999999994</ele><time>2026-04-10T11:57:00Z</time></trkpt><trkpt lat="43.20022805801034" lon="12.372037948279518"><ele>500.0</ele><time>2026-04-10T11:57:02Z</time></trkpt><trkpt lat="43.200248963936254" lon="12.371948349226562"><ele>500.0</ele><time>2026-04-10T11:57:03Z</time></trkpt><trkpt lat="43.200289809279816" lon="12.371808153839112"><ele>500.0</ele><time>2026-04-10T11:57:05Z</time></trkpt><trkpt lat="43.20034860561636" lon="12.371751228110114"><ele>499.99999999999994</ele><time>2026-04-10T11:57:07Z</time></trkpt><trkpt lat="43.20038780274822" lon="12.371680428151384"><ele>500.0</ele><time>2026-04-10T11:57:10Z</time></trkpt><trkpt lat="43.20043434040265" lon="12.371606561139846"><ele>500.0</ele><time>2026-04-10T11:57:23Z</time></trkpt><trkpt lat="43.20049220495139" lon="12.371528753263439"><ele>500.0</ele><time>2026-04-10T11:57:26Z</time></trkpt><trkpt lat="43.20052474836061" lon="12.371437203262069"><ele>500.0</ele><time>2026-04-10T11:57:28Z</time></trkpt><trkpt lat="43.20054174779077" lon="12.37132882407237"><ele>500.0</ele><time>2026-04-10T11:57:30Z</time></trkpt><trkpt lat="43.20058195357282" lon="12.37117975693172"><ele>500.0</ele><time>2026-04-10T11:57:32Z</time></trkpt><trkpt lat="43.20061580598595" lon="12.371008111971094"><ele>498.16666666666663</ele><time>2026-04-10T11:57:34Z</time></trkpt><trkpt lat="43.2006352755647" lon="12.370907747208232"><ele>496.3333333333333</ele><time>2026-04-10T11:57:35Z</time></trkpt><trkpt lat="43.200652130071525" lon="12.370801761367037"><ele>494.5</ele><time>2026-04-10T11:57:36Z</time></trkpt><trkpt lat="43.200685841431984" lon="12.370708679162263"><ele>492.66666666666663</ele><time>2026-04-10T11:57:37Z</time></trkpt><trkpt lat="43.20070195460002" lon="12.370618823959743"><ele>490.8333333333333</ele><time>2026-04-10T11:57:38Z</time></trkpt><trkpt lat="43.2007188129937" lon="12.370529816522208"><ele>489.0</ele><time>2026-04-10T11:57:39Z</time></trkpt><trkpt lat="43.20076205263824" lon="12.370398791550373"><ele>489.0</ele><time>2026-04-10T11:57:41Z</time></trkpt><trkpt lat="43.20083180339289" lon="12.370293112066669"><ele>489.0</ele><time>2026-04-10T11:57:43Z</time></trkpt><trkpt lat="43.20091165971362" lon="12.370219064647129"><ele>489.0</ele><time>2026-04-10T11:57:45Z</time></trkpt><trkpt lat="43.20097194815663" lon="12.370163808503976"><ele>489.0</ele><time>2026-04-10T11:57:46Z</time></trkpt><trkpt lat="43.201040524283265" lon="12.370098189814065"><ele>489.0</ele><time>2026-04-10T11:57:47Z</time></trkpt><trkpt lat="43.201106649424936" lon="12.370027209317977"><ele>489.0</ele><time>2026-04-10T11:57:48Z</time></trkpt><trkpt lat="43.2011606216864" lon="12.3699614628046"><ele>489.0</ele><time>2026-04-10T11:57:49Z</time></trkpt><trkpt lat="43.20122004824298" lon="12.369887925432796"><ele>489.0</ele><time>2026-04-10T11:57:50Z</time></trkpt><trkpt lat="43.20127681121136" lon="12.369814737240642"><ele>489.0</ele><time>2026-04-10T11:57:51Z</time></trkpt><trkpt lat="43.2013303152813" lon="12.369743839378195"><ele>489.0</ele><time>2026-04-10T11:57:52Z</time></trkpt><trkpt lat="43.20140919088897" lon="12.36963580926468"><ele>489.0</ele><time>2026-04-10T11:57:54Z</time></trkpt><trkpt lat="43.201474775382295" lon="12.369542968934445"><ele>489.0</ele><time>2026-04-10T11:57:56Z</time></trkpt><trkpt lat="43.20154024624141" lon="12.369447777548139"><ele>488.0</ele><time>2026-04-10T11:57:58Z</time></trkpt><trkpt lat="43.20157873866257" lon="12.36937555352851"><ele>487.0</ele><time>2026-04-10T11:57:59Z</time></trkpt><trkpt lat="43.20163436863282" lon="12.369216228967751"><ele>486.0</ele><time>2026-04-10T11:58:01Z</time></trkpt><trkpt lat="43.201664481433895" lon="12.36906843889883"><ele>485.0</ele><time>2026-04-10T11:58:03Z</time></trkpt><trkpt lat="43.20168858477148" lon="12.368947231035216"><ele>484.0</ele><time>2026-04-10T11:58:05Z</time></trkpt><trkpt lat="43.20171797379631" lon="12.368827547646864"><ele>487.71428571428567</ele><time>2026-04-10T11:58:07Z</time></trkpt><trkpt lat="43.201747496823096" lon="12.368733244718486"><ele>491.4285714285714</ele><time>2026-04-10T11:58:09Z</time></trkpt><trkpt lat="43.20178859810557" lon="12.368654521606398"><ele>495.1428571428571</ele><time>2026-04-10T11:58:12Z</time></trkpt><trkpt lat="43.20183418671493" lon="12.368579647883124"><ele>498.8571428571429</ele><time>2026-04-10T11:58:16Z</time></trkpt><trkpt lat="43.20188449621747" lon="12.368508112546914"><ele>502.5714285714286</ele><time>2026-04-10T11:58:19Z</time></trkpt><trkpt lat="43.20193959905586" lon="12.368439137403023"><ele>506.28571428571433</ele><time>2026-04-10T11:58:22Z</time></trkpt><trkpt lat="43.20200262678365" lon="12.368366240507436"><ele>510.0</ele><time>2026-04-10T11:58:26Z</time></trkpt><trkpt lat="43.20207192812656" lon="12.368289993257758"><ele>510.0</ele><time>2026-04-10T11:58:29Z</time></trkpt><trkpt lat="43.20214453854575" lon="12.368244668896503"><ele>510.0</ele><time>2026-04-10T11:58:31Z</time></trkpt><trkpt lat="43.20222379697831" lon="12.368203109393717"><ele>510.0</ele><time>2026-04-10T11:58:33Z</time></trkpt><trkpt lat="43.202277889895356" lon="12.368141502729774"><ele>510.0</ele><time>2026-04-10T11:58:35Z</time></trkpt><trkpt lat="43.20252461934709" lon="12.367730232406794"><ele>511.0</ele><time>2026-04-10T11:59:47Z</time></trkpt><trkpt lat="43.20256606845644" lon="12.367624479747278"><ele>512.0</ele><time>2026-04-10T11:59:50Z</time></trkpt><trkpt lat="43.202612851938774" lon="12.367536300031533"><ele>513.0</ele><time>2026-04-10T11:59:53Z</time></trkpt><trkpt lat="43.202666805102616" lon="12.367441589824523"><ele>514.0</ele><time>2026-04-10T11:59:56Z</time></trkpt><trkpt lat="43.20271420927339" lon="12.367373124201873"><ele>515.0</ele><time>2026-04-10T11:59:58Z</time></trkpt><trkpt lat="43.202780112666" lon="12.367285928690741"><ele>516.0</ele><time>2026-04-10T12:00:01Z</time></trkpt><trkpt lat="43.20282879126867" lon="12.367181168684935"><ele>514.1428571428571</ele><time>2026-04-10T12:00:04Z</time></trkpt><trkpt lat="43.20285830598319" lon="12.367098307030059"><ele>512.2857142857142</ele><time>2026-04-10T12:00:08Z</time></trkpt><trkpt lat="43.202922951203114" lon="12.367095853508559"><ele>510.42857142857144</ele><time>2026-04-10T12:00:12Z</time></trkpt><trkpt lat="43.20298001513182" lon="12.367046104547837"><ele>508.57142857142856</ele><time>2026-04-10T12:00:14Z</time></trkpt><trkpt lat="43.20306107464209" lon="12.366976567935687"><ele>506.7142857142858</ele><time>2026-04-10T12:00:17Z</time></trkpt><trkpt lat="43.203127796118956" lon="12.366936346500227"><ele>504.8571428571429</ele><time>2026-04-10T12:00:19Z</time></trkpt><trkpt lat="43.20318540975516" lon="12.366896685452899"><ele>503.0</ele><time>2026-04-10T12:00:21Z</time></trkpt><trkpt lat="43.20324434826749" lon="12.366866295953466"><ele>503.0</ele><time>2026-04-10T12:00:23Z</time></trkpt><trkpt lat="43.20331527048406" lon="12.366842156051149"><ele>503.00000000000006</ele><time>2026-04-10T12:00:25Z</time></trkpt><trkpt lat="43.20337576752467" lon="12.366794960526741"><ele>503.0</ele><time>2026-04-10T12:00:27Z</time></trkpt><trkpt lat="43.203444711363524" lon="12.366738770420081"><ele>503.0</ele><time>2026-04-10T12:00:30Z</time></trkpt><trkpt lat="43.20350669123477" lon="12.366683132131422"><ele>503.00000000000006</ele><time>2026-04-10T12:00:33Z</time></trkpt><trkpt lat="43.20356302365703" lon="12.366639541780732"><ele>503.0</ele><time>2026-04-10T12:00:36Z</time></trkpt><trkpt lat="43.203626361912015" lon="12.366578474162429"><ele>503.0</ele><time>2026-04-10T12:00:40Z</time></trkpt><trkpt lat="43.20370299419249" lon="12.366523220078802"><ele>502.99999999999994</ele><time>2026-04-10T12:00:44Z</time></trkpt><trkpt lat="43.20378196203655" lon="12.366482928798073"><ele>503.0</ele><time>2026-04-10T12:00:48Z</time></trkpt><trkpt lat="43.203853268131446" lon="12.366437196103996"><ele>503.0</ele><time>2026-04-10T12:00:52Z</time></trkpt><trkpt lat="43.20393105134123" lon="12.366434633771092"><ele>503.0</ele><time>2026-04-10T12:00:55Z</time></trkpt><trkpt lat="43.20400166325523" lon="12.366406744432116"><ele>502.99999999999994</ele><time>2026-04-10T12:00:57Z</time></trkpt><trkpt lat="43.204082952825345" lon="12.366420107863112"><ele>503.0</ele><time>2026-04-10T12:00:59Z</time></trkpt><trkpt lat="43.20415190720191" lon="12.366404190579813"><ele>502.0</ele><time>2026-04-10T12:01:01Z</time></trkpt><trkpt lat="43.20424676826877" lon="12.366373176655975"><ele>500.99999999999994</ele><time>2026-04-10T12:01:03Z</time></trkpt><trkpt lat="43.204325997713525" lon="12.366321079890062"><ele>499.99999999999994</ele><time>2026-04-10T12:01:05Z</time></trkpt><trkpt lat="43.20440809833151" lon="12.366303518017318"><ele>499.0</ele><time>2026-04-10T12:01:07Z</time></trkpt><trkpt lat="43.204507893898516" lon="12.36624827150657"><ele>498.0</ele><time>2026-04-10T12:01:09Z</time></trkpt><trkpt lat="43.204598559130794" lon="12.366165684393577"><ele>498.0</ele><time>2026-04-10T12:01:11Z</time></trkpt><trkpt lat="43.20466600183807" lon="12.36616417906957"><ele>498.0</ele><time>2026-04-10T12:01:12Z</time></trkpt><trkpt lat="43.204732686568114" lon="12.366138663091315"><ele>498.0</ele><time>2026-04-10T12:01:14Z</time></trkpt><trkpt lat="43.20485056051955" lon="12.366126664427199"><ele>498.0</ele><time>2026-04-10T12:01:16Z</time></trkpt><trkpt lat="43.204919275397565" lon="12.366112875997024"><ele>498.0</ele><time>2026-04-10T12:01:17Z</time></trkpt><trkpt lat="43.20499893639152" lon="12.366074560452821"><ele>498.0</ele><time>2026-04-10T12:01:19Z</time></trkpt><trkpt lat="43.20506780011746" lon="12.366055347069224"><ele>493.0</ele><time>2026-04-10T12:01:22Z</time></trkpt><trkpt lat="43.20515309310097" lon="12.366008403119507"><ele>487.99999999999994</ele><time>2026-04-10T12:01:25Z</time></trkpt><trkpt lat="43.20524384098095" lon="12.365943960903218"><ele>482.99999999999994</ele><time>2026-04-10T12:01:27Z</time></trkpt><trkpt lat="43.20534024109117" lon="12.36585284056987"><ele>478.0</ele><time>2026-04-10T12:01:29Z</time></trkpt><trkpt lat="43.2053867053689" lon="12.365705835977867"><ele>473.0</ele><time>2026-04-10T12:01:31Z</time></trkpt><trkpt lat="43.20540330025653" lon="12.365610730837528"><ele>470.4</ele><time>2026-04-10T12:01:32Z</time></trkpt><trkpt lat="43.20541460280912" lon="12.365524533676869"><ele>467.79999999999995</ele><time>2026-04-10T12:01:33Z</time></trkpt><trkpt lat="43.20546144422271" lon="12.365399976544618"><ele>465.2</ele><time>2026-04-10T12:01:35Z</time></trkpt><trkpt lat="43.20552645975937" lon="12.365267928507423"><ele>462.6</ele><time>2026-04-10T12:01:37Z</time></trkpt><trkpt lat="43.20559142707625" lon="12.365157904583619"><ele>460.0</ele><time>2026-04-10T12:01:39Z</time></trkpt><trkpt lat="43.205665922819634" lon="12.365073715230922"><ele>460.0</ele><time>2026-04-10T12:01:41Z</time></trkpt><trkpt lat="43.205776512218904" lon="12.365013399597458"><ele>460.0</ele><time>2026-04-10T12:01:43Z</time></trkpt><trkpt lat="43.20584731181347" lon="12.364955922950235"><ele>460.0</ele><time>2026-04-10T12:01:44Z</time></trkpt><trkpt lat="43.205908092793585" lon="12.364898949231149"><ele>460.0</ele><time>2026-04-10T12:01:45Z</time></trkpt><trkpt lat="43.20599619976317" lon="12.364782778926266"><ele>460.0</ele><time>2026-04-10T12:01:47Z</time></trkpt><trkpt lat="43.206028738177835" lon="12.364689226470476"><ele>464.33333333333337</ele><time>2026-04-10T12:01:48Z</time></trkpt><trkpt lat="43.2060665795195" lon="12.364606291436733"><ele>468.6666666666667</ele><time>2026-04-10T12:01:49Z</time></trkpt><trkpt lat="43.20612883232015" lon="12.3644703621593"><ele>473.0</ele><time>2026-04-10T12:01:51Z</time></trkpt><trkpt lat="43.20616267543539" lon="12.364387279924474"><ele>477.33333333333337</ele><time>2026-04-10T12:01:52Z</time></trkpt><trkpt lat="43.20619800222049" lon="12.364303141217269"><ele>481.6666666666667</ele><time>2026-04-10T12:01:53Z</time></trkpt><trkpt lat="43.20623695880138" lon="12.364225124615997"><ele>486.0</ele><time>2026-04-10T12:01:54Z</time></trkpt><trkpt lat="43.206279281737004" lon="12.364143192038604"><ele>486.0</ele><time>2026-04-10T12:01:55Z</time></trkpt><trkpt lat="43.206321414174695" lon="12.364062483491937"><ele>486.0</ele><time>2026-04-10T12:01:56Z</time></trkpt><trkpt lat="43.20638612279251" lon="12.363963150050429"><ele>486.0</ele><time>2026-04-10T12:01:58Z</time></trkpt><trkpt lat="43.20647008375709" lon="12.363850125106039"><ele>486.0</ele><time>2026-04-10T12:02:00Z</time></trkpt><trkpt lat="43.20654910392442" lon="12.363757395440786"><ele>486.0</ele><time>2026-04-10T12:02:02Z</time></trkpt><trkpt lat="43.20663529998381" lon="12.363659021864523"><ele>485.1666666666667</ele><time>2026-04-10T12:02:04Z</time></trkpt><trkpt lat="43.20667321831118" lon="12.36358583462916"><ele>484.33333333333337</ele><time>2026-04-10T12:02:05Z</time></trkpt><trkpt lat="43.206735330554075" lon="12.363525286446249"><ele>483.5</ele><time>2026-04-10T12:02:06Z</time></trkpt><trkpt lat="43.20683568710082" lon="12.363406422266092"><ele>482.6666666666667</ele><time>2026-04-10T12:02:08Z</time></trkpt><trkpt lat="43.20688701133368" lon="12.363343467738336"><ele>481.83333333333337</ele><time>2026-04-10T12:02:09Z</time></trkpt><trkpt lat="43.20694263459962" lon="12.363299254107561"><ele>481.0</ele><time>2026-04-10T12:02:10Z</time></trkpt><trkpt lat="43.2069937923163" lon="12.363238504327203"><ele>481.00000000000006</ele><time>2026-04-10T12:02:11Z</time></trkpt><trkpt lat="43.20704585938186" lon="12.36317667470173"><ele>481.0</ele><time>2026-04-10T12:02:12Z</time></trkpt><trkpt lat="43.20712699634091" lon="12.363056100378234"><ele>481.0</ele><time>2026-04-10T12:02:14Z</time></trkpt><trkpt lat="43.20721119296158" lon="12.362980678516553"><ele>481.0</ele><time>2026-04-10T12:02:16Z</time></trkpt><trkpt lat="43.20726936891861" lon="12.362913939958272"><ele>481.00000000000006</ele><time>2026-04-10T12:02:18Z</time></trkpt><trkpt lat="43.20731785807622" lon="12.362824872810165"><ele>481.0</ele><time>2026-04-10T12:02:20Z</time></trkpt><trkpt lat="43.20737152243575" lon="12.362764646217569"><ele>480.33333333333337</ele><time>2026-04-10T12:02:22Z</time></trkpt><trkpt lat="43.207425954502014" lon="12.362693754333538"><ele>479.6666666666667</ele><time>2026-04-10T12:02:24Z</time></trkpt><trkpt lat="43.207464751580446" lon="12.36258621700424"><ele>479.0</ele><time>2026-04-10T12:02:27Z</time></trkpt><trkpt lat="43.20749482281745" lon="12.362490217809501"><ele>478.33333333333337</ele><time>2026-04-10T12:02:29Z</time></trkpt><trkpt lat="43.20753047401094" lon="12.362391614057742"><ele>477.6666666666667</ele><time>2026-04-10T12:02:31Z</time></trkpt><trkpt lat="43.20755981935099" lon="12.362275264142548"><ele>477.0</ele><time>2026-04-10T12:02:33Z</time></trkpt><trkpt lat="43.20758320821167" lon="12.36213654146027"><ele>479.5</ele><time>2026-04-10T12:02:35Z</time></trkpt><trkpt lat="43.20762629245161" lon="12.362052022963478"><ele>482.0</ele><time>2026-04-10T12:02:37Z</time></trkpt><trkpt lat="43.20766203863658" lon="12.361959031544401"><ele>484.5</ele><time>2026-04-10T12:02:39Z</time></trkpt><trkpt lat="43.20769495821066" lon="12.361855664052479"><ele>487.0</ele><time>2026-04-10T12:02:41Z</time></trkpt><trkpt lat="43.20775465975584" lon="12.36178281969431"><ele>489.5</ele><time>2026-04-10T12:02:43Z</time></trkpt><trkpt lat="43.20781456736265" lon="12.361684714063049"><ele>492.0</ele><time>2026-04-10T12:02:45Z</time></trkpt><trkpt lat="43.207868426578905" lon="12.361570385871305"><ele>492.0</ele><time>2026-04-10T12:02:47Z</time></trkpt><trkpt lat="43.207934707639986" lon="12.361483978535352"><ele>492.0</ele><time>2026-04-10T12:02:49Z</time></trkpt><trkpt lat="43.20799307463197" lon="12.361391934326528"><ele>492.0</ele><time>2026-04-10T12:02:51Z</time></trkpt><trkpt lat="43.2080264415218" lon="12.361309960741108"><ele>492.0</ele><time>2026-04-10T12:02:53Z</time></trkpt><trkpt lat="43.208083095436315" lon="12.361225037333757"><ele>492.0</ele><time>2026-04-10T12:02:55Z</time></trkpt><trkpt lat="43.208134977017124" lon="12.361122967825395"><ele>492.0</ele><time>2026-04-10T12:02:57Z</time></trkpt><trkpt lat="43.20819071086212" lon="12.361021547227628"><ele>491.5</ele><time>2026-04-10T12:02:59Z</time></trkpt><trkpt lat="43.20824909023272" lon="12.360932573708556"><ele>491.0</ele><time>2026-04-10T12:03:01Z</time></trkpt><trkpt lat="43.208321943892756" lon="12.36087808992183"><ele>490.5</ele><time>2026-04-10T12:03:03Z</time></trkpt><trkpt lat="43.20839371280028" lon="12.360820082212841"><ele>490.0</ele><time>2026-04-10T12:03:05Z</time></trkpt><trkpt lat="43.20845577222536" lon="12.360763402313927"><ele>489.5</ele><time>2026-04-10T12:03:07Z</time></trkpt><trkpt lat="43.208505451698294" lon="12.36067914878646"><ele>489.0</ele><time>2026-04-10T12:03:09Z</time></trkpt><trkpt lat="43.20854539768342" lon="12.360606360325882"><ele>491.8333333333333</ele><time>2026-04-10T12:03:11Z</time></trkpt><trkpt lat="43.20860048865766" lon="12.360512653471458"><ele>494.66666666666663</ele><time>2026-04-10T12:03:14Z</time></trkpt><trkpt lat="43.20864318578103" lon="12.360437117415856"><ele>497.5</ele><time>2026-04-10T12:03:16Z</time></trkpt><trkpt lat="43.20870059443304" lon="12.360321188201931"><ele>500.3333333333333</ele><time>2026-04-10T12:03:18Z</time></trkpt><trkpt lat="43.208754524337216" lon="12.36020485825519"><ele>503.16666666666663</ele><time>2026-04-10T12:03:20Z</time></trkpt><trkpt lat="43.208789800419154" lon="12.360124003356018"><ele>506.0</ele><time>2026-04-10T12:03:22Z</time></trkpt><trkpt lat="43.20883490094634" lon="12.360020630110302"><ele>505.99999999999994</ele><time>2026-04-10T12:03:25Z</time></trkpt><trkpt lat="43.20887148903067" lon="12.35993170317634"><ele>506.0</ele><time>2026-04-10T12:04:42Z</time></trkpt><trkpt lat="43.208904663015936" lon="12.359851973575555"><ele>506.0</ele><time>2026-04-10T12:04:44Z</time></trkpt><trkpt lat="43.20895521589309" lon="12.359724777006495"><ele>506.0</ele><time>2026-04-10T12:04:46Z</time></trkpt><trkpt lat="43.20897451844437" lon="12.359637507839528"><ele>505.99999999999994</ele><time>2026-04-10T12:04:47Z</time></trkpt><trkpt lat="43.20899207614165" lon="12.359554505688982"><ele>506.0</ele><time>2026-04-10T12:04:48Z</time></trkpt><trkpt lat="43.20901730087195" lon="12.359434921169257"><ele>502.6</ele><time>2026-04-10T12:04:50Z</time></trkpt><trkpt lat="43.20903980049256" lon="12.359330392300244"><ele>499.20000000000005</ele><time>2026-04-10T12:04:52Z</time></trkpt><trkpt lat="43.20909702987715" lon="12.359187906777015"><ele>495.79999999999995</ele><time>2026-04-10T12:04:54Z</time></trkpt><trkpt lat="43.209150021857845" lon="12.359041851424134"><ele>492.4</ele><time>2026-04-10T12:04:56Z</time></trkpt><trkpt lat="43.20919207675892" lon="12.358899002628576"><ele>489.0</ele><time>2026-04-10T12:04:58Z</time></trkpt><trkpt lat="43.20923235607903" lon="12.35882464322215"><ele>489.0</ele><time>2026-04-10T12:04:59Z</time></trkpt><trkpt lat="43.20924244913063" lon="12.358738541204609"><ele>489.0</ele><time>2026-04-10T12:05:00Z</time></trkpt><trkpt lat="43.20930569601226" lon="12.358606712077552"><ele>489.0</ele><time>2026-04-10T12:05:02Z</time></trkpt><trkpt lat="43.20936328852335" lon="12.358455661221136"><ele>489.0</ele><time>2026-04-10T12:05:04Z</time></trkpt><trkpt lat="43.209381148407026" lon="12.35837073842227"><ele>489.0</ele><time>2026-04-10T12:05:05Z</time></trkpt><trkpt lat="43.209417218386406" lon="12.358295674607604"><ele>489.0</ele><time>2026-04-10T12:05:06Z</time></trkpt><trkpt lat="43.209442301713345" lon="12.358211139926276"><ele>489.0</ele><time>2026-04-10T12:05:07Z</time></trkpt><trkpt lat="43.20947812944758" lon="12.358042879199132"><ele>489.0</ele><time>2026-04-10T12:05:09Z</time></trkpt><trkpt lat="43.20948901766341" lon="12.357943542095644"><ele>489.0</ele><time>2026-04-10T12:05:10Z</time></trkpt><trkpt lat="43.20949720460718" lon="12.357851600248777"><ele>489.0</ele><time>2026-04-10T12:05:11Z</time></trkpt><trkpt lat="43.209499984972204" lon="12.357762496240968"><ele>489.0</ele><time>2026-04-10T12:05:12Z</time></trkpt><trkpt lat="43.20950634578478" lon="12.35766896166271"><ele>489.0</ele><time>2026-04-10T12:05:13Z</time></trkpt><trkpt lat="43.209512884295734" lon="12.35757281369276"><ele>491.79999999999995</ele><time>2026-04-10T12:05:14Z</time></trkpt><trkpt lat="43.209524493202046" lon="12.357430934141009"><ele>494.59999999999997</ele><time>2026-04-10T12:05:16Z</time></trkpt><trkpt lat="43.209536583966674" lon="12.357318421846037"><ele>497.4</ele><time>2026-04-10T12:05:18Z</time></trkpt><trkpt lat="43.20958657174232" lon="12.357203560888635"><ele>500.2</ele><time>2026-04-10T12:05:20Z</time></trkpt><trkpt lat="43.209688478949126" lon="12.35716997208497"><ele>503.0</ele><time>2026-04-10T12:05:22Z</time></trkpt><trkpt lat="43.209775532235994" lon="12.357103060561814"><ele>502.3333333333333</ele><time>2026-04-10T12:05:24Z</time></trkpt><trkpt lat="43.20981751631021" lon="12.357018452234179"><ele>501.66666666666663</ele><time>2026-04-10T12:05:26Z</time></trkpt><trkpt lat="43.209871015417974" lon="12.356946524764542"><ele>501.0</ele><time>2026-04-10T12:05:28Z</time></trkpt><trkpt lat="43.20992131900865" lon="12.356876446457601"><ele>500.33333333333337</ele><time>2026-04-10T12:05:30Z</time></trkpt><trkpt lat="43.20997478753552" lon="12.356801888023414"><ele>499.6666666666667</ele><time>2026-04-10T12:05:32Z</time></trkpt><trkpt lat="43.21002704174176" lon="12.356726762520912"><ele>499.0</ele><time>2026-04-10T12:05:34Z</time></trkpt><trkpt lat="43.210083033807784" lon="12.356644755679595"><ele>499.0</ele><time>2026-04-10T12:05:36Z</time></trkpt><trkpt lat="43.21015427916045" lon="12.356545360598757"><ele>499.0</ele><time>2026-04-10T12:05:38Z</time></trkpt><trkpt lat="43.21022909427997" lon="12.356425066004888"><ele>499.0</ele><time>2026-04-10T12:05:40Z</time></trkpt><trkpt lat="43.2103095703664" lon="12.356293391877541"><ele>499.0</ele><time>2026-04-10T12:05:42Z</time></trkpt><trkpt lat="43.21035145169822" lon="12.35621698199826"><ele>499.0</ele><time>2026-04-10T12:05:43Z</time></trkpt><trkpt lat="43.21039299951025" lon="12.356138192167487"><ele>498.7142857142858</ele><time>2026-04-10T12:05:44Z</time></trkpt><trkpt lat="43.2104326385159" lon="12.356064238415588"><ele>498.42857142857144</ele><time>2026-04-10T12:05:45Z</time></trkpt><trkpt lat="43.210475321045465" lon="12.35598516521673"><ele>498.14285714285717</ele><time>2026-04-10T12:05:46Z</time></trkpt><trkpt lat="43.21051996796937" lon="12.355908928924189"><ele>497.8571428571429</ele><time>2026-04-10T12:05:47Z</time></trkpt><trkpt lat="43.21055999110646" lon="12.355821091567886"><ele>497.57142857142856</ele><time>2026-04-10T12:05:48Z</time></trkpt><trkpt lat="43.21062768039597" lon="12.355771577095103"><ele>497.2857142857143</ele><time>2026-04-10T12:05:49Z</time></trkpt><trkpt lat="43.2106773755419" lon="12.355711960893954"><ele>497.0</ele><time>2026-04-10T12:05:50Z</time></trkpt><trkpt lat="43.21073313798674" lon="12.3556472728574"><ele>496.99999999999994</ele><time>2026-04-10T12:05:51Z</time></trkpt><trkpt lat="43.21079099067614" lon="12.355586398237705"><ele>497.0</ele><time>2026-04-10T12:05:52Z</time></trkpt><trkpt lat="43.21084262807162" lon="12.355517559533416"><ele>497.0</ele><time>2026-04-10T12:05:53Z</time></trkpt><trkpt lat="43.21093121885377" lon="12.355448384630002"><ele>497.0</ele><time>2026-04-10T12:05:55Z</time></trkpt><trkpt lat="43.211006503003325" lon="12.355394890627684"><ele>496.99999999999994</ele><time>2026-04-10T12:05:57Z</time></trkpt><trkpt lat="43.211061984422216" lon="12.355353324989514"><ele>497.0</ele><time>2026-04-10T12:05:59Z</time></trkpt><trkpt lat="43.21114033422483" lon="12.355313287732358"><ele>497.8333333333333</ele><time>2026-04-10T12:06:01Z</time></trkpt><trkpt lat="43.21124650559496" lon="12.355233041746947"><ele>498.66666666666663</ele><time>2026-04-10T12:06:03Z</time></trkpt><trkpt lat="43.21130337174245" lon="12.355188510830864"><ele>499.5</ele><time>2026-04-10T12:06:04Z</time></trkpt><trkpt lat="43.211369228028126" lon="12.355131280314554"><ele>500.33333333333337</ele><time>2026-04-10T12:06:05Z</time></trkpt><trkpt lat="43.21143782797644" lon="12.355071483524787"><ele>501.1666666666667</ele><time>2026-04-10T12:06:06Z</time></trkpt><trkpt lat="43.21151455861126" lon="12.355001306856165"><ele>502.0</ele><time>2026-04-10T12:06:07Z</time></trkpt><trkpt lat="43.211582225274256" lon="12.354937697803255"><ele>501.99999999999994</ele><time>2026-04-10T12:06:08Z</time></trkpt><trkpt lat="43.211642562635525" lon="12.354875450536248"><ele>502.0</ele><time>2026-04-10T12:06:09Z</time></trkpt><trkpt lat="43.211701373785054" lon="12.354815369232437"><ele>501.99999999999994</ele><time>2026-04-10T12:06:10Z</time></trkpt><trkpt lat="43.211761370961604" lon="12.354759950235215"><ele>501.99999999999994</ele><time>2026-04-10T12:06:11Z</time></trkpt><trkpt lat="43.21182954327003" lon="12.35470838293598"><ele>502.0</ele><time>2026-04-10T12:06:12Z</time></trkpt><trkpt lat="43.21189259261643" lon="12.354651348641736"><ele>501.99999999999994</ele><time>2026-04-10T12:06:13Z</time></trkpt><trkpt lat="43.211954124591294" lon="12.354595686956117"><ele>501.99999999999994</ele><time>2026-04-10T12:06:14Z</time></trkpt><trkpt lat="43.21200876792671" lon="12.354546240052025"><ele>501.8571428571428</ele><time>2026-04-10T12:06:15Z</time></trkpt><trkpt lat="43.21206780945966" lon="12.354492706223132"><ele>501.71428571428567</ele><time>2026-04-10T12:06:16Z</time></trkpt><trkpt lat="43.21212099465452" lon="12.354444482425848"><ele>501.57142857142856</ele><time>2026-04-10T12:06:17Z</time></trkpt><trkpt lat="43.21218889819796" lon="12.354382913279903"><ele>501.4285714285714</ele><time>2026-04-10T12:06:18Z</time></trkpt><trkpt lat="43.212250409362376" lon="12.354333428508845"><ele>501.2857142857142</ele><time>2026-04-10T12:06:19Z</time></trkpt><trkpt lat="43.212311875269535" lon="12.354267690651566"><ele>501.14285714285717</ele><time>2026-04-10T12:06:20Z</time></trkpt><trkpt lat="43.2123799951291" lon="12.354200774930712"><ele>501.0</ele><time>2026-04-10T12:06:21Z</time></trkpt><trkpt lat="43.212453376433125" lon="12.35412623628813"><ele>501.0</ele><time>2026-04-10T12:06:22Z</time></trkpt><trkpt lat="43.21252554157352" lon="12.354049508939996"><ele>501.0</ele><time>2026-04-10T12:06:23Z</time></trkpt><trkpt lat="43.21258470576632" lon="12.353960739136154"><ele>501.0</ele><time>2026-04-10T12:06:24Z</time></trkpt><trkpt lat="43.212652197139015" lon="12.353881795759667"><ele>501.0</ele><time>2026-04-10T12:06:25Z</time></trkpt><trkpt lat="43.21271738712546" lon="12.35381387481302"><ele>501.0</ele><time>2026-04-10T12:06:26Z</time></trkpt><trkpt lat="43.21277541962383" lon="12.353740598822942"><ele>501.0</ele><time>2026-04-10T12:06:27Z</time></trkpt><trkpt lat="43.21283795727669" lon="12.353693698160926"><ele>503.6666666666667</ele><time>2026-04-10T12:06:28Z</time></trkpt><trkpt lat="43.21289331773319" lon="12.353623666441358"><ele>506.33333333333337</ele><time>2026-04-10T12:06:29Z</time></trkpt><trkpt lat="43.212955697485924" lon="12.353534298845311"><ele>509.0</ele><time>2026-04-10T12:06:30Z</time></trkpt><trkpt lat="43.21300777976821" lon="12.353438587270215"><ele>511.6666666666667</ele><time>2026-04-10T12:06:31Z</time></trkpt><trkpt lat="43.213052162823026" lon="12.353346278045436"><ele>514.3333333333334</ele><time>2026-04-10T12:06:32Z</time></trkpt><trkpt lat="43.21309308560202" lon="12.353251019604214"><ele>517.0</ele><time>2026-04-10T12:06:33Z</time></trkpt><trkpt lat="43.21315464625987" lon="12.35317768646896"><ele>518.5</ele><time>2026-04-10T12:06:34Z</time></trkpt><trkpt lat="43.21322532882909" lon="12.35311540817545"><ele>520.0</ele><time>2026-04-10T12:06:35Z</time></trkpt><trkpt lat="43.21330068419278" lon="12.35307406846229"><ele>521.5</ele><time>2026-04-10T12:06:36Z</time></trkpt><trkpt lat="43.213380191634755" lon="12.353034560643795"><ele>523.0</ele><time>2026-04-10T12:06:37Z</time></trkpt><trkpt lat="43.2134542635213" lon="12.353001809044487"><ele>524.5</ele><time>2026-04-10T12:06:38Z</time></trkpt><trkpt lat="43.21352706519263" lon="12.35297580708581"><ele>526.0</ele><time>2026-04-10T12:06:39Z</time></trkpt><trkpt lat="43.213597671567385" lon="12.352947888331812"><ele>526.0</ele><time>2026-04-10T12:06:40Z</time></trkpt><trkpt lat="43.21366640531897" lon="12.352926983633067"><ele>526.0</ele><time>2026-04-10T12:06:41Z</time></trkpt><trkpt lat="43.21373380296893" lon="12.352907231021545"><ele>526.0</ele><time>2026-04-10T12:06:42Z</time></trkpt><trkpt lat="43.213835682881545" lon="12.352863472144564"><ele>526.0</ele><time>2026-04-10T12:06:44Z</time></trkpt><trkpt lat="43.21389141146774" lon="12.352814720429794"><ele>526.0</ele><time>2026-04-10T12:06:45Z</time></trkpt><trkpt lat="43.2139824487667" lon="12.352771636930134"><ele>526.0</ele><time>2026-04-10T12:06:47Z</time></trkpt><trkpt lat="43.21406739862537" lon="12.352708542666354"><ele>527.1666666666667</ele><time>2026-04-10T12:06:49Z</time></trkpt><trkpt lat="43.2141469326391" lon="12.352629112664907"><ele>528.3333333333334</ele><time>2026-04-10T12:06:51Z</time></trkpt><trkpt lat="43.21421155764687" lon="12.352554569604779"><ele>529.5</ele><time>2026-04-10T12:06:53Z</time></trkpt><trkpt lat="43.214269985526045" lon="12.352484493718624"><ele>530.6666666666666</ele><time>2026-04-10T12:07:01Z</time></trkpt><trkpt lat="43.214323820269456" lon="12.352419926644115"><ele>531.8333333333333</ele><time>2026-04-10T12:07:09Z</time></trkpt><trkpt lat="43.214381065500056" lon="12.352351269182929"><ele>533.0</ele><time>2026-04-10T12:07:11Z</time></trkpt><trkpt lat="43.21432472713774" lon="12.352189409373636"><ele>533.0</ele><time>2026-04-10T12:07:12Z</time></trkpt><trkpt lat="43.21436714691479" lon="12.352081961475134"><ele>533.0</ele><time>2026-04-10T12:07:14Z</time></trkpt><trkpt lat="43.214419356231616" lon="12.351943530626917"><ele>533.0</ele><time>2026-04-10T12:07:16Z</time></trkpt><trkpt lat="43.21449277825093" lon="12.351852515184792"><ele>533.0</ele><time>2026-04-10T12:07:18Z</time></trkpt><trkpt lat="43.21455589773702" lon="12.351774308245739"><ele>533.0</ele><time>2026-04-10T12:07:20Z</time></trkpt><trkpt lat="43.2146090858356" lon="12.3517166176834"><ele>533.0</ele><time>2026-04-10T12:07:22Z</time></trkpt><trkpt lat="43.21467598214977" lon="12.35165105939603"><ele>533.0</ele><time>2026-04-10T12:07:24Z</time></trkpt><trkpt lat="43.21473696204695" lon="12.351583838830887"><ele>533.0</ele><time>2026-04-10T12:07:26Z</time></trkpt><trkpt lat="43.21482134858295" lon="12.351524809196354"><ele>533.0</ele><time>2026-04-10T12:07:29Z</time></trkpt><trkpt lat="43.21487918535682" lon="12.351472606920085"><ele>533.0</ele><time>2026-04-10T12:07:31Z</time></trkpt><trkpt lat="43.21495019884746" lon="12.351412733917735"><ele>533.0</ele><time>2026-04-10T12:07:33Z</time></trkpt><trkpt lat="43.21502763081946" lon="12.35134916297651"><ele>533.1999999999999</ele><time>2026-04-10T12:07:35Z</time></trkpt><trkpt lat="43.21509965203695" lon="12.351287048609779"><ele>533.4</ele><time>2026-04-10T12:07:37Z</time></trkpt><trkpt lat="43.21516728290632" lon="12.35122919037792"><ele>533.5999999999999</ele><time>2026-04-10T12:07:39Z</time></trkpt><trkpt lat="43.21523855614315" lon="12.351169630165353"><ele>533.8</ele><time>2026-04-10T12:07:41Z</time></trkpt><trkpt lat="43.21530024566098" lon="12.351113736377757"><ele>534.0</ele><time>2026-04-10T12:07:43Z</time></trkpt><trkpt lat="43.2162587559094" lon="12.349901883691143"><ele>534.2</ele><time>2026-04-10T12:09:24.999Z</time></trkpt><trkpt lat="43.21630973505914" lon="12.349816135608222"><ele>534.4</ele><time>2026-04-10T12:09:28Z</time></trkpt><trkpt lat="43.21637407738861" lon="12.349720449211771"><ele>534.6</ele><time>2026-04-10T12:09:30Z</time></trkpt><trkpt lat="43.21644046599487" lon="12.349611659294919"><ele>534.8</ele><time>2026-04-10T12:09:32Z</time></trkpt><trkpt lat="43.216533731477845" lon="12.349491410452066"><ele>535.0</ele><time>2026-04-10T12:09:34Z</time></trkpt><trkpt lat="43.21658982144307" lon="12.34940769252607"><ele>531.4</ele><time>2026-04-10T12:09:35Z</time></trkpt><trkpt lat="43.21664688653927" lon="12.349332745610681"><ele>527.8</ele><time>2026-04-10T12:09:36Z</time></trkpt><trkpt lat="43.21671280440381" lon="12.349237917758987"><ele>524.2</ele><time>2026-04-10T12:09:37Z</time></trkpt><trkpt lat="43.21678510880317" lon="12.349150568778882"><ele>520.6</ele><time>2026-04-10T12:09:38Z</time></trkpt><trkpt lat="43.21686107893625" lon="12.349054790348434"><ele>517.0</ele><time>2026-04-10T12:09:39Z</time></trkpt><trkpt lat="43.21694174876818" lon="12.348969795891826"><ele>517.0</ele><time>2026-04-10T12:09:40Z</time></trkpt><trkpt lat="43.217031962265786" lon="12.34890885648216"><ele>517.0</ele><time>2026-04-10T12:09:41Z</time></trkpt><trkpt lat="43.21711769788867" lon="12.348866101253655"><ele>517.0</ele><time>2026-04-10T12:09:42Z</time></trkpt><trkpt lat="43.21718247396119" lon="12.348798480447055"><ele>517.0</ele><time>2026-04-10T12:09:43Z</time></trkpt><trkpt lat="43.21725108275753" lon="12.348745658733957"><ele>517.0</ele><time>2026-04-10T12:09:44Z</time></trkpt><trkpt lat="43.21733362058449" lon="12.348698787159634"><ele>517.0</ele><time>2026-04-10T12:09:45Z</time></trkpt><trkpt lat="43.21739880852616" lon="12.348617570520942"><ele>515.3333333333334</ele><time>2026-04-10T12:09:46Z</time></trkpt><trkpt lat="43.217469577529044" lon="12.348553923565659"><ele>513.6666666666667</ele><time>2026-04-10T12:09:47Z</time></trkpt><trkpt lat="43.21754865216663" lon="12.348483264809406"><ele>512.0</ele><time>2026-04-10T12:09:48Z</time></trkpt><trkpt lat="43.21762383109717" lon="12.348421464310087"><ele>510.33333333333337</ele><time>2026-04-10T12:09:49Z</time></trkpt><trkpt lat="43.217695895233454" lon="12.348351187315128"><ele>508.6666666666667</ele><time>2026-04-10T12:09:50Z</time></trkpt><trkpt lat="43.21776148895998" lon="12.348284066981298"><ele>507.0</ele><time>2026-04-10T12:09:51Z</time></trkpt><trkpt lat="43.217831182530105" lon="12.348218288188644"><ele>507.0</ele><time>2026-04-10T12:09:52Z</time></trkpt><trkpt lat="43.217911388091785" lon="12.348167169707239"><ele>507.0</ele><time>2026-04-10T12:09:53Z</time></trkpt><trkpt lat="43.217991394751294" lon="12.348128382733991"><ele>507.0</ele><time>2026-04-10T12:09:54Z</time></trkpt><trkpt lat="43.21807056726209" lon="12.348099675286232"><ele>507.0</ele><time>2026-04-10T12:09:55Z</time></trkpt><trkpt lat="43.21814330339769" lon="12.348068064071523"><ele>507.0</ele><time>2026-04-10T12:09:56Z</time></trkpt><trkpt lat="43.21820879870702" lon="12.348026741850667"><ele>507.0</ele><time>2026-04-10T12:09:57Z</time></trkpt><trkpt lat="43.2182992786318" lon="12.347933773498205"><ele>505.40000000000003</ele><time>2026-04-10T12:09:59Z</time></trkpt><trkpt lat="43.2183200658823" lon="12.347806813027354"><ele>503.80000000000007</ele><time>2026-04-10T12:10:01Z</time></trkpt><trkpt lat="43.21830422903537" lon="12.347690318725235"><ele>502.2</ele><time>2026-04-10T12:10:03Z</time></trkpt><trkpt lat="43.218275393082685" lon="12.347564555149644"><ele>500.6</ele><time>2026-04-10T12:10:05Z</time></trkpt><trkpt lat="43.21824988667719" lon="12.347424112628229"><ele>499.0</ele><time>2026-04-10T12:10:07Z</time></trkpt><trkpt lat="43.21825633749044" lon="12.347280876164916"><ele>500.83333333333337</ele><time>2026-04-10T12:10:09Z</time></trkpt><trkpt lat="43.21824570930457" lon="12.347182601986583"><ele>502.6666666666667</ele><time>2026-04-10T12:10:12Z</time></trkpt><trkpt lat="43.21831562207435" lon="12.34713372533423"><ele>504.5</ele><time>2026-04-10T12:11:11.999Z</time></trkpt><trkpt lat="43.21836514166489" lon="12.347067000939415"><ele>506.33333333333337</ele><time>2026-04-10T12:11:13.999Z</time></trkpt><trkpt lat="43.21843770972112" lon="12.34701807541615"><ele>508.1666666666667</ele><time>2026-04-10T12:11:15.999Z</time></trkpt><trkpt lat="43.21852834152376" lon="12.346982572843515"><ele>510.0</ele><time>2026-04-10T12:11:17.999Z</time></trkpt><trkpt lat="43.21861966833141" lon="12.34696716280544"><ele>510.0</ele><time>2026-04-10T12:11:19.999Z</time></trkpt><trkpt lat="43.21872675029981" lon="12.346982279663882"><ele>510.0</ele><time>2026-04-10T12:11:21.999Z</time></trkpt><trkpt lat="43.21882802423149" lon="12.347000695706372"><ele>510.0</ele><time>2026-04-10T12:11:23.999Z</time></trkpt><trkpt lat="43.218914909665266" lon="12.347049442183307"><ele>510.0</ele><time>2026-04-10T12:11:25.999Z</time></trkpt><trkpt lat="43.21900261404263" lon="12.347125578920675"><ele>510.0</ele><time>2026-04-10T12:11:27.999Z</time></trkpt><trkpt lat="43.219082328398486" lon="12.347181192812016"><ele>505.6666666666667</ele><time>2026-04-10T12:11:29.999Z</time></trkpt><trkpt lat="43.219166403759374" lon="12.347183595484612"><ele>501.33333333333337</ele><time>2026-04-10T12:11:31.999Z</time></trkpt><trkpt lat="43.219262267048514" lon="12.34717717372822"><ele>497.0</ele><time>2026-04-10T12:11:34Z</time></trkpt><trkpt lat="43.219358259981604" lon="12.347211907126498"><ele>492.6666666666667</ele><time>2026-04-10T12:11:36Z</time></trkpt><trkpt lat="43.21944217171459" lon="12.347261525510048"><ele>488.33333333333337</ele><time>2026-04-10T12:11:38Z</time></trkpt><trkpt lat="43.219503870927895" lon="12.347281925372004"><ele>484.0</ele><time>2026-04-10T12:11:40Z</time></trkpt><trkpt lat="43.21956777856101" lon="12.347252291472646"><ele>483.2</ele><time>2026-04-10T12:11:44Z</time></trkpt><trkpt lat="43.21958607488998" lon="12.347118425160799"><ele>482.4</ele><time>2026-04-10T12:11:49Z</time></trkpt><trkpt lat="43.219573311073376" lon="12.3470244104617"><ele>481.6</ele><time>2026-04-10T12:12:08Z</time></trkpt><trkpt lat="43.21953183301602" lon="12.34691094177997"><ele>480.8</ele><time>2026-04-10T12:12:10Z</time></trkpt><trkpt lat="43.219504253167955" lon="12.346743956502467"><ele>480.0</ele><time>2026-04-10T12:12:11.999Z</time></trkpt><trkpt lat="43.21949203464788" lon="12.346581209873367"><ele>480.0</ele><time>2026-04-10T12:12:13.999Z</time></trkpt><trkpt lat="43.21939025719051" lon="12.346453993786456"><ele>480.0</ele><time>2026-04-10T12:12:15.999Z</time></trkpt><trkpt lat="43.21933754315186" lon="12.346401398055628"><ele>480.0</ele><time>2026-04-10T12:12:16.999Z</time></trkpt><trkpt lat="43.21929982472604" lon="12.346254099046371"><ele>480.0</ele><time>2026-04-10T12:12:18.999Z</time></trkpt><trkpt lat="43.21931171025309" lon="12.346154746792669"><ele>480.0</ele><time>2026-04-10T12:12:19.999Z</time></trkpt><trkpt lat="43.219370717851454" lon="12.346096158056124"><ele>481.6666666666667</ele><time>2026-04-10T12:12:20.999Z</time></trkpt><trkpt lat="43.21941608584727" lon="12.346029969570512"><ele>483.33333333333337</ele><time>2026-04-10T12:12:21.999Z</time></trkpt><trkpt lat="43.219473514633684" lon="12.3459459573838"><ele>485.0</ele><time>2026-04-10T12:12:22.999Z</time></trkpt><trkpt lat="43.219530856484475" lon="12.345860286238947"><ele>486.6666666666667</ele><time>2026-04-10T12:12:23.999Z</time></trkpt><trkpt lat="43.21958420264288" lon="12.345775383754471"><ele>488.33333333333337</ele><time>2026-04-10T12:12:24.999Z</time></trkpt><trkpt lat="43.219661822313256" lon="12.34568980260368"><ele>490.0</ele><time>2026-04-10T12:12:25.999Z</time></trkpt><trkpt lat="43.21973687441671" lon="12.345589351961827"><ele>493.8</ele><time>2026-04-10T12:12:26.999Z</time></trkpt><trkpt lat="43.21980773084237" lon="12.345477635634449"><ele>497.6</ele><time>2026-04-10T12:12:27.999Z</time></trkpt><trkpt lat="43.219879433823685" lon="12.345379187242658"><ele>501.4</ele><time>2026-04-10T12:12:28.999Z</time></trkpt><trkpt lat="43.21994475457358" lon="12.3452734952044"><ele>505.2</ele><time>2026-04-10T12:12:29.999Z</time></trkpt><trkpt lat="43.220028936816725" lon="12.345197354656314"><ele>509.0</ele><time>2026-04-10T12:12:30.999Z</time></trkpt><trkpt lat="43.22009435361754" lon="12.345084387618018"><ele>503.6</ele><time>2026-04-10T12:12:31.999Z</time></trkpt><trkpt lat="43.22016960678986" lon="12.344983658013165"><ele>498.2</ele><time>2026-04-10T12:12:32.999Z</time></trkpt><trkpt lat="43.22024376952414" lon="12.34487028401594"><ele>492.80000000000007</ele><time>2026-04-10T12:12:33.999Z</time></trkpt><trkpt lat="43.22030721784408" lon="12.344745148625284"><ele>487.40000000000003</ele><time>2026-04-10T12:12:34.999Z</time></trkpt><trkpt lat="43.22036770530331" lon="12.344614878697682"><ele>482.0</ele><time>2026-04-10T12:12:35.999Z</time></trkpt><trkpt lat="43.220417729283646" lon="12.344486712699156"><ele>482.0</ele><time>2026-04-10T12:12:36.999Z</time></trkpt><trkpt lat="43.2204863088745" lon="12.34436552397428"><ele>482.00000000000006</ele><time>2026-04-10T12:12:37.999Z</time></trkpt><trkpt lat="43.22054847892168" lon="12.344242780091047"><ele>482.00000000000006</ele><time>2026-04-10T12:12:38.999Z</time></trkpt><trkpt lat="43.220614671968775" lon="12.3441403274622"><ele>482.0</ele><time>2026-04-10T12:12:39.999Z</time></trkpt><trkpt lat="43.22067709845914" lon="12.344032470146598"><ele>482.0</ele><time>2026-04-10T12:12:40.999Z</time></trkpt><trkpt lat="43.220740064944195" lon="12.343954363651484"><ele>477.99999999999994</ele><time>2026-04-10T12:12:41.999Z</time></trkpt><trkpt lat="43.22080776255877" lon="12.343879798193557"><ele>474.0</ele><time>2026-04-10T12:12:42.999Z</time></trkpt><trkpt lat="43.220875513844284" lon="12.343818737102668"><ele>470.0</ele><time>2026-04-10T12:12:43.999Z</time></trkpt><trkpt lat="43.22093605088998" lon="12.343755046924102"><ele>466.0</ele><time>2026-04-10T12:12:44.999Z</time></trkpt><trkpt lat="43.22100807341051" lon="12.34368900110243"><ele>461.99999999999994</ele><time>2026-04-10T12:12:45.999Z</time></trkpt><trkpt lat="43.22108210864887" lon="12.343613895198734"><ele>458.0</ele><time>2026-04-10T12:12:46.999Z</time></trkpt><trkpt lat="43.22115836143933" lon="12.343553372570883"><ele>457.99999999999994</ele><time>2026-04-10T12:12:47.999Z</time></trkpt><trkpt lat="43.221236555465815" lon="12.343490701785782"><ele>458.0</ele><time>2026-04-10T12:12:48.999Z</time></trkpt><trkpt lat="43.22130969105219" lon="12.343412204688192"><ele>458.0</ele><time>2026-04-10T12:12:49.999Z</time></trkpt><trkpt lat="43.221377357547674" lon="12.343319473232485"><ele>458.0</ele><time>2026-04-10T12:12:50.999Z</time></trkpt><trkpt lat="43.2214344002658" lon="12.343228497698753"><ele>457.99999999999994</ele><time>2026-04-10T12:12:51.999Z</time></trkpt><trkpt lat="43.22148210370331" lon="12.343150655818356"><ele>458.0</ele><time>2026-04-10T12:12:52.999Z</time></trkpt><trkpt lat="43.22150893172084" lon="12.343061132633958"><ele>455.0</ele><time>2026-04-10T12:12:53.999Z</time></trkpt><trkpt lat="43.221524705186994" lon="12.342957333901595"><ele>451.99999999999994</ele><time>2026-04-10T12:12:54.999Z</time></trkpt><trkpt lat="43.22152978668719" lon="12.34283039787651"><ele>448.99999999999994</ele><time>2026-04-10T12:12:55.999Z</time></trkpt><trkpt lat="43.22153949565605" lon="12.34269840875313"><ele>446.0</ele><time>2026-04-10T12:12:56.999Z</time></trkpt><trkpt lat="43.22156715497213" lon="12.34257437951808"><ele>443.0</ele><time>2026-04-10T12:12:57.999Z</time></trkpt><trkpt lat="43.22160855158826" lon="12.342451550606313"><ele>443.0</ele><time>2026-04-10T12:12:58.999Z</time></trkpt><trkpt lat="43.22167626367709" lon="12.342354999643728"><ele>442.99999999999994</ele><time>2026-04-10T12:12:59.999Z</time></trkpt><trkpt lat="43.221738191923954" lon="12.34223970870684"><ele>442.99999999999994</ele><time>2026-04-10T12:13:00.999Z</time></trkpt><trkpt lat="43.22180073974049" lon="12.342119845550583"><ele>443.0</ele><time>2026-04-10T12:13:01.999Z</time></trkpt><trkpt lat="43.22185401176807" lon="12.341981591671122"><ele>443.0</ele><time>2026-04-10T12:13:02.999Z</time></trkpt><trkpt lat="43.22192481532272" lon="12.341870236302759"><ele>444.0</ele><time>2026-04-10T12:13:03.999Z</time></trkpt><trkpt lat="43.221988824834575" lon="12.341748818861527"><ele>444.99999999999994</ele><time>2026-04-10T12:13:04.999Z</time></trkpt><trkpt lat="43.22204397403967" lon="12.34163742364854"><ele>445.99999999999994</ele><time>2026-04-10T12:13:05.999Z</time></trkpt><trkpt lat="43.22208759198204" lon="12.341543763238883"><ele>447.0</ele><time>2026-04-10T12:13:06.999Z</time></trkpt><trkpt lat="43.222124336549264" lon="12.341465406195674"><ele>448.0</ele><time>2026-04-10T12:13:07.999Z</time></trkpt><trkpt lat="43.22220958335689" lon="12.341403293362896"><ele>448.0</ele><time>2026-04-10T12:13:09.999Z</time></trkpt><trkpt lat="43.22226009239269" lon="12.341459051072782"><ele>447.99999999999994</ele><time>2026-04-10T12:13:11.999Z</time></trkpt><trkpt lat="43.22234519371423" lon="12.341603307089818"><ele>447.99999999999994</ele><time>2026-04-10T12:13:13.999Z</time></trkpt><trkpt lat="43.222371642935684" lon="12.341707330239153"><ele>448.0</ele><time>2026-04-10T12:13:14.999Z</time></trkpt><trkpt lat="43.22239548501154" lon="12.341836982111152"><ele>448.0</ele><time>2026-04-10T12:13:15.999Z</time></trkpt><trkpt lat="43.22242575136945" lon="12.341971319025424"><ele>443.50000000000006</ele><time>2026-04-10T12:13:16.999Z</time></trkpt><trkpt lat="43.2224512185982" lon="12.342124070655856"><ele>439.0</ele><time>2026-04-10T12:13:17.999Z</time></trkpt><trkpt lat="43.222459034575515" lon="12.342275767234245"><ele>434.5</ele><time>2026-04-10T12:13:18.999Z</time></trkpt><trkpt lat="43.22246904993585" lon="12.342392862931604"><ele>430.0</ele><time>2026-04-10T12:13:19.999Z</time></trkpt><trkpt lat="43.22247923313101" lon="12.34249093762247"><ele>425.50000000000006</ele><time>2026-04-10T12:13:20.999Z</time></trkpt><trkpt lat="43.22249434279618" lon="12.342575054422388"><ele>421.0</ele><time>2026-04-10T12:13:21.999Z</time></trkpt><trkpt lat="43.22255263798422" lon="12.342703553775904"><ele>420.33333333333337</ele><time>2026-04-10T12:13:23.999Z</time></trkpt><trkpt lat="43.222615196390095" lon="12.342723458554364"><ele>419.6666666666667</ele><time>2026-04-10T12:13:24.999Z</time></trkpt><trkpt lat="43.22273352242527" lon="12.342676013757115"><ele>419.0</ele><time>2026-04-10T12:13:26.999Z</time></trkpt><trkpt lat="43.22277494558308" lon="12.342599466415372"><ele>418.33333333333337</ele><time>2026-04-10T12:13:27.999Z</time></trkpt><trkpt lat="43.22280674106414" lon="12.342492600419213"><ele>417.6666666666667</ele><time>2026-04-10T12:13:28.999Z</time></trkpt><trkpt lat="43.22284143708494" lon="12.342387494078844"><ele>417.0</ele><time>2026-04-10T12:13:29.999Z</time></trkpt><trkpt lat="43.22288058700664" lon="12.342276571490563"><ele>417.8</ele><time>2026-04-10T12:13:30.999Z</time></trkpt><trkpt lat="43.222918825834924" lon="12.342163314374302"><ele>418.6</ele><time>2026-04-10T12:13:31.999Z</time></trkpt><trkpt lat="43.222948892828676" lon="12.342036194685777"><ele>419.40000000000003</ele><time>2026-04-10T12:13:32.999Z</time></trkpt><trkpt lat="43.22297122184102" lon="12.34190800408007"><ele>420.20000000000005</ele><time>2026-04-10T12:13:33.999Z</time></trkpt><trkpt lat="43.222986150146276" lon="12.341774966048938"><ele>421.0</ele><time>2026-04-10T12:13:34.999Z</time></trkpt><trkpt lat="43.22299959157927" lon="12.34164068113946"><ele>421.0</ele><time>2026-04-10T12:13:35.999Z</time></trkpt><trkpt lat="43.223006602725526" lon="12.341503909011116"><ele>421.0</ele><time>2026-04-10T12:13:36.999Z</time></trkpt><trkpt lat="43.22301930807375" lon="12.341381478586412"><ele>421.0</ele><time>2026-04-10T12:13:37.999Z</time></trkpt><trkpt lat="43.22305307530688" lon="12.341239553471981"><ele>421.0</ele><time>2026-04-10T12:13:40Z</time></trkpt><trkpt lat="43.22317476314848" lon="12.341139901549413"><ele>421.0</ele><time>2026-04-10T12:13:42Z</time></trkpt><trkpt lat="43.22325422631182" lon="12.341131530417286"><ele>418.1666666666667</ele><time>2026-04-10T12:13:43Z</time></trkpt><trkpt lat="43.22335108818681" lon="12.341133712854418"><ele>415.33333333333337</ele><time>2026-04-10T12:13:44Z</time></trkpt><trkpt lat="43.22345041532426" lon="12.341127668903543"><ele>412.5</ele><time>2026-04-10T12:13:45Z</time></trkpt><trkpt lat="43.22354844414308" lon="12.341113021653193"><ele>409.66666666666663</ele><time>2026-04-10T12:13:46Z</time></trkpt><trkpt lat="43.223633643161804" lon="12.341091454769826"><ele>406.8333333333333</ele><time>2026-04-10T12:13:47Z</time></trkpt><trkpt lat="43.223697570408234" lon="12.34106244549108"><ele>404.0</ele><time>2026-04-10T12:13:48Z</time></trkpt><trkpt lat="43.22375946801094" lon="12.34101750875611"><ele>403.99999999999994</ele><time>2026-04-10T12:13:49Z</time></trkpt><trkpt lat="43.22381617862687" lon="12.340960891868466"><ele>404.0</ele><time>2026-04-10T12:13:50Z</time></trkpt><trkpt lat="43.223868000616534" lon="12.340901099040378"><ele>404.0</ele><time>2026-04-10T12:13:51Z</time></trkpt><trkpt lat="43.22392298344761" lon="12.340850508848225"><ele>404.0</ele><time>2026-04-10T12:13:52.001Z</time></trkpt><trkpt lat="43.22404874881526" lon="12.340832024257425"><ele>403.99999999999994</ele><time>2026-04-10T12:13:54.001Z</time></trkpt><trkpt lat="43.22411726981239" lon="12.340866944245432"><ele>404.0</ele><time>2026-04-10T12:13:55.001Z</time></trkpt><trkpt lat="43.22417101527257" lon="12.340912544070314"><ele>401.49999999999994</ele><time>2026-04-10T12:13:56.001Z</time></trkpt><trkpt lat="43.22426766564333" lon="12.340867901301305"><ele>399.0</ele><time>2026-04-10T12:13:58.001Z</time></trkpt><trkpt lat="43.22429711958943" lon="12.340785635121389"><ele>396.5</ele><time>2026-04-10T12:13:59Z</time></trkpt><trkpt lat="43.22430809293146" lon="12.340681105349281"><ele>394.0</ele><time>2026-04-10T12:14:00Z</time></trkpt><trkpt lat="43.22431761858922" lon="12.34056470460594"><ele>391.49999999999994</ele><time>2026-04-10T12:14:01Z</time></trkpt><trkpt lat="43.22434915522439" lon="12.340451817198048"><ele>389.0</ele><time>2026-04-10T12:14:02Z</time></trkpt><trkpt lat="43.224414536413164" lon="12.340361728580158"><ele>388.99999999999994</ele><time>2026-04-10T12:14:03Z</time></trkpt><trkpt lat="43.22449119646288" lon="12.340301364013536"><ele>389.0</ele><time>2026-04-10T12:14:04Z</time></trkpt><trkpt lat="43.224549078254846" lon="12.340263508424144"><ele>389.0</ele><time>2026-04-10T12:14:05Z</time></trkpt><trkpt lat="43.22461782777294" lon="12.340237334706483"><ele>389.0</ele><time>2026-04-10T12:14:07Z</time></trkpt><trkpt lat="43.22468068979122" lon="12.340206070179187"><ele>388.99999999999994</ele><time>2026-04-10T12:14:15Z</time></trkpt><trkpt lat="43.22475894202844" lon="12.340126023372022"><ele>389.0</ele><time>2026-04-10T12:14:18Z</time></trkpt><trkpt lat="43.22484329407627" lon="12.340050185790906"><ele>391.0</ele><time>2026-04-10T12:14:20Z</time></trkpt><trkpt lat="43.22486484562317" lon="12.339907401568423"><ele>393.0</ele><time>2026-04-10T12:14:22Z</time></trkpt><trkpt lat="43.22486269730561" lon="12.339765669794387"><ele>395.0</ele><time>2026-04-10T12:14:24Z</time></trkpt><trkpt lat="43.22480724863602" lon="12.339594829974981"><ele>397.0</ele><time>2026-04-10T12:14:26Z</time></trkpt><trkpt lat="43.22483127840683" lon="12.339437713425525"><ele>364.0</ele><time>2026-04-10T12:14:28Z</time></trkpt><trkpt lat="43.2248543719858" lon="12.339286718190577"><ele>364.0</ele><time>2026-04-10T12:14:30Z</time></trkpt><trkpt lat="43.224933998460294" lon="12.339240717845218"><ele>364.0</ele><time>2026-04-10T12:14:31Z</time></trkpt><trkpt lat="43.22494868122333" lon="12.339122434808965"><ele>364.0</ele><time>2026-04-10T12:14:33Z</time></trkpt></trkseg><trkseg><trkpt lat="43.22277428651181" lon="12.328313320819923"><ele>382.0</ele><time>2026-04-10T12:17:16Z</time></trkpt><trkpt lat="43.222729557700255" lon="12.328210238781013"><ele>382.0</ele><time>2026-04-10T12:17:17Z</time></trkpt><trkpt lat="43.222683211001986" lon="12.328108798285468"><ele>382.0</ele><time>2026-04-10T12:17:18Z</time></trkpt><trkpt lat="43.22263583952789" lon="12.328011170607894"><ele>382.0</ele><time>2026-04-10T12:17:19Z</time></trkpt><trkpt lat="43.22259059189134" lon="12.327911296413486"><ele>382.0</ele><time>2026-04-10T12:17:20Z</time></trkpt><trkpt lat="43.222545052947076" lon="12.327812101606439"><ele>382.0</ele><time>2026-04-10T12:17:21Z</time></trkpt><trkpt lat="43.2224981912585" lon="12.327708815277056"><ele>381.66666666666663</ele><time>2026-04-10T12:17:22Z</time></trkpt><trkpt lat="43.22245227887455" lon="12.327608212336969"><ele>381.3333333333333</ele><time>2026-04-10T12:17:23Z</time></trkpt><trkpt lat="43.222403402227535" lon="12.327505427376146"><ele>381.0</ele><time>2026-04-10T12:17:24Z</time></trkpt><trkpt lat="43.222357947434226" lon="12.327401628904457"><ele>380.6666666666667</ele><time>2026-04-10T12:17:25Z</time></trkpt><trkpt lat="43.2223090975213" lon="12.327295542149761"><ele>380.33333333333337</ele><time>2026-04-10T12:17:26Z</time></trkpt><trkpt lat="43.22226214457346" lon="12.327190101648053"><ele>380.0</ele><time>2026-04-10T12:17:27Z</time></trkpt><trkpt lat="43.22221366889922" lon="12.327082871380417"><ele>379.6666666666667</ele><time>2026-04-10T12:17:28Z</time></trkpt><trkpt lat="43.22216381151826" lon="12.326978931710507"><ele>379.33333333333337</ele><time>2026-04-10T12:17:29Z</time></trkpt><trkpt lat="43.222110224551464" lon="12.326877961481893"><ele>379.0</ele><time>2026-04-10T12:17:30Z</time></trkpt><trkpt lat="43.22206094549441" lon="12.326778886272114"><ele>378.6666666666667</ele><time>2026-04-10T12:17:31Z</time></trkpt><trkpt lat="43.22201824239051" lon="12.326688766358611"><ele>378.3333333333333</ele><time>2026-04-10T12:17:32Z</time></trkpt><trkpt lat="43.2219848479175" lon="12.32661169810585"><ele>378.0</ele><time>2026-04-10T12:17:33Z</time></trkpt><trkpt lat="43.221949717393514" lon="12.326499677715661"><ele>378.4</ele><time>2026-04-10T12:17:35Z</time></trkpt><trkpt lat="43.22201769301389" lon="12.326330108429016"><ele>378.79999999999995</ele><time>2026-04-10T12:17:37Z</time></trkpt><trkpt lat="43.22206164397287" lon="12.326262307304233"><ele>379.2</ele><time>2026-04-10T12:17:38Z</time></trkpt><trkpt lat="43.2221548310368" lon="12.326133438038525"><ele>379.6</ele><time>2026-04-10T12:17:40Z</time></trkpt><trkpt lat="43.22221428599719" lon="12.326083003061017"><ele>380.0</ele><time>2026-04-10T12:17:41Z</time></trkpt><trkpt lat="43.22227693665492" lon="12.326036203295946"><ele>379.8571428571429</ele><time>2026-04-10T12:17:42Z</time></trkpt><trkpt lat="43.22234217117844" lon="12.32599336296305"><ele>379.7142857142857</ele><time>2026-04-10T12:17:43Z</time></trkpt><trkpt lat="43.22240866121922" lon="12.32594895875649"><ele>379.57142857142856</ele><time>2026-04-10T12:17:44Z</time></trkpt><trkpt lat="43.222469944216336" lon="12.32590888245108"><ele>379.42857142857144</ele><time>2026-04-10T12:17:45Z</time></trkpt><trkpt lat="43.22253629772766" lon="12.325878513490085"><ele>379.2857142857143</ele><time>2026-04-10T12:17:46Z</time></trkpt><trkpt lat="43.222597789165214" lon="12.325843410946273"><ele>379.14285714285717</ele><time>2026-04-10T12:17:47Z</time></trkpt><trkpt lat="43.22265792016798" lon="12.32580565579369"><ele>379.0</ele><time>2026-04-10T12:17:48Z</time></trkpt><trkpt lat="43.222775713456535" lon="12.325749766593393"><ele>379.0</ele><time>2026-04-10T12:17:50Z</time></trkpt><trkpt lat="43.22283560651152" lon="12.325717406496581"><ele>379.0</ele><time>2026-04-10T12:17:51Z</time></trkpt><trkpt lat="43.22289707292687" lon="12.32568443373813"><ele>379.0</ele><time>2026-04-10T12:17:52.001Z</time></trkpt><trkpt lat="43.22300983643947" lon="12.325622150300289"><ele>379.0</ele><time>2026-04-10T12:17:54.001Z</time></trkpt><trkpt lat="43.22310337764632" lon="12.325565980587365"><ele>379.0</ele><time>2026-04-10T12:17:56.001Z</time></trkpt><trkpt lat="43.22318621181603" lon="12.325511490096904"><ele>379.0</ele><time>2026-04-10T12:17:58.001Z</time></trkpt><trkpt lat="43.22326534733375" lon="12.325455232265515"><ele>380.0</ele><time>2026-04-10T12:18:00.001Z</time></trkpt><trkpt lat="43.22335970193618" lon="12.325409980383789"><ele>381.0</ele><time>2026-04-10T12:18:02.001Z</time></trkpt><trkpt lat="43.22344945606364" lon="12.325339283204348"><ele>382.0</ele><time>2026-04-10T12:18:04.001Z</time></trkpt><trkpt lat="43.22354283310787" lon="12.3252783028187"><ele>383.0</ele><time>2026-04-10T12:18:06Z</time></trkpt><trkpt lat="43.223632127320116" lon="12.325218370036163"><ele>384.0</ele><time>2026-04-10T12:18:08Z</time></trkpt><trkpt lat="43.22371697888652" lon="12.32515019621036"><ele>384.0</ele><time>2026-04-10T12:18:10Z</time></trkpt><trkpt lat="43.22379768068268" lon="12.325082848149993"><ele>384.0</ele><time>2026-04-10T12:18:12Z</time></trkpt><trkpt lat="43.22387773500712" lon="12.325012015852238"><ele>384.0</ele><time>2026-04-10T12:18:14Z</time></trkpt><trkpt lat="43.223954486421455" lon="12.324924071807201"><ele>384.0</ele><time>2026-04-10T12:18:16Z</time></trkpt><trkpt lat="43.224030477379316" lon="12.324833529336129"><ele>384.0</ele><time>2026-04-10T12:18:18Z</time></trkpt><trkpt lat="43.22410752808995" lon="12.324748767234324"><ele>387.2</ele><time>2026-04-10T12:18:20Z</time></trkpt><trkpt lat="43.2241799668834" lon="12.32466912362547"><ele>390.4</ele><time>2026-04-10T12:18:22Z</time></trkpt><trkpt lat="43.22425525891507" lon="12.324594435055927"><ele>393.6</ele><time>2026-04-10T12:18:24Z</time></trkpt><trkpt lat="43.22433097081231" lon="12.324525413407004"><ele>396.8</ele><time>2026-04-10T12:18:26Z</time></trkpt><trkpt lat="43.22428946224442" lon="12.324376359990582"><ele>400.0</ele><time>2026-04-10T12:18:29Z</time></trkpt><trkpt lat="43.22421197765822" lon="12.324363565950556"><ele>400.00000000000006</ele><time>2026-04-10T12:18:31Z</time></trkpt><trkpt lat="43.22412889244772" lon="12.324322771611554"><ele>400.0</ele><time>2026-04-10T12:18:34Z</time></trkpt><trkpt lat="43.22406834572764" lon="12.32429276990767"><ele>400.0</ele><time>2026-04-10T12:18:36Z</time></trkpt><trkpt lat="43.224003983579" lon="12.324257434540396"><ele>400.0</ele><time>2026-04-10T12:18:38Z</time></trkpt><trkpt lat="43.22393800274998" lon="12.324207884962544"><ele>400.00000000000006</ele><time>2026-04-10T12:18:40Z</time></trkpt><trkpt lat="43.22389983094592" lon="12.324122995989748"><ele>400.0</ele><time>2026-04-10T12:18:42Z</time></trkpt><trkpt lat="43.223921988004086" lon="12.32401695522874"><ele>400.7142857142857</ele><time>2026-04-10T12:18:44Z</time></trkpt><trkpt lat="43.22396906493559" lon="12.323938407271676"><ele>401.42857142857144</ele><time>2026-04-10T12:18:46Z</time></trkpt><trkpt lat="43.224026143920995" lon="12.323873794060866"><ele>402.1428571428571</ele><time>2026-04-10T12:18:48Z</time></trkpt><trkpt lat="43.2240877339568" lon="12.323824104415278"><ele>402.8571428571429</ele><time>2026-04-10T12:18:50Z</time></trkpt><trkpt lat="43.22415271108888" lon="12.323797564166602"><ele>403.57142857142856</ele><time>2026-04-10T12:18:52Z</time></trkpt><trkpt lat="43.224214027431955" lon="12.323757665287658"><ele>404.2857142857143</ele><time>2026-04-10T12:18:54Z</time></trkpt><trkpt lat="43.22427539165397" lon="12.323704953627816"><ele>405.0</ele><time>2026-04-10T12:18:56Z</time></trkpt><trkpt lat="43.224347745929016" lon="12.323640963759953"><ele>405.0</ele><time>2026-04-10T12:18:58Z</time></trkpt><trkpt lat="43.22441951251901" lon="12.323561962307085"><ele>405.0</ele><time>2026-04-10T12:19:00Z</time></trkpt><trkpt lat="43.22448004707874" lon="12.323463782631022"><ele>405.0</ele><time>2026-04-10T12:19:02Z</time></trkpt><trkpt lat="43.224539787641" lon="12.323372917595725"><ele>405.0</ele><time>2026-04-10T12:19:04Z</time></trkpt><trkpt lat="43.22460018448954" lon="12.323280237840859"><ele>405.0</ele><time>2026-04-10T12:19:06Z</time></trkpt><trkpt lat="43.22465728156252" lon="12.323184003629658"><ele>405.0</ele><time>2026-04-10T12:19:08Z</time></trkpt><trkpt lat="43.22470367198933" lon="12.323096240129633"><ele>405.0</ele><time>2026-04-10T12:19:10Z</time></trkpt><trkpt lat="43.224757651523845" lon="12.322945900677588"><ele>405.0</ele><time>2026-04-10T12:19:49Z</time></trkpt><trkpt lat="43.22478952604466" lon="12.322868384029938"><ele>405.0</ele><time>2026-04-10T12:19:51Z</time></trkpt><trkpt lat="43.22482219147122" lon="12.322780434343745"><ele>405.0</ele><time>2026-04-10T12:19:53Z</time></trkpt><trkpt lat="43.224859953172555" lon="12.32268321992002"><ele>405.0</ele><time>2026-04-10T12:19:55Z</time></trkpt><trkpt lat="43.22489888012053" lon="12.322587294005007"><ele>407.0</ele><time>2026-04-10T12:19:57Z</time></trkpt><trkpt lat="43.22494304689596" lon="12.32247584590733"><ele>409.0</ele><time>2026-04-10T12:19:59Z</time></trkpt><trkpt lat="43.22498559677352" lon="12.32237948393305"><ele>411.0</ele><time>2026-04-10T12:20:01Z</time></trkpt><trkpt lat="43.22502774530551" lon="12.322264079829905"><ele>413.0</ele><time>2026-04-10T12:20:03Z</time></trkpt><trkpt lat="43.22504850903413" lon="12.322130801148976"><ele>415.0</ele><time>2026-04-10T12:20:05Z</time></trkpt><trkpt lat="43.2250518467925" lon="12.32199140197413"><ele>416.00000000000006</ele><time>2026-04-10T12:20:07Z</time></trkpt><trkpt lat="43.22504482299987" lon="12.32190441344921"><ele>417.0</ele><time>2026-04-10T12:20:08Z</time></trkpt><trkpt lat="43.22503304200672" lon="12.321769518557646"><ele>418.0</ele><time>2026-04-10T12:20:10Z</time></trkpt><trkpt lat="43.22500794698185" lon="12.321677337905099"><ele>419.0</ele><time>2026-04-10T12:20:12Z</time></trkpt><trkpt lat="43.22497910089274" lon="12.321570680175599"><ele>420.00000000000006</ele><time>2026-04-10T12:20:33Z</time></trkpt><trkpt lat="43.224949449580286" lon="12.321458204366648"><ele>421.0</ele><time>2026-04-10T12:20:36Z</time></trkpt><trkpt lat="43.22492869487753" lon="12.321364301110012"><ele>421.1666666666667</ele><time>2026-04-10T12:20:38Z</time></trkpt><trkpt lat="43.22487972447425" lon="12.32127548834843"><ele>421.33333333333337</ele><time>2026-04-10T12:20:40Z</time></trkpt><trkpt lat="43.22485743617626" lon="12.321167794941335"><ele>421.5</ele><time>2026-04-10T12:20:42Z</time></trkpt><trkpt lat="43.22482459795499" lon="12.321055315095109"><ele>421.66666666666663</ele><time>2026-04-10T12:20:44Z</time></trkpt><trkpt lat="43.22480477656268" lon="12.320943338779943"><ele>421.8333333333333</ele><time>2026-04-10T12:20:46Z</time></trkpt><trkpt lat="43.2248035171618" lon="12.320818891176668"><ele>422.0</ele><time>2026-04-10T12:20:48Z</time></trkpt><trkpt lat="43.22481155040788" lon="12.320714715028032"><ele>423.0</ele><time>2026-04-10T12:20:50Z</time></trkpt><trkpt lat="43.224841080804886" lon="12.320382348148485"><ele>424.0</ele><time>2026-04-10T12:22:21Z</time></trkpt><trkpt lat="43.22484315097942" lon="12.320276911463024"><ele>425.0</ele><time>2026-04-10T12:22:23Z</time></trkpt><trkpt lat="43.22484315097629" lon="12.32018367378518"><ele>426.0</ele><time>2026-04-10T12:22:25Z</time></trkpt><trkpt lat="43.224825213516624" lon="12.320065890222812"><ele>426.0</ele><time>2026-04-10T12:22:27Z</time></trkpt><trkpt lat="43.224820719092975" lon="12.319946985495282"><ele>426.0</ele><time>2026-04-10T12:22:29Z</time></trkpt><trkpt lat="43.224806206102116" lon="12.319829754784637"><ele>426.0</ele><time>2026-04-10T12:22:31Z</time></trkpt><trkpt lat="43.224791037099855" lon="12.319706620308896"><ele>426.0</ele><time>2026-04-10T12:22:33Z</time></trkpt><trkpt lat="43.22476634290689" lon="12.319584790168994"><ele>426.0</ele><time>2026-04-10T12:22:35Z</time></trkpt><trkpt lat="43.22473395478335" lon="12.31946394739663"><ele>427.8333333333333</ele><time>2026-04-10T12:22:37Z</time></trkpt><trkpt lat="43.22468562203816" lon="12.319353006131008"><ele>429.66666666666663</ele><time>2026-04-10T12:22:39Z</time></trkpt><trkpt lat="43.22463633257554" lon="12.319247810911698"><ele>431.5</ele><time>2026-04-10T12:22:41Z</time></trkpt><trkpt lat="43.22458494467532" lon="12.319147838003785"><ele>433.3333333333333</ele><time>2026-04-10T12:22:43Z</time></trkpt><trkpt lat="43.22453307274339" lon="12.319057449027232"><ele>435.16666666666663</ele><time>2026-04-10T12:22:45Z</time></trkpt><trkpt lat="43.22450865217348" lon="12.318963309837093"><ele>437.0</ele><time>2026-04-10T12:22:47Z</time></trkpt><trkpt lat="43.22445249975558" lon="12.318885216320538"><ele>439.49999999999994</ele><time>2026-04-10T12:22:49Z</time></trkpt><trkpt lat="43.224380209265355" lon="12.318825543364001"><ele>442.0</ele><time>2026-04-10T12:22:51Z</time></trkpt><trkpt lat="43.22432438290391" lon="12.31875463560633"><ele>444.5</ele><time>2026-04-10T12:22:53Z</time></trkpt><trkpt lat="43.224248867739256" lon="12.318706637485278"><ele>447.0</ele><time>2026-04-10T12:22:55Z</time></trkpt><trkpt lat="43.22415777020701" lon="12.318701666403697"><ele>449.49999999999994</ele><time>2026-04-10T12:22:57Z</time></trkpt><trkpt lat="43.224063467205895" lon="12.318659838950497"><ele>452.0</ele><time>2026-04-10T12:22:59Z</time></trkpt><trkpt lat="43.22397433144386" lon="12.318649843325796"><ele>452.8333333333333</ele><time>2026-04-10T12:23:01Z</time></trkpt><trkpt lat="43.22388430896366" lon="12.31863741577275"><ele>453.66666666666663</ele><time>2026-04-10T12:23:03Z</time></trkpt><trkpt lat="43.22379154764959" lon="12.31863927257848"><ele>454.5</ele><time>2026-04-10T12:23:05Z</time></trkpt><trkpt lat="43.22370151902702" lon="12.318600745890889"><ele>455.33333333333337</ele><time>2026-04-10T12:23:07Z</time></trkpt><trkpt lat="43.22361356742003" lon="12.318574402106856"><ele>456.1666666666667</ele><time>2026-04-10T12:23:09Z</time></trkpt><trkpt lat="43.22353360779668" lon="12.318562931728016"><ele>457.0</ele><time>2026-04-10T12:23:11Z</time></trkpt><trkpt lat="43.2234656397936" lon="12.318547146934932"><ele>457.00000000000006</ele><time>2026-04-10T12:23:14Z</time></trkpt><trkpt lat="43.22338287883216" lon="12.318499011262887"><ele>457.0</ele><time>2026-04-10T12:24:05Z</time></trkpt><trkpt lat="43.22331570017392" lon="12.318472568016535"><ele>457.0</ele><time>2026-04-10T12:24:07Z</time></trkpt><trkpt lat="43.22323923393338" lon="12.31843876646553"><ele>457.0</ele><time>2026-04-10T12:24:08.999Z</time></trkpt><trkpt lat="43.22315147873151" lon="12.31839998989592"><ele>457.00000000000006</ele><time>2026-04-10T12:24:10.999Z</time></trkpt><trkpt lat="43.223061539903725" lon="12.318361658821885"><ele>457.0</ele><time>2026-04-10T12:24:13Z</time></trkpt><trkpt lat="43.22297306842547" lon="12.318328759326045"><ele>456.20000000000005</ele><time>2026-04-10T12:24:15Z</time></trkpt><trkpt lat="43.22288199195301" lon="12.318301974923239"><ele>455.40000000000003</ele><time>2026-04-10T12:24:17Z</time></trkpt><trkpt lat="43.22279778271728" lon="12.318266137037659"><ele>454.59999999999997</ele><time>2026-04-10T12:24:19Z</time></trkpt><trkpt lat="43.22272413507049" lon="12.318195824780187"><ele>453.79999999999995</ele><time>2026-04-10T12:24:21Z</time></trkpt><trkpt lat="43.222672420188026" lon="12.318086534397933"><ele>453.0</ele><time>2026-04-10T12:24:23Z</time></trkpt><trkpt lat="43.22261655490125" lon="12.317977679201164"><ele>455.4</ele><time>2026-04-10T12:24:25Z</time></trkpt><trkpt lat="43.22256726712327" lon="12.317871085016147"><ele>457.79999999999995</ele><time>2026-04-10T12:24:27Z</time></trkpt><trkpt lat="43.22251656111061" lon="12.317759372294049"><ele>460.2</ele><time>2026-04-10T12:24:29Z</time></trkpt><trkpt lat="43.2224633682006" lon="12.317639257095028"><ele>462.6</ele><time>2026-04-10T12:24:31Z</time></trkpt><trkpt lat="43.22241403348614" lon="12.317514402463095"><ele>465.0</ele><time>2026-04-10T12:24:33Z</time></trkpt><trkpt lat="43.22236397089277" lon="12.317363918452887"><ele>465.0</ele><time>2026-04-10T12:24:35Z</time></trkpt><trkpt lat="43.22233700192575" lon="12.317282369510272"><ele>465.0</ele><time>2026-04-10T12:24:36Z</time></trkpt><trkpt lat="43.2223086190173" lon="12.317199062618725"><ele>465.0</ele><time>2026-04-10T12:24:37Z</time></trkpt><trkpt lat="43.22228176558528" lon="12.317120115321737"><ele>465.0</ele><time>2026-04-10T12:24:38Z</time></trkpt><trkpt lat="43.22225388436097" lon="12.317038146378511"><ele>465.0</ele><time>2026-04-10T12:24:39Z</time></trkpt><trkpt lat="43.222225451782506" lon="12.316959626508993"><ele>465.0</ele><time>2026-04-10T12:24:40Z</time></trkpt><trkpt lat="43.22218772525041" lon="12.316874362055533"><ele>465.0</ele><time>2026-04-10T12:24:41Z</time></trkpt><trkpt lat="43.22215150155292" lon="12.316803095993617"><ele>463.8333333333333</ele><time>2026-04-10T12:24:42Z</time></trkpt><trkpt lat="43.222115754536134" lon="12.316731342480638"><ele>462.66666666666663</ele><time>2026-04-10T12:24:43Z</time></trkpt><trkpt lat="43.22206238915829" lon="12.316622074158662"><ele>461.5</ele><time>2026-04-10T12:24:45Z</time></trkpt><trkpt lat="43.222008927738955" lon="12.316519701886431"><ele>460.3333333333333</ele><time>2026-04-10T12:24:47Z</time></trkpt><trkpt lat="43.221955062314066" lon="12.316425065204903"><ele>459.16666666666663</ele><time>2026-04-10T12:24:49Z</time></trkpt><trkpt lat="43.22190369814407" lon="12.316339894490088"><ele>458.0</ele><time>2026-04-10T12:24:51Z</time></trkpt><trkpt lat="43.22183392219782" lon="12.316237271528896"><ele>457.99999999999994</ele><time>2026-04-10T12:24:53Z</time></trkpt><trkpt lat="43.221772750431434" lon="12.31614028942983"><ele>458.0</ele><time>2026-04-10T12:24:55Z</time></trkpt><trkpt lat="43.221726408487974" lon="12.316055465738662"><ele>458.0</ele><time>2026-04-10T12:24:57Z</time></trkpt><trkpt lat="43.22169936627819" lon="12.315969868659268"><ele>458.0</ele><time>2026-04-10T12:24:59Z</time></trkpt><trkpt lat="43.22169840427982" lon="12.315876204344235"><ele>457.99999999999994</ele><time>2026-04-10T12:25:01Z</time></trkpt><trkpt lat="43.221731211706846" lon="12.315783361576592"><ele>458.0</ele><time>2026-04-10T12:25:03Z</time></trkpt><trkpt lat="43.22182663894596" lon="12.315709668561814"><ele>458.0</ele><time>2026-04-10T12:25:05Z</time></trkpt><trkpt lat="43.22194355727296" lon="12.315671430725082"><ele>457.99999999999994</ele><time>2026-04-10T12:25:07Z</time></trkpt><trkpt lat="43.22207188979887" lon="12.315617301204927"><ele>457.99999999999994</ele><time>2026-04-10T12:25:09Z</time></trkpt><trkpt lat="43.22214199529546" lon="12.315563226274753"><ele>458.0</ele><time>2026-04-10T12:25:10Z</time></trkpt><trkpt lat="43.222215560578725" lon="12.315547973650585"><ele>458.0</ele><time>2026-04-10T12:25:11Z</time></trkpt><trkpt lat="43.22229292757611" lon="12.315502929020015"><ele>457.8333333333333</ele><time>2026-04-10T12:25:12Z</time></trkpt><trkpt lat="43.2223778311735" lon="12.315444153908954"><ele>457.66666666666663</ele><time>2026-04-10T12:25:13Z</time></trkpt><trkpt lat="43.222442543099866" lon="12.315395567441247"><ele>457.5</ele><time>2026-04-10T12:25:14Z</time></trkpt><trkpt lat="43.22251174167441" lon="12.31534921765284"><ele>457.33333333333337</ele><time>2026-04-10T12:25:15Z</time></trkpt><trkpt lat="43.22258351599808" lon="12.315308890258018"><ele>457.1666666666667</ele><time>2026-04-10T12:25:16Z</time></trkpt><trkpt lat="43.22264969737511" lon="12.315277870533087"><ele>457.0</ele><time>2026-04-10T12:25:17Z</time></trkpt><trkpt lat="43.222715074405755" lon="12.315245588291079"><ele>457.00000000000006</ele><time>2026-04-10T12:25:18Z</time></trkpt><trkpt lat="43.22278456640043" lon="12.31521127422145"><ele>457.0</ele><time>2026-04-10T12:25:19Z</time></trkpt><trkpt lat="43.22285849126764" lon="12.315158104516957"><ele>457.0</ele><time>2026-04-10T12:25:20Z</time></trkpt><trkpt lat="43.22292545722483" lon="12.315077615213202"><ele>457.0</ele><time>2026-04-10T12:25:21Z</time></trkpt><trkpt lat="43.22298798759206" lon="12.31499130914265"><ele>457.00000000000006</ele><time>2026-04-10T12:25:22Z</time></trkpt><trkpt lat="43.223043620098885" lon="12.314892492389504"><ele>457.0</ele><time>2026-04-10T12:25:23Z</time></trkpt><trkpt lat="43.2230931494716" lon="12.314805313926017"><ele>455.83333333333337</ele><time>2026-04-10T12:25:24Z</time></trkpt><trkpt lat="43.223150791484805" lon="12.31472349630998"><ele>454.6666666666667</ele><time>2026-04-10T12:25:25Z</time></trkpt><trkpt lat="43.22320415951468" lon="12.314658785748184"><ele>453.5</ele><time>2026-04-10T12:25:26Z</time></trkpt><trkpt lat="43.22326979134312" lon="12.314620882552308"><ele>452.33333333333337</ele><time>2026-04-10T12:25:27Z</time></trkpt><trkpt lat="43.22335201610345" lon="12.31460059728222"><ele>451.1666666666667</ele><time>2026-04-10T12:25:28Z</time></trkpt><trkpt lat="43.223422713743865" lon="12.314593706242052"><ele>450.0</ele><time>2026-04-10T12:25:29Z</time></trkpt><trkpt lat="43.22349554505104" lon="12.31458464467128"><ele>450.0</ele><time>2026-04-10T12:25:30Z</time></trkpt><trkpt lat="43.22357862018323" lon="12.31457313854484"><ele>450.0</ele><time>2026-04-10T12:25:31Z</time></trkpt><trkpt lat="43.22366356511783" lon="12.314556991996325"><ele>450.0</ele><time>2026-04-10T12:25:32Z</time></trkpt><trkpt lat="43.22374807424029" lon="12.314540928279207"><ele>450.0</ele><time>2026-04-10T12:25:33Z</time></trkpt><trkpt lat="43.223833788517716" lon="12.314525693635849"><ele>450.0</ele><time>2026-04-10T12:25:34Z</time></trkpt><trkpt lat="43.223921912090546" lon="12.314513894977047"><ele>450.0</ele><time>2026-04-10T12:25:35Z</time></trkpt><trkpt lat="43.22400224398291" lon="12.31449546697428"><ele>450.8</ele><time>2026-04-10T12:25:36Z</time></trkpt><trkpt lat="43.22409831634725" lon="12.314476921768424"><ele>451.6</ele><time>2026-04-10T12:25:37Z</time></trkpt><trkpt lat="43.22418005756946" lon="12.314480686109256"><ele>452.4</ele><time>2026-04-10T12:25:38Z</time></trkpt><trkpt lat="43.2242682399245" lon="12.31445532918286"><ele>453.2</ele><time>2026-04-10T12:25:39Z</time></trkpt><trkpt lat="43.224360229614554" lon="12.314448290332326"><ele>454.0</ele><time>2026-04-10T12:25:40Z</time></trkpt><trkpt lat="43.224450956994986" lon="12.314445671675772"><ele>454.00000000000006</ele><time>2026-04-10T12:25:41Z</time></trkpt><trkpt lat="43.22453947195245" lon="12.314441996135574"><ele>454.0</ele><time>2026-04-10T12:25:42Z</time></trkpt><trkpt lat="43.22461680193806" lon="12.31442915095317"><ele>454.0</ele><time>2026-04-10T12:25:43Z</time></trkpt><trkpt lat="43.2246841107957" lon="12.314418629638197"><ele>454.0</ele><time>2026-04-10T12:25:44Z</time></trkpt><trkpt lat="43.22477122127193" lon="12.314398762246837"><ele>454.00000000000006</ele><time>2026-04-10T12:25:45Z</time></trkpt><trkpt lat="43.22483971976032" lon="12.314399520580738"><ele>454.0</ele><time>2026-04-10T12:25:46Z</time></trkpt><trkpt lat="43.2249106949254" lon="12.31439305165873"><ele>454.79999999999995</ele><time>2026-04-10T12:25:48Z</time></trkpt><trkpt lat="43.224982224431095" lon="12.314386444887635"><ele>455.59999999999997</ele><time>2026-04-10T12:25:52Z</time></trkpt><trkpt lat="43.22505731613851" lon="12.314402261681828"><ele>456.4</ele><time>2026-04-10T12:25:58Z</time></trkpt><trkpt lat="43.22514975004973" lon="12.314314960710194"><ele>457.2</ele><time>2026-04-10T12:26:23Z</time></trkpt><trkpt lat="43.22524287606481" lon="12.314229657783287"><ele>458.0</ele><time>2026-04-10T12:26:25Z</time></trkpt><trkpt lat="43.225315173935584" lon="12.314154830521726"><ele>458.0</ele><time>2026-04-10T12:26:27Z</time></trkpt><trkpt lat="43.22539817743357" lon="12.314052730515659"><ele>457.99999999999994</ele><time>2026-04-10T12:26:29Z</time></trkpt><trkpt lat="43.22544254985225" lon="12.313987348838797"><ele>457.99999999999994</ele><time>2026-04-10T12:26:30Z</time></trkpt><trkpt lat="43.22549140594493" lon="12.313906989414368"><ele>458.0</ele><time>2026-04-10T12:26:31Z</time></trkpt><trkpt lat="43.22558138458049" lon="12.313763292248403"><ele>458.0</ele><time>2026-04-10T12:26:33Z</time></trkpt><trkpt lat="43.225656320302065" lon="12.313618221484486"><ele>458.16666666666663</ele><time>2026-04-10T12:26:35Z</time></trkpt><trkpt lat="43.22569333851558" lon="12.313543391302364"><ele>458.3333333333333</ele><time>2026-04-10T12:26:36Z</time></trkpt><trkpt lat="43.22576114063724" lon="12.313395085248144"><ele>458.5</ele><time>2026-04-10T12:26:38Z</time></trkpt><trkpt lat="43.225795705941714" lon="12.313319479364749"><ele>458.66666666666663</ele><time>2026-04-10T12:26:39Z</time></trkpt><trkpt lat="43.22583202085936" lon="12.313240667987845"><ele>458.8333333333333</ele><time>2026-04-10T12:26:40Z</time></trkpt><trkpt lat="43.225872881478864" lon="12.313152095111707"><ele>459.0</ele><time>2026-04-10T12:26:41Z</time></trkpt><trkpt lat="43.22593677370547" lon="12.313003039572914"><ele>457.3333333333333</ele><time>2026-04-10T12:26:43Z</time></trkpt><trkpt lat="43.22596605120627" lon="12.312923389129645"><ele>455.66666666666663</ele><time>2026-04-10T12:26:44Z</time></trkpt><trkpt lat="43.226019201987604" lon="12.312840424807959"><ele>454.0</ele><time>2026-04-10T12:26:45Z</time></trkpt><trkpt lat="43.22605361878164" lon="12.31274243695664"><ele>452.3333333333333</ele><time>2026-04-10T12:26:46Z</time></trkpt><trkpt lat="43.22610288603158" lon="12.312646518783378"><ele>450.66666666666663</ele><time>2026-04-10T12:26:47Z</time></trkpt><trkpt lat="43.22614895949176" lon="12.312544127359216"><ele>449.0</ele><time>2026-04-10T12:26:48Z</time></trkpt><trkpt lat="43.22620711526227" lon="12.312448081339934"><ele>449.0</ele><time>2026-04-10T12:26:49Z</time></trkpt><trkpt lat="43.226252669640026" lon="12.312335725275739"><ele>449.0</ele><time>2026-04-10T12:26:50Z</time></trkpt><trkpt lat="43.226308717972" lon="12.312238816368481"><ele>449.0</ele><time>2026-04-10T12:26:51Z</time></trkpt><trkpt lat="43.22636605387732" lon="12.31214458603961"><ele>449.0</ele><time>2026-04-10T12:26:52Z</time></trkpt><trkpt lat="43.226406308800094" lon="12.312064781028484"><ele>449.0</ele><time>2026-04-10T12:26:53Z</time></trkpt><trkpt lat="43.226478361823055" lon="12.311872032299448"><ele>449.16666666666663</ele><time>2026-04-10T12:26:55Z</time></trkpt><trkpt lat="43.226500524800926" lon="12.311773526315145"><ele>449.3333333333333</ele><time>2026-04-10T12:26:56Z</time></trkpt><trkpt lat="43.22651179349316" lon="12.31167249414755"><ele>449.5</ele><time>2026-04-10T12:26:57Z</time></trkpt><trkpt lat="43.22652877302858" lon="12.311570142330321"><ele>449.66666666666663</ele><time>2026-04-10T12:26:58Z</time></trkpt><trkpt lat="43.22653068787704" lon="12.31146512186245"><ele>449.8333333333333</ele><time>2026-04-10T12:26:59Z</time></trkpt><trkpt lat="43.2265172864043" lon="12.311345794554901"><ele>450.0</ele><time>2026-04-10T12:27:00Z</time></trkpt><trkpt lat="43.22649398108948" lon="12.3112258129041"><ele>449.1666666666667</ele><time>2026-04-10T12:27:01Z</time></trkpt><trkpt lat="43.22645712164448" lon="12.311106187588429"><ele>448.33333333333337</ele><time>2026-04-10T12:27:02Z</time></trkpt><trkpt lat="43.22640146851646" lon="12.311006859234364"><ele>447.5</ele><time>2026-04-10T12:27:03Z</time></trkpt><trkpt lat="43.22637294301201" lon="12.310887959450802"><ele>446.6666666666667</ele><time>2026-04-10T12:27:04Z</time></trkpt><trkpt lat="43.22632835476993" lon="12.31078603655007"><ele>445.83333333333337</ele><time>2026-04-10T12:27:05Z</time></trkpt><trkpt lat="43.22628628468508" lon="12.310690582171116"><ele>445.0</ele><time>2026-04-10T12:27:06Z</time></trkpt><trkpt lat="43.22624591732972" lon="12.310595158285814"><ele>447.00000000000006</ele><time>2026-04-10T12:27:07Z</time></trkpt><trkpt lat="43.2262112603495" lon="12.310509533368004"><ele>449.0</ele><time>2026-04-10T12:27:08Z</time></trkpt><trkpt lat="43.226155210484926" lon="12.310370448977386"><ele>451.0</ele><time>2026-04-10T12:27:10Z</time></trkpt><trkpt lat="43.226108574349496" lon="12.310265650430134"><ele>453.0</ele><time>2026-04-10T12:27:12Z</time></trkpt><trkpt lat="43.226058296716545" lon="12.310190401007306"><ele>455.00000000000006</ele><time>2026-04-10T12:27:14Z</time></trkpt><trkpt lat="43.22600832342309" lon="12.31013673403172"><ele>457.0</ele><time>2026-04-10T12:27:17Z</time></trkpt><trkpt lat="43.226040153256356" lon="12.309970882750573"><ele>457.0</ele><time>2026-04-10T12:27:38Z</time></trkpt><trkpt lat="43.2260445119034" lon="12.309828879058054"><ele>457.00000000000006</ele><time>2026-04-10T12:27:40Z</time></trkpt><trkpt lat="43.22605529265997" lon="12.309675538586951"><ele>457.00000000000006</ele><time>2026-04-10T12:27:42Z</time></trkpt><trkpt lat="43.2260711695316" lon="12.309521099120074"><ele>457.0</ele><time>2026-04-10T12:27:44Z</time></trkpt><trkpt lat="43.226101808908744" lon="12.309371506044453"><ele>457.0</ele><time>2026-04-10T12:27:46Z</time></trkpt><trkpt lat="43.226128707067524" lon="12.309289715748465"><ele>457.20000000000005</ele><time>2026-04-10T12:27:47Z</time></trkpt><trkpt lat="43.22616246503218" lon="12.309208387777888"><ele>457.40000000000003</ele><time>2026-04-10T12:27:48Z</time></trkpt><trkpt lat="43.226192282974985" lon="12.309043759467274"><ele>457.59999999999997</ele><time>2026-04-10T12:27:50Z</time></trkpt><trkpt lat="43.22612804823561" lon="12.308876971295788"><ele>457.79999999999995</ele><time>2026-04-10T12:27:52Z</time></trkpt><trkpt lat="43.22604779234334" lon="12.308824393475021"><ele>458.0</ele><time>2026-04-10T12:27:53Z</time></trkpt><trkpt lat="43.22599173242449" lon="12.308756908890059"><ele>457.49999999999994</ele><time>2026-04-10T12:27:54Z</time></trkpt><trkpt lat="43.225944849111514" lon="12.308660444802864"><ele>457.0</ele><time>2026-04-10T12:27:55Z</time></trkpt><trkpt lat="43.22587158678914" lon="12.308497850194934"><ele>456.5</ele><time>2026-04-10T12:27:57Z</time></trkpt><trkpt lat="43.22582882680229" lon="12.308415705970027"><ele>456.0</ele><time>2026-04-10T12:27:58Z</time></trkpt><trkpt lat="43.225784644100244" lon="12.30831495552168"><ele>455.49999999999994</ele><time>2026-04-10T12:28:00Z</time></trkpt><trkpt lat="43.22576361769767" lon="12.308229378295422"><ele>455.0</ele><time>2026-04-10T12:28:02Z</time></trkpt><trkpt lat="43.225782346070325" lon="12.308123325132696"><ele>456.16666666666663</ele><time>2026-04-10T12:28:06Z</time></trkpt><trkpt lat="43.22583401863137" lon="12.308021903356812"><ele>457.3333333333333</ele><time>2026-04-10T12:28:08Z</time></trkpt><trkpt lat="43.22588464026823" lon="12.30793246409437"><ele>458.5</ele><time>2026-04-10T12:28:10Z</time></trkpt><trkpt lat="43.22594291178319" lon="12.30786498722688"><ele>459.66666666666663</ele><time>2026-04-10T12:28:12Z</time></trkpt><trkpt lat="43.22601810618019" lon="12.307769221511018"><ele>460.8333333333333</ele><time>2026-04-10T12:28:14Z</time></trkpt><trkpt lat="43.22605106020711" lon="12.307687522801988"><ele>462.0</ele><time>2026-04-10T12:28:15Z</time></trkpt><trkpt lat="43.22609161425923" lon="12.307614148582884"><ele>462.0</ele><time>2026-04-10T12:28:16Z</time></trkpt><trkpt lat="43.22618019485352" lon="12.307532963518721"><ele>462.00000000000006</ele><time>2026-04-10T12:28:18Z</time></trkpt><trkpt lat="43.22631078756922" lon="12.307497789478015"><ele>462.00000000000006</ele><time>2026-04-10T12:28:20Z</time></trkpt><trkpt lat="43.226388427127596" lon="12.307493270245736"><ele>462.0</ele><time>2026-04-10T12:28:21Z</time></trkpt><trkpt lat="43.22647144282825" lon="12.307480640337367"><ele>462.0</ele><time>2026-04-10T12:28:22Z</time></trkpt><trkpt lat="43.226556761817065" lon="12.307480576239826"><ele>461.3333333333333</ele><time>2026-04-10T12:28:23Z</time></trkpt><trkpt lat="43.226641153517164" lon="12.307484709293034"><ele>460.66666666666663</ele><time>2026-04-10T12:28:24Z</time></trkpt><trkpt lat="43.22670566607226" lon="12.307479058537817"><ele>460.0</ele><time>2026-04-10T12:28:25Z</time></trkpt><trkpt lat="43.226781333230484" lon="12.307474268879384"><ele>459.3333333333333</ele><time>2026-04-10T12:28:27Z</time></trkpt><trkpt lat="43.22686422447341" lon="12.30742419502531"><ele>458.66666666666663</ele><time>2026-04-10T12:28:32Z</time></trkpt><trkpt lat="43.22692772149626" lon="12.307320006537925"><ele>458.0</ele><time>2026-04-10T12:28:35Z</time></trkpt><trkpt lat="43.2269461719633" lon="12.307191515698355"><ele>457.99999999999994</ele><time>2026-04-10T12:28:37Z</time></trkpt><trkpt lat="43.22698063495895" lon="12.307054459618925"><ele>458.0</ele><time>2026-04-10T12:28:39Z</time></trkpt><trkpt lat="43.226994517088826" lon="12.306892279823742"><ele>458.0</ele><time>2026-04-10T12:28:41Z</time></trkpt><trkpt lat="43.2269947179016" lon="12.30679721324782"><ele>458.0</ele><time>2026-04-10T12:28:42Z</time></trkpt><trkpt lat="43.22698812457288" lon="12.306700599081339"><ele>457.99999999999994</ele><time>2026-04-10T12:28:43Z</time></trkpt><trkpt lat="43.2269737332676" lon="12.306605556659772"><ele>458.0</ele><time>2026-04-10T12:28:44Z</time></trkpt><trkpt lat="43.226925799100066" lon="12.306443933651225"><ele>457.59999999999997</ele><time>2026-04-10T12:28:46Z</time></trkpt><trkpt lat="43.226881671731086" lon="12.30635441545984"><ele>457.19999999999993</ele><time>2026-04-10T12:28:47Z</time></trkpt><trkpt lat="43.22682667342766" lon="12.306287010672495"><ele>456.8</ele><time>2026-04-10T12:28:48Z</time></trkpt><trkpt lat="43.22675084290421" lon="12.306145611983204"><ele>456.4</ele><time>2026-04-10T12:28:50Z</time></trkpt><trkpt lat="43.2267660449862" lon="12.306019025005705"><ele>456.0</ele><time>2026-04-10T12:28:52Z</time></trkpt><trkpt lat="43.22678145894864" lon="12.305862916514693"><ele>456.0</ele><time>2026-04-10T12:28:54Z</time></trkpt><trkpt lat="43.22677515698018" lon="12.305691699585564"><ele>456.0</ele><time>2026-04-10T12:28:56Z</time></trkpt><trkpt lat="43.226740097087344" lon="12.305603190575118"><ele>456.0</ele><time>2026-04-10T12:28:57Z</time></trkpt><trkpt lat="43.22668912964901" lon="12.305493539659729"><ele>456.0</ele><time>2026-04-10T12:28:59Z</time></trkpt><trkpt lat="43.22666240033228" lon="12.305400289460199"><ele>456.0</ele><time>2026-04-10T12:29:03Z</time></trkpt><trkpt lat="43.226645380769455" lon="12.305297880481472"><ele>456.0</ele><time>2026-04-10T12:29:07Z</time></trkpt><trkpt lat="43.22662793567867" lon="12.305201968263745"><ele>456.0</ele><time>2026-04-10T12:29:10Z</time></trkpt><trkpt lat="43.22662565885634" lon="12.305056933514486"><ele>456.0</ele><time>2026-04-10T12:29:13Z</time></trkpt><trkpt lat="43.226632309192865" lon="12.304919051897587"><ele>456.0</ele><time>2026-04-10T12:29:15Z</time></trkpt><trkpt lat="43.22663654249205" lon="12.304829778928472"><ele>456.0</ele><time>2026-04-10T12:29:16Z</time></trkpt><trkpt lat="43.22665742881704" lon="12.304734999840344"><ele>456.0</ele><time>2026-04-10T12:29:17Z</time></trkpt><trkpt lat="43.226694574360565" lon="12.304637944356806"><ele>456.0</ele><time>2026-04-10T12:29:18Z</time></trkpt><trkpt lat="43.22671839938817" lon="12.304509256084303"><ele>456.0</ele><time>2026-04-10T12:29:20Z</time></trkpt><trkpt lat="43.22674472794022" lon="12.304414038709748"><ele>455.99999999999994</ele><time>2026-04-10T12:29:25Z</time></trkpt><trkpt lat="43.226752845831214" lon="12.304305030354767"><ele>456.0</ele><time>2026-04-10T12:29:31Z</time></trkpt><trkpt lat="43.226764061692286" lon="12.304218481205385"><ele>456.0</ele><time>2026-04-10T12:29:34Z</time></trkpt><trkpt lat="43.22678029891692" lon="12.304129695074158"><ele>455.99999999999994</ele><time>2026-04-10T12:29:37Z</time></trkpt><trkpt lat="43.22680855795921" lon="12.304049849423158"><ele>456.0</ele><time>2026-04-10T12:29:39Z</time></trkpt><trkpt lat="43.226871283121426" lon="12.303958363949492"><ele>456.0</ele><time>2026-04-10T12:29:41Z</time></trkpt><trkpt lat="43.22695159386839" lon="12.303862668716924"><ele>457.71428571428567</ele><time>2026-04-10T12:29:43Z</time></trkpt><trkpt lat="43.22700383663152" lon="12.303808979118873"><ele>459.4285714285714</ele><time>2026-04-10T12:29:44Z</time></trkpt><trkpt lat="43.22705404990169" lon="12.303754566088669"><ele>461.1428571428571</ele><time>2026-04-10T12:29:45Z</time></trkpt><trkpt lat="43.227102238628454" lon="12.303692951757911"><ele>462.8571428571429</ele><time>2026-04-10T12:29:46Z</time></trkpt><trkpt lat="43.22714454135114" lon="12.30362654741195"><ele>464.5714285714286</ele><time>2026-04-10T12:29:47Z</time></trkpt><trkpt lat="43.22720228690831" lon="12.303505073389253"><ele>466.28571428571433</ele><time>2026-04-10T12:29:49Z</time></trkpt><trkpt lat="43.227244445311406" lon="12.303411674023014"><ele>468.0</ele><time>2026-04-10T12:30:11Z</time></trkpt><trkpt lat="43.227272472339976" lon="12.30330913124225"><ele>464.7142857142857</ele><time>2026-04-10T12:30:15Z</time></trkpt><trkpt lat="43.227333431600364" lon="12.303283967973782"><ele>461.42857142857144</ele><time>2026-04-10T12:30:18Z</time></trkpt><trkpt lat="43.2274052765232" lon="12.303256672401083"><ele>458.14285714285717</ele><time>2026-04-10T12:30:21Z</time></trkpt><trkpt lat="43.22748962576304" lon="12.303252239987566"><ele>454.8571428571429</ele><time>2026-04-10T12:30:28Z</time></trkpt><trkpt lat="43.22755505409798" lon="12.303256673730871"><ele>451.57142857142856</ele><time>2026-04-10T12:30:30Z</time></trkpt><trkpt lat="43.22763311574529" lon="12.30325917302054"><ele>448.28571428571433</ele><time>2026-04-10T12:30:32Z</time></trkpt><trkpt lat="43.22771383809909" lon="12.303283875198254"><ele>445.0</ele><time>2026-04-10T12:30:34Z</time></trkpt><trkpt lat="43.227804833025516" lon="12.303265650136222"><ele>445.00000000000006</ele><time>2026-04-10T12:30:36Z</time></trkpt><trkpt lat="43.227895781750235" lon="12.303237692908661"><ele>445.0</ele><time>2026-04-10T12:30:38Z</time></trkpt><trkpt lat="43.22796531455007" lon="12.303185332972165"><ele>445.0</ele><time>2026-04-10T12:30:40Z</time></trkpt><trkpt lat="43.22802288336656" lon="12.303134018997252"><ele>445.0</ele><time>2026-04-10T12:30:42Z</time></trkpt><trkpt lat="43.22808244805595" lon="12.303077173096424"><ele>445.00000000000006</ele><time>2026-04-10T12:30:44Z</time></trkpt><trkpt lat="43.228159714910184" lon="12.302994835064437"><ele>445.0</ele><time>2026-04-10T12:30:46Z</time></trkpt><trkpt lat="43.22823029485196" lon="12.302915025715981"><ele>444.1666666666667</ele><time>2026-04-10T12:30:48Z</time></trkpt><trkpt lat="43.228310841897866" lon="12.302823570180148"><ele>443.33333333333337</ele><time>2026-04-10T12:30:50Z</time></trkpt><trkpt lat="43.22837364677651" lon="12.302756491304477"><ele>442.5</ele><time>2026-04-10T12:30:53Z</time></trkpt><trkpt lat="43.228454032145514" lon="12.302690162825016"><ele>441.66666666666663</ele><time>2026-04-10T12:30:56Z</time></trkpt><trkpt lat="43.2285305568644" lon="12.302652547671254"><ele>440.8333333333333</ele><time>2026-04-10T12:30:58Z</time></trkpt><trkpt lat="43.228611256399766" lon="12.302637881585843"><ele>440.0</ele><time>2026-04-10T12:31:00Z</time></trkpt><trkpt lat="43.228737256239555" lon="12.302629214175177"><ele>440.0</ele><time>2026-04-10T12:31:02Z</time></trkpt><trkpt lat="43.228852273124915" lon="12.302623880728587"><ele>440.0</ele><time>2026-04-10T12:31:04Z</time></trkpt><trkpt lat="43.2289448723475" lon="12.302621801781783"><ele>440.0</ele><time>2026-04-10T12:31:06Z</time></trkpt><trkpt lat="43.229044448334804" lon="12.302618811514796"><ele>440.0</ele><time>2026-04-10T12:31:08Z</time></trkpt><trkpt lat="43.22914929127842" lon="12.302594229673254"><ele>440.0</ele><time>2026-04-10T12:31:10Z</time></trkpt><trkpt lat="43.229261387128524" lon="12.30260365421514"><ele>438.99999999999994</ele><time>2026-04-10T12:31:12Z</time></trkpt><trkpt lat="43.22932823761013" lon="12.30259311070822"><ele>438.0</ele><time>2026-04-10T12:31:13Z</time></trkpt><trkpt lat="43.22939084677589" lon="12.302579422433004"><ele>437.0</ele><time>2026-04-10T12:31:14Z</time></trkpt><trkpt lat="43.22945625690993" lon="12.3025652972475"><ele>436.0</ele><time>2026-04-10T12:31:15Z</time></trkpt><trkpt lat="43.229574021102536" lon="12.302539866316064"><ele>434.99999999999994</ele><time>2026-04-10T12:31:17Z</time></trkpt><trkpt lat="43.229683734756286" lon="12.302519505415855"><ele>434.0</ele><time>2026-04-10T12:31:19Z</time></trkpt><trkpt lat="43.22976854189327" lon="12.302517270061712"><ele>432.8333333333333</ele><time>2026-04-10T12:31:21Z</time></trkpt><trkpt lat="43.22985819973654" lon="12.302526549789597"><ele>431.66666666666663</ele><time>2026-04-10T12:31:23Z</time></trkpt><trkpt lat="43.22993163238775" lon="12.302536450227928"><ele>430.5</ele><time>2026-04-10T12:31:25Z</time></trkpt><trkpt lat="43.229998775296075" lon="12.302548300396243"><ele>429.33333333333337</ele><time>2026-04-10T12:31:27Z</time></trkpt><trkpt lat="43.23008674065767" lon="12.302549170659185"><ele>428.1666666666667</ele><time>2026-04-10T12:31:30Z</time></trkpt><trkpt lat="43.23018081101988" lon="12.302567406975873"><ele>427.0</ele><time>2026-04-10T12:31:32Z</time></trkpt><trkpt lat="43.230265454081966" lon="12.302591505605399"><ele>427.00000000000006</ele><time>2026-04-10T12:31:34Z</time></trkpt><trkpt lat="43.23036016563838" lon="12.302573506490067"><ele>427.0</ele><time>2026-04-10T12:31:36Z</time></trkpt><trkpt lat="43.230444448363414" lon="12.302603829379018"><ele>427.0</ele><time>2026-04-10T12:31:39Z</time></trkpt><trkpt lat="43.23053364573355" lon="12.30256714869589"><ele>427.0</ele><time>2026-04-10T12:31:41Z</time></trkpt><trkpt lat="43.23060445940498" lon="12.302572054374032"><ele>427.00000000000006</ele><time>2026-04-10T12:31:42Z</time></trkpt><trkpt lat="43.230678425356864" lon="12.30257696901459"><ele>427.0</ele><time>2026-04-10T12:31:45Z</time></trkpt><trkpt lat="43.23077212445958" lon="12.302632256860267"><ele>424.83333333333337</ele><time>2026-04-10T12:31:48Z</time></trkpt><trkpt lat="43.23084445063548" lon="12.302694243049428"><ele>422.6666666666667</ele><time>2026-04-10T12:31:50Z</time></trkpt><trkpt lat="43.23091870434554" lon="12.302734782907734"><ele>420.5</ele><time>2026-04-10T12:31:52Z</time></trkpt><trkpt lat="43.230981795008475" lon="12.302797157112211"><ele>418.33333333333337</ele><time>2026-04-10T12:31:55Z</time></trkpt><trkpt lat="43.23105232427151" lon="12.302864179422276"><ele>416.1666666666667</ele><time>2026-04-10T12:31:59Z</time></trkpt><trkpt lat="43.23114323802028" lon="12.302924571340318"><ele>414.0</ele><time>2026-04-10T12:32:02Z</time></trkpt><trkpt lat="43.23123730008817" lon="12.302960204187313"><ele>414.0</ele><time>2026-04-10T12:32:04Z</time></trkpt><trkpt lat="43.231351130381725" lon="12.302968485091005"><ele>414.0</ele><time>2026-04-10T12:32:06Z</time></trkpt><trkpt lat="43.23145754219477" lon="12.302942715628125"><ele>414.0</ele><time>2026-04-10T12:32:08Z</time></trkpt><trkpt lat="43.23157685528732" lon="12.302910109203342"><ele>414.0</ele><time>2026-04-10T12:32:10Z</time></trkpt><trkpt lat="43.23163084710524" lon="12.302852606743246"><ele>414.0</ele><time>2026-04-10T12:32:11Z</time></trkpt><trkpt lat="43.23169220231986" lon="12.302809949589744"><ele>412.1666666666667</ele><time>2026-04-10T12:32:12Z</time></trkpt><trkpt lat="43.2317903240757" lon="12.302709720208075"><ele>410.33333333333337</ele><time>2026-04-10T12:32:14Z</time></trkpt><trkpt lat="43.231844696619085" lon="12.302654003959788"><ele>408.5</ele><time>2026-04-10T12:32:17Z</time></trkpt><trkpt lat="43.23189152606105" lon="12.302592433230634"><ele>406.6666666666667</ele><time>2026-04-10T12:32:26Z</time></trkpt><trkpt lat="43.23194197485127" lon="12.302530288943364"><ele>404.83333333333337</ele><time>2026-04-10T12:32:28Z</time></trkpt><trkpt lat="43.23201146748002" lon="12.302447150007163"><ele>403.0</ele><time>2026-04-10T12:32:30Z</time></trkpt><trkpt lat="43.23209946651084" lon="12.302331317455279"><ele>403.00000000000006</ele><time>2026-04-10T12:32:32Z</time></trkpt><trkpt lat="43.232149749136745" lon="12.30226614979724"><ele>403.0</ele><time>2026-04-10T12:32:33Z</time></trkpt><trkpt lat="43.232216290150724" lon="12.30220241741703"><ele>403.0</ele><time>2026-04-10T12:32:34Z</time></trkpt><trkpt lat="43.232270567957165" lon="12.302133672870504"><ele>403.0</ele><time>2026-04-10T12:32:35Z</time></trkpt><trkpt lat="43.23233111602512" lon="12.30205609317157"><ele>403.00000000000006</ele><time>2026-04-10T12:32:36Z</time></trkpt><trkpt lat="43.232376356582854" lon="12.3019698985796"><ele>403.0</ele><time>2026-04-10T12:32:37Z</time></trkpt><trkpt lat="43.23244456643245" lon="12.301910730215974"><ele>400.6666666666667</ele><time>2026-04-10T12:32:38Z</time></trkpt><trkpt lat="43.23249250963418" lon="12.301833305954982"><ele>398.33333333333337</ele><time>2026-04-10T12:32:39Z</time></trkpt><trkpt lat="43.232544805858325" lon="12.301757500051645"><ele>396.0</ele><time>2026-04-10T12:32:40Z</time></trkpt><trkpt lat="43.232605884433866" lon="12.301683559745035"><ele>393.66666666666663</ele><time>2026-04-10T12:32:41Z</time></trkpt><trkpt lat="43.23267314961112" lon="12.301596961159275"><ele>391.3333333333333</ele><time>2026-04-10T12:32:42Z</time></trkpt><trkpt lat="43.23273958643735" lon="12.30150710896231"><ele>389.0</ele><time>2026-04-10T12:32:43Z</time></trkpt><trkpt lat="43.232804229166085" lon="12.301425383002758"><ele>387.49999999999994</ele><time>2026-04-10T12:32:44Z</time></trkpt><trkpt lat="43.23286658835984" lon="12.301337853737037"><ele>386.0</ele><time>2026-04-10T12:32:45Z</time></trkpt><trkpt lat="43.23293970593746" lon="12.301246570161839"><ele>384.5</ele><time>2026-04-10T12:32:46Z</time></trkpt><trkpt lat="43.23299851903983" lon="12.301152140276185"><ele>383.0</ele><time>2026-04-10T12:32:47Z</time></trkpt><trkpt lat="43.23305650634371" lon="12.301066411716056"><ele>381.5</ele><time>2026-04-10T12:32:48Z</time></trkpt><trkpt lat="43.23310103220698" lon="12.300970602890846"><ele>380.0</ele><time>2026-04-10T12:32:49Z</time></trkpt><trkpt lat="43.233140787646434" lon="12.30088228067181"><ele>380.0</ele><time>2026-04-10T12:32:50Z</time></trkpt><trkpt lat="43.23319382206253" lon="12.300790003728402"><ele>380.0</ele><time>2026-04-10T12:32:51Z</time></trkpt><trkpt lat="43.23321036638964" lon="12.3006876828782"><ele>380.0</ele><time>2026-04-10T12:32:52Z</time></trkpt><trkpt lat="43.23322538443495" lon="12.300581093710779"><ele>380.0</ele><time>2026-04-10T12:32:53Z</time></trkpt><trkpt lat="43.23325061222891" lon="12.300474835773999"><ele>380.0</ele><time>2026-04-10T12:32:54Z</time></trkpt><trkpt lat="43.23323892919952" lon="12.300351195045613"><ele>380.0</ele><time>2026-04-10T12:32:55Z</time></trkpt><trkpt lat="43.23324738889798" lon="12.30023461564455"><ele>379.8</ele><time>2026-04-10T12:32:56Z</time></trkpt><trkpt lat="43.23326204292808" lon="12.300109555378935"><ele>379.6</ele><time>2026-04-10T12:32:57Z</time></trkpt><trkpt lat="43.23330148352605" lon="12.299987136065885"><ele>379.4</ele><time>2026-04-10T12:32:58Z</time></trkpt><trkpt lat="43.233339643878345" lon="12.299873811538676"><ele>379.2</ele><time>2026-04-10T12:32:59Z</time></trkpt><trkpt lat="43.23339231294195" lon="12.299763367861834"><ele>379.0</ele><time>2026-04-10T12:33:00Z</time></trkpt><trkpt lat="43.233452852768075" lon="12.29966572464537"><ele>379.4</ele><time>2026-04-10T12:33:01Z</time></trkpt><trkpt lat="43.23352309400902" lon="12.299575845708471"><ele>379.79999999999995</ele><time>2026-04-10T12:33:02Z</time></trkpt><trkpt lat="43.23358953625095" lon="12.299486258664894"><ele>380.20000000000005</ele><time>2026-04-10T12:33:03Z</time></trkpt><trkpt lat="43.23366343698758" lon="12.29939177359865"><ele>380.6</ele><time>2026-04-10T12:33:04Z</time></trkpt><trkpt lat="43.233734218127196" lon="12.299305405924112"><ele>381.0</ele><time>2026-04-10T12:33:05Z</time></trkpt><trkpt lat="43.2338064269173" lon="12.299224357388008"><ele>381.0</ele><time>2026-04-10T12:33:06Z</time></trkpt><trkpt lat="43.233870834152256" lon="12.299161797601181"><ele>381.0</ele><time>2026-04-10T12:33:07Z</time></trkpt><trkpt lat="43.233934650190115" lon="12.299108919472689"><ele>381.0</ele><time>2026-04-10T12:33:08Z</time></trkpt><trkpt lat="43.23399405559676" lon="12.299049905083885"><ele>381.0</ele><time>2026-04-10T12:33:09Z</time></trkpt><trkpt lat="43.23404964167864" lon="12.298991410788707"><ele>381.0</ele><time>2026-04-10T12:33:10Z</time></trkpt><trkpt lat="43.23410360344608" lon="12.298931720057883"><ele>381.0</ele><time>2026-04-10T12:33:11Z</time></trkpt><trkpt lat="43.23415339664556" lon="12.298875105224305"><ele>381.0</ele><time>2026-04-10T12:33:12Z</time></trkpt><trkpt lat="43.234213721346954" lon="12.298791011025994"><ele>378.5</ele><time>2026-04-10T12:33:13Z</time></trkpt><trkpt lat="43.23425508581185" lon="12.298702501520308"><ele>376.0</ele><time>2026-04-10T12:33:14Z</time></trkpt><trkpt lat="43.23428373695615" lon="12.298592352259094"><ele>373.5</ele><time>2026-04-10T12:33:15Z</time></trkpt><trkpt lat="43.23429217223339" lon="12.298472570008974"><ele>371.0</ele><time>2026-04-10T12:33:16Z</time></trkpt><trkpt lat="43.234288506354595" lon="12.298353309504051"><ele>368.5</ele><time>2026-04-10T12:33:17Z</time></trkpt><trkpt lat="43.234282372818015" lon="12.298240147414441"><ele>366.0</ele><time>2026-04-10T12:33:18Z</time></trkpt><trkpt lat="43.23426398445748" lon="12.29814209146873"><ele>365.5</ele><time>2026-04-10T12:33:19Z</time></trkpt><trkpt lat="43.23424657369608" lon="12.298040528706025"><ele>365.0</ele><time>2026-04-10T12:33:20Z</time></trkpt><trkpt lat="43.234232751322985" lon="12.297946165405392"><ele>364.5</ele><time>2026-04-10T12:33:21Z</time></trkpt><trkpt lat="43.23421715114306" lon="12.297770546249279"><ele>364.0</ele><time>2026-04-10T12:33:23Z</time></trkpt><trkpt lat="43.234210022340456" lon="12.29765105598873"><ele>363.5</ele><time>2026-04-10T12:33:24Z</time></trkpt><trkpt lat="43.23422225396121" lon="12.297535034038706"><ele>363.0</ele><time>2026-04-10T12:33:25Z</time></trkpt><trkpt lat="43.23424035381708" lon="12.297410099885816"><ele>363.0</ele><time>2026-04-10T12:33:26Z</time></trkpt><trkpt lat="43.234258054226764" lon="12.297293299909866"><ele>363.0</ele><time>2026-04-10T12:33:27Z</time></trkpt><trkpt lat="43.23427378575811" lon="12.297171316087681"><ele>363.0</ele><time>2026-04-10T12:33:28Z</time></trkpt><trkpt lat="43.2342977090603" lon="12.297045008374225"><ele>363.0</ele><time>2026-04-10T12:33:29Z</time></trkpt><trkpt lat="43.2343107572484" lon="12.296928793762769"><ele>363.0</ele><time>2026-04-10T12:33:30Z</time></trkpt><trkpt lat="43.23432865327131" lon="12.296817320129861"><ele>363.0</ele><time>2026-04-10T12:33:31Z</time></trkpt><trkpt lat="43.23433522892411" lon="12.296703883879696"><ele>361.1666666666667</ele><time>2026-04-10T12:33:32Z</time></trkpt><trkpt lat="43.234348695881174" lon="12.296598402591858"><ele>359.3333333333333</ele><time>2026-04-10T12:33:33Z</time></trkpt><trkpt lat="43.23435484364502" lon="12.29650825912834"><ele>357.5</ele><time>2026-04-10T12:33:34Z</time></trkpt><trkpt lat="43.23435988212785" lon="12.296377682495631"><ele>355.66666666666663</ele><time>2026-04-10T12:33:36Z</time></trkpt><trkpt lat="43.23438184776151" lon="12.29626716291669"><ele>353.8333333333333</ele><time>2026-04-10T12:33:38Z</time></trkpt><trkpt lat="43.23441928373924" lon="12.296175422524907"><ele>352.0</ele><time>2026-04-10T12:33:40Z</time></trkpt><trkpt lat="43.23451276335704" lon="12.296102396977531"><ele>350.3333333333333</ele><time>2026-04-10T12:33:42Z</time></trkpt><trkpt lat="43.234625591222546" lon="12.296063732413836"><ele>348.66666666666663</ele><time>2026-04-10T12:33:44Z</time></trkpt><trkpt lat="43.23469800109823" lon="12.296020527084995"><ele>347.0</ele><time>2026-04-10T12:33:45Z</time></trkpt><trkpt lat="43.23474801383856" lon="12.295953970357134"><ele>345.3333333333333</ele><time>2026-04-10T12:33:46Z</time></trkpt><trkpt lat="43.234805297740195" lon="12.295899847736274"><ele>343.6666666666667</ele><time>2026-04-10T12:33:47Z</time></trkpt><trkpt lat="43.23486370308601" lon="12.2958647890102"><ele>342.0</ele><time>2026-04-10T12:33:48Z</time></trkpt><trkpt lat="43.23492694417135" lon="12.295786077962573"><ele>340.40000000000003</ele><time>2026-04-10T12:33:50Z</time></trkpt><trkpt lat="43.2349789678829" lon="12.295708610627697"><ele>338.8</ele><time>2026-04-10T12:33:52Z</time></trkpt><trkpt lat="43.23502121677679" lon="12.295639152519735"><ele>337.2</ele><time>2026-04-10T12:33:53Z</time></trkpt><trkpt lat="43.23508636083893" lon="12.295489165431603"><ele>335.6</ele><time>2026-04-10T12:33:55Z</time></trkpt><trkpt lat="43.235132397727185" lon="12.295344983238852"><ele>334.0</ele><time>2026-04-10T12:33:57Z</time></trkpt><trkpt lat="43.235159222039044" lon="12.29520577296004"><ele>334.0</ele><time>2026-04-10T12:33:59Z</time></trkpt><trkpt lat="43.235210770931815" lon="12.295121156620345"><ele>334.0</ele><time>2026-04-10T12:34:01Z</time></trkpt><trkpt lat="43.235305165849205" lon="12.295098658338253"><ele>334.0</ele><time>2026-04-10T12:34:03Z</time></trkpt><trkpt lat="43.23543470928526" lon="12.29513131693563"><ele>334.0</ele><time>2026-04-10T12:34:05Z</time></trkpt><trkpt lat="43.235590928457555" lon="12.295120533545013"><ele>332.66666666666663</ele><time>2026-04-10T12:34:07Z</time></trkpt><trkpt lat="43.23566974405993" lon="12.295080418692466"><ele>331.3333333333333</ele><time>2026-04-10T12:34:08Z</time></trkpt><trkpt lat="43.235753553312335" lon="12.295059217439762"><ele>330.0</ele><time>2026-04-10T12:34:09Z</time></trkpt><trkpt lat="43.23584253236156" lon="12.295055873974174"><ele>328.6666666666667</ele><time>2026-04-10T12:34:10Z</time></trkpt><trkpt lat="43.235936505386285" lon="12.295064975067117"><ele>327.33333333333337</ele><time>2026-04-10T12:34:11Z</time></trkpt><trkpt lat="43.23602279738338" lon="12.295068323851172"><ele>326.0</ele><time>2026-04-10T12:34:12Z</time></trkpt><trkpt lat="43.23610561065911" lon="12.295079568373101"><ele>326.0</ele><time>2026-04-10T12:34:14Z</time></trkpt><trkpt lat="43.2361904386085" lon="12.295116111708435"><ele>326.0</ele><time>2026-04-10T12:34:18Z</time></trkpt><trkpt lat="43.23624981550895" lon="12.2952231360988"><ele>326.0</ele><time>2026-04-10T12:34:20Z</time></trkpt><trkpt lat="43.236307843183695" lon="12.295264831024177"><ele>326.0</ele><time>2026-04-10T12:34:21Z</time></trkpt><trkpt lat="43.236382090972384" lon="12.295281763077043"><ele>326.0</ele><time>2026-04-10T12:34:22Z</time></trkpt><trkpt lat="43.23646112587857" lon="12.2952932295537"><ele>326.0</ele><time>2026-04-10T12:34:23Z</time></trkpt><trkpt lat="43.23653912698628" lon="12.295299450278424"><ele>325.0</ele><time>2026-04-10T12:34:24Z</time></trkpt><trkpt lat="43.23662005857142" lon="12.295304704742575"><ele>324.0</ele><time>2026-04-10T12:34:25Z</time></trkpt><trkpt lat="43.23669354425595" lon="12.29530963383101"><ele>323.0</ele><time>2026-04-10T12:34:26Z</time></trkpt><trkpt lat="43.236777890736505" lon="12.295315291410093"><ele>322.0</ele><time>2026-04-10T12:34:27Z</time></trkpt><trkpt lat="43.23685783972675" lon="12.295320812119655"><ele>321.0</ele><time>2026-04-10T12:34:28Z</time></trkpt><trkpt lat="43.23693424484947" lon="12.295327255656153"><ele>320.0</ele><time>2026-04-10T12:34:29Z</time></trkpt><trkpt lat="43.23701797641511" lon="12.295334317068258"><ele>320.0</ele><time>2026-04-10T12:34:30Z</time></trkpt><trkpt lat="43.23709667262106" lon="12.29534095382408"><ele>320.0</ele><time>2026-04-10T12:34:31Z</time></trkpt><trkpt lat="43.23717126230776" lon="12.295347244256606"><ele>320.0</ele><time>2026-04-10T12:34:32Z</time></trkpt><trkpt lat="43.23725281770326" lon="12.295352988982899"><ele>320.0</ele><time>2026-04-10T12:34:33Z</time></trkpt><trkpt lat="43.23733225704699" lon="12.295358031116795"><ele>320.0</ele><time>2026-04-10T12:34:34Z</time></trkpt><trkpt lat="43.237410443922606" lon="12.295362993757578"><ele>320.0</ele><time>2026-04-10T12:34:35Z</time></trkpt><trkpt lat="43.23748329400876" lon="12.29537042152311"><ele>321.0</ele><time>2026-04-10T12:34:36Z</time></trkpt><trkpt lat="43.23755913059984" lon="12.295379218122491"><ele>322.0</ele><time>2026-04-10T12:34:37Z</time></trkpt><trkpt lat="43.237674946664136" lon="12.295406374539747"><ele>323.0</ele><time>2026-04-10T12:34:39Z</time></trkpt><trkpt lat="43.23771879302739" lon="12.295552577637096"><ele>324.0</ele><time>2026-04-10T12:34:41Z</time></trkpt><trkpt lat="43.23772712232673" lon="12.295644553993041"><ele>325.0</ele><time>2026-04-10T12:34:42Z</time></trkpt><trkpt lat="43.23775396666595" lon="12.295737297903582"><ele>326.0</ele><time>2026-04-10T12:34:43Z</time></trkpt><trkpt lat="43.23775779839099" lon="12.295833032065902"><ele>326.0</ele><time>2026-04-10T12:34:44Z</time></trkpt><trkpt lat="43.23777245405063" lon="12.29593293093946"><ele>326.0</ele><time>2026-04-10T12:34:45Z</time></trkpt><trkpt lat="43.23778860203283" lon="12.296033214488206"><ele>326.0</ele><time>2026-04-10T12:34:46Z</time></trkpt><trkpt lat="43.237803994116575" lon="12.296140573156778"><ele>326.0</ele><time>2026-04-10T12:34:47Z</time></trkpt><trkpt lat="43.23781570367165" lon="12.296249255264113"><ele>326.0</ele><time>2026-04-10T12:34:48Z</time></trkpt><trkpt lat="43.23782943355181" lon="12.296366031599646"><ele>326.0</ele><time>2026-04-10T12:34:49Z</time></trkpt><trkpt lat="43.23784069707612" lon="12.296470201997929"><ele>326.1666666666667</ele><time>2026-04-10T12:34:50Z</time></trkpt><trkpt lat="43.23785228461355" lon="12.296584175034933"><ele>326.33333333333337</ele><time>2026-04-10T12:34:51Z</time></trkpt><trkpt lat="43.23786640986213" lon="12.296694926253902"><ele>326.5</ele><time>2026-04-10T12:34:52Z</time></trkpt><trkpt lat="43.237873417697124" lon="12.29681200014251"><ele>326.6666666666667</ele><time>2026-04-10T12:34:53Z</time></trkpt><trkpt lat="43.237881574520166" lon="12.296923025447873"><ele>326.8333333333333</ele><time>2026-04-10T12:34:54Z</time></trkpt><trkpt lat="43.23789051322841" lon="12.29704089160899"><ele>327.0</ele><time>2026-04-10T12:34:55Z</time></trkpt><trkpt lat="43.237895847480026" lon="12.297156248609054"><ele>326.8333333333333</ele><time>2026-04-10T12:34:56Z</time></trkpt><trkpt lat="43.2378991855374" lon="12.297276117175095"><ele>326.6666666666667</ele><time>2026-04-10T12:34:57Z</time></trkpt><trkpt lat="43.237898051111905" lon="12.297392025801678"><ele>326.5</ele><time>2026-04-10T12:34:58Z</time></trkpt><trkpt lat="43.237893274770514" lon="12.297506853372305"><ele>326.33333333333337</ele><time>2026-04-10T12:34:59Z</time></trkpt><trkpt lat="43.23790314155549" lon="12.297636586465682"><ele>326.1666666666667</ele><time>2026-04-10T12:35:00Z</time></trkpt><trkpt lat="43.23790308653173" lon="12.297757709438974"><ele>326.0</ele><time>2026-04-10T12:35:01Z</time></trkpt><trkpt lat="43.23789661064244" lon="12.297844340350952"><ele>326.0</ele><time>2026-04-10T12:35:02Z</time></trkpt><trkpt lat="43.23801387377048" lon="12.29791271740042"><ele>326.0</ele><time>2026-04-10T12:35:06Z</time></trkpt><trkpt lat="43.238106871610896" lon="12.297914022479514"><ele>326.0</ele><time>2026-04-10T12:35:09Z</time></trkpt><trkpt lat="43.23815383996414" lon="12.298006663461763"><ele>326.0</ele><time>2026-04-10T12:35:12Z</time></trkpt><trkpt lat="43.23816592189182" lon="12.298091543118284"><ele>326.0</ele><time>2026-04-10T12:35:14Z</time></trkpt><trkpt lat="43.23813523466855" lon="12.298173049122681"><ele>326.0</ele><time>2026-04-10T12:35:16Z</time></trkpt><trkpt lat="43.23814404854798" lon="12.298273689025542"><ele>328.5714285714286</ele><time>2026-04-10T12:35:18Z</time></trkpt><trkpt lat="43.23814185682504" lon="12.298381990964153"><ele>331.1428571428571</ele><time>2026-04-10T12:35:20Z</time></trkpt><trkpt lat="43.238157436683885" lon="12.2984812179462"><ele>333.7142857142857</ele><time>2026-04-10T12:35:22Z</time></trkpt><trkpt lat="43.23817649626726" lon="12.298569578549342"><ele>336.28571428571433</ele><time>2026-04-10T12:35:24Z</time></trkpt><trkpt lat="43.238203955556436" lon="12.298670781909378"><ele>338.8571428571429</ele><time>2026-04-10T12:35:27Z</time></trkpt><trkpt lat="43.23822786072918" lon="12.298754619835604"><ele>341.42857142857144</ele><time>2026-04-10T12:35:30Z</time></trkpt><trkpt lat="43.23824984915418" lon="12.29885034868449"><ele>344.0</ele><time>2026-04-10T12:35:33Z</time></trkpt><trkpt lat="43.2382750478624" lon="12.298932245245183"><ele>344.00000000000006</ele><time>2026-04-10T12:35:35Z</time></trkpt><trkpt lat="43.23829106656676" lon="12.299019096334186"><ele>344.0</ele><time>2026-04-10T12:35:37Z</time></trkpt><trkpt lat="43.238307426644276" lon="12.299115837909138"><ele>344.0</ele><time>2026-04-10T12:35:39Z</time></trkpt><trkpt lat="43.23832325660008" lon="12.299211847043702"><ele>344.0</ele><time>2026-04-10T12:35:41Z</time></trkpt><trkpt lat="43.238339421991455" lon="12.299302684183102"><ele>344.0</ele><time>2026-04-10T12:35:43Z</time></trkpt><trkpt lat="43.238364081303224" lon="12.299393060338291"><ele>344.00000000000006</ele><time>2026-04-10T12:35:45Z</time></trkpt><trkpt lat="43.2383806523822" lon="12.299524438929149"><ele>344.0</ele><time>2026-04-10T12:35:48Z</time></trkpt><trkpt lat="43.2384240067054" lon="12.29960301614657"><ele>344.0</ele><time>2026-04-10T12:35:50Z</time></trkpt><trkpt lat="43.23846465983737" lon="12.299684728536398"><ele>344.0</ele><time>2026-04-10T12:35:52Z</time></trkpt><trkpt lat="43.23854984789504" lon="12.299700599858532"><ele>344.0</ele><time>2026-04-10T12:35:54Z</time></trkpt><trkpt lat="43.2385872578304" lon="12.299627551267731"><ele>344.0</ele><time>2026-04-10T12:35:55Z</time></trkpt><trkpt lat="43.238606251673566" lon="12.299518187774883"><ele>344.0</ele><time>2026-04-10T12:35:57Z</time></trkpt><trkpt lat="43.23858587325859" lon="12.299649563678692"><ele>344.0</ele><time>2026-04-10T12:36:27Z</time></trkpt><trkpt lat="43.23843201494265" lon="12.299617182641796"><ele>344.0</ele><time>2026-04-10T12:36:30Z</time></trkpt><trkpt lat="43.238386014461646" lon="12.299497163886596"><ele>344.0</ele><time>2026-04-10T12:36:32Z</time></trkpt><trkpt lat="43.23835041738772" lon="12.299347281758251"><ele>344.0</ele><time>2026-04-10T12:36:34Z</time></trkpt><trkpt lat="43.238329544303134" lon="12.299256966973857"><ele>344.0</ele><time>2026-04-10T12:36:35Z</time></trkpt><trkpt lat="43.2383112675746" lon="12.299149828161099"><ele>344.0</ele><time>2026-04-10T12:36:36Z</time></trkpt><trkpt lat="43.23829242770121" lon="12.299051735417484"><ele>344.0</ele><time>2026-04-10T12:36:37Z</time></trkpt><trkpt lat="43.23827880340259" lon="12.298959083639943"><ele>344.14285714285717</ele><time>2026-04-10T12:36:38Z</time></trkpt><trkpt lat="43.23825895495776" lon="12.298873885337137"><ele>344.2857142857143</ele><time>2026-04-10T12:36:39Z</time></trkpt><trkpt lat="43.23823693399602" lon="12.29878501403247"><ele>344.42857142857144</ele><time>2026-04-10T12:36:40Z</time></trkpt><trkpt lat="43.23821186783668" lon="12.29870019862798"><ele>344.57142857142856</ele><time>2026-04-10T12:36:41Z</time></trkpt><trkpt lat="43.23818949830376" lon="12.298618614594107"><ele>344.7142857142857</ele><time>2026-04-10T12:36:42Z</time></trkpt><trkpt lat="43.23816700772571" lon="12.298528387044477"><ele>344.8571428571429</ele><time>2026-04-10T12:36:43Z</time></trkpt><trkpt lat="43.23814911362411" lon="12.298440380958487"><ele>345.0</ele><time>2026-04-10T12:36:44Z</time></trkpt><trkpt lat="43.23813622566101" lon="12.298337797269099"><ele>345.0</ele><time>2026-04-10T12:36:45Z</time></trkpt><trkpt lat="43.238166338285644" lon="12.298237701289018"><ele>345.0</ele><time>2026-04-10T12:36:46Z</time></trkpt><trkpt lat="43.23817074051232" lon="12.298143054072892"><ele>345.0</ele><time>2026-04-10T12:36:47Z</time></trkpt><trkpt lat="43.23818055120578" lon="12.298017217735996"><ele>345.0</ele><time>2026-04-10T12:36:49Z</time></trkpt><trkpt lat="43.23814312408084" lon="12.297902079501473"><ele>345.0</ele><time>2026-04-10T12:36:51Z</time></trkpt><trkpt lat="43.238075244357134" lon="12.297862195634108"><ele>345.0</ele><time>2026-04-10T12:36:52Z</time></trkpt><trkpt lat="43.23801086380813" lon="12.297866845622115"><ele>341.2</ele><time>2026-04-10T12:36:53Z</time></trkpt><trkpt lat="43.23793312828186" lon="12.297883831392479"><ele>337.4</ele><time>2026-04-10T12:36:55Z</time></trkpt><trkpt lat="43.237879627459606" lon="12.298079464170968"><ele>333.6</ele><time>2026-04-10T12:36:59Z</time></trkpt><trkpt lat="43.23789417391167" lon="12.298251459679756"><ele>329.8</ele><time>2026-04-10T12:37:01Z</time></trkpt><trkpt lat="43.23789166920207" lon="12.298345683141152"><ele>326.0</ele><time>2026-04-10T12:37:02Z</time></trkpt><trkpt lat="43.23789543119328" lon="12.298444599516268"><ele>325.6666666666667</ele><time>2026-04-10T12:37:03Z</time></trkpt><trkpt lat="43.23790039212219" lon="12.298546247372025"><ele>325.33333333333337</ele><time>2026-04-10T12:37:04Z</time></trkpt><trkpt lat="43.23789995445433" lon="12.298654455208315"><ele>325.0</ele><time>2026-04-10T12:37:05Z</time></trkpt><trkpt lat="43.237902671643646" lon="12.29876325323685"><ele>324.6666666666667</ele><time>2026-04-10T12:37:06Z</time></trkpt><trkpt lat="43.23790638445472" lon="12.298880747120739"><ele>324.3333333333333</ele><time>2026-04-10T12:37:07Z</time></trkpt><trkpt lat="43.23790919346511" lon="12.29899952937487"><ele>324.0</ele><time>2026-04-10T12:37:08Z</time></trkpt><trkpt lat="43.237914751708296" lon="12.299119325506531"><ele>324.0</ele><time>2026-04-10T12:37:09Z</time></trkpt><trkpt lat="43.237916800097324" lon="12.299238810590122"><ele>324.0</ele><time>2026-04-10T12:37:10Z</time></trkpt><trkpt lat="43.23792420727682" lon="12.299362260982868"><ele>324.0</ele><time>2026-04-10T12:37:11Z</time></trkpt><trkpt lat="43.23792910323062" lon="12.299483720788748"><ele>324.0</ele><time>2026-04-10T12:37:12Z</time></trkpt><trkpt lat="43.23793717483184" lon="12.299612870537775"><ele>324.0</ele><time>2026-04-10T12:37:13Z</time></trkpt><trkpt lat="43.2379504811519" lon="12.299733780038364"><ele>324.0</ele><time>2026-04-10T12:37:14Z</time></trkpt><trkpt lat="43.23796595171807" lon="12.299865774120066"><ele>323.79999999999995</ele><time>2026-04-10T12:37:15Z</time></trkpt><trkpt lat="43.23797936644811" lon="12.299992202485337"><ele>323.59999999999997</ele><time>2026-04-10T12:37:16Z</time></trkpt><trkpt lat="43.23799029350109" lon="12.300122912082044"><ele>323.4</ele><time>2026-04-10T12:37:17Z</time></trkpt><trkpt lat="43.23799919376872" lon="12.300251910229841"><ele>323.2</ele><time>2026-04-10T12:37:18Z</time></trkpt><trkpt lat="43.23801052363909" lon="12.300381308593883"><ele>323.0</ele><time>2026-04-10T12:37:19Z</time></trkpt><trkpt lat="43.23801904408202" lon="12.300499887252007"><ele>323.5</ele><time>2026-04-10T12:37:20Z</time></trkpt><trkpt lat="43.23802568818126" lon="12.300624652276218"><ele>324.0</ele><time>2026-04-10T12:37:22Z</time></trkpt><trkpt lat="43.23792402950193" lon="12.299525146250636"><ele>324.0</ele><time>2026-04-10T12:38:39Z</time></trkpt><trkpt lat="43.237918440501055" lon="12.299434457270403"><ele>324.0</ele><time>2026-04-10T12:38:40Z</time></trkpt><trkpt lat="43.23791015836731" lon="12.299332755877334"><ele>324.0</ele><time>2026-04-10T12:38:41Z</time></trkpt><trkpt lat="43.23790767679042" lon="12.299235886402519"><ele>324.0</ele><time>2026-04-10T12:38:42Z</time></trkpt><trkpt lat="43.237905553895324" lon="12.299127103900872"><ele>324.0</ele><time>2026-04-10T12:38:43Z</time></trkpt><trkpt lat="43.237905172037614" lon="12.299024781472664"><ele>324.0</ele><time>2026-04-10T12:38:44Z</time></trkpt><trkpt lat="43.23790305570969" lon="12.29892046105516"><ele>324.0</ele><time>2026-04-10T12:38:45Z</time></trkpt><trkpt lat="43.237900804689495" lon="12.298809501465039"><ele>323.8333333333333</ele><time>2026-04-10T12:38:46Z</time></trkpt><trkpt lat="43.23789866561295" lon="12.298704061140128"><ele>323.6666666666667</ele><time>2026-04-10T12:38:47Z</time></trkpt><trkpt lat="43.23789646823181" lon="12.29859574571709"><ele>323.5</ele><time>2026-04-10T12:38:47.999Z</time></trkpt><trkpt lat="43.23789419568349" lon="12.298483725102118"><ele>323.33333333333337</ele><time>2026-04-10T12:38:48.999Z</time></trkpt><trkpt lat="43.237891877918315" lon="12.298369475514457"><ele>323.1666666666667</ele><time>2026-04-10T12:38:49.999Z</time></trkpt><trkpt lat="43.237889654793044" lon="12.298259890973549"><ele>323.0</ele><time>2026-04-10T12:38:50.999Z</time></trkpt><trkpt lat="43.23788937314208" lon="12.298143887130113"><ele>323.5</ele><time>2026-04-10T12:38:51.999Z</time></trkpt><trkpt lat="43.23788781788053" lon="12.298025204933237"><ele>324.0</ele><time>2026-04-10T12:38:52.999Z</time></trkpt><trkpt lat="43.23788838376242" lon="12.297907907692322"><ele>324.5</ele><time>2026-04-10T12:38:53.999Z</time></trkpt><trkpt lat="43.237887632544336" lon="12.297785985134508"><ele>325.0</ele><time>2026-04-10T12:38:54.999Z</time></trkpt><trkpt lat="43.23788692546102" lon="12.2976712262145"><ele>325.5</ele><time>2026-04-10T12:38:55.999Z</time></trkpt><trkpt lat="43.23788617278595" lon="12.297549070591296"><ele>326.0</ele><time>2026-04-10T12:38:56.999Z</time></trkpt><trkpt lat="43.2378854278083" lon="12.29742816360313"><ele>326.0</ele><time>2026-04-10T12:38:57.999Z</time></trkpt><trkpt lat="43.23788468252235" lon="12.297307206571796"><ele>326.0</ele><time>2026-04-10T12:38:58.999Z</time></trkpt><trkpt lat="43.23789999003566" lon="12.29718477853711"><ele>326.0</ele><time>2026-04-10T12:38:59.999Z</time></trkpt><trkpt lat="43.23791219618421" lon="12.297063730097642"><ele>326.0</ele><time>2026-04-10T12:39:00.999Z</time></trkpt><trkpt lat="43.23790500660303" lon="12.296940274089273"><ele>326.0</ele><time>2026-04-10T12:39:01.999Z</time></trkpt><trkpt lat="43.23788154662143" lon="12.296820531996193"><ele>326.0</ele><time>2026-04-10T12:39:02.999Z</time></trkpt><trkpt lat="43.23787628278774" lon="12.296698388675278"><ele>326.0</ele><time>2026-04-10T12:39:03.999Z</time></trkpt><trkpt lat="43.23785920057733" lon="12.296572065507196"><ele>326.0</ele><time>2026-04-10T12:39:04.999Z</time></trkpt><trkpt lat="43.237844704120555" lon="12.296447855694636"><ele>326.0</ele><time>2026-04-10T12:39:05.999Z</time></trkpt><trkpt lat="43.23783056308646" lon="12.29632076247196"><ele>326.0</ele><time>2026-04-10T12:39:06.999Z</time></trkpt><trkpt lat="43.237818390300546" lon="12.2961948150397"><ele>326.0</ele><time>2026-04-10T12:39:07.999Z</time></trkpt><trkpt lat="43.23780139154074" lon="12.296066409917122"><ele>326.0</ele><time>2026-04-10T12:39:08.999Z</time></trkpt><trkpt lat="43.237783893716404" lon="12.295939796113931"><ele>326.0</ele><time>2026-04-10T12:39:09.999Z</time></trkpt><trkpt lat="43.237769753546786" lon="12.295817086792463"><ele>326.0</ele><time>2026-04-10T12:39:10.999Z</time></trkpt><trkpt lat="43.237756116288544" lon="12.29570143017485"><ele>326.0</ele><time>2026-04-10T12:39:11.999Z</time></trkpt><trkpt lat="43.23774356290657" lon="12.29559277890222"><ele>326.0</ele><time>2026-04-10T12:39:12.999Z</time></trkpt><trkpt lat="43.237747863111515" lon="12.29550441290879"><ele>326.0</ele><time>2026-04-10T12:39:13.999Z</time></trkpt><trkpt lat="43.23773836106158" lon="12.295381899934476"><ele>326.20000000000005</ele><time>2026-04-10T12:39:15.999Z</time></trkpt><trkpt lat="43.2375823690293" lon="12.29533619768734"><ele>326.40000000000003</ele><time>2026-04-10T12:39:16.999Z</time></trkpt><trkpt lat="43.23750299994965" lon="12.29532699585727"><ele>326.6</ele><time>2026-04-10T12:39:17.999Z</time></trkpt><trkpt lat="43.23741145188935" lon="12.295316376869328"><ele>326.8</ele><time>2026-04-10T12:39:18.999Z</time></trkpt><trkpt lat="43.23731687890321" lon="12.295327546553926"><ele>327.0</ele><time>2026-04-10T12:39:19.999Z</time></trkpt><trkpt lat="43.23721912024962" lon="12.295319707192755"><ele>325.6</ele><time>2026-04-10T12:39:20.999Z</time></trkpt><trkpt lat="43.23712601807221" lon="12.295316830270515"><ele>324.20000000000005</ele><time>2026-04-10T12:39:21.999Z</time></trkpt><trkpt lat="43.237032465446426" lon="12.29530844659675"><ele>322.8</ele><time>2026-04-10T12:39:22.999Z</time></trkpt><trkpt lat="43.236939826771554" lon="12.295282091948257"><ele>321.4</ele><time>2026-04-10T12:39:23.999Z</time></trkpt><trkpt lat="43.23684508188351" lon="12.295274195598955"><ele>320.0</ele><time>2026-04-10T12:39:24.999Z</time></trkpt><trkpt lat="43.236751728957415" lon="12.295267933903103"><ele>320.0</ele><time>2026-04-10T12:39:25.999Z</time></trkpt><trkpt lat="43.236658972574695" lon="12.295261712220553"><ele>320.0</ele><time>2026-04-10T12:39:26.999Z</time></trkpt><trkpt lat="43.236566629008884" lon="12.295255599818617"><ele>320.0</ele><time>2026-04-10T12:39:27.999Z</time></trkpt><trkpt lat="43.23647661332541" lon="12.295249415619399"><ele>320.0</ele><time>2026-04-10T12:39:28.999Z</time></trkpt><trkpt lat="43.23638853469003" lon="12.295257412531816"><ele>320.0</ele><time>2026-04-10T12:39:29.999Z</time></trkpt><trkpt lat="43.236305100906065" lon="12.295232261359022"><ele>320.0</ele><time>2026-04-10T12:39:30.999Z</time></trkpt><trkpt lat="43.23624317106679" lon="12.29519746482485"><ele>321.0</ele><time>2026-04-10T12:39:31.999Z</time></trkpt><trkpt lat="43.23621209203485" lon="12.295111420430457"><ele>322.0</ele><time>2026-04-10T12:39:32.999Z</time></trkpt><trkpt lat="43.23614199185859" lon="12.295034318392668"><ele>323.0</ele><time>2026-04-10T12:39:34.999Z</time></trkpt><trkpt lat="43.23619471445398" lon="12.29489523953757"><ele>324.0</ele><time>2026-04-10T12:39:36.999Z</time></trkpt><trkpt lat="43.236225037131405" lon="12.294807949361804"><ele>325.0</ele><time>2026-04-10T12:39:37.999Z</time></trkpt><trkpt lat="43.236256198239516" lon="12.294725431182513"><ele>326.0</ele><time>2026-04-10T12:39:38.999Z</time></trkpt><trkpt lat="43.236290194777915" lon="12.29462756399741"><ele>326.83333333333337</ele><time>2026-04-10T12:39:39.999Z</time></trkpt><trkpt lat="43.23630054081114" lon="12.294529489470596"><ele>327.6666666666667</ele><time>2026-04-10T12:39:40.999Z</time></trkpt><trkpt lat="43.23632581672026" lon="12.29442298153357"><ele>328.5</ele><time>2026-04-10T12:39:41.999Z</time></trkpt><trkpt lat="43.23634289974098" lon="12.294318511338734"><ele>329.3333333333333</ele><time>2026-04-10T12:39:42.999Z</time></trkpt><trkpt lat="43.23635369260155" lon="12.294209866275287"><ele>330.16666666666663</ele><time>2026-04-10T12:39:43.999Z</time></trkpt><trkpt lat="43.23635698011394" lon="12.294094384373867"><ele>331.0</ele><time>2026-04-10T12:39:44.999Z</time></trkpt><trkpt lat="43.23637724600639" lon="12.293988486920354"><ele>331.66666666666663</ele><time>2026-04-10T12:39:45.999Z</time></trkpt><trkpt lat="43.23637960674971" lon="12.293873189785481"><ele>332.3333333333333</ele><time>2026-04-10T12:39:46.999Z</time></trkpt><trkpt lat="43.236380867103456" lon="12.29376727793686"><ele>333.0</ele><time>2026-04-10T12:39:47.999Z</time></trkpt><trkpt lat="43.23638203428106" lon="12.29366159298132"><ele>333.6666666666667</ele><time>2026-04-10T12:39:48.999Z</time></trkpt><trkpt lat="43.236383065130205" lon="12.29355460137496"><ele>334.33333333333337</ele><time>2026-04-10T12:39:49.999Z</time></trkpt><trkpt lat="43.236383551222715" lon="12.293454244701163"><ele>335.0</ele><time>2026-04-10T12:39:50.999Z</time></trkpt><trkpt lat="43.236383551221195" lon="12.293358445966046"><ele>335.0</ele><time>2026-04-10T12:39:51.999Z</time></trkpt><trkpt lat="43.23638250215263" lon="12.293264330319866"><ele>335.0</ele><time>2026-04-10T12:39:52.999Z</time></trkpt><trkpt lat="43.23638149645528" lon="12.293173644323725"><ele>335.0</ele><time>2026-04-10T12:39:53.999Z</time></trkpt><trkpt lat="43.236364370581335" lon="12.29301369214618"><ele>335.0</ele><time>2026-04-10T12:39:55.999Z</time></trkpt><trkpt lat="43.23634831078492" lon="12.292846786406855"><ele>335.0</ele><time>2026-04-10T12:39:57.999Z</time></trkpt><trkpt lat="43.23632150727458" lon="12.29270558987275"><ele>335.4</ele><time>2026-04-10T12:39:59.999Z</time></trkpt><trkpt lat="43.2362611818177" lon="12.292592079061377"><ele>335.8</ele><time>2026-04-10T12:40:01.999Z</time></trkpt><trkpt lat="43.236156162422056" lon="12.29250732960651"><ele>336.20000000000005</ele><time>2026-04-10T12:40:03.999Z</time></trkpt><trkpt lat="43.23605890814628" lon="12.292458356074743"><ele>336.6</ele><time>2026-04-10T12:40:05.999Z</time></trkpt><trkpt lat="43.235997506975586" lon="12.292432432539849"><ele>337.0</ele><time>2026-04-10T12:40:06.999Z</time></trkpt><trkpt lat="43.23588276194239" lon="12.292380187252897"><ele>337.0</ele><time>2026-04-10T12:40:08.999Z</time></trkpt><trkpt lat="43.23578996680551" lon="12.292279332682954"><ele>337.0</ele><time>2026-04-10T12:40:10.999Z</time></trkpt><trkpt lat="43.235721595358584" lon="12.292158972455656"><ele>337.0</ele><time>2026-04-10T12:40:12.999Z</time></trkpt><trkpt lat="43.235709137576734" lon="12.292069623517891"><ele>337.0</ele><time>2026-04-10T12:40:13.999Z</time></trkpt><trkpt lat="43.23567508981951" lon="12.291906732701413"><ele>337.0</ele><time>2026-04-10T12:40:15.999Z</time></trkpt><trkpt lat="43.23565042617388" lon="12.291815082287382"><ele>338.7142857142857</ele><time>2026-04-10T12:40:16.999Z</time></trkpt><trkpt lat="43.23563124473372" lon="12.29172329021347"><ele>340.42857142857144</ele><time>2026-04-10T12:40:17.999Z</time></trkpt><trkpt lat="43.23561069760054" lon="12.291630941104193"><ele>342.1428571428571</ele><time>2026-04-10T12:40:18.999Z</time></trkpt><trkpt lat="43.23559350028971" lon="12.291533812893524"><ele>343.8571428571429</ele><time>2026-04-10T12:40:19.999Z</time></trkpt><trkpt lat="43.23557699145225" lon="12.291432967149047"><ele>345.57142857142856</ele><time>2026-04-10T12:40:20.999Z</time></trkpt><trkpt lat="43.23555704579307" lon="12.291326096655173"><ele>347.2857142857143</ele><time>2026-04-10T12:40:21.999Z</time></trkpt><trkpt lat="43.23553589132451" lon="12.291222540558316"><ele>349.0</ele><time>2026-04-10T12:40:22.999Z</time></trkpt><trkpt lat="43.23551013815209" lon="12.291114891347624"><ele>349.0</ele><time>2026-04-10T12:40:23.999Z</time></trkpt><trkpt lat="43.23549393381073" lon="12.291007583342097"><ele>349.0</ele><time>2026-04-10T12:40:24.999Z</time></trkpt><trkpt lat="43.235477091690115" lon="12.290897280455223"><ele>349.0</ele><time>2026-04-10T12:40:25.999Z</time></trkpt><trkpt lat="43.235444880487734" lon="12.290793667107035"><ele>349.0</ele><time>2026-04-10T12:40:26.999Z</time></trkpt><trkpt lat="43.23540883297806" lon="12.290699434053233"><ele>349.0</ele><time>2026-04-10T12:40:27.999Z</time></trkpt><trkpt lat="43.235355728896565" lon="12.290607837611217"><ele>349.0</ele><time>2026-04-10T12:40:28.999Z</time></trkpt><trkpt lat="43.235315010555546" lon="12.290509478236341"><ele>348.16666666666663</ele><time>2026-04-10T12:40:29.999Z</time></trkpt><trkpt lat="43.23526925025515" lon="12.29042495328013"><ele>347.3333333333333</ele><time>2026-04-10T12:40:30.999Z</time></trkpt><trkpt lat="43.23522423277527" lon="12.290341800309472"><ele>346.5</ele><time>2026-04-10T12:40:31.999Z</time></trkpt><trkpt lat="43.235181500988695" lon="12.290262869308016"><ele>345.6666666666667</ele><time>2026-04-10T12:40:32.999Z</time></trkpt><trkpt lat="43.23514300087862" lon="12.290192760842075"><ele>344.83333333333337</ele><time>2026-04-10T12:40:33.999Z</time></trkpt><trkpt lat="43.235076915683464" lon="12.290074114065684"><ele>344.0</ele><time>2026-04-10T12:40:35.999Z</time></trkpt><trkpt lat="43.23501181894101" lon="12.289961889066477"><ele>344.0</ele><time>2026-04-10T12:40:37.999Z</time></trkpt><trkpt lat="43.23495058545509" lon="12.289859796064883"><ele>344.0</ele><time>2026-04-10T12:40:39.999Z</time></trkpt><trkpt lat="43.23488484263437" lon="12.289750663331217"><ele>344.0</ele><time>2026-04-10T12:40:41.999Z</time></trkpt><trkpt lat="43.234822334877386" lon="12.289647113156535"><ele>344.0</ele><time>2026-04-10T12:40:43.999Z</time></trkpt><trkpt lat="43.234747252505386" lon="12.289548931305273"><ele>344.0</ele><time>2026-04-10T12:40:45.999Z</time></trkpt><trkpt lat="43.23468061261893" lon="12.289423129145302"><ele>345.6</ele><time>2026-04-10T12:40:47.999Z</time></trkpt><trkpt lat="43.234620498293566" lon="12.289286509592646"><ele>347.2</ele><time>2026-04-10T12:40:49.999Z</time></trkpt><trkpt lat="43.234549929304876" lon="12.289170926702091"><ele>348.8</ele><time>2026-04-10T12:40:51.999Z</time></trkpt><trkpt lat="43.23450758297468" lon="12.28903883929853"><ele>350.40000000000003</ele><time>2026-04-10T12:40:53.999Z</time></trkpt><trkpt lat="43.23443824823203" lon="12.288913049043536"><ele>352.0</ele><time>2026-04-10T12:40:55.999Z</time></trkpt><trkpt lat="43.234380317297045" lon="12.288781079743172"><ele>352.0</ele><time>2026-04-10T12:40:57.999Z</time></trkpt><trkpt lat="43.2343209379169" lon="12.288634556285302"><ele>352.0</ele><time>2026-04-10T12:40:59.999Z</time></trkpt><trkpt lat="43.234300814722026" lon="12.28854755208558"><ele>352.0</ele><time>2026-04-10T12:41:00.999Z</time></trkpt><trkpt lat="43.23424502236968" lon="12.288403886657031"><ele>352.0</ele><time>2026-04-10T12:41:02.999Z</time></trkpt><trkpt lat="43.23421525646069" lon="12.28832437987912"><ele>352.0</ele><time>2026-04-10T12:41:03.999Z</time></trkpt><trkpt lat="43.23416524571951" lon="12.288190797923395"><ele>350.40000000000003</ele><time>2026-04-10T12:41:05.999Z</time></trkpt><trkpt lat="43.23410953854276" lon="12.288056372914726"><ele>348.8</ele><time>2026-04-10T12:41:07.999Z</time></trkpt><trkpt lat="43.234030973377806" lon="12.287934853413963"><ele>347.2</ele><time>2026-04-10T12:41:09.999Z</time></trkpt><trkpt lat="43.233963598393466" lon="12.287828961032332"><ele>345.6</ele><time>2026-04-10T12:41:11.999Z</time></trkpt><trkpt lat="43.23387657325194" lon="12.28780060360652"><ele>344.0</ele><time>2026-04-10T12:41:13.999Z</time></trkpt><trkpt lat="43.23378797611879" lon="12.287801935100322"><ele>348.5</ele><time>2026-04-10T12:41:15.999Z</time></trkpt><trkpt lat="43.23368133314964" lon="12.28775613862882"><ele>353.0</ele><time>2026-04-10T12:41:17.999Z</time></trkpt><trkpt lat="43.2335848734016" lon="12.28768266594191"><ele>357.5</ele><time>2026-04-10T12:41:19.999Z</time></trkpt><trkpt lat="43.23354200530274" lon="12.287527140548974"><ele>362.0</ele><time>2026-04-10T12:41:21.999Z</time></trkpt><trkpt lat="43.23349280922187" lon="12.287396606245155"><ele>359.75</ele><time>2026-04-10T12:41:23.999Z</time></trkpt><trkpt lat="43.23346934200173" lon="12.287238310175187"><ele>357.5</ele><time>2026-04-10T12:41:25.999Z</time></trkpt><trkpt lat="43.233423125047544" lon="12.287085437845322"><ele>355.25</ele><time>2026-04-10T12:41:27.999Z</time></trkpt><trkpt lat="43.2333674890888" lon="12.286961055902653"><ele>353.0</ele><time>2026-04-10T12:41:29.999Z</time></trkpt><trkpt lat="43.233297574937474" lon="12.286820779502724"><ele>353.0</ele><time>2026-04-10T12:41:31.999Z</time></trkpt><trkpt lat="43.233259340164956" lon="12.286742356673235"><ele>353.0</ele><time>2026-04-10T12:41:32.999Z</time></trkpt><trkpt lat="43.23318355819645" lon="12.286600005786884"><ele>353.0</ele><time>2026-04-10T12:41:34.999Z</time></trkpt><trkpt lat="43.233143843101566" lon="12.28653079188174"><ele>353.0</ele><time>2026-04-10T12:41:35.999Z</time></trkpt><trkpt lat="43.23311966371066" lon="12.286437691485656"><ele>353.0</ele><time>2026-04-10T12:41:38.999Z</time></trkpt><trkpt lat="43.23311129173662" lon="12.286325031897467"><ele>353.0</ele><time>2026-04-10T12:42:30Z</time></trkpt><trkpt lat="43.233060965884384" lon="12.286224423947656"><ele>352.1666666666667</ele><time>2026-04-10T12:42:32Z</time></trkpt><trkpt lat="43.2330172304563" lon="12.286074384916414"><ele>351.33333333333337</ele><time>2026-04-10T12:42:34Z</time></trkpt><trkpt lat="43.23299078448931" lon="12.285988049057101"><ele>350.5</ele><time>2026-04-10T12:42:35Z</time></trkpt><trkpt lat="43.23298198398524" lon="12.285881386133564"><ele>349.6666666666667</ele><time>2026-04-10T12:42:36Z</time></trkpt><trkpt lat="43.23295362850875" lon="12.28578451371094"><ele>348.8333333333333</ele><time>2026-04-10T12:42:37Z</time></trkpt><trkpt lat="43.232918554358925" lon="12.285680643514375"><ele>348.0</ele><time>2026-04-10T12:42:38Z</time></trkpt><trkpt lat="43.232871781490104" lon="12.285592472919747"><ele>348.0</ele><time>2026-04-10T12:42:39Z</time></trkpt><trkpt lat="43.23284110042146" lon="12.28549372782381"><ele>348.0</ele><time>2026-04-10T12:42:40Z</time></trkpt><trkpt lat="43.23278443811933" lon="12.28535247958276"><ele>348.0</ele><time>2026-04-10T12:42:42Z</time></trkpt><trkpt lat="43.23273425827906" lon="12.28529693647476"><ele>348.0</ele><time>2026-04-10T12:42:43Z</time></trkpt><trkpt lat="43.23260089170048" lon="12.285255693221373"><ele>348.0</ele><time>2026-04-10T12:42:45Z</time></trkpt><trkpt lat="43.232528689349074" lon="12.285275943127258"><ele>348.0</ele><time>2026-04-10T12:42:46Z</time></trkpt><trkpt lat="43.23243660192384" lon="12.28526195290316"><ele>348.0</ele><time>2026-04-10T12:42:47Z</time></trkpt><trkpt lat="43.23234453005111" lon="12.285284583068732"><ele>348.0</ele><time>2026-04-10T12:42:48Z</time></trkpt><trkpt lat="43.23225813924189" lon="12.285322105060533"><ele>348.0</ele><time>2026-04-10T12:42:49Z</time></trkpt><trkpt lat="43.23218193419347" lon="12.285365767279618"><ele>348.0</ele><time>2026-04-10T12:42:50Z</time></trkpt><trkpt lat="43.23210472096914" lon="12.285402002222968"><ele>348.0</ele><time>2026-04-10T12:42:51Z</time></trkpt><trkpt lat="43.232024810924585" lon="12.285429451742631"><ele>348.1666666666667</ele><time>2026-04-10T12:42:52Z</time></trkpt><trkpt lat="43.2319355306681" lon="12.285421779681679"><ele>348.3333333333333</ele><time>2026-04-10T12:42:53Z</time></trkpt><trkpt lat="43.231849402465066" lon="12.28538076798054"><ele>348.5</ele><time>2026-04-10T12:42:54Z</time></trkpt><trkpt lat="43.23179598248874" lon="12.285306716922232"><ele>348.66666666666663</ele><time>2026-04-10T12:42:55Z</time></trkpt><trkpt lat="43.231748207029085" lon="12.285219219190775"><ele>348.8333333333333</ele><time>2026-04-10T12:42:56Z</time></trkpt><trkpt lat="43.23168879133492" lon="12.285121557205011"><ele>349.0</ele><time>2026-04-10T12:42:57Z</time></trkpt><trkpt lat="43.231626835283656" lon="12.285025081033748"><ele>349.0</ele><time>2026-04-10T12:42:58Z</time></trkpt><trkpt lat="43.23156928794081" lon="12.284939409774"><ele>349.0</ele><time>2026-04-10T12:42:59Z</time></trkpt><trkpt lat="43.231507732128776" lon="12.284857790893918"><ele>349.0</ele><time>2026-04-10T12:42:59.999Z</time></trkpt><trkpt lat="43.23144674445755" lon="12.284781448526598"><ele>349.0</ele><time>2026-04-10T12:43:00.999Z</time></trkpt><trkpt lat="43.23137095511055" lon="12.284734622625864"><ele>349.0</ele><time>2026-04-10T12:43:01.999Z</time></trkpt><trkpt lat="43.231310644596604" lon="12.284683334728346"><ele>349.0</ele><time>2026-04-10T12:43:02.999Z</time></trkpt><trkpt lat="43.23124610905813" lon="12.284638212861223"><ele>348.85714285714283</ele><time>2026-04-10T12:43:03.999Z</time></trkpt><trkpt lat="43.231195466810505" lon="12.284582479937338"><ele>348.7142857142857</ele><time>2026-04-10T12:43:04.999Z</time></trkpt><trkpt lat="43.2311383226772" lon="12.284544839773348"><ele>348.57142857142856</ele><time>2026-04-10T12:43:05.999Z</time></trkpt><trkpt lat="43.23107954920754" lon="12.284506126300872"><ele>348.42857142857144</ele><time>2026-04-10T12:43:06.999Z</time></trkpt><trkpt lat="43.231019579296024" lon="12.284466624953485"><ele>348.2857142857143</ele><time>2026-04-10T12:43:07.999Z</time></trkpt><trkpt lat="43.2309584982183" lon="12.284426391618132"><ele>348.1428571428571</ele><time>2026-04-10T12:43:08.999Z</time></trkpt><trkpt lat="43.23089742695692" lon="12.284385402106487"><ele>348.0</ele><time>2026-04-10T12:43:09.999Z</time></trkpt><trkpt lat="43.23083906591725" lon="12.284337997352438"><ele>348.0</ele><time>2026-04-10T12:43:10.999Z</time></trkpt><trkpt lat="43.23076376699259" lon="12.28429035335497"><ele>348.0</ele><time>2026-04-10T12:43:12.999Z</time></trkpt><trkpt lat="43.230705750424804" lon="12.284237459071202"><ele>348.0</ele><time>2026-04-10T12:43:21.999Z</time></trkpt><trkpt lat="43.23064118756372" lon="12.284163721979413"><ele>348.0</ele><time>2026-04-10T12:43:24.999Z</time></trkpt><trkpt lat="43.23056091201739" lon="12.28411994622462"><ele>348.0</ele><time>2026-04-10T12:43:27.999Z</time></trkpt><trkpt lat="43.230629248080795" lon="12.284154420163524"><ele>348.0</ele><time>2026-04-10T12:44:05.999Z</time></trkpt><trkpt lat="43.23072308393599" lon="12.284227523989026"><ele>348.0</ele><time>2026-04-10T12:44:07.999Z</time></trkpt><trkpt lat="43.23077977561796" lon="12.28428471087022"><ele>348.0</ele><time>2026-04-10T12:44:08.999Z</time></trkpt><trkpt lat="43.23087785543805" lon="12.284373862383262"><ele>348.0</ele><time>2026-04-10T12:44:10.999Z</time></trkpt><trkpt lat="43.23095236291728" lon="12.284447742325458"><ele>348.0</ele><time>2026-04-10T12:44:13Z</time></trkpt><trkpt lat="43.23105035383268" lon="12.2844868969858"><ele>348.0</ele><time>2026-04-10T12:44:15Z</time></trkpt><trkpt lat="43.231133386224144" lon="12.284555469944854"><ele>348.0</ele><time>2026-04-10T12:44:17Z</time></trkpt><trkpt lat="43.23123986159119" lon="12.284631933044809"><ele>348.0</ele><time>2026-04-10T12:44:19Z</time></trkpt><trkpt lat="43.23135015828127" lon="12.284709464035892"><ele>348.0</ele><time>2026-04-10T12:44:21Z</time></trkpt><trkpt lat="43.23140871683952" lon="12.284756921508949"><ele>348.0</ele><time>2026-04-10T12:44:22Z</time></trkpt><trkpt lat="43.23146714004207" lon="12.284828287823432"><ele>348.0</ele><time>2026-04-10T12:44:23Z</time></trkpt><trkpt lat="43.23152243899375" lon="12.28489767989781"><ele>348.1666666666667</ele><time>2026-04-10T12:44:24Z</time></trkpt><trkpt lat="43.23158982439643" lon="12.284963312262953"><ele>348.3333333333333</ele><time>2026-04-10T12:44:25Z</time></trkpt><trkpt lat="43.23163211718299" lon="12.285063242998017"><ele>348.5</ele><time>2026-04-10T12:44:26Z</time></trkpt><trkpt lat="43.23169713410113" lon="12.285129650892781"><ele>348.66666666666663</ele><time>2026-04-10T12:44:27Z</time></trkpt><trkpt lat="43.23173946650235" lon="12.285228582621876"><ele>348.8333333333333</ele><time>2026-04-10T12:44:28Z</time></trkpt><trkpt lat="43.23179326813978" lon="12.285304193932829"><ele>349.0</ele><time>2026-04-10T12:44:29Z</time></trkpt><trkpt lat="43.23184892627904" lon="12.285375401862238"><ele>349.0</ele><time>2026-04-10T12:44:30.001Z</time></trkpt><trkpt lat="43.2319136292089" lon="12.285428675579492"><ele>349.0</ele><time>2026-04-10T12:44:31.001Z</time></trkpt><trkpt lat="43.231974828264185" lon="12.285472850198065"><ele>349.0</ele><time>2026-04-10T12:44:32.001Z</time></trkpt><trkpt lat="43.23204470741247" lon="12.28547913275627"><ele>349.0</ele><time>2026-04-10T12:44:33.001Z</time></trkpt><trkpt lat="43.23214519603085" lon="12.285415253019725"><ele>349.0</ele><time>2026-04-10T12:44:35.001Z</time></trkpt><trkpt lat="43.23221240843866" lon="12.285370632114828"><ele>349.0</ele><time>2026-04-10T12:44:37.001Z</time></trkpt><trkpt lat="43.232294878603675" lon="12.28532376329556"><ele>348.85714285714283</ele><time>2026-04-10T12:44:40.001Z</time></trkpt><trkpt lat="43.23236842489124" lon="12.285260126764282"><ele>348.7142857142857</ele><time>2026-04-10T12:44:43.001Z</time></trkpt><trkpt lat="43.23243426539778" lon="12.285266836800385"><ele>348.57142857142856</ele><time>2026-04-10T12:44:45.001Z</time></trkpt><trkpt lat="43.232503924294015" lon="12.28526573324895"><ele>348.42857142857144</ele><time>2026-04-10T12:44:47.001Z</time></trkpt><trkpt lat="43.23257198580289" lon="12.285264191277058"><ele>348.2857142857143</ele><time>2026-04-10T12:44:49.001Z</time></trkpt><trkpt lat="43.232637275248976" lon="12.28525406931921"><ele>348.1428571428571</ele><time>2026-04-10T12:44:51.001Z</time></trkpt><trkpt lat="43.23270074293052" lon="12.28527370212658"><ele>348.0</ele><time>2026-04-10T12:44:53.001Z</time></trkpt><trkpt lat="43.232770589736845" lon="12.285325304911197"><ele>348.0</ele><time>2026-04-10T12:44:55.001Z</time></trkpt><trkpt lat="43.2328344793585" lon="12.285378459920368"><ele>348.0</ele><time>2026-04-10T12:44:57.001Z</time></trkpt><trkpt lat="43.232860959442654" lon="12.285535160698977"><ele>348.0</ele><time>2026-04-10T12:44:59.001Z</time></trkpt><trkpt lat="43.23290953106053" lon="12.285683585803909"><ele>348.0</ele><time>2026-04-10T12:45:01.001Z</time></trkpt><trkpt lat="43.232944346226795" lon="12.285766909279488"><ele>348.0</ele><time>2026-04-10T12:45:02.001Z</time></trkpt><trkpt lat="43.232976901728414" lon="12.285854091426192"><ele>350.1666666666667</ele><time>2026-04-10T12:45:03.001Z</time></trkpt><trkpt lat="43.233007261644175" lon="12.285949276686596"><ele>352.3333333333333</ele><time>2026-04-10T12:45:04.001Z</time></trkpt><trkpt lat="43.23303357398683" lon="12.286052248844582"><ele>354.5</ele><time>2026-04-10T12:45:05.001Z</time></trkpt><trkpt lat="43.23305708929695" lon="12.286145924518788"><ele>356.66666666666663</ele><time>2026-04-10T12:45:06Z</time></trkpt><trkpt lat="43.233089471766434" lon="12.286279415409071"><ele>358.8333333333333</ele><time>2026-04-10T12:45:08Z</time></trkpt><trkpt lat="43.23304475257963" lon="12.286372001660503"><ele>361.0</ele><time>2026-04-10T12:45:11Z</time></trkpt><trkpt lat="43.23296921083065" lon="12.286321755235672"><ele>361.0</ele><time>2026-04-10T12:45:14Z</time></trkpt><trkpt lat="43.232912711769366" lon="12.286237559502824"><ele>361.0</ele><time>2026-04-10T12:45:17Z</time></trkpt><trkpt lat="43.23284502442159" lon="12.286161046511399"><ele>361.0</ele><time>2026-04-10T12:45:20Z</time></trkpt><trkpt lat="43.2327639502316" lon="12.286115884643038"><ele>361.0</ele><time>2026-04-10T12:45:23Z</time></trkpt><trkpt lat="43.23267217766707" lon="12.2861241322297"><ele>361.0</ele><time>2026-04-10T12:45:26Z</time></trkpt><trkpt lat="43.23261333960311" lon="12.286176944448385"><ele>361.0</ele><time>2026-04-10T12:45:28Z</time></trkpt><trkpt lat="43.23256446537583" lon="12.286258935972096"><ele>361.0</ele><time>2026-04-10T12:45:30Z</time></trkpt><trkpt lat="43.23249239760025" lon="12.286334241155247"><ele>361.0</ele><time>2026-04-10T12:45:32Z</time></trkpt><trkpt lat="43.23245456530262" lon="12.28643722319756"><ele>361.0</ele><time>2026-04-10T12:45:34Z</time></trkpt><trkpt lat="43.232398446997365" lon="12.28652381071557"><ele>361.0</ele><time>2026-04-10T12:46:09.001Z</time></trkpt><trkpt lat="43.232353356643586" lon="12.286613111597038"><ele>361.0</ele><time>2026-04-10T12:46:12.001Z</time></trkpt><trkpt lat="43.23230923351866" lon="12.286696232232572"><ele>361.0</ele><time>2026-04-10T12:46:14.001Z</time></trkpt><trkpt lat="43.23225404663434" lon="12.286804417698493"><ele>363.6</ele><time>2026-04-10T12:46:16.001Z</time></trkpt><trkpt lat="43.23218815006149" lon="12.286922962732046"><ele>366.20000000000005</ele><time>2026-04-10T12:46:18.001Z</time></trkpt><trkpt lat="43.23212174654768" lon="12.287038909586407"><ele>368.79999999999995</ele><time>2026-04-10T12:46:20.001Z</time></trkpt><trkpt lat="43.23204938644307" lon="12.287157743875701"><ele>371.4</ele><time>2026-04-10T12:46:22.001Z</time></trkpt><trkpt lat="43.23197857894549" lon="12.287272568487333"><ele>374.0</ele><time>2026-04-10T12:46:24.001Z</time></trkpt><trkpt lat="43.23189734862049" lon="12.287355364726105"><ele>375.1666666666667</ele><time>2026-04-10T12:46:26.001Z</time></trkpt><trkpt lat="43.23182662638309" lon="12.28743994056102"><ele>376.33333333333337</ele><time>2026-04-10T12:46:28.001Z</time></trkpt><trkpt lat="43.23175347311713" lon="12.287518040921396"><ele>377.5</ele><time>2026-04-10T12:46:31.001Z</time></trkpt><trkpt lat="43.23169569170943" lon="12.287577413090762"><ele>378.6666666666667</ele><time>2026-04-10T12:46:33.001Z</time></trkpt><trkpt lat="43.23163464169801" lon="12.287641486184853"><ele>379.8333333333333</ele><time>2026-04-10T12:46:35.001Z</time></trkpt><trkpt lat="43.23157285979042" lon="12.287702701905422"><ele>381.0</ele><time>2026-04-10T12:46:37.001Z</time></trkpt><trkpt lat="43.2315133497108" lon="12.287754293890433"><ele>383.0</ele><time>2026-04-10T12:46:39.001Z</time></trkpt><trkpt lat="43.23145306926451" lon="12.287803965600201"><ele>385.0</ele><time>2026-04-10T12:46:41.001Z</time></trkpt><trkpt lat="43.23139227929185" lon="12.287849022110032"><ele>387.0</ele><time>2026-04-10T12:46:54.001Z</time></trkpt><trkpt lat="43.23133316943165" lon="12.28788962006"><ele>389.0</ele><time>2026-04-10T12:47:03.001Z</time></trkpt><trkpt lat="43.23127557785053" lon="12.287929118874949"><ele>391.0</ele><time>2026-04-10T12:47:10.001Z</time></trkpt><trkpt lat="43.23121402259041" lon="12.287977529559543"><ele>393.0</ele><time>2026-04-10T12:47:26.001Z</time></trkpt><trkpt lat="43.231161403926485" lon="12.288030311155705"><ele>395.0</ele><time>2026-04-10T12:47:34.001Z</time></trkpt><trkpt lat="43.231111635716466" lon="12.288104114034201"><ele>394.99999999999994</ele><time>2026-04-10T12:47:41.001Z</time></trkpt><trkpt lat="43.23109594683429" lon="12.288207970481567"><ele>395.0</ele><time>2026-04-10T12:47:43.001Z</time></trkpt><trkpt lat="43.231137384970026" lon="12.288316363743153"><ele>395.0</ele><time>2026-04-10T12:47:45.001Z</time></trkpt><trkpt lat="43.23119685125341" lon="12.288417670929244"><ele>395.0</ele><time>2026-04-10T12:47:48.001Z</time></trkpt><trkpt lat="43.231237477561486" lon="12.288492535089329"><ele>394.99999999999994</ele><time>2026-04-10T12:47:50.001Z</time></trkpt><trkpt lat="43.231202890448635" lon="12.288581061911458"><ele>395.0</ele><time>2026-04-10T12:47:52.001Z</time></trkpt><trkpt lat="43.23117215548901" lon="12.288693313194074"><ele>395.0</ele><time>2026-04-10T12:47:55.001Z</time></trkpt><trkpt lat="43.23120719342737" lon="12.28879218060542"><ele>395.0</ele><time>2026-04-10T12:47:57.001Z</time></trkpt><trkpt lat="43.231288343972125" lon="12.28888460156677"><ele>395.0</ele><time>2026-04-10T12:47:59.001Z</time></trkpt><trkpt lat="43.23137543775806" lon="12.288967971638122"><ele>395.0</ele><time>2026-04-10T12:48:01.001Z</time></trkpt><trkpt lat="43.231489688632735" lon="12.289044414698587"><ele>395.0</ele><time>2026-04-10T12:48:03.001Z</time></trkpt><trkpt lat="43.2315483842188" lon="12.289087264038367"><ele>395.3333333333333</ele><time>2026-04-10T12:48:04.001Z</time></trkpt><trkpt lat="43.23165963044551" lon="12.289165367280475"><ele>395.66666666666663</ele><time>2026-04-10T12:48:06.001Z</time></trkpt><trkpt lat="43.23172340028281" lon="12.289205470267149"><ele>396.0</ele><time>2026-04-10T12:48:07.001Z</time></trkpt><trkpt lat="43.23178377828298" lon="12.289245953150292"><ele>396.33333333333337</ele><time>2026-04-10T12:48:08.001Z</time></trkpt><trkpt lat="43.231845460902065" lon="12.289289233652303"><ele>396.6666666666667</ele><time>2026-04-10T12:48:09.001Z</time></trkpt><trkpt lat="43.231904936187405" lon="12.289336213742843"><ele>397.0</ele><time>2026-04-10T12:48:10.001Z</time></trkpt><trkpt lat="43.231961508402016" lon="12.28939212516734"><ele>397.0</ele><time>2026-04-10T12:48:11.001Z</time></trkpt><trkpt lat="43.23201247267231" lon="12.289453778848445"><ele>397.0</ele><time>2026-04-10T12:48:12.001Z</time></trkpt><trkpt lat="43.23205548037402" lon="12.289536106909518"><ele>397.0</ele><time>2026-04-10T12:48:14.001Z</time></trkpt><trkpt lat="43.2320657616591" lon="12.289634762113856"><ele>397.0</ele><time>2026-04-10T12:48:23.001Z</time></trkpt><trkpt lat="43.23208546325867" lon="12.289724585763535"><ele>397.0</ele><time>2026-04-10T12:48:26.001Z</time></trkpt><trkpt lat="43.23210462055798" lon="12.289823264992732"><ele>397.0</ele><time>2026-04-10T12:48:29.001Z</time></trkpt><trkpt lat="43.232120710308614" lon="12.289910962908447"><ele>397.0</ele><time>2026-04-10T12:48:36.001Z</time></trkpt><trkpt lat="43.23214582995086" lon="12.289995950359398"><ele>399.00000000000006</ele><time>2026-04-10T12:48:43.001Z</time></trkpt><trkpt lat="43.23214406753705" lon="12.290091510487404"><ele>401.0</ele><time>2026-04-10T12:49:00.001Z</time></trkpt><trkpt lat="43.232152967650386" lon="12.290177452827864"><ele>403.0</ele><time>2026-04-10T12:49:10.001Z</time></trkpt><trkpt lat="43.23214433609751" lon="12.290286430781"><ele>405.0</ele><time>2026-04-10T12:49:39Z</time></trkpt><trkpt lat="43.23213434424814" lon="12.290385682511447"><ele>407.00000000000006</ele><time>2026-04-10T12:49:42Z</time></trkpt><trkpt lat="43.23208383142674" lon="12.290513124924523"><ele>409.0</ele><time>2026-04-10T12:49:45Z</time></trkpt><trkpt lat="43.23202957165595" lon="12.290620982108615"><ele>410.0</ele><time>2026-04-10T12:49:47Z</time></trkpt><trkpt lat="43.2319607855158" lon="12.29071994953083"><ele>411.0</ele><time>2026-04-10T12:49:49Z</time></trkpt><trkpt lat="43.23188341925207" lon="12.290804367897564"><ele>412.0</ele><time>2026-04-10T12:49:51Z</time></trkpt><trkpt lat="43.231802429847136" lon="12.29089201207032"><ele>413.0</ele><time>2026-04-10T12:49:53Z</time></trkpt><trkpt lat="43.23171272604597" lon="12.290942691324904"><ele>414.0</ele><time>2026-04-10T12:49:55Z</time></trkpt><trkpt lat="43.231616295139496" lon="12.290950639489058"><ele>414.0</ele><time>2026-04-10T12:49:57Z</time></trkpt><trkpt lat="43.23151178209464" lon="12.290936062188804"><ele>414.0</ele><time>2026-04-10T12:49:59Z</time></trkpt><trkpt lat="43.23140591869844" lon="12.290915020437758"><ele>414.0</ele><time>2026-04-10T12:50:01Z</time></trkpt><trkpt lat="43.23130299709418" lon="12.290911770451237"><ele>414.0</ele><time>2026-04-10T12:50:03.001Z</time></trkpt><trkpt lat="43.2312062731968" lon="12.29096763797655"><ele>414.0</ele><time>2026-04-10T12:50:05.001Z</time></trkpt><trkpt lat="43.2311241905112" lon="12.291050961521925"><ele>415.3333333333333</ele><time>2026-04-10T12:50:07.001Z</time></trkpt><trkpt lat="43.2310923709368" lon="12.29117334286471"><ele>416.66666666666663</ele><time>2026-04-10T12:50:09.001Z</time></trkpt><trkpt lat="43.23109994669905" lon="12.291269458787063"><ele>418.0</ele><time>2026-04-10T12:50:11.001Z</time></trkpt><trkpt lat="43.23112714168935" lon="12.291365922133119"><ele>419.3333333333333</ele><time>2026-04-10T12:50:41.001Z</time></trkpt><trkpt lat="43.23114635123017" lon="12.29145576598456"><ele>420.66666666666663</ele><time>2026-04-10T12:50:44.001Z</time></trkpt><trkpt lat="43.23116737323281" lon="12.291554218848674"><ele>422.0</ele><time>2026-04-10T12:50:47.001Z</time></trkpt><trkpt lat="43.23117451720996" lon="12.291666033050667"><ele>423.0</ele><time>2026-04-10T12:50:51.001Z</time></trkpt><trkpt lat="43.23118134787248" lon="12.291765556462975"><ele>424.0</ele><time>2026-04-10T12:51:05.001Z</time></trkpt><trkpt lat="43.23118403985739" lon="12.291860354149877"><ele>425.0</ele><time>2026-04-10T12:51:14.001Z</time></trkpt><trkpt lat="43.23115999738681" lon="12.291944639391312"><ele>426.0</ele><time>2026-04-10T12:51:23Z</time></trkpt><trkpt lat="43.23110144273385" lon="12.291992221510492"><ele>427.0</ele><time>2026-04-10T12:51:38Z</time></trkpt><trkpt lat="43.231012578393376" lon="12.292035776951284"><ele>428.0</ele><time>2026-04-10T12:51:45Z</time></trkpt><trkpt lat="43.23094782006785" lon="12.292043741726653"><ele>429.0</ele><time>2026-04-10T12:51:47Z</time></trkpt><trkpt lat="43.23088316440755" lon="12.292056242997948"><ele>429.0</ele><time>2026-04-10T12:51:49Z</time></trkpt><trkpt lat="43.23082113088341" lon="12.29209363388245"><ele>429.0</ele><time>2026-04-10T12:51:51Z</time></trkpt><trkpt lat="43.230757401629525" lon="12.292161702343673"><ele>429.0</ele><time>2026-04-10T12:51:53Z</time></trkpt><trkpt lat="43.230715262659764" lon="12.292272883468657"><ele>429.0</ele><time>2026-04-10T12:51:55Z</time></trkpt><trkpt lat="43.23068050553697" lon="12.292367553185013"><ele>429.0</ele><time>2026-04-10T12:51:58Z</time></trkpt><trkpt lat="43.23064912484026" lon="12.292453730306171"><ele>429.0</ele><time>2026-04-10T12:52:37.001Z</time></trkpt><trkpt lat="43.23061508705872" lon="12.292526584587975"><ele>431.6666666666667</ele><time>2026-04-10T12:52:39.001Z</time></trkpt><trkpt lat="43.23057046008611" lon="12.292599532199644"><ele>434.33333333333337</ele><time>2026-04-10T12:52:41.001Z</time></trkpt><trkpt lat="43.23050591829288" lon="12.292662337069572"><ele>437.0</ele><time>2026-04-10T12:52:43.001Z</time></trkpt><trkpt lat="43.23044530616632" lon="12.292707643335087"><ele>439.6666666666667</ele><time>2026-04-10T12:52:45.001Z</time></trkpt><trkpt lat="43.230359047036686" lon="12.292712931755082"><ele>442.33333333333337</ele><time>2026-04-10T12:52:48.001Z</time></trkpt><trkpt lat="43.230295887411415" lon="12.292706787412731"><ele>445.0</ele><time>2026-04-10T12:52:50.001Z</time></trkpt><trkpt lat="43.23020099788141" lon="12.292696852627731"><ele>445.0</ele><time>2026-04-10T12:52:53.001Z</time></trkpt><trkpt lat="43.23013089257564" lon="12.292690936700438"><ele>445.0</ele><time>2026-04-10T12:52:55.001Z</time></trkpt><trkpt lat="43.23005362841" lon="12.292683745379223"><ele>445.0</ele><time>2026-04-10T12:52:57.001Z</time></trkpt><trkpt lat="43.22998067061657" lon="12.29266446660171"><ele>445.0</ele><time>2026-04-10T12:54:37Z</time></trkpt><trkpt lat="43.22989279381508" lon="12.292674190840263"><ele>445.0</ele><time>2026-04-10T12:54:40Z</time></trkpt><trkpt lat="43.22982766955178" lon="12.292681330140477"><ele>445.0</ele><time>2026-04-10T12:54:42Z</time></trkpt><trkpt lat="43.229762791684706" lon="12.292671060012271"><ele>445.0</ele><time>2026-04-10T12:54:44Z</time></trkpt><trkpt lat="43.2296962951424" lon="12.292692985774297"><ele>446.83333333333337</ele><time>2026-04-10T12:54:46Z</time></trkpt><trkpt lat="43.229626230069" lon="12.292710909398222"><ele>448.6666666666667</ele><time>2026-04-10T12:54:48Z</time></trkpt><trkpt lat="43.2295532693935" lon="12.292729667828116"><ele>450.5</ele><time>2026-04-10T12:54:50Z</time></trkpt><trkpt lat="43.22947625136567" lon="12.292752810303613"><ele>452.33333333333337</ele><time>2026-04-10T12:54:52Z</time></trkpt><trkpt lat="43.2293951718024" lon="12.292758235291053"><ele>454.1666666666667</ele><time>2026-04-10T12:54:54Z</time></trkpt><trkpt lat="43.229319388043315" lon="12.292733010062346"><ele>456.0</ele><time>2026-04-10T12:54:56Z</time></trkpt><trkpt lat="43.22924670568975" lon="12.292686430285277"><ele>456.0</ele><time>2026-04-10T12:54:58Z</time></trkpt><trkpt lat="43.229184307751645" lon="12.29263293691912"><ele>455.99999999999994</ele><time>2026-04-10T12:55:00Z</time></trkpt><trkpt lat="43.229128839536045" lon="12.292585649477404"><ele>456.0</ele><time>2026-04-10T12:55:02Z</time></trkpt><trkpt lat="43.229054555543826" lon="12.292566724219839"><ele>456.0</ele><time>2026-04-10T12:55:05Z</time></trkpt><trkpt lat="43.228976386984456" lon="12.292596750045835"><ele>455.99999999999994</ele><time>2026-04-10T12:55:08Z</time></trkpt><trkpt lat="43.228924010585665" lon="12.29265679886366"><ele>456.0</ele><time>2026-04-10T12:55:11Z</time></trkpt><trkpt lat="43.22887936074071" lon="12.292727080406426"><ele>456.0</ele><time>2026-04-10T12:56:33Z</time></trkpt><trkpt lat="43.22882793621372" lon="12.29278831134832"><ele>457.4285714285714</ele><time>2026-04-10T12:56:36Z</time></trkpt><trkpt lat="43.228773823051306" lon="12.292843635998851"><ele>458.8571428571428</ele><time>2026-04-10T12:56:39Z</time></trkpt><trkpt lat="43.228705451715975" lon="12.292889963806997"><ele>460.2857142857143</ele><time>2026-04-10T12:56:42Z</time></trkpt><trkpt lat="43.228643208898745" lon="12.292938131271375"><ele>461.71428571428567</ele><time>2026-04-10T12:56:45Z</time></trkpt><trkpt lat="43.22857130634485" lon="12.292975381126814"><ele>463.1428571428571</ele><time>2026-04-10T12:56:48Z</time></trkpt><trkpt lat="43.22850895737746" lon="12.293020025814378"><ele>464.57142857142856</ele><time>2026-04-10T12:57:51Z</time></trkpt><trkpt lat="43.228429345014234" lon="12.293049991646457"><ele>466.0</ele><time>2026-04-10T12:57:55Z</time></trkpt><trkpt lat="43.228364978447246" lon="12.293070027273833"><ele>466.0</ele><time>2026-04-10T12:57:58Z</time></trkpt><trkpt lat="43.228293647834974" lon="12.293059475093312"><ele>466.0</ele><time>2026-04-10T12:58:01Z</time></trkpt><trkpt lat="43.22823003460749" lon="12.293053910965517"><ele>466.0</ele><time>2026-04-10T12:58:14Z</time></trkpt><trkpt lat="43.22816884923958" lon="12.293030378405676"><ele>466.0</ele><time>2026-04-10T12:58:21Z</time></trkpt><trkpt lat="43.22810537488288" lon="12.293004879154806"><ele>466.0</ele><time>2026-04-10T12:58:29Z</time></trkpt><trkpt lat="43.228040176459366" lon="12.292977250578108"><ele>466.0</ele><time>2026-04-10T12:58:37Z</time></trkpt><trkpt lat="43.227977777706386" lon="12.292943229483168"><ele>466.0</ele><time>2026-04-10T12:58:44Z</time></trkpt><trkpt lat="43.22791774412719" lon="12.29291392206123"><ele>468.28571428571433</ele><time>2026-04-10T12:58:51Z</time></trkpt><trkpt lat="43.2278527811474" lon="12.292876479056778"><ele>470.57142857142856</ele><time>2026-04-10T12:59:00Z</time></trkpt><trkpt lat="43.227786485707995" lon="12.292842426623785"><ele>472.8571428571429</ele><time>2026-04-10T12:59:08Z</time></trkpt><trkpt lat="43.22772587474777" lon="12.292807413681285"><ele>475.14285714285717</ele><time>2026-04-10T12:59:25Z</time></trkpt><trkpt lat="43.227660138971885" lon="12.292775608916955"><ele>477.42857142857144</ele><time>2026-04-10T12:59:33Z</time></trkpt><trkpt lat="43.22759929200598" lon="12.292748934393277"><ele>479.7142857142857</ele><time>2026-04-10T12:59:42Z</time></trkpt><trkpt lat="43.22753652448096" lon="12.292712339465742"><ele>482.0</ele><time>2026-04-10T12:59:53.999Z</time></trkpt><trkpt lat="43.22747049185198" lon="12.2926790414075"><ele>482.0</ele><time>2026-04-10T13:00:03.999Z</time></trkpt><trkpt lat="43.22740970027111" lon="12.292644682675988"><ele>482.00000000000006</ele><time>2026-04-10T13:00:30Z</time></trkpt><trkpt lat="43.22734535083395" lon="12.292603579668148"><ele>482.0</ele><time>2026-04-10T13:00:42Z</time></trkpt><trkpt lat="43.22728931613345" lon="12.292564139356278"><ele>482.0</ele><time>2026-04-10T13:00:53Z</time></trkpt><trkpt lat="43.227232400233014" lon="12.292521687265722"><ele>482.00000000000006</ele><time>2026-04-10T13:01:04Z</time></trkpt><trkpt lat="43.227184733244506" lon="12.29245202345912"><ele>482.0</ele><time>2026-04-10T13:01:14Z</time></trkpt><trkpt lat="43.22715856253559" lon="12.292366870195266"><ele>482.0</ele><time>2026-04-10T13:01:23Z</time></trkpt><trkpt lat="43.227150107374115" lon="12.292272555266674"><ele>483.14285714285717</ele><time>2026-04-10T13:01:30Z</time></trkpt><trkpt lat="43.22714374754739" lon="12.292180024346946"><ele>484.28571428571433</ele><time>2026-04-10T13:01:39Z</time></trkpt><trkpt lat="43.22711949099565" lon="12.292098968940415"><ele>485.42857142857144</ele><time>2026-04-10T13:01:48Z</time></trkpt><trkpt lat="43.22708003555089" lon="12.292025163357277"><ele>486.57142857142856</ele><time>2026-04-10T13:01:55Z</time></trkpt><trkpt lat="43.2270170492095" lon="12.291977125603202"><ele>487.7142857142857</ele><time>2026-04-10T13:01:59Z</time></trkpt><trkpt lat="43.22695132531821" lon="12.29194481495843"><ele>488.8571428571429</ele><time>2026-04-10T13:02:01Z</time></trkpt><trkpt lat="43.22687755788029" lon="12.291944805112129"><ele>490.0</ele><time>2026-04-10T13:02:03Z</time></trkpt><trkpt lat="43.226802456433994" lon="12.291986046702947"><ele>490.00000000000006</ele><time>2026-04-10T13:02:05Z</time></trkpt><trkpt lat="43.22675961294138" lon="12.292072618054702"><ele>490.0</ele><time>2026-04-10T13:02:07Z</time></trkpt><trkpt lat="43.22674594410851" lon="12.292196559495784"><ele>490.0</ele><time>2026-04-10T13:02:10Z</time></trkpt><trkpt lat="43.22676453784444" lon="12.292283238669144"><ele>490.0</ele><time>2026-04-10T13:02:12Z</time></trkpt><trkpt lat="43.226773490901515" lon="12.292392856391379"><ele>490.00000000000006</ele><time>2026-04-10T13:02:15Z</time></trkpt><trkpt lat="43.22678627050319" lon="12.292508787875958"><ele>490.0</ele><time>2026-04-10T13:02:18Z</time></trkpt><trkpt lat="43.226804774604794" lon="12.29261182327695"><ele>492.1666666666667</ele><time>2026-04-10T13:02:21Z</time></trkpt><trkpt lat="43.22680053766974" lon="12.292726963735635"><ele>494.33333333333337</ele><time>2026-04-10T13:02:24Z</time></trkpt><trkpt lat="43.22678452636951" lon="12.292825655700687"><ele>496.5</ele><time>2026-04-10T13:02:27Z</time></trkpt><trkpt lat="43.22674653214188" lon="12.292910590011564"><ele>498.66666666666663</ele><time>2026-04-10T13:02:30Z</time></trkpt><trkpt lat="43.226653786655106" lon="12.292871164166922"><ele>500.8333333333333</ele><time>2026-04-10T13:03:19Z</time></trkpt><trkpt lat="43.22659883830176" lon="12.292820821159522"><ele>503.0</ele><time>2026-04-10T13:03:21Z</time></trkpt><trkpt lat="43.226535930504674" lon="12.292730316969068"><ele>505.14285714285717</ele><time>2026-04-10T13:03:24Z</time></trkpt><trkpt lat="43.226476984602236" lon="12.292684492858395"><ele>507.28571428571433</ele><time>2026-04-10T13:03:26Z</time></trkpt><trkpt lat="43.22642051262254" lon="12.292638592451663"><ele>509.42857142857144</ele><time>2026-04-10T13:03:28Z</time></trkpt><trkpt lat="43.22635823105823" lon="12.2925945423289"><ele>511.57142857142856</ele><time>2026-04-10T13:03:30Z</time></trkpt><trkpt lat="43.22629193142062" lon="12.292567880727304"><ele>513.7142857142858</ele><time>2026-04-10T13:03:32Z</time></trkpt><trkpt lat="43.22622055117054" lon="12.29254260718853"><ele>515.8571428571429</ele><time>2026-04-10T13:03:34Z</time></trkpt><trkpt lat="43.226143620564635" lon="12.292532424273709"><ele>518.0</ele><time>2026-04-10T13:03:36Z</time></trkpt><trkpt lat="43.22607066866398" lon="12.292509077553154"><ele>518.0</ele><time>2026-04-10T13:03:38Z</time></trkpt><trkpt lat="43.22599593656596" lon="12.292478424282436"><ele>518.0</ele><time>2026-04-10T13:03:40Z</time></trkpt><trkpt lat="43.225927171457236" lon="12.292452549994232"><ele>518.0</ele><time>2026-04-10T13:03:42Z</time></trkpt><trkpt lat="43.2258628441794" lon="12.292436741160605"><ele>518.0</ele><time>2026-04-10T13:03:44Z</time></trkpt><trkpt lat="43.22579859436238" lon="12.292424007260353"><ele>518.0</ele><time>2026-04-10T13:04:22Z</time></trkpt><trkpt lat="43.22570258899309" lon="12.29242269140953"><ele>518.0</ele><time>2026-04-10T13:04:25Z</time></trkpt><trkpt lat="43.225608116142986" lon="12.292414743778071"><ele>518.0</ele><time>2026-04-10T13:04:27Z</time></trkpt><trkpt lat="43.2255052577615" lon="12.292408111601453"><ele>518.0</ele><time>2026-04-10T13:04:29Z</time></trkpt><trkpt lat="43.22541092182019" lon="12.292353976231905"><ele>518.0</ele><time>2026-04-10T13:04:31Z</time></trkpt><trkpt lat="43.22531427641941" lon="12.292290851032458"><ele>518.0</ele><time>2026-04-10T13:04:33Z</time></trkpt><trkpt lat="43.22521467363643" lon="12.292250181799098"><ele>518.0</ele><time>2026-04-10T13:04:35Z</time></trkpt><trkpt lat="43.22509571935207" lon="12.29227221939483"><ele>518.0</ele><time>2026-04-10T13:04:37Z</time></trkpt><trkpt lat="43.2249765964004" lon="12.292239304706563"><ele>518.0</ele><time>2026-04-10T13:04:39Z</time></trkpt><trkpt lat="43.22491113192086" lon="12.292131004634495"><ele>518.0</ele><time>2026-04-10T13:04:41Z</time></trkpt><trkpt lat="43.22488934962822" lon="12.29199704240944"><ele>518.0</ele><time>2026-04-10T13:04:43Z</time></trkpt><trkpt lat="43.224865049328706" lon="12.291871080075277"><ele>518.0</ele><time>2026-04-10T13:04:45Z</time></trkpt><trkpt lat="43.2248434863385" lon="12.291757305740088"><ele>521.6</ele><time>2026-04-10T13:04:47Z</time></trkpt><trkpt lat="43.22480882172275" lon="12.291633220295417"><ele>525.1999999999999</ele><time>2026-04-10T13:04:49Z</time></trkpt><trkpt lat="43.224781094766584" lon="12.291517945465715"><ele>528.8</ele><time>2026-04-10T13:04:51Z</time></trkpt><trkpt lat="43.224742587896316" lon="12.291404485222323"><ele>532.4</ele><time>2026-04-10T13:04:53Z</time></trkpt><trkpt lat="43.22469172281112" lon="12.291307696735942"><ele>536.0</ele><time>2026-04-10T13:04:55Z</time></trkpt><trkpt lat="43.22461444708304" lon="12.291249794459828"><ele>536.0</ele><time>2026-04-10T13:04:57Z</time></trkpt><trkpt lat="43.22454156497612" lon="12.291244730281308"><ele>536.0</ele><time>2026-04-10T13:04:59Z</time></trkpt><trkpt lat="43.224477070235366" lon="12.291268796046936"><ele>536.0</ele><time>2026-04-10T13:05:01Z</time></trkpt><trkpt lat="43.224397326655065" lon="12.29131053417185"><ele>536.0</ele><time>2026-04-10T13:05:04Z</time></trkpt><trkpt lat="43.22430901946506" lon="12.291311072346625"><ele>536.0</ele><time>2026-04-10T13:05:07Z</time></trkpt><trkpt lat="43.224240109210676" lon="12.291234387488847"><ele>536.0</ele><time>2026-04-10T13:05:10Z</time></trkpt><trkpt lat="43.22421674014762" lon="12.291121410720509"><ele>536.0</ele><time>2026-04-10T13:05:13Z</time></trkpt><trkpt lat="43.22419795177749" lon="12.291034978347634"><ele>536.0</ele><time>2026-04-10T13:05:15Z</time></trkpt><trkpt lat="43.224150744508414" lon="12.29091540028413"><ele>536.0</ele><time>2026-04-10T13:06:00Z</time></trkpt><trkpt lat="43.22412397736448" lon="12.290804860926066"><ele>536.0</ele><time>2026-04-10T13:06:04Z</time></trkpt><trkpt lat="43.22409383888372" lon="12.290727180994066"><ele>536.0</ele><time>2026-04-10T13:06:06Z</time></trkpt><trkpt lat="43.224043617515576" lon="12.290617899278384"><ele>536.0</ele><time>2026-04-10T13:06:09Z</time></trkpt><trkpt lat="43.22401088745924" lon="12.29054147967573"><ele>536.8333333333333</ele><time>2026-04-10T13:06:11Z</time></trkpt><trkpt lat="43.22396527405378" lon="12.290478029434903"><ele>537.6666666666666</ele><time>2026-04-10T13:06:13Z</time></trkpt><trkpt lat="43.223918635835034" lon="12.290414642378558"><ele>538.5</ele><time>2026-04-10T13:06:15Z</time></trkpt><trkpt lat="43.22388211959971" lon="12.290333941483139"><ele>539.3333333333334</ele><time>2026-04-10T13:06:23Z</time></trkpt><trkpt lat="43.22381064975264" lon="12.290230971253179"><ele>540.1666666666667</ele><time>2026-04-10T13:10:34.499Z</time></trkpt><trkpt lat="43.22376297563287" lon="12.290127639091704"><ele>541.0</ele><time>2026-04-10T13:10:36.499Z</time></trkpt><trkpt lat="43.22370817106431" lon="12.290058081061828"><ele>541.0</ele><time>2026-04-10T13:10:40.499Z</time></trkpt><trkpt lat="43.22363373312722" lon="12.290003107723685"><ele>541.0</ele><time>2026-04-10T13:10:46.002Z</time></trkpt><trkpt lat="43.223538721903175" lon="12.290000876893483"><ele>541.0</ele><time>2026-04-10T13:10:50.002Z</time></trkpt><trkpt lat="43.22346406743117" lon="12.290015784003954"><ele>541.0</ele><time>2026-04-10T13:10:52.002Z</time></trkpt><trkpt lat="43.223374868570225" lon="12.290039372476809"><ele>541.0</ele><time>2026-04-10T13:10:54.002Z</time></trkpt><trkpt lat="43.22328949910395" lon="12.290051132400997"><ele>541.0</ele><time>2026-04-10T13:10:56.002Z</time></trkpt><trkpt lat="43.22320165730413" lon="12.290068283396403"><ele>540.8</ele><time>2026-04-10T13:10:58.002Z</time></trkpt><trkpt lat="43.223107676595916" lon="12.290072222889746"><ele>540.6</ele><time>2026-04-10T13:11:00.002Z</time></trkpt><trkpt lat="43.22300826043258" lon="12.290055440850379"><ele>540.4</ele><time>2026-04-10T13:11:02.001Z</time></trkpt><trkpt lat="43.2229082454297" lon="12.290025604155257"><ele>540.2</ele><time>2026-04-10T13:11:04.001Z</time></trkpt><trkpt lat="43.22280183803999" lon="12.290008937955333"><ele>540.0</ele><time>2026-04-10T13:11:06.001Z</time></trkpt><trkpt lat="43.22273942032918" lon="12.289974515258876"><ele>540.0</ele><time>2026-04-10T13:11:07.001Z</time></trkpt><trkpt lat="43.22267585783616" lon="12.29001160783349"><ele>540.0</ele><time>2026-04-10T13:11:08.001Z</time></trkpt><trkpt lat="43.22261508044527" lon="12.290055341389051"><ele>540.0</ele><time>2026-04-10T13:11:09.001Z</time></trkpt><trkpt lat="43.22255388134769" lon="12.29010139964047"><ele>540.0</ele><time>2026-04-10T13:11:10.001Z</time></trkpt><trkpt lat="43.222492972817555" lon="12.290147697179723"><ele>540.0</ele><time>2026-04-10T13:11:11.001Z</time></trkpt><trkpt lat="43.22242434028359" lon="12.290200155301502"><ele>540.0</ele><time>2026-04-10T13:11:12.001Z</time></trkpt><trkpt lat="43.222355178368026" lon="12.290254519826101"><ele>540.0</ele><time>2026-04-10T13:11:13.001Z</time></trkpt><trkpt lat="43.222277666261405" lon="12.290315447946446"><ele>539.4</ele><time>2026-04-10T13:11:14.001Z</time></trkpt><trkpt lat="43.22220120858547" lon="12.290375547217883"><ele>538.8</ele><time>2026-04-10T13:11:15.001Z</time></trkpt><trkpt lat="43.22212246769143" lon="12.290437441270122"><ele>538.2</ele><time>2026-04-10T13:11:16.001Z</time></trkpt><trkpt lat="43.22204416240301" lon="12.29049712485872"><ele>537.6</ele><time>2026-04-10T13:11:17.001Z</time></trkpt><trkpt lat="43.22196404861032" lon="12.290557924422357"><ele>537.0</ele><time>2026-04-10T13:11:18.001Z</time></trkpt><trkpt lat="43.22187900666232" lon="12.290622463990145"><ele>539.0</ele><time>2026-04-10T13:11:19.001Z</time></trkpt><trkpt lat="43.221796766979104" lon="12.290687446706798"><ele>541.0</ele><time>2026-04-10T13:11:20.001Z</time></trkpt><trkpt lat="43.221718669622824" lon="12.290746227135559"><ele>543.0</ele><time>2026-04-10T13:11:21.001Z</time></trkpt><trkpt lat="43.221639531825694" lon="12.290791654564293"><ele>545.0</ele><time>2026-04-10T13:11:22.001Z</time></trkpt><trkpt lat="43.22156277246998" lon="12.290823010576021"><ele>547.0</ele><time>2026-04-10T13:11:23.001Z</time></trkpt><trkpt lat="43.22149985878436" lon="12.290831254175215"><ele>549.0</ele><time>2026-04-10T13:11:24.001Z</time></trkpt><trkpt lat="43.22140383294038" lon="12.290773543011056"><ele>548.1666666666666</ele><time>2026-04-10T13:11:26.001Z</time></trkpt><trkpt lat="43.22135481864513" lon="12.290711062564743"><ele>547.3333333333334</ele><time>2026-04-10T13:11:27.001Z</time></trkpt><trkpt lat="43.22130787257604" lon="12.290639442503785"><ele>546.5</ele><time>2026-04-10T13:11:28.001Z</time></trkpt><trkpt lat="43.221233214605995" lon="12.290487730307953"><ele>545.6666666666667</ele><time>2026-04-10T13:11:30.001Z</time></trkpt><trkpt lat="43.22118826902182" lon="12.290407753732648"><ele>544.8333333333334</ele><time>2026-04-10T13:11:31.001Z</time></trkpt><trkpt lat="43.221138646309434" lon="12.290332643187202"><ele>544.0</ele><time>2026-04-10T13:11:32.001Z</time></trkpt><trkpt lat="43.22107520663866" lon="12.29025280490589"><ele>544.0</ele><time>2026-04-10T13:11:33.001Z</time></trkpt><trkpt lat="43.221008421238366" lon="12.290181242533027"><ele>544.0</ele><time>2026-04-10T13:11:34.001Z</time></trkpt><trkpt lat="43.22093974630947" lon="12.290109180263705"><ele>544.0</ele><time>2026-04-10T13:11:35.001Z</time></trkpt><trkpt lat="43.22087317686521" lon="12.29004085043222"><ele>544.0</ele><time>2026-04-10T13:11:36.001Z</time></trkpt><trkpt lat="43.22080010076602" lon="12.289965841550089"><ele>544.0</ele><time>2026-04-10T13:11:37.001Z</time></trkpt><trkpt lat="43.22072518250594" lon="12.28989467650835"><ele>544.0</ele><time>2026-04-10T13:11:38.001Z</time></trkpt><trkpt lat="43.22064772698702" lon="12.289823487074422"><ele>542.8</ele><time>2026-04-10T13:11:39.001Z</time></trkpt><trkpt lat="43.220567655285905" lon="12.289756785761583"><ele>541.5999999999999</ele><time>2026-04-10T13:11:40.001Z</time></trkpt><trkpt lat="43.22048286845386" lon="12.289696254517557"><ele>540.4</ele><time>2026-04-10T13:11:41.001Z</time></trkpt><trkpt lat="43.22040554992428" lon="12.289642053216268"><ele>539.1999999999999</ele><time>2026-04-10T13:11:42.001Z</time></trkpt><trkpt lat="43.22032598709497" lon="12.289585690938974"><ele>538.0</ele><time>2026-04-10T13:11:43.001Z</time></trkpt><trkpt lat="43.2202438980812" lon="12.289521288948158"><ele>538.0</ele><time>2026-04-10T13:11:44.001Z</time></trkpt><trkpt lat="43.22016523310089" lon="12.289455751088402"><ele>538.0</ele><time>2026-04-10T13:11:45.001Z</time></trkpt><trkpt lat="43.2200834984557" lon="12.289387655905733"><ele>538.0</ele><time>2026-04-10T13:11:46.001Z</time></trkpt><trkpt lat="43.2199981980696" lon="12.289317465260744"><ele>538.0</ele><time>2026-04-10T13:11:47.001Z</time></trkpt><trkpt lat="43.219909473118854" lon="12.289248055138211"><ele>538.0</ele><time>2026-04-10T13:11:48.001Z</time></trkpt><trkpt lat="43.21981591177217" lon="12.289188507646143"><ele>539.4</ele><time>2026-04-10T13:11:49.001Z</time></trkpt><trkpt lat="43.21970943652169" lon="12.289139332893937"><ele>540.8</ele><time>2026-04-10T13:11:50.001Z</time></trkpt><trkpt lat="43.21961362719665" lon="12.289099859529626"><ele>542.2</ele><time>2026-04-10T13:11:51.001Z</time></trkpt><trkpt lat="43.219523852666626" lon="12.289069349355218"><ele>543.6</ele><time>2026-04-10T13:11:52.001Z</time></trkpt><trkpt lat="43.219429155931486" lon="12.289050511027428"><ele>545.0</ele><time>2026-04-10T13:11:53.001Z</time></trkpt><trkpt lat="43.21934304592619" lon="12.2890453881189"><ele>545.0</ele><time>2026-04-10T13:11:54.001Z</time></trkpt><trkpt lat="43.21925421152086" lon="12.289046611374069"><ele>545.0</ele><time>2026-04-10T13:11:55.001Z</time></trkpt><trkpt lat="43.21917102210171" lon="12.289050757444567"><ele>545.0</ele><time>2026-04-10T13:11:56.001Z</time></trkpt><trkpt lat="43.21909993582317" lon="12.289061327480345"><ele>545.0</ele><time>2026-04-10T13:11:57.001Z</time></trkpt><trkpt lat="43.21902224513203" lon="12.289067904847379"><ele>545.0</ele><time>2026-04-10T13:11:58.001Z</time></trkpt><trkpt lat="43.21894228228381" lon="12.289048417369168"><ele>545.0</ele><time>2026-04-10T13:11:59.001Z</time></trkpt><trkpt lat="43.218866099629686" lon="12.289011783231976"><ele>545.6666666666666</ele><time>2026-04-10T13:12:00.001Z</time></trkpt><trkpt lat="43.2187841292275" lon="12.288971804706753"><ele>546.3333333333333</ele><time>2026-04-10T13:12:01.001Z</time></trkpt><trkpt lat="43.21870405918984" lon="12.288940880467228"><ele>547.0</ele><time>2026-04-10T13:12:02.001Z</time></trkpt><trkpt lat="43.21862104601447" lon="12.288918193093753"><ele>547.6666666666666</ele><time>2026-04-10T13:12:03.001Z</time></trkpt><trkpt lat="43.218534329439315" lon="12.288897415350293"><ele>548.3333333333334</ele><time>2026-04-10T13:12:04.001Z</time></trkpt><trkpt lat="43.21844534940125" lon="12.288877079965744"><ele>549.0</ele><time>2026-04-10T13:12:05.001Z</time></trkpt><trkpt lat="43.218357284638024" lon="12.288858139296556"><ele>550.0</ele><time>2026-04-10T13:12:06.001Z</time></trkpt><trkpt lat="43.21827699478967" lon="12.288833557267706"><ele>551.0</ele><time>2026-04-10T13:12:07.001Z</time></trkpt><trkpt lat="43.21819902591769" lon="12.28878811550006"><ele>552.0</ele><time>2026-04-10T13:12:08.001Z</time></trkpt><trkpt lat="43.21814623043594" lon="12.288708163425554"><ele>553.0</ele><time>2026-04-10T13:12:09.001Z</time></trkpt><trkpt lat="43.21808298510376" lon="12.288656221374776"><ele>554.0</ele><time>2026-04-10T13:12:10.001Z</time></trkpt><trkpt lat="43.21802121547661" lon="12.288610892958337"><ele>555.0</ele><time>2026-04-10T13:12:11.001Z</time></trkpt><trkpt lat="43.21791646272471" lon="12.288536400594378"><ele>555.0</ele><time>2026-04-10T13:12:13.001Z</time></trkpt><trkpt lat="43.217823081991064" lon="12.28847050199463"><ele>555.0</ele><time>2026-04-10T13:12:15.001Z</time></trkpt><trkpt lat="43.217737443583296" lon="12.28841722155483"><ele>555.0</ele><time>2026-04-10T13:12:17.001Z</time></trkpt><trkpt lat="43.21766279357717" lon="12.288369281832589"><ele>555.0</ele><time>2026-04-10T13:12:19.001Z</time></trkpt><trkpt lat="43.21758179672328" lon="12.288300425740854"><ele>555.0</ele><time>2026-04-10T13:12:21.001Z</time></trkpt><trkpt lat="43.21752289577212" lon="12.288214897552134"><ele>555.0</ele><time>2026-04-10T13:12:23.001Z</time></trkpt><trkpt lat="43.217468292620914" lon="12.288102309723941"><ele>555.0</ele><time>2026-04-10T13:12:25.001Z</time></trkpt><trkpt lat="43.21742167322003" lon="12.2879832122991"><ele>555.0</ele><time>2026-04-10T13:12:27.001Z</time></trkpt><trkpt lat="43.21737155813523" lon="12.28785704587297"><ele>555.0</ele><time>2026-04-10T13:12:29.001Z</time></trkpt><trkpt lat="43.21732066609752" lon="12.287712123456709"><ele>555.0</ele><time>2026-04-10T13:12:31.001Z</time></trkpt><trkpt lat="43.21726223468812" lon="12.287578672154103"><ele>555.4</ele><time>2026-04-10T13:12:33.001Z</time></trkpt><trkpt lat="43.217194511847254" lon="12.287449572806326"><ele>555.8</ele><time>2026-04-10T13:12:35.001Z</time></trkpt><trkpt lat="43.217114884253625" lon="12.2873541183306"><ele>556.2</ele><time>2026-04-10T13:12:37.001Z</time></trkpt><trkpt lat="43.217030500001044" lon="12.287300739944122"><ele>556.6</ele><time>2026-04-10T13:12:39.001Z</time></trkpt><trkpt lat="43.21694419630377" lon="12.287270219287496"><ele>557.0</ele><time>2026-04-10T13:12:41.001Z</time></trkpt><trkpt lat="43.21686539223273" lon="12.287249435453584"><ele>557.0</ele><time>2026-04-10T13:12:43.001Z</time></trkpt><trkpt lat="43.21677846883992" lon="12.287244911304594"><ele>557.0</ele><time>2026-04-10T13:12:45.001Z</time></trkpt><trkpt lat="43.21669519931104" lon="12.28725368575269"><ele>557.0</ele><time>2026-04-10T13:12:47.001Z</time></trkpt><trkpt lat="43.21660041225881" lon="12.287277794106936"><ele>557.0</ele><time>2026-04-10T13:12:49Z</time></trkpt><trkpt lat="43.21648528597842" lon="12.287312284166557"><ele>557.0</ele><time>2026-04-10T13:12:51Z</time></trkpt><trkpt lat="43.21641865195063" lon="12.287331876223327"><ele>557.3333333333333</ele><time>2026-04-10T13:12:52Z</time></trkpt><trkpt lat="43.216350698441474" lon="12.28735114290233"><ele>557.6666666666666</ele><time>2026-04-10T13:12:53Z</time></trkpt><trkpt lat="43.216276089685756" lon="12.287368891783773"><ele>558.0</ele><time>2026-04-10T13:12:54Z</time></trkpt><trkpt lat="43.2161997771175" lon="12.287388766551164"><ele>558.3333333333334</ele><time>2026-04-10T13:12:55Z</time></trkpt><trkpt lat="43.21612495756707" lon="12.287408925162621"><ele>558.6666666666667</ele><time>2026-04-10T13:12:56Z</time></trkpt><trkpt lat="43.2160475871327" lon="12.287424168395356"><ele>559.0</ele><time>2026-04-10T13:12:57Z</time></trkpt><trkpt lat="43.21597088825784" lon="12.287451974534585"><ele>559.0</ele><time>2026-04-10T13:12:58Z</time></trkpt><trkpt lat="43.21589342613167" lon="12.28742337843402"><ele>559.0</ele><time>2026-04-10T13:12:59Z</time></trkpt><trkpt lat="43.21582937661271" lon="12.287382655060346"><ele>559.0</ele><time>2026-04-10T13:13:00Z</time></trkpt><trkpt lat="43.21576856386629" lon="12.287336032134515"><ele>559.0</ele><time>2026-04-10T13:13:01Z</time></trkpt><trkpt lat="43.215704475493446" lon="12.287280816068547"><ele>559.0</ele><time>2026-04-10T13:13:02Z</time></trkpt><trkpt lat="43.21565020308888" lon="12.28722682995442"><ele>559.0</ele><time>2026-04-10T13:13:03Z</time></trkpt><trkpt lat="43.215598058636985" lon="12.287174252007711"><ele>559.0</ele><time>2026-04-10T13:13:04Z</time></trkpt><trkpt lat="43.21550427389476" lon="12.287050051533926"><ele>558.1428571428571</ele><time>2026-04-10T13:13:06Z</time></trkpt><trkpt lat="43.21545700876134" lon="12.286981810231413"><ele>557.2857142857143</ele><time>2026-04-10T13:13:07Z</time></trkpt><trkpt lat="43.21541183268489" lon="12.286918618011956"><ele>556.4285714285714</ele><time>2026-04-10T13:13:08Z</time></trkpt><trkpt lat="43.21536000501817" lon="12.286854870909876"><ele>555.5714285714286</ele><time>2026-04-10T13:13:09Z</time></trkpt><trkpt lat="43.215307522707846" lon="12.286795699373997"><ele>554.7142857142858</ele><time>2026-04-10T13:13:10Z</time></trkpt><trkpt lat="43.21524851574499" lon="12.286738640054121"><ele>553.8571428571429</ele><time>2026-04-10T13:13:11Z</time></trkpt><trkpt lat="43.215199101877346" lon="12.286675375736534"><ele>553.0</ele><time>2026-04-10T13:13:12Z</time></trkpt><trkpt lat="43.21516260469338" lon="12.286595655114047"><ele>553.0</ele><time>2026-04-10T13:13:13Z</time></trkpt><trkpt lat="43.21514755897961" lon="12.286492932715648"><ele>553.0</ele><time>2026-04-10T13:13:14Z</time></trkpt><trkpt lat="43.21511448708888" lon="12.286392540894758"><ele>553.0</ele><time>2026-04-10T13:13:15Z</time></trkpt><trkpt lat="43.21508012671404" lon="12.286288237956175"><ele>553.0</ele><time>2026-04-10T13:13:16Z</time></trkpt><trkpt lat="43.21504279786286" lon="12.286173923803245"><ele>553.0</ele><time>2026-04-10T13:13:17Z</time></trkpt><trkpt lat="43.21500554697361" lon="12.286059137508966"><ele>553.0</ele><time>2026-04-10T13:13:18Z</time></trkpt><trkpt lat="43.214961408933725" lon="12.285942659368526"><ele>552.6</ele><time>2026-04-10T13:13:19Z</time></trkpt><trkpt lat="43.214926037556125" lon="12.285820767484052"><ele>552.1999999999999</ele><time>2026-04-10T13:13:20Z</time></trkpt><trkpt lat="43.214886736756746" lon="12.285695655804998"><ele>551.8</ele><time>2026-04-10T13:13:21Z</time></trkpt><trkpt lat="43.214844530046555" lon="12.285582671823585"><ele>551.4</ele><time>2026-04-10T13:13:22Z</time></trkpt><trkpt lat="43.214802482167975" lon="12.285472839799603"><ele>551.0</ele><time>2026-04-10T13:13:23Z</time></trkpt><trkpt lat="43.21476407670777" lon="12.285353231725628"><ele>549.8</ele><time>2026-04-10T13:13:24Z</time></trkpt><trkpt lat="43.2147275780671" lon="12.285234091942279"><ele>548.6</ele><time>2026-04-10T13:13:25Z</time></trkpt><trkpt lat="43.21469307228075" lon="12.285119601716762"><ele>547.4</ele><time>2026-04-10T13:13:26Z</time></trkpt><trkpt lat="43.2146579634537" lon="12.285005919757527"><ele>546.2</ele><time>2026-04-10T13:13:27Z</time></trkpt><trkpt lat="43.21462258574828" lon="12.2848926239397"><ele>545.0</ele><time>2026-04-10T13:13:28Z</time></trkpt><trkpt lat="43.21458621253209" lon="12.284778003505135"><ele>545.3333333333333</ele><time>2026-04-10T13:13:29Z</time></trkpt><trkpt lat="43.214551010891356" lon="12.284667101273152"><ele>545.6666666666666</ele><time>2026-04-10T13:13:30Z</time></trkpt><trkpt lat="43.21452959436421" lon="12.284553871759211"><ele>546.0</ele><time>2026-04-10T13:13:31Z</time></trkpt><trkpt lat="43.214495455600655" lon="12.284447842751916"><ele>546.3333333333334</ele><time>2026-04-10T13:13:32Z</time></trkpt><trkpt lat="43.214459925487716" lon="12.284343624029784"><ele>546.6666666666667</ele><time>2026-04-10T13:13:33Z</time></trkpt><trkpt lat="43.21442521367034" lon="12.284249959179323"><ele>547.0</ele><time>2026-04-10T13:13:34Z</time></trkpt><trkpt lat="43.214384580831386" lon="12.284148735470529"><ele>547.0</ele><time>2026-04-10T13:13:35Z</time></trkpt><trkpt lat="43.21433856038126" lon="12.284048920046956"><ele>547.0</ele><time>2026-04-10T13:13:36Z</time></trkpt><trkpt lat="43.21429258639632" lon="12.283942579102996"><ele>547.0</ele><time>2026-04-10T13:13:37Z</time></trkpt><trkpt lat="43.21424245334715" lon="12.283834095317518"><ele>547.0</ele><time>2026-04-10T13:13:38Z</time></trkpt><trkpt lat="43.214188776258275" lon="12.283728829671597"><ele>547.0</ele><time>2026-04-10T13:13:39Z</time></trkpt><trkpt lat="43.21413212827679" lon="12.28362470989373"><ele>546.2</ele><time>2026-04-10T13:13:40Z</time></trkpt><trkpt lat="43.2140805631808" lon="12.283515400705454"><ele>545.4000000000001</ele><time>2026-04-10T13:13:41Z</time></trkpt><trkpt lat="43.214025357026074" lon="12.28340798464568"><ele>544.5999999999999</ele><time>2026-04-10T13:13:42Z</time></trkpt><trkpt lat="43.21397211948345" lon="12.283272386135025"><ele>543.8</ele><time>2026-04-10T13:13:43Z</time></trkpt><trkpt lat="43.213911653818926" lon="12.283154749463472"><ele>543.0</ele><time>2026-04-10T13:13:44Z</time></trkpt><trkpt lat="43.213857912154054" lon="12.283050194594818"><ele>543.0</ele><time>2026-04-10T13:13:45Z</time></trkpt><trkpt lat="43.213796111889536" lon="12.282936827075709"><ele>543.0</ele><time>2026-04-10T13:13:46Z</time></trkpt><trkpt lat="43.21373006156404" lon="12.282827089191116"><ele>543.0</ele><time>2026-04-10T13:13:47Z</time></trkpt><trkpt lat="43.21365633157302" lon="12.282727303853724"><ele>543.0</ele><time>2026-04-10T13:13:48Z</time></trkpt><trkpt lat="43.21356858089893" lon="12.282634931750806"><ele>543.0</ele><time>2026-04-10T13:13:49Z</time></trkpt><trkpt lat="43.213487895478" lon="12.28255020096144"><ele>543.0</ele><time>2026-04-10T13:13:50Z</time></trkpt><trkpt lat="43.213396445490616" lon="12.282461203598146"><ele>543.0</ele><time>2026-04-10T13:13:51Z</time></trkpt><trkpt lat="43.213321088862656" lon="12.282388298121091"><ele>543.0</ele><time>2026-04-10T13:13:52Z</time></trkpt><trkpt lat="43.213250259561335" lon="12.282319770157587"><ele>543.0</ele><time>2026-04-10T13:13:53Z</time></trkpt><trkpt lat="43.21318535751008" lon="12.282256984790768"><ele>543.0</ele><time>2026-04-10T13:13:54Z</time></trkpt><trkpt lat="43.21313189857374" lon="12.282204448599137"><ele>543.0</ele><time>2026-04-10T13:13:55Z</time></trkpt><trkpt lat="43.213078162075846" lon="12.282151638536353"><ele>544.5</ele><time>2026-04-10T13:13:56Z</time></trkpt><trkpt lat="43.21302545353184" lon="12.282099838506378"><ele>546.0</ele><time>2026-04-10T13:13:57Z</time></trkpt><trkpt lat="43.212920873311546" lon="12.281997061084004"><ele>547.5</ele><time>2026-04-10T13:13:59Z</time></trkpt><trkpt lat="43.212868057293036" lon="12.281945155447222"><ele>549.0</ele><time>2026-04-10T13:14:00Z</time></trkpt><trkpt lat="43.212814392202034" lon="12.281892415411054"><ele>550.5</ele><time>2026-04-10T13:14:01Z</time></trkpt><trkpt lat="43.21276289703922" lon="12.281841807856562"><ele>552.0</ele><time>2026-04-10T13:14:02Z</time></trkpt><trkpt lat="43.212704964814456" lon="12.28178449014642"><ele>552.0</ele><time>2026-04-10T13:14:03Z</time></trkpt><trkpt lat="43.2126484631797" lon="12.281728502465608"><ele>552.0</ele><time>2026-04-10T13:14:04Z</time></trkpt><trkpt lat="43.21259392005724" lon="12.281674455488181"><ele>552.0</ele><time>2026-04-10T13:14:05Z</time></trkpt><trkpt lat="43.21254193573034" lon="12.281621311001604"><ele>552.0</ele><time>2026-04-10T13:14:06Z</time></trkpt><trkpt lat="43.212487435753914" lon="12.28156472607536"><ele>552.0</ele><time>2026-04-10T13:14:07Z</time></trkpt><trkpt lat="43.212436183828544" lon="12.281513583755224"><ele>552.0</ele><time>2026-04-10T13:14:08Z</time></trkpt><trkpt lat="43.21237972777073" lon="12.281459179759622"><ele>552.0</ele><time>2026-04-10T13:14:09Z</time></trkpt><trkpt lat="43.21232665706966" lon="12.281408703095142"><ele>554.6666666666666</ele><time>2026-04-10T13:14:10.001Z</time></trkpt><trkpt lat="43.21227153369503" lon="12.281364562562961"><ele>557.3333333333334</ele><time>2026-04-10T13:14:11.001Z</time></trkpt><trkpt lat="43.21220752814172" lon="12.281331980673631"><ele>560.0</ele><time>2026-04-10T13:14:12.001Z</time></trkpt><trkpt lat="43.21213197505494" lon="12.281319322004975"><ele>562.6666666666667</ele><time>2026-04-10T13:14:13.001Z</time></trkpt><trkpt lat="43.21206253147923" lon="12.281319935186426"><ele>565.3333333333334</ele><time>2026-04-10T13:14:14.001Z</time></trkpt><trkpt lat="43.21194870026908" lon="12.28134690972531"><ele>568.0</ele><time>2026-04-10T13:14:16.001Z</time></trkpt><trkpt lat="43.211839516832164" lon="12.281425982081679"><ele>565.0</ele><time>2026-04-10T13:14:18.001Z</time></trkpt><trkpt lat="43.21176120814859" lon="12.281523279329562"><ele>562.0</ele><time>2026-04-10T13:14:20.001Z</time></trkpt><trkpt lat="43.21168364000003" lon="12.281584071597283"><ele>559.0</ele><time>2026-04-10T13:14:22.001Z</time></trkpt><trkpt lat="43.21159001581592" lon="12.281642469186833"><ele>556.0</ele><time>2026-04-10T13:14:24.001Z</time></trkpt><trkpt lat="43.21150611703277" lon="12.281684942709804"><ele>553.0</ele><time>2026-04-10T13:14:26.001Z</time></trkpt><trkpt lat="43.21143826285204" lon="12.28171356495633"><ele>552.0</ele><time>2026-04-10T13:14:28.001Z</time></trkpt><trkpt lat="43.21135591557561" lon="12.281748299844155"><ele>551.0</ele><time>2026-04-10T13:14:30.001Z</time></trkpt><trkpt lat="43.211336516300726" lon="12.281880192539017"><ele>550.0</ele><time>2026-04-10T13:14:31.001Z</time></trkpt><trkpt lat="43.211286546707505" lon="12.281936727189175"><ele>549.0</ele><time>2026-04-10T13:14:32.001Z</time></trkpt><trkpt lat="43.21124504323624" lon="12.282013797269105"><ele>548.0</ele><time>2026-04-10T13:14:33.001Z</time></trkpt><trkpt lat="43.21120482818172" lon="12.282097636447547"><ele>547.0</ele><time>2026-04-10T13:14:34.001Z</time></trkpt><trkpt lat="43.21116884381577" lon="12.28218415843379"><ele>546.3333333333334</ele><time>2026-04-10T13:14:35.001Z</time></trkpt><trkpt lat="43.211152139888085" lon="12.282296317076842"><ele>545.6666666666667</ele><time>2026-04-10T13:14:36.001Z</time></trkpt><trkpt lat="43.21112053930501" lon="12.282397860962531"><ele>545.0</ele><time>2026-04-10T13:14:37.001Z</time></trkpt><trkpt lat="43.211082672744205" lon="12.282503616952564"><ele>544.3333333333334</ele><time>2026-04-10T13:14:38.001Z</time></trkpt><trkpt lat="43.211038366777046" lon="12.282593640568063"><ele>543.6666666666666</ele><time>2026-04-10T13:14:39.001Z</time></trkpt><trkpt lat="43.211000204416706" lon="12.282704611595824"><ele>543.0</ele><time>2026-04-10T13:14:40.001Z</time></trkpt><trkpt lat="43.2109640728675" lon="12.282797213346091"><ele>543.0</ele><time>2026-04-10T13:14:41.001Z</time></trkpt><trkpt lat="43.21092285485252" lon="12.282890690636558"><ele>543.0</ele><time>2026-04-10T13:14:42.001Z</time></trkpt><trkpt lat="43.21089118180459" lon="12.282986268793714"><ele>543.0</ele><time>2026-04-10T13:14:43.001Z</time></trkpt><trkpt lat="43.21082999933338" lon="12.283045917067922"><ele>543.0</ele><time>2026-04-10T13:14:44.001Z</time></trkpt><trkpt lat="43.21077593964571" lon="12.283105401878137"><ele>543.0</ele><time>2026-04-10T13:14:45.001Z</time></trkpt><trkpt lat="43.21071394221694" lon="12.283166120033922"><ele>543.0</ele><time>2026-04-10T13:14:46.001Z</time></trkpt><trkpt lat="43.210656586520614" lon="12.2832127066638"><ele>543.0</ele><time>2026-04-10T13:14:47.001Z</time></trkpt><trkpt lat="43.21059175400622" lon="12.283263649773595"><ele>542.1666666666666</ele><time>2026-04-10T13:14:48Z</time></trkpt><trkpt lat="43.21052474915798" lon="12.283311853645595"><ele>541.3333333333334</ele><time>2026-04-10T13:14:49Z</time></trkpt><trkpt lat="43.210461229113214" lon="12.283347695813024"><ele>540.5</ele><time>2026-04-10T13:14:50Z</time></trkpt><trkpt lat="43.21038912569859" lon="12.283381619311083"><ele>539.6666666666667</ele><time>2026-04-10T13:14:51Z</time></trkpt><trkpt lat="43.21031514421386" lon="12.28341453612568"><ele>538.8333333333334</ele><time>2026-04-10T13:14:52Z</time></trkpt><trkpt lat="43.21023842793621" lon="12.283443519245271"><ele>538.0</ele><time>2026-04-10T13:14:53Z</time></trkpt><trkpt lat="43.21016183642891" lon="12.283464857586083"><ele>538.0</ele><time>2026-04-10T13:14:54Z</time></trkpt><trkpt lat="43.21007820140387" lon="12.28349469736952"><ele>538.0</ele><time>2026-04-10T13:14:55Z</time></trkpt><trkpt lat="43.21000712196835" lon="12.283526292133027"><ele>538.0</ele><time>2026-04-10T13:14:56Z</time></trkpt><trkpt lat="43.20993846815311" lon="12.283561937631992"><ele>538.0</ele><time>2026-04-10T13:14:57Z</time></trkpt><trkpt lat="43.209872161845006" lon="12.283606243202337"><ele>538.0</ele><time>2026-04-10T13:14:58Z</time></trkpt><trkpt lat="43.20980274594691" lon="12.283647402682705"><ele>538.0</ele><time>2026-04-10T13:14:59Z</time></trkpt><trkpt lat="43.20973281240868" lon="12.283687987000349"><ele>537.2857142857143</ele><time>2026-04-10T13:15:00Z</time></trkpt><trkpt lat="43.20967137697565" lon="12.283721125134715"><ele>536.5714285714287</ele><time>2026-04-10T13:15:01Z</time></trkpt><trkpt lat="43.20959331429641" lon="12.283759330269419"><ele>535.8571428571429</ele><time>2026-04-10T13:15:02Z</time></trkpt><trkpt lat="43.20952185745732" lon="12.283782840513924"><ele>535.1428571428571</ele><time>2026-04-10T13:15:03Z</time></trkpt><trkpt lat="43.20945116084641" lon="12.283788101426458"><ele>534.4285714285713</ele><time>2026-04-10T13:15:04Z</time></trkpt><trkpt lat="43.20937663391352" lon="12.283788643513288"><ele>533.7142857142857</ele><time>2026-04-10T13:15:05Z</time></trkpt><trkpt lat="43.20930004659354" lon="12.283788690766723"><ele>533.0</ele><time>2026-04-10T13:15:06Z</time></trkpt><trkpt lat="43.209231103584244" lon="12.283784885056749"><ele>533.0</ele><time>2026-04-10T13:15:07Z</time></trkpt><trkpt lat="43.2091517258262" lon="12.28377833531397"><ele>533.0</ele><time>2026-04-10T13:15:08Z</time></trkpt><trkpt lat="43.20907328408559" lon="12.283782348087755"><ele>533.0</ele><time>2026-04-10T13:15:09Z</time></trkpt><trkpt lat="43.20900312610802" lon="12.283784185400517"><ele>533.0</ele><time>2026-04-10T13:15:10Z</time></trkpt><trkpt lat="43.20893468712164" lon="12.283786953713106"><ele>533.0</ele><time>2026-04-10T13:15:11Z</time></trkpt><trkpt lat="43.2088672096946" lon="12.283791074471107"><ele>533.0</ele><time>2026-04-10T13:15:12Z</time></trkpt><trkpt lat="43.208804043926996" lon="12.283796225686272"><ele>533.0</ele><time>2026-04-10T13:15:13Z</time></trkpt><trkpt lat="43.208697396592754" lon="12.283811727330999"><ele>532.8333333333333</ele><time>2026-04-10T13:15:15Z</time></trkpt><trkpt lat="43.208613277626604" lon="12.283828943810637"><ele>532.6666666666666</ele><time>2026-04-10T13:18:04Z</time></trkpt><trkpt lat="43.20852137491324" lon="12.283851077922485"><ele>532.5</ele><time>2026-04-10T13:18:06Z</time></trkpt><trkpt lat="43.20840456871858" lon="12.28387920990061"><ele>532.3333333333334</ele><time>2026-04-10T13:18:08Z</time></trkpt><trkpt lat="43.208338504327195" lon="12.283894739898395"><ele>532.1666666666667</ele><time>2026-04-10T13:18:09Z</time></trkpt><trkpt lat="43.20826135290611" lon="12.283911894807432"><ele>532.0</ele><time>2026-04-10T13:18:10Z</time></trkpt><trkpt lat="43.20817635869548" lon="12.283931179438499"><ele>533.1666666666667</ele><time>2026-04-10T13:18:11Z</time></trkpt><trkpt lat="43.20809033342296" lon="12.28395455746934"><ele>534.3333333333334</ele><time>2026-04-10T13:18:12Z</time></trkpt><trkpt lat="43.20800231818961" lon="12.283983672386059"><ele>535.5</ele><time>2026-04-10T13:18:13Z</time></trkpt><trkpt lat="43.20792050682711" lon="12.284027838533463"><ele>536.6666666666666</ele><time>2026-04-10T13:18:14Z</time></trkpt><trkpt lat="43.207856253195764" lon="12.284111852912298"><ele>537.8333333333333</ele><time>2026-04-10T13:18:15Z</time></trkpt><trkpt lat="43.20777931413218" lon="12.28416184140891"><ele>539.0</ele><time>2026-04-10T13:18:16Z</time></trkpt><trkpt lat="43.2077155826846" lon="12.284251182718632"><ele>539.0</ele><time>2026-04-10T13:18:17Z</time></trkpt><trkpt lat="43.20767671775463" lon="12.28436244614975"><ele>539.0</ele><time>2026-04-10T13:18:18Z</time></trkpt><trkpt lat="43.20763369098681" lon="12.284461226338767"><ele>539.0</ele><time>2026-04-10T13:18:19Z</time></trkpt><trkpt lat="43.20759597500422" lon="12.284569386276011"><ele>539.0</ele><time>2026-04-10T13:18:20Z</time></trkpt><trkpt lat="43.20756286674702" lon="12.284678601234527"><ele>539.0</ele><time>2026-04-10T13:18:21Z</time></trkpt><trkpt lat="43.207535746464245" lon="12.28478538643322"><ele>539.0</ele><time>2026-04-10T13:18:22Z</time></trkpt><trkpt lat="43.207503350893084" lon="12.284884675705841"><ele>538.8333333333333</ele><time>2026-04-10T13:18:23Z</time></trkpt><trkpt lat="43.20746989595354" lon="12.284985455652244"><ele>538.6666666666666</ele><time>2026-04-10T13:18:24Z</time></trkpt><trkpt lat="43.20743581787416" lon="12.28508565754176"><ele>538.5</ele><time>2026-04-10T13:18:25Z</time></trkpt><trkpt lat="43.20738810203214" lon="12.285171671864312"><ele>538.3333333333334</ele><time>2026-04-10T13:18:26Z</time></trkpt><trkpt lat="43.20731428293046" lon="12.285220847475168"><ele>538.1666666666667</ele><time>2026-04-10T13:18:27Z</time></trkpt><trkpt lat="43.207242861270544" lon="12.285221183649632"><ele>538.0</ele><time>2026-04-10T13:18:28Z</time></trkpt><trkpt lat="43.20716461466" lon="12.285207415512492"><ele>537.8333333333334</ele><time>2026-04-10T13:18:29Z</time></trkpt><trkpt lat="43.20708607037384" lon="12.285209228203403"><ele>537.6666666666667</ele><time>2026-04-10T13:18:30Z</time></trkpt><trkpt lat="43.207000239174356" lon="12.285220871577861"><ele>537.5</ele><time>2026-04-10T13:18:31Z</time></trkpt><trkpt lat="43.20691506767321" lon="12.285252573908377"><ele>537.3333333333334</ele><time>2026-04-10T13:18:32Z</time></trkpt><trkpt lat="43.206833439952675" lon="12.285301038230708"><ele>537.1666666666666</ele><time>2026-04-10T13:18:33Z</time></trkpt><trkpt lat="43.20674835923058" lon="12.285362776805869"><ele>537.0</ele><time>2026-04-10T13:18:34Z</time></trkpt><trkpt lat="43.20666569053315" lon="12.28541287794276"><ele>537.0</ele><time>2026-04-10T13:18:35Z</time></trkpt><trkpt lat="43.206574366599156" lon="12.285442544846271"><ele>537.0</ele><time>2026-04-10T13:18:36Z</time></trkpt><trkpt lat="43.206473395439914" lon="12.285472305030197"><ele>537.0</ele><time>2026-04-10T13:18:37Z</time></trkpt><trkpt lat="43.20638768877301" lon="12.28551677119324"><ele>537.0</ele><time>2026-04-10T13:18:38Z</time></trkpt><trkpt lat="43.206290044524906" lon="12.285578313802825"><ele>537.0</ele><time>2026-04-10T13:18:39Z</time></trkpt><trkpt lat="43.20619597816474" lon="12.285656335449591"><ele>535.0</ele><time>2026-04-10T13:18:40Z</time></trkpt><trkpt lat="43.206105869137595" lon="12.285742426043463"><ele>533.0</ele><time>2026-04-10T13:18:41Z</time></trkpt><trkpt lat="43.206014578018454" lon="12.285842083859174"><ele>531.0</ele><time>2026-04-10T13:18:42Z</time></trkpt><trkpt lat="43.20593133615453" lon="12.285950107802242"><ele>529.0</ele><time>2026-04-10T13:18:43Z</time></trkpt><trkpt lat="43.20585030623112" lon="12.286068125693987"><ele>529.0</ele><time>2026-04-10T13:18:44Z</time></trkpt><trkpt lat="43.20576174479735" lon="12.286181790921377"><ele>529.0</ele><time>2026-04-10T13:18:45Z</time></trkpt><trkpt lat="43.20567092547943" lon="12.286278997783988"><ele>529.0</ele><time>2026-04-10T13:18:46Z</time></trkpt><trkpt lat="43.2055659760054" lon="12.28638660096989"><ele>529.0</ele><time>2026-04-10T13:18:47Z</time></trkpt><trkpt lat="43.20546863839286" lon="12.286487931753674"><ele>525.75</ele><time>2026-04-10T13:18:48Z</time></trkpt><trkpt lat="43.20536797344131" lon="12.286593953594421"><ele>522.5</ele><time>2026-04-10T13:18:49Z</time></trkpt><trkpt lat="43.205272454014086" lon="12.286700746138257"><ele>519.25</ele><time>2026-04-10T13:18:50Z</time></trkpt><trkpt lat="43.20518401061543" lon="12.28681938005647"><ele>516.0</ele><time>2026-04-10T13:18:51Z</time></trkpt><trkpt lat="43.20511745730563" lon="12.28695261926079"><ele>516.0</ele><time>2026-04-10T13:18:52Z</time></trkpt><trkpt lat="43.205044087683376" lon="12.287065382736648"><ele>516.0</ele><time>2026-04-10T13:18:53Z</time></trkpt><trkpt lat="43.204985870835095" lon="12.287185898781411"><ele>516.0</ele><time>2026-04-10T13:18:54Z</time></trkpt><trkpt lat="43.2049156674724" lon="12.287278098764533"><ele>516.0</ele><time>2026-04-10T13:18:55Z</time></trkpt><trkpt lat="43.204870187247174" lon="12.287395095666678"><ele>516.0</ele><time>2026-04-10T13:18:56Z</time></trkpt><trkpt lat="43.204810203921376" lon="12.28749170910536"><ele>515.5</ele><time>2026-04-10T13:18:57Z</time></trkpt><trkpt lat="43.2047542889344" lon="12.287589172341853"><ele>515.0</ele><time>2026-04-10T13:18:58Z</time></trkpt><trkpt lat="43.20469999343286" lon="12.287683573687655"><ele>514.5</ele><time>2026-04-10T13:18:59Z</time></trkpt><trkpt lat="43.20463400338666" lon="12.28775628931724"><ele>514.0</ele><time>2026-04-10T13:19:00Z</time></trkpt><trkpt lat="43.20457502691925" lon="12.28783015273901"><ele>513.5</ele><time>2026-04-10T13:19:01Z</time></trkpt><trkpt lat="43.20451146996856" lon="12.28790050870185"><ele>513.0</ele><time>2026-04-10T13:19:02Z</time></trkpt><trkpt lat="43.204446062327015" lon="12.287965383329034"><ele>513.0</ele><time>2026-04-10T13:19:03Z</time></trkpt><trkpt lat="43.20436266633599" lon="12.28796255175633"><ele>513.0</ele><time>2026-04-10T13:19:04Z</time></trkpt><trkpt lat="43.20428162760302" lon="12.287973728331487"><ele>513.0</ele><time>2026-04-10T13:19:05Z</time></trkpt><trkpt lat="43.20419913513084" lon="12.287985050867901"><ele>513.0</ele><time>2026-04-10T13:19:06Z</time></trkpt><trkpt lat="43.20411292131905" lon="12.287996884133683"><ele>513.0</ele><time>2026-04-10T13:19:07Z</time></trkpt><trkpt lat="43.20402111618885" lon="12.288008297162511"><ele>513.0</ele><time>2026-04-10T13:19:08Z</time></trkpt><trkpt lat="43.20392911716726" lon="12.288019392889467"><ele>512.1999999999999</ele><time>2026-04-10T13:19:09Z</time></trkpt><trkpt lat="43.20383983393407" lon="12.288030028813097"><ele>511.4</ele><time>2026-04-10T13:19:10Z</time></trkpt><trkpt lat="43.20374597301779" lon="12.288041208206348"><ele>510.59999999999997</ele><time>2026-04-10T13:19:11Z</time></trkpt><trkpt lat="43.20365236910098" lon="12.288052224740307"><ele>509.79999999999995</ele><time>2026-04-10T13:19:12Z</time></trkpt><trkpt lat="43.203556803564496" lon="12.288062788447187"><ele>509.0</ele><time>2026-04-10T13:19:13Z</time></trkpt><trkpt lat="43.2034636653217" lon="12.288073083852177"><ele>509.0</ele><time>2026-04-10T13:19:14Z</time></trkpt><trkpt lat="43.20336831575004" lon="12.288083623666468"><ele>509.0</ele><time>2026-04-10T13:19:15Z</time></trkpt><trkpt lat="43.203272175806696" lon="12.28809814389552"><ele>509.0</ele><time>2026-04-10T13:19:16Z</time></trkpt><trkpt lat="43.20317840019987" lon="12.288141240739522"><ele>509.0</ele><time>2026-04-10T13:19:17Z</time></trkpt><trkpt lat="43.20307967477359" lon="12.288144874385447"><ele>509.0</ele><time>2026-04-10T13:19:18Z</time></trkpt><trkpt lat="43.20298683803764" lon="12.288180629148844"><ele>509.4</ele><time>2026-04-10T13:19:19Z</time></trkpt><trkpt lat="43.202898027626745" lon="12.288220800511539"><ele>509.79999999999995</ele><time>2026-04-10T13:19:20Z</time></trkpt><trkpt lat="43.20280724253807" lon="12.288269501558533"><ele>510.20000000000005</ele><time>2026-04-10T13:19:21Z</time></trkpt><trkpt lat="43.20271921816003" lon="12.28832258583993"><ele>510.6</ele><time>2026-04-10T13:19:22Z</time></trkpt><trkpt lat="43.2026348688834" lon="12.28838001452715"><ele>511.0</ele><time>2026-04-10T13:19:23Z</time></trkpt><trkpt lat="43.20255249615787" lon="12.288443753068242"><ele>511.0</ele><time>2026-04-10T13:19:24Z</time></trkpt><trkpt lat="43.20246857873555" lon="12.288514920669629"><ele>511.0</ele><time>2026-04-10T13:19:25Z</time></trkpt><trkpt lat="43.202388072293466" lon="12.288585135960806"><ele>511.0</ele><time>2026-04-10T13:19:26Z</time></trkpt><trkpt lat="43.20230122024018" lon="12.28865747197091"><ele>511.0</ele><time>2026-04-10T13:19:27Z</time></trkpt><trkpt lat="43.202214916323214" lon="12.28872790054"><ele>511.0</ele><time>2026-04-10T13:19:28Z</time></trkpt><trkpt lat="43.20212157533346" lon="12.28880057576139"><ele>509.0</ele><time>2026-04-10T13:19:29Z</time></trkpt><trkpt lat="43.202028173218004" lon="12.288873221894614"><ele>507.0</ele><time>2026-04-10T13:19:30Z</time></trkpt><trkpt lat="43.20193622216421" lon="12.288946003471962"><ele>505.0</ele><time>2026-04-10T13:19:31Z</time></trkpt><trkpt lat="43.20185379281829" lon="12.289013801445407"><ele>503.0</ele><time>2026-04-10T13:19:32Z</time></trkpt><trkpt lat="43.20178104829717" lon="12.289068707435307"><ele>501.0</ele><time>2026-04-10T13:19:33Z</time></trkpt><trkpt lat="43.201704466968685" lon="12.289102058447726"><ele>500.20000000000005</ele><time>2026-04-10T13:19:34Z</time></trkpt><trkpt lat="43.20161718180459" lon="12.289126303608542"><ele>499.40000000000003</ele><time>2026-04-10T13:19:35Z</time></trkpt><trkpt lat="43.201522336817185" lon="12.289142566457178"><ele>498.6</ele><time>2026-04-10T13:19:36Z</time></trkpt><trkpt lat="43.20143316515275" lon="12.289151280296329"><ele>497.8</ele><time>2026-04-10T13:19:37Z</time></trkpt><trkpt lat="43.20133686586914" lon="12.289154338499571"><ele>497.0</ele><time>2026-04-10T13:19:38Z</time></trkpt><trkpt lat="43.20125367469352" lon="12.289150281474745"><ele>494.99999999999994</ele><time>2026-04-10T13:19:39Z</time></trkpt><trkpt lat="43.20118104553649" lon="12.289132819656357"><ele>493.0</ele><time>2026-04-10T13:19:40Z</time></trkpt><trkpt lat="43.20111506112687" lon="12.289086546639112"><ele>491.0</ele><time>2026-04-10T13:19:41Z</time></trkpt><trkpt lat="43.20107390481225" lon="12.288999547858015"><ele>489.0</ele><time>2026-04-10T13:19:42Z</time></trkpt><trkpt lat="43.20103907226375" lon="12.288907349666959"><ele>486.99999999999994</ele><time>2026-04-10T13:19:43Z</time></trkpt><trkpt lat="43.20099772491517" lon="12.288812087581784"><ele>485.0</ele><time>2026-04-10T13:19:44Z</time></trkpt><trkpt lat="43.20095975754288" lon="12.28871587489351"><ele>485.0</ele><time>2026-04-10T13:19:45Z</time></trkpt><trkpt lat="43.200925867433824" lon="12.288629994815247"><ele>485.0</ele><time>2026-04-10T13:19:46Z</time></trkpt><trkpt lat="43.20084316380678" lon="12.28849093980687"><ele>485.0</ele><time>2026-04-10T13:19:48Z</time></trkpt><trkpt lat="43.20075452220153" lon="12.28844579364821"><ele>485.0</ele><time>2026-04-10T13:19:49Z</time></trkpt><trkpt lat="43.20065133654275" lon="12.288454138457803"><ele>485.0</ele><time>2026-04-10T13:19:50Z</time></trkpt><trkpt lat="43.20054960365523" lon="12.2884892983247"><ele>481.4</ele><time>2026-04-10T13:19:51Z</time></trkpt><trkpt lat="43.200460446391986" lon="12.288535290914314"><ele>477.8</ele><time>2026-04-10T13:19:52Z</time></trkpt><trkpt lat="43.200371766964835" lon="12.28860974319389"><ele>474.20000000000005</ele><time>2026-04-10T13:19:53Z</time></trkpt><trkpt lat="43.200290330573644" lon="12.288723001862895"><ele>470.6</ele><time>2026-04-10T13:19:54Z</time></trkpt><trkpt lat="43.20023437977697" lon="12.288858932864178"><ele>467.0</ele><time>2026-04-10T13:19:55Z</time></trkpt><trkpt lat="43.20016041476607" lon="12.288961198803255"><ele>466.99999999999994</ele><time>2026-04-10T13:19:56Z</time></trkpt><trkpt lat="43.20010783580041" lon="12.289060627287014"><ele>467.0</ele><time>2026-04-10T13:19:57Z</time></trkpt><trkpt lat="43.20007523342991" lon="12.289176792853914"><ele>467.0</ele><time>2026-04-10T13:19:58Z</time></trkpt><trkpt lat="43.2000810851413" lon="12.289303980798"><ele>467.0</ele><time>2026-04-10T13:19:59Z</time></trkpt><trkpt lat="43.200080717978395" lon="12.289400986435822"><ele>466.99999999999994</ele><time>2026-04-10T13:20:00Z</time></trkpt><trkpt lat="43.20009765660572" lon="12.289492355916238"><ele>467.0</ele><time>2026-04-10T13:20:01Z</time></trkpt><trkpt lat="43.20010689693662" lon="12.28958756310938"><ele>466.99999999999994</ele><time>2026-04-10T13:20:02Z</time></trkpt><trkpt lat="43.200142576409576" lon="12.2896659401431"><ele>467.0</ele><time>2026-04-10T13:20:03Z</time></trkpt><trkpt lat="43.200208581934135" lon="12.289705813990926"><ele>467.0</ele><time>2026-04-10T13:20:04Z</time></trkpt><trkpt lat="43.200272435204496" lon="12.289754594145244"><ele>467.0</ele><time>2026-04-10T13:20:05Z</time></trkpt><trkpt lat="43.2003501389044" lon="12.289802670014346"><ele>466.99999999999994</ele><time>2026-04-10T13:20:06Z</time></trkpt><trkpt lat="43.20043509560519" lon="12.289863306509895"><ele>467.0</ele><time>2026-04-10T13:20:07Z</time></trkpt><trkpt lat="43.200523736469954" lon="12.289929653272297"><ele>467.40000000000003</ele><time>2026-04-10T13:20:08Z</time></trkpt><trkpt lat="43.20061384155532" lon="12.289998420475522"><ele>467.80000000000007</ele><time>2026-04-10T13:20:09Z</time></trkpt><trkpt lat="43.20070907773423" lon="12.290071000215612"><ele>468.2</ele><time>2026-04-10T13:20:10Z</time></trkpt><trkpt lat="43.20080521781349" lon="12.290144503316881"><ele>468.6</ele><time>2026-04-10T13:20:11Z</time></trkpt><trkpt lat="43.200902323588224" lon="12.290223124787616"><ele>469.0</ele><time>2026-04-10T13:20:12Z</time></trkpt><trkpt lat="43.20099341917114" lon="12.290312487969944"><ele>469.0</ele><time>2026-04-10T13:20:13Z</time></trkpt><trkpt lat="43.20109450658084" lon="12.290408647166283"><ele>469.0</ele><time>2026-04-10T13:20:14Z</time></trkpt><trkpt lat="43.2011982420733" lon="12.290493022992665"><ele>469.0</ele><time>2026-04-10T13:20:15Z</time></trkpt><trkpt lat="43.20129955507666" lon="12.290576728694289"><ele>469.0</ele><time>2026-04-10T13:20:16Z</time></trkpt><trkpt lat="43.20138568747145" lon="12.290651275312028"><ele>467.1666666666667</ele><time>2026-04-10T13:20:17Z</time></trkpt><trkpt lat="43.2014529326312" lon="12.290707441574076"><ele>465.33333333333337</ele><time>2026-04-10T13:20:18Z</time></trkpt><trkpt lat="43.201507193934106" lon="12.290760172921804"><ele>463.5</ele><time>2026-04-10T13:20:19Z</time></trkpt><trkpt lat="43.20156349649008" lon="12.290894253517347"><ele>461.66666666666663</ele><time>2026-04-10T13:20:21Z</time></trkpt><trkpt lat="43.20151195495929" lon="12.291036519029275"><ele>459.8333333333333</ele><time>2026-04-10T13:20:23Z</time></trkpt><trkpt lat="43.20145371016068" lon="12.291099454047226"><ele>458.0</ele><time>2026-04-10T13:20:24Z</time></trkpt><trkpt lat="43.20138696750216" lon="12.29118944280178"><ele>456.79999999999995</ele><time>2026-04-10T13:20:25Z</time></trkpt><trkpt lat="43.20132776549339" lon="12.291304091542496"><ele>455.59999999999997</ele><time>2026-04-10T13:20:26Z</time></trkpt><trkpt lat="43.20124625686329" lon="12.291386285881984"><ele>454.40000000000003</ele><time>2026-04-10T13:20:27Z</time></trkpt><trkpt lat="43.201174072195606" lon="12.291484213009356"><ele>453.20000000000005</ele><time>2026-04-10T13:20:28Z</time></trkpt><trkpt lat="43.201103552577386" lon="12.291576438817104"><ele>452.0</ele><time>2026-04-10T13:20:29Z</time></trkpt><trkpt lat="43.201036650423816" lon="12.291692328169828"><ele>450.6</ele><time>2026-04-10T13:20:30Z</time></trkpt><trkpt lat="43.20096246436296" lon="12.29178693289327"><ele>449.20000000000005</ele><time>2026-04-10T13:20:31Z</time></trkpt><trkpt lat="43.200887691042915" lon="12.291885013874843"><ele>447.8</ele><time>2026-04-10T13:20:32Z</time></trkpt><trkpt lat="43.200810264832995" lon="12.291980335945851"><ele>446.4</ele><time>2026-04-10T13:20:33Z</time></trkpt><trkpt lat="43.20074009814522" lon="12.29208164676889"><ele>445.0</ele><time>2026-04-10T13:20:34Z</time></trkpt><trkpt lat="43.200667435130214" lon="12.292176663079474"><ele>443.2</ele><time>2026-04-10T13:20:35Z</time></trkpt><trkpt lat="43.20059447148529" lon="12.29226831199027"><ele>441.4</ele><time>2026-04-10T13:20:36Z</time></trkpt><trkpt lat="43.200521140420534" lon="12.29237194294074"><ele>439.6</ele><time>2026-04-10T13:20:37Z</time></trkpt><trkpt lat="43.200446891766894" lon="12.292468427628378"><ele>437.8</ele><time>2026-04-10T13:20:38Z</time></trkpt><trkpt lat="43.200375820819275" lon="12.29257442538872"><ele>436.0</ele><time>2026-04-10T13:20:39Z</time></trkpt><trkpt lat="43.20030881157676" lon="12.292678459554045"><ele>436.0</ele><time>2026-04-10T13:20:40Z</time></trkpt><trkpt lat="43.20023923656771" lon="12.292780252174088"><ele>436.0</ele><time>2026-04-10T13:20:41Z</time></trkpt><trkpt lat="43.20017042329837" lon="12.292873908459784"><ele>436.0</ele><time>2026-04-10T13:20:42Z</time></trkpt><trkpt lat="43.20010121602562" lon="12.292959736526653"><ele>436.0</ele><time>2026-04-10T13:20:43Z</time></trkpt><trkpt lat="43.20002287952735" lon="12.29302673801374"><ele>436.0</ele><time>2026-04-10T13:20:44Z</time></trkpt><trkpt lat="43.199938111629585" lon="12.293096210274932"><ele>435.20000000000005</ele><time>2026-04-10T13:20:45Z</time></trkpt><trkpt lat="43.19984092838282" lon="12.293131528978249"><ele>434.40000000000003</ele><time>2026-04-10T13:20:46Z</time></trkpt><trkpt lat="43.19975270703768" lon="12.293192035415032"><ele>433.6</ele><time>2026-04-10T13:20:47Z</time></trkpt><trkpt lat="43.1996798018938" lon="12.293268963770148"><ele>432.8</ele><time>2026-04-10T13:20:48Z</time></trkpt><trkpt lat="43.19959944183622" lon="12.293331781993661"><ele>432.0</ele><time>2026-04-10T13:20:49Z</time></trkpt><trkpt lat="43.19951129680867" lon="12.293384078508113"><ele>431.40000000000003</ele><time>2026-04-10T13:20:50Z</time></trkpt><trkpt lat="43.199449698693215" lon="12.293476306837249"><ele>430.80000000000007</ele><time>2026-04-10T13:20:51Z</time></trkpt><trkpt lat="43.199376641633414" lon="12.293565497257418"><ele>430.2</ele><time>2026-04-10T13:20:52Z</time></trkpt><trkpt lat="43.199288164581645" lon="12.29364620436318"><ele>429.6</ele><time>2026-04-10T13:20:53Z</time></trkpt><trkpt lat="43.199212840970816" lon="12.293739725115287"><ele>429.0</ele><time>2026-04-10T13:20:54Z</time></trkpt><trkpt lat="43.199149932792245" lon="12.293849853590073"><ele>428.2</ele><time>2026-04-10T13:20:55Z</time></trkpt><trkpt lat="43.199076362658566" lon="12.293931832434446"><ele>427.4</ele><time>2026-04-10T13:20:56Z</time></trkpt><trkpt lat="43.19901296100768" lon="12.29401876101281"><ele>426.6</ele><time>2026-04-10T13:20:57Z</time></trkpt><trkpt lat="43.19894703721447" lon="12.29410067985467"><ele>425.8</ele><time>2026-04-10T13:20:58Z</time></trkpt><trkpt lat="43.19886770370618" lon="12.294167622879602"><ele>425.0</ele><time>2026-04-10T13:20:59Z</time></trkpt><trkpt lat="43.198794748480125" lon="12.294246404534908"><ele>422.6</ele><time>2026-04-10T13:21:00Z</time></trkpt><trkpt lat="43.19872592696256" lon="12.294334859293345"><ele>420.2</ele><time>2026-04-10T13:21:01Z</time></trkpt><trkpt lat="43.19863672900463" lon="12.294391163412165"><ele>417.79999999999995</ele><time>2026-04-10T13:21:02Z</time></trkpt><trkpt lat="43.198540884042586" lon="12.294452851349742"><ele>415.4</ele><time>2026-04-10T13:21:03Z</time></trkpt><trkpt lat="43.198446501062236" lon="12.294505098114417"><ele>413.0</ele><time>2026-04-10T13:21:04Z</time></trkpt><trkpt lat="43.19835237460995" lon="12.294554771929784"><ele>413.0</ele><time>2026-04-10T13:21:05Z</time></trkpt><trkpt lat="43.19825743865553" lon="12.2946100064743"><ele>413.0</ele><time>2026-04-10T13:21:06Z</time></trkpt><trkpt lat="43.19816490069516" lon="12.294671837393409"><ele>413.0</ele><time>2026-04-10T13:21:07Z</time></trkpt><trkpt lat="43.19808316052174" lon="12.294737730344083"><ele>413.0</ele><time>2026-04-10T13:21:08Z</time></trkpt><trkpt lat="43.19798920450503" lon="12.29480117662262"><ele>413.0</ele><time>2026-04-10T13:21:09Z</time></trkpt><trkpt lat="43.19791255798425" lon="12.294893647420727"><ele>411.79999999999995</ele><time>2026-04-10T13:21:10Z</time></trkpt><trkpt lat="43.19784445003276" lon="12.294991389375978"><ele>410.6</ele><time>2026-04-10T13:21:11Z</time></trkpt><trkpt lat="43.19778498575383" lon="12.295105908651477"><ele>409.4</ele><time>2026-04-10T13:21:12Z</time></trkpt><trkpt lat="43.19771444743959" lon="12.295200198584075"><ele>408.20000000000005</ele><time>2026-04-10T13:21:13Z</time></trkpt><trkpt lat="43.19764221179377" lon="12.29529867014186"><ele>407.0</ele><time>2026-04-10T13:21:14Z</time></trkpt><trkpt lat="43.19756729080237" lon="12.295397658342742"><ele>407.0</ele><time>2026-04-10T13:21:15Z</time></trkpt><trkpt lat="43.19748858128096" lon="12.295479291574894"><ele>407.0</ele><time>2026-04-10T13:21:16Z</time></trkpt><trkpt lat="43.19740582420256" lon="12.295553649787806"><ele>407.0</ele><time>2026-04-10T13:21:17Z</time></trkpt><trkpt lat="43.19732506455159" lon="12.295634990600588"><ele>407.0</ele><time>2026-04-10T13:21:18Z</time></trkpt><trkpt lat="43.197236512213685" lon="12.29569167537928"><ele>407.0</ele><time>2026-04-10T13:21:19Z</time></trkpt><trkpt lat="43.19717262242626" lon="12.29577966953249"><ele>405.16666666666663</ele><time>2026-04-10T13:21:20Z</time></trkpt><trkpt lat="43.19710289453297" lon="12.295843958172217"><ele>403.3333333333333</ele><time>2026-04-10T13:21:21Z</time></trkpt><trkpt lat="43.19704503202474" lon="12.29592953177526"><ele>401.5</ele><time>2026-04-10T13:21:22Z</time></trkpt><trkpt lat="43.19700029056227" lon="12.296033438927047"><ele>399.66666666666663</ele><time>2026-04-10T13:21:23Z</time></trkpt><trkpt lat="43.19697186580082" lon="12.296149070302283"><ele>397.8333333333333</ele><time>2026-04-10T13:21:24Z</time></trkpt><trkpt lat="43.196930569090924" lon="12.296265636539903"><ele>396.0</ele><time>2026-04-10T13:21:25Z</time></trkpt><trkpt lat="43.19692160290091" lon="12.296395600104846"><ele>396.8333333333333</ele><time>2026-04-10T13:21:26Z</time></trkpt><trkpt lat="43.19689291935948" lon="12.296522734806778"><ele>397.66666666666663</ele><time>2026-04-10T13:21:27Z</time></trkpt><trkpt lat="43.19687634362938" lon="12.29665119406597"><ele>398.5</ele><time>2026-04-10T13:21:28Z</time></trkpt><trkpt lat="43.19685753875492" lon="12.296779252902803"><ele>399.3333333333333</ele><time>2026-04-10T13:21:29Z</time></trkpt><trkpt lat="43.19684044118145" lon="12.29689838862076"><ele>400.16666666666663</ele><time>2026-04-10T13:21:30Z</time></trkpt><trkpt lat="43.196819900468284" lon="12.29699296516873"><ele>401.0</ele><time>2026-04-10T13:21:31Z</time></trkpt><trkpt lat="43.196808629290395" lon="12.297078432143818"><ele>400.99999999999994</ele><time>2026-04-10T13:21:32Z</time></trkpt><trkpt lat="43.19677808723176" lon="12.297162223836438"><ele>401.0</ele><time>2026-04-10T13:21:33Z</time></trkpt><trkpt lat="43.19673426561956" lon="12.297240784996124"><ele>401.0</ele><time>2026-04-10T13:21:34Z</time></trkpt><trkpt lat="43.196678332034494" lon="12.297317896119626"><ele>401.0</ele><time>2026-04-10T13:21:35Z</time></trkpt><trkpt lat="43.19661609264465" lon="12.297385086550097"><ele>400.99999999999994</ele><time>2026-04-10T13:21:36Z</time></trkpt><trkpt lat="43.19653349887389" lon="12.297401032980886"><ele>401.0</ele><time>2026-04-10T13:21:37Z</time></trkpt><trkpt lat="43.196462053426394" lon="12.297390996513109"><ele>397.8333333333333</ele><time>2026-04-10T13:21:38Z</time></trkpt><trkpt lat="43.196403097414" lon="12.29734604811078"><ele>394.66666666666663</ele><time>2026-04-10T13:21:39Z</time></trkpt><trkpt lat="43.196352905114146" lon="12.297281490961575"><ele>391.5</ele><time>2026-04-10T13:21:40Z</time></trkpt><trkpt lat="43.196277152236114" lon="12.297218199258921"><ele>388.3333333333333</ele><time>2026-04-10T13:21:41Z</time></trkpt><trkpt lat="43.19619232288736" lon="12.297155436532659"><ele>385.16666666666663</ele><time>2026-04-10T13:21:42Z</time></trkpt><trkpt lat="43.1961140685872" lon="12.297097385905012"><ele>382.0</ele><time>2026-04-10T13:21:43Z</time></trkpt><trkpt lat="43.196049632463755" lon="12.297045228802837"><ele>382.0</ele><time>2026-04-10T13:21:44Z</time></trkpt><trkpt lat="43.19598847008147" lon="12.296991334008766"><ele>382.0</ele><time>2026-04-10T13:21:45Z</time></trkpt><trkpt lat="43.19592436675257" lon="12.296927215894147"><ele>382.0</ele><time>2026-04-10T13:21:46Z</time></trkpt><trkpt lat="43.19586920481276" lon="12.296846610785124"><ele>382.0</ele><time>2026-04-10T13:21:47Z</time></trkpt><trkpt lat="43.1958434946519" lon="12.29673479663891"><ele>382.0</ele><time>2026-04-10T13:21:48Z</time></trkpt><trkpt lat="43.19585298336534" lon="12.296602152898798"><ele>382.0</ele><time>2026-04-10T13:21:49Z</time></trkpt><trkpt lat="43.19585467052219" lon="12.296470826065427"><ele>381.40000000000003</ele><time>2026-04-10T13:21:50Z</time></trkpt><trkpt lat="43.19586241374566" lon="12.29632735788539"><ele>380.8</ele><time>2026-04-10T13:21:51Z</time></trkpt><trkpt lat="43.19586849246495" lon="12.296182052681056"><ele>380.2</ele><time>2026-04-10T13:21:52Z</time></trkpt><trkpt lat="43.19587376512026" lon="12.296030164360362"><ele>379.6</ele><time>2026-04-10T13:21:53Z</time></trkpt><trkpt lat="43.195875651184835" lon="12.29588679120005"><ele>379.0</ele><time>2026-04-10T13:21:54Z</time></trkpt><trkpt lat="43.195871728244896" lon="12.295758509395684"><ele>379.0</ele><time>2026-04-10T13:21:55Z</time></trkpt><trkpt lat="43.19583681818663" lon="12.295626677369063"><ele>379.0</ele><time>2026-04-10T13:21:56Z</time></trkpt><trkpt lat="43.195753516872756" lon="12.295521543976625"><ele>379.0</ele><time>2026-04-10T13:21:57Z</time></trkpt><trkpt lat="43.19568708274948" lon="12.295419789498526"><ele>379.0</ele><time>2026-04-10T13:21:58Z</time></trkpt><trkpt lat="43.19561838495018" lon="12.295323510406925"><ele>379.0</ele><time>2026-04-10T13:21:59Z</time></trkpt><trkpt lat="43.19555274816896" lon="12.29524136854384"><ele>380.2</ele><time>2026-04-10T13:22:00Z</time></trkpt><trkpt lat="43.1954808895736" lon="12.295164850567502"><ele>381.4</ele><time>2026-04-10T13:22:01Z</time></trkpt><trkpt lat="43.195394821593666" lon="12.295109712784537"><ele>382.6</ele><time>2026-04-10T13:22:02Z</time></trkpt><trkpt lat="43.19531852408457" lon="12.295059613771153"><ele>383.8</ele><time>2026-04-10T13:22:03Z</time></trkpt><trkpt lat="43.19523824847334" lon="12.295012078576326"><ele>385.0</ele><time>2026-04-10T13:22:04Z</time></trkpt><trkpt lat="43.195147320093874" lon="12.295072146774203"><ele>385.00000000000006</ele><time>2026-04-10T13:22:05Z</time></trkpt><trkpt lat="43.195082351623284" lon="12.295129378630396"><ele>385.0</ele><time>2026-04-10T13:22:06Z</time></trkpt><trkpt lat="43.19502252694957" lon="12.29521501847325"><ele>385.0</ele><time>2026-04-10T13:22:07Z</time></trkpt><trkpt lat="43.194986686624084" lon="12.295295252208067"><ele>385.0</ele><time>2026-04-10T13:22:08Z</time></trkpt><trkpt lat="43.19493464809041" lon="12.295379976539714"><ele>385.00000000000006</ele><time>2026-04-10T13:22:09Z</time></trkpt><trkpt lat="43.19489161812126" lon="12.295465422232677"><ele>385.0</ele><time>2026-04-10T13:22:10Z</time></trkpt><trkpt lat="43.194847210199626" lon="12.295555199497048"><ele>387.33333333333337</ele><time>2026-04-10T13:22:11Z</time></trkpt><trkpt lat="43.194792018542906" lon="12.295624703736058"><ele>389.6666666666667</ele><time>2026-04-10T13:22:12Z</time></trkpt><trkpt lat="43.19473570803356" lon="12.295716133418445"><ele>392.0</ele><time>2026-04-10T13:22:13Z</time></trkpt><trkpt lat="43.194686459835374" lon="12.295792004846486"><ele>394.33333333333337</ele><time>2026-04-10T13:22:14Z</time></trkpt><trkpt lat="43.19463635506753" lon="12.295893285821457"><ele>396.6666666666667</ele><time>2026-04-10T13:22:15Z</time></trkpt><trkpt lat="43.19458144682562" lon="12.295965411365637"><ele>399.0</ele><time>2026-04-10T13:22:16Z</time></trkpt><trkpt lat="43.19451034492982" lon="12.296024791921607"><ele>399.0</ele><time>2026-04-10T13:22:17Z</time></trkpt><trkpt lat="43.19446214290204" lon="12.296106474442734"><ele>399.0</ele><time>2026-04-10T13:22:18Z</time></trkpt><trkpt lat="43.1943990998402" lon="12.296178132373726"><ele>399.0</ele><time>2026-04-10T13:22:19Z</time></trkpt><trkpt lat="43.19433187773262" lon="12.296223620467075"><ele>399.0</ele><time>2026-04-10T13:22:20Z</time></trkpt><trkpt lat="43.194281281063574" lon="12.296298908928058"><ele>399.0</ele><time>2026-04-10T13:22:21Z</time></trkpt><trkpt lat="43.19416373606427" lon="12.296384829604785"><ele>399.0</ele><time>2026-04-10T13:22:23Z</time></trkpt><trkpt lat="43.194106021257554" lon="12.296431473629015"><ele>397.6</ele><time>2026-04-10T13:22:24Z</time></trkpt><trkpt lat="43.194004214365364" lon="12.29647942886673"><ele>396.2</ele><time>2026-04-10T13:22:26Z</time></trkpt><trkpt lat="43.19390233140048" lon="12.296511669935459"><ele>394.8</ele><time>2026-04-10T13:22:28Z</time></trkpt><trkpt lat="43.19380713929532" lon="12.296533637149736"><ele>393.40000000000003</ele><time>2026-04-10T13:22:30Z</time></trkpt><trkpt lat="43.1937081330078" lon="12.29654962782042"><ele>392.0</ele><time>2026-04-10T13:22:32Z</time></trkpt><trkpt lat="43.19361326296118" lon="12.29658399410341"><ele>392.0</ele><time>2026-04-10T13:22:34Z</time></trkpt><trkpt lat="43.19351024035643" lon="12.296580713029453"><ele>392.0</ele><time>2026-04-10T13:22:36Z</time></trkpt><trkpt lat="43.19340453979594" lon="12.296592075597333"><ele>392.0</ele><time>2026-04-10T13:22:38Z</time></trkpt><trkpt lat="43.19330885534295" lon="12.29666886026436"><ele>392.0</ele><time>2026-04-10T13:22:40Z</time></trkpt><trkpt lat="43.19327334951758" lon="12.296837130957865"><ele>392.0</ele><time>2026-04-10T13:22:42Z</time></trkpt><trkpt lat="43.1932815859277" lon="12.296980397559613"><ele>391.99999999999994</ele><time>2026-04-10T13:22:44Z</time></trkpt><trkpt lat="43.193385953760135" lon="12.297082444059308"><ele>392.0</ele><time>2026-04-10T13:22:46Z</time></trkpt><trkpt lat="43.19344306219563" lon="12.297128815756738"><ele>392.0</ele><time>2026-04-10T13:22:47Z</time></trkpt><trkpt lat="43.19349585068144" lon="12.297184248154668"><ele>392.0</ele><time>2026-04-10T13:22:48Z</time></trkpt><trkpt lat="43.19354434328549" lon="12.297243844342344"><ele>391.99999999999994</ele><time>2026-04-10T13:22:49Z</time></trkpt><trkpt lat="43.193598345739794" lon="12.297299117740046"><ele>392.0</ele><time>2026-04-10T13:22:50Z</time></trkpt><trkpt lat="43.19365108752635" lon="12.297347020819954"><ele>392.3333333333333</ele><time>2026-04-10T13:22:51Z</time></trkpt><trkpt lat="43.19370376314713" lon="12.29739491831184"><ele>392.66666666666663</ele><time>2026-04-10T13:22:52Z</time></trkpt><trkpt lat="43.19375561874394" lon="12.29745041165186"><ele>393.0</ele><time>2026-04-10T13:22:53Z</time></trkpt><trkpt lat="43.19383527861928" lon="12.297578952387601"><ele>393.33333333333337</ele><time>2026-04-10T13:22:55Z</time></trkpt><trkpt lat="43.19387983333068" lon="12.29764442862787"><ele>393.6666666666667</ele><time>2026-04-10T13:22:56Z</time></trkpt><trkpt lat="43.19395659716808" lon="12.297767072911643"><ele>394.0</ele><time>2026-04-10T13:22:58Z</time></trkpt><trkpt lat="43.19403320102555" lon="12.29789143520707"><ele>393.6</ele><time>2026-04-10T13:23:00Z</time></trkpt><trkpt lat="43.19409854251985" lon="12.298011284589519"><ele>393.2</ele><time>2026-04-10T13:23:02Z</time></trkpt><trkpt lat="43.19413754893562" lon="12.298085473324143"><ele>392.8</ele><time>2026-04-10T13:23:03Z</time></trkpt><trkpt lat="43.194220526411925" lon="12.298221041989054"><ele>392.40000000000003</ele><time>2026-04-10T13:23:05Z</time></trkpt><trkpt lat="43.194276110728964" lon="12.298297090235335"><ele>392.0</ele><time>2026-04-10T13:23:06Z</time></trkpt><trkpt lat="43.194327467152284" lon="12.298382443621756"><ele>391.99999999999994</ele><time>2026-04-10T13:23:07Z</time></trkpt><trkpt lat="43.19437807781547" lon="12.298470045620173"><ele>392.0</ele><time>2026-04-10T13:23:08Z</time></trkpt><trkpt lat="43.19442866089555" lon="12.298565999329425"><ele>392.0</ele><time>2026-04-10T13:23:09Z</time></trkpt><trkpt lat="43.1944886250185" lon="12.29864998928185"><ele>392.0</ele><time>2026-04-10T13:23:10Z</time></trkpt><trkpt lat="43.194552047704434" lon="12.298740684510449"><ele>391.99999999999994</ele><time>2026-04-10T13:23:11Z</time></trkpt><trkpt lat="43.194605585240815" lon="12.29884179836552"><ele>392.0</ele><time>2026-04-10T13:23:12Z</time></trkpt><trkpt lat="43.194670067249334" lon="12.298940052238246"><ele>392.20000000000005</ele><time>2026-04-10T13:23:13Z</time></trkpt><trkpt lat="43.194732373073165" lon="12.299036787887495"><ele>392.4</ele><time>2026-04-10T13:23:14Z</time></trkpt><trkpt lat="43.19479586821131" lon="12.29912734295816"><ele>392.6</ele><time>2026-04-10T13:23:15Z</time></trkpt><trkpt lat="43.19485698846765" lon="12.299228087323867"><ele>392.79999999999995</ele><time>2026-04-10T13:23:16Z</time></trkpt><trkpt lat="43.194918723006936" lon="12.299324819727676"><ele>393.0</ele><time>2026-04-10T13:23:17Z</time></trkpt><trkpt lat="43.1949839334817" lon="12.299414801306906"><ele>393.0</ele><time>2026-04-10T13:23:18Z</time></trkpt><trkpt lat="43.19504901321927" lon="12.299499543778643"><ele>393.0</ele><time>2026-04-10T13:23:19Z</time></trkpt><trkpt lat="43.195109375813196" lon="12.299593735515842"><ele>393.0</ele><time>2026-04-10T13:23:20Z</time></trkpt><trkpt lat="43.195166990651245" lon="12.29968665550302"><ele>393.0</ele><time>2026-04-10T13:23:21Z</time></trkpt><trkpt lat="43.19522345983382" lon="12.299781824287802"><ele>393.0</ele><time>2026-04-10T13:23:22Z</time></trkpt><trkpt lat="43.19527450167888" lon="12.299854454617009"><ele>393.0</ele><time>2026-04-10T13:23:23Z</time></trkpt><trkpt lat="43.19534496418518" lon="12.299992673959972"><ele>394.0</ele><time>2026-04-10T13:23:25Z</time></trkpt><trkpt lat="43.19539097509793" lon="12.300075009859356"><ele>395.0</ele><time>2026-04-10T13:23:26Z</time></trkpt><trkpt lat="43.19543783284411" lon="12.300157420495832"><ele>396.0</ele><time>2026-04-10T13:23:27Z</time></trkpt><trkpt lat="43.19548657187108" lon="12.300246379823301"><ele>397.0</ele><time>2026-04-10T13:23:28Z</time></trkpt><trkpt lat="43.195523415467946" lon="12.30033863714161"><ele>398.0</ele><time>2026-04-10T13:23:29Z</time></trkpt><trkpt lat="43.1955560289333" lon="12.30043409355557"><ele>399.0</ele><time>2026-04-10T13:23:30Z</time></trkpt><trkpt lat="43.19558436033725" lon="12.300539513044493"><ele>399.0</ele><time>2026-04-10T13:23:31Z</time></trkpt><trkpt lat="43.19560791638797" lon="12.3006462829348"><ele>399.0</ele><time>2026-04-10T13:23:32Z</time></trkpt><trkpt lat="43.19561863817711" lon="12.30075497592087"><ele>399.0</ele><time>2026-04-10T13:23:33Z</time></trkpt><trkpt lat="43.195623254613096" lon="12.300865242289683"><ele>399.0</ele><time>2026-04-10T13:23:34Z</time></trkpt><trkpt lat="43.19562607479945" lon="12.300974134996586"><ele>399.0</ele><time>2026-04-10T13:23:35Z</time></trkpt><trkpt lat="43.19562911650369" lon="12.301079793539907"><ele>399.0</ele><time>2026-04-10T13:23:36Z</time></trkpt><trkpt lat="43.19562830222753" lon="12.301186226620004"><ele>399.0</ele><time>2026-04-10T13:23:37Z</time></trkpt><trkpt lat="43.19562673597595" lon="12.301290927239862"><ele>399.0</ele><time>2026-04-10T13:23:38Z</time></trkpt><trkpt lat="43.195623997513685" lon="12.301397479258751"><ele>399.0</ele><time>2026-04-10T13:23:39Z</time></trkpt><trkpt lat="43.195616947047895" lon="12.301502887949935"><ele>399.0</ele><time>2026-04-10T13:23:40Z</time></trkpt><trkpt lat="43.19559669210404" lon="12.301603868824134"><ele>399.0</ele><time>2026-04-10T13:23:41Z</time></trkpt><trkpt lat="43.19556965022088" lon="12.301705155870197"><ele>399.0</ele><time>2026-04-10T13:23:42Z</time></trkpt><trkpt lat="43.19553822596941" lon="12.301802420376204"><ele>399.2857142857143</ele><time>2026-04-10T13:23:43Z</time></trkpt><trkpt lat="43.19551076246666" lon="12.301899139156443"><ele>399.57142857142856</ele><time>2026-04-10T13:23:44Z</time></trkpt><trkpt lat="43.195482303739105" lon="12.301988690236058"><ele>399.8571428571429</ele><time>2026-04-10T13:23:45Z</time></trkpt><trkpt lat="43.19545692129797" lon="12.302082953399637"><ele>400.1428571428571</ele><time>2026-04-10T13:23:46Z</time></trkpt><trkpt lat="43.1954220116838" lon="12.302172341824956"><ele>400.42857142857144</ele><time>2026-04-10T13:23:47Z</time></trkpt><trkpt lat="43.19538522919266" lon="12.302253865768112"><ele>400.7142857142857</ele><time>2026-04-10T13:23:48Z</time></trkpt><trkpt lat="43.19536528388153" lon="12.302337722681813"><ele>401.0</ele><time>2026-04-10T13:23:49Z</time></trkpt><trkpt lat="43.19536099276867" lon="12.302427055972009"><ele>402.8</ele><time>2026-04-10T13:23:50Z</time></trkpt><trkpt lat="43.195343878089254" lon="12.302597766724281"><ele>404.6</ele><time>2026-04-10T13:23:52Z</time></trkpt><trkpt lat="43.19533844509356" lon="12.30268631609448"><ele>406.4</ele><time>2026-04-10T13:23:53Z</time></trkpt><trkpt lat="43.19536020624297" lon="12.302854759856928"><ele>408.2</ele><time>2026-04-10T13:23:55Z</time></trkpt><trkpt lat="43.19537297841425" lon="12.302939553253362"><ele>410.0</ele><time>2026-04-10T13:23:56Z</time></trkpt><trkpt lat="43.1953751818654" lon="12.303108262001203"><ele>411.75</ele><time>2026-04-10T13:23:58Z</time></trkpt><trkpt lat="43.19535358267897" lon="12.303267265031282"><ele>413.5</ele><time>2026-04-10T13:24:00Z</time></trkpt><trkpt lat="43.19531408102441" lon="12.303419864642956"><ele>415.25</ele><time>2026-04-10T13:24:02Z</time></trkpt><trkpt lat="43.195266212523045" lon="12.303566376682488"><ele>417.0</ele><time>2026-04-10T13:24:04Z</time></trkpt><trkpt lat="43.1952125587339" lon="12.303717571907299"><ele>417.0</ele><time>2026-04-10T13:24:06Z</time></trkpt><trkpt lat="43.19518888218663" lon="12.30379784625188"><ele>417.0</ele><time>2026-04-10T13:24:07Z</time></trkpt><trkpt lat="43.1951594712408" lon="12.30388887552953"><ele>417.0</ele><time>2026-04-10T13:24:08Z</time></trkpt><trkpt lat="43.19512394028523" lon="12.303981894036733"><ele>417.0</ele><time>2026-04-10T13:24:09Z</time></trkpt><trkpt lat="43.19508779216026" lon="12.304081231313466"><ele>417.0</ele><time>2026-04-10T13:24:10Z</time></trkpt><trkpt lat="43.19505131591055" lon="12.304191686764963"><ele>417.0</ele><time>2026-04-10T13:24:11Z</time></trkpt><trkpt lat="43.19501690368388" lon="12.304301253272847"><ele>416.6</ele><time>2026-04-10T13:24:12Z</time></trkpt><trkpt lat="43.19499730803539" lon="12.304425311385051"><ele>416.20000000000005</ele><time>2026-04-10T13:24:13Z</time></trkpt><trkpt lat="43.19499269885349" lon="12.304551180081686"><ele>415.8</ele><time>2026-04-10T13:24:14Z</time></trkpt><trkpt lat="43.19500347880238" lon="12.30468193322543"><ele>415.4</ele><time>2026-04-10T13:24:15Z</time></trkpt><trkpt lat="43.19502806793514" lon="12.304811914822189"><ele>415.0</ele><time>2026-04-10T13:24:16Z</time></trkpt><trkpt lat="43.195055871370904" lon="12.304939221541499"><ele>415.0</ele><time>2026-04-10T13:24:17Z</time></trkpt><trkpt lat="43.19508719316698" lon="12.305059148876332"><ele>415.0</ele><time>2026-04-10T13:24:18Z</time></trkpt><trkpt lat="43.19511588830277" lon="12.305176889665992"><ele>415.0</ele><time>2026-04-10T13:24:19Z</time></trkpt><trkpt lat="43.19514504072838" lon="12.305298788062414"><ele>415.0</ele><time>2026-04-10T13:24:20Z</time></trkpt><trkpt lat="43.1951730811058" lon="12.305418683274153"><ele>415.0</ele><time>2026-04-10T13:24:21Z</time></trkpt><trkpt lat="43.19520010227711" lon="12.305538401382226"><ele>415.33333333333337</ele><time>2026-04-10T13:24:22Z</time></trkpt><trkpt lat="43.19523228430923" lon="12.305655437747324"><ele>415.6666666666667</ele><time>2026-04-10T13:24:23Z</time></trkpt><trkpt lat="43.195265149364985" lon="12.305771531674813"><ele>416.0</ele><time>2026-04-10T13:24:24Z</time></trkpt><trkpt lat="43.1952964533894" lon="12.305885222485847"><ele>416.33333333333337</ele><time>2026-04-10T13:24:25Z</time></trkpt><trkpt lat="43.19532880493686" lon="12.306001555942784"><ele>416.6666666666667</ele><time>2026-04-10T13:24:26Z</time></trkpt><trkpt lat="43.19536124577921" lon="12.30611212961917"><ele>417.0</ele><time>2026-04-10T13:24:27Z</time></trkpt><trkpt lat="43.19538957652225" lon="12.306223239861495"><ele>417.0</ele><time>2026-04-10T13:24:28Z</time></trkpt><trkpt lat="43.19541589723108" lon="12.306335750540097"><ele>417.0</ele><time>2026-04-10T13:24:29Z</time></trkpt><trkpt lat="43.195440384244634" lon="12.3064477117071"><ele>417.0</ele><time>2026-04-10T13:24:30Z</time></trkpt><trkpt lat="43.195462707917684" lon="12.306551358868843"><ele>417.0</ele><time>2026-04-10T13:24:31Z</time></trkpt><trkpt lat="43.19548156969155" lon="12.306639670590593"><ele>417.0</ele><time>2026-04-10T13:24:32Z</time></trkpt><trkpt lat="43.19550593609568" lon="12.306786134621994"><ele>417.0</ele><time>2026-04-10T13:24:34Z</time></trkpt><trkpt lat="43.195514520252935" lon="12.306874329295816"><ele>417.1666666666667</ele><time>2026-04-10T13:24:36Z</time></trkpt><trkpt lat="43.195521682444245" lon="12.306999068144854"><ele>417.33333333333337</ele><time>2026-04-10T13:25:49Z</time></trkpt><trkpt lat="43.1955105234045" lon="12.307151432516786"><ele>417.5</ele><time>2026-04-10T13:25:51Z</time></trkpt><trkpt lat="43.1955036609178" lon="12.30724152321134"><ele>417.6666666666667</ele><time>2026-04-10T13:25:52Z</time></trkpt><trkpt lat="43.195488645702966" lon="12.307336770920406"><ele>417.83333333333337</ele><time>2026-04-10T13:25:53Z</time></trkpt><trkpt lat="43.19546912447001" lon="12.307436443273774"><ele>418.0</ele><time>2026-04-10T13:25:54Z</time></trkpt><trkpt lat="43.19544579612544" lon="12.30754297417398"><ele>417.0</ele><time>2026-04-10T13:25:55Z</time></trkpt><trkpt lat="43.195412969651024" lon="12.30765288104879"><ele>416.0</ele><time>2026-04-10T13:25:56Z</time></trkpt><trkpt lat="43.195368219806696" lon="12.307763550777027"><ele>415.0</ele><time>2026-04-10T13:25:57Z</time></trkpt><trkpt lat="43.19531400620662" lon="12.30787306841436"><ele>414.0</ele><time>2026-04-10T13:25:58Z</time></trkpt><trkpt lat="43.19525663108095" lon="12.307981033242372"><ele>413.0</ele><time>2026-04-10T13:25:59Z</time></trkpt><trkpt lat="43.19519783503822" lon="12.30808959179145"><ele>412.79999999999995</ele><time>2026-04-10T13:26:00Z</time></trkpt><trkpt lat="43.19513677187441" lon="12.308199803173933"><ele>412.6</ele><time>2026-04-10T13:26:01Z</time></trkpt><trkpt lat="43.19507786862761" lon="12.308307132222408"><ele>412.4</ele><time>2026-04-10T13:26:02Z</time></trkpt><trkpt lat="43.19501663779277" lon="12.308418407906181"><ele>412.20000000000005</ele><time>2026-04-10T13:26:03Z</time></trkpt><trkpt lat="43.19495647053006" lon="12.30852793195738"><ele>412.0</ele><time>2026-04-10T13:26:04Z</time></trkpt><trkpt lat="43.19489139489501" lon="12.308634305712511"><ele>410.8</ele><time>2026-04-10T13:26:05Z</time></trkpt><trkpt lat="43.19482209751177" lon="12.308734672333973"><ele>409.6</ele><time>2026-04-10T13:26:06Z</time></trkpt><trkpt lat="43.194746431454206" lon="12.308830557393453"><ele>408.40000000000003</ele><time>2026-04-10T13:26:07Z</time></trkpt><trkpt lat="43.19466990950646" lon="12.30891639927772"><ele>407.20000000000005</ele><time>2026-04-10T13:26:08Z</time></trkpt><trkpt lat="43.19459189986528" lon="12.30900732797831"><ele>406.0</ele><time>2026-04-10T13:26:09Z</time></trkpt><trkpt lat="43.194517292899455" lon="12.309105477542753"><ele>406.0</ele><time>2026-04-10T13:26:10Z</time></trkpt><trkpt lat="43.19444496687319" lon="12.30920943961151"><ele>406.0</ele><time>2026-04-10T13:26:11Z</time></trkpt><trkpt lat="43.194372274414555" lon="12.309317902222016"><ele>406.0</ele><time>2026-04-10T13:26:12Z</time></trkpt><trkpt lat="43.194298399818464" lon="12.309432132418806"><ele>406.0</ele><time>2026-04-10T13:26:13Z</time></trkpt><trkpt lat="43.194221686047" lon="12.30955105776768"><ele>406.0</ele><time>2026-04-10T13:26:14Z</time></trkpt><trkpt lat="43.19414084116572" lon="12.309672014705535"><ele>405.5</ele><time>2026-04-10T13:26:15Z</time></trkpt><trkpt lat="43.19405710975019" lon="12.309796122123158"><ele>405.0</ele><time>2026-04-10T13:26:16Z</time></trkpt><trkpt lat="43.19397211600084" lon="12.30992254057806"><ele>404.5</ele><time>2026-04-10T13:26:17Z</time></trkpt><trkpt lat="43.19388079690086" lon="12.310051917036764"><ele>404.0</ele><time>2026-04-10T13:26:18Z</time></trkpt><trkpt lat="43.19378937318433" lon="12.310184865907402"><ele>402.6</ele><time>2026-04-10T13:26:19Z</time></trkpt><trkpt lat="43.193701087830696" lon="12.310320541462621"><ele>401.2</ele><time>2026-04-10T13:26:20Z</time></trkpt><trkpt lat="43.193616521089" lon="12.310441939809191"><ele>399.8</ele><time>2026-04-10T13:26:21Z</time></trkpt><trkpt lat="43.193541948340844" lon="12.310523256779826"><ele>398.40000000000003</ele><time>2026-04-10T13:26:22Z</time></trkpt><trkpt lat="43.19345996660958" lon="12.310559007479709"><ele>397.0</ele><time>2026-04-10T13:26:23Z</time></trkpt><trkpt lat="43.19336584612927" lon="12.310524504782135"><ele>397.0</ele><time>2026-04-10T13:26:24Z</time></trkpt><trkpt lat="43.1932741591976" lon="12.310493332391255"><ele>397.0</ele><time>2026-04-10T13:26:25Z</time></trkpt><trkpt lat="43.193210796427095" lon="12.31039153632141"><ele>397.0</ele><time>2026-04-10T13:26:26Z</time></trkpt><trkpt lat="43.19313615241065" lon="12.31031062199822"><ele>397.0</ele><time>2026-04-10T13:26:27Z</time></trkpt><trkpt lat="43.193079416130615" lon="12.310200115729089"><ele>397.0</ele><time>2026-04-10T13:26:28Z</time></trkpt><trkpt lat="43.19302370381343" lon="12.310090877817736"><ele>395.8</ele><time>2026-04-10T13:26:29Z</time></trkpt><trkpt lat="43.192964366505144" lon="12.309985431317509"><ele>394.6</ele><time>2026-04-10T13:26:30Z</time></trkpt><trkpt lat="43.19290474859045" lon="12.309883270704116"><ele>393.40000000000003</ele><time>2026-04-10T13:26:31Z</time></trkpt><trkpt lat="43.19284954176793" lon="12.30978014321946"><ele>392.20000000000005</ele><time>2026-04-10T13:26:32Z</time></trkpt><trkpt lat="43.192797075802616" lon="12.30967075053022"><ele>391.0</ele><time>2026-04-10T13:26:33Z</time></trkpt><trkpt lat="43.192735811149475" lon="12.309568327095707"><ele>390.4</ele><time>2026-04-10T13:26:34Z</time></trkpt><trkpt lat="43.19267856930372" lon="12.309467178916334"><ele>389.8</ele><time>2026-04-10T13:26:35Z</time></trkpt><trkpt lat="43.19261950535764" lon="12.30936893699372"><ele>389.2</ele><time>2026-04-10T13:26:36Z</time></trkpt><trkpt lat="43.19255922585244" lon="12.309268569167585"><ele>388.59999999999997</ele><time>2026-04-10T13:26:37Z</time></trkpt><trkpt lat="43.19250168461605" lon="12.30916491044784"><ele>388.0</ele><time>2026-04-10T13:26:38Z</time></trkpt><trkpt lat="43.19244384284248" lon="12.309060122924457"><ele>388.0</ele><time>2026-04-10T13:26:39Z</time></trkpt><trkpt lat="43.19238813471245" lon="12.308953084063658"><ele>388.0</ele><time>2026-04-10T13:26:40Z</time></trkpt><trkpt lat="43.192332011694326" lon="12.308844193334815"><ele>388.0</ele><time>2026-04-10T13:26:41Z</time></trkpt><trkpt lat="43.1922708661188" lon="12.308736621111843"><ele>388.0</ele><time>2026-04-10T13:26:42Z</time></trkpt><trkpt lat="43.192204385571245" lon="12.30863394612458"><ele>388.0</ele><time>2026-04-10T13:26:43Z</time></trkpt><trkpt lat="43.19212853750429" lon="12.308533294829132"><ele>386.79999999999995</ele><time>2026-04-10T13:26:44Z</time></trkpt><trkpt lat="43.19204519838189" lon="12.308451347794565"><ele>385.6</ele><time>2026-04-10T13:26:45Z</time></trkpt><trkpt lat="43.191951979960045" lon="12.308384671811766"><ele>384.4</ele><time>2026-04-10T13:26:46Z</time></trkpt><trkpt lat="43.19185831144392" lon="12.308321330681764"><ele>383.20000000000005</ele><time>2026-04-10T13:26:47Z</time></trkpt><trkpt lat="43.191761932862825" lon="12.308262408938143"><ele>382.0</ele><time>2026-04-10T13:26:48Z</time></trkpt><trkpt lat="43.19166520587522" lon="12.308202378322541"><ele>382.0</ele><time>2026-04-10T13:26:49Z</time></trkpt><trkpt lat="43.19156936098332" lon="12.308135894633992"><ele>382.0</ele><time>2026-04-10T13:26:50Z</time></trkpt><trkpt lat="43.19147371976204" lon="12.308062040556242"><ele>382.0</ele><time>2026-04-10T13:26:51Z</time></trkpt><trkpt lat="43.19138305659488" lon="12.307995353278656"><ele>382.0</ele><time>2026-04-10T13:26:52Z</time></trkpt><trkpt lat="43.19129355527818" lon="12.307926410924125"><ele>382.0</ele><time>2026-04-10T13:26:53Z</time></trkpt><trkpt lat="43.19120365475552" lon="12.307857604170197"><ele>381.20000000000005</ele><time>2026-04-10T13:26:54Z</time></trkpt><trkpt lat="43.19111596430885" lon="12.307791664999383"><ele>380.4</ele><time>2026-04-10T13:26:55Z</time></trkpt><trkpt lat="43.191030850343665" lon="12.30772640389634"><ele>379.6</ele><time>2026-04-10T13:26:56Z</time></trkpt><trkpt lat="43.190946144773925" lon="12.307661486415002"><ele>378.79999999999995</ele><time>2026-04-10T13:26:57Z</time></trkpt><trkpt lat="43.19086155986508" lon="12.30759796131997"><ele>378.0</ele><time>2026-04-10T13:26:58Z</time></trkpt><trkpt lat="43.19077989082083" lon="12.30753722438068"><ele>378.0</ele><time>2026-04-10T13:26:59Z</time></trkpt><trkpt lat="43.19069410787999" lon="12.30749191914532"><ele>378.0</ele><time>2026-04-10T13:27:00Z</time></trkpt><trkpt lat="43.19060549292956" lon="12.307447133847807"><ele>378.0</ele><time>2026-04-10T13:27:01Z</time></trkpt><trkpt lat="43.19051691587978" lon="12.307405183774975"><ele>378.0</ele><time>2026-04-10T13:27:02Z</time></trkpt><trkpt lat="43.19042972815379" lon="12.307346174419726"><ele>378.0</ele><time>2026-04-10T13:27:03Z</time></trkpt><trkpt lat="43.190332511693754" lon="12.307328010953633"><ele>378.4</ele><time>2026-04-10T13:27:04Z</time></trkpt><trkpt lat="43.19024417434533" lon="12.307281711433832"><ele>378.79999999999995</ele><time>2026-04-10T13:27:05Z</time></trkpt><trkpt lat="43.19015179731666" lon="12.307250156249768"><ele>379.2</ele><time>2026-04-10T13:27:06Z</time></trkpt><trkpt lat="43.19006136036787" lon="12.307209900971948"><ele>379.6</ele><time>2026-04-10T13:27:07Z</time></trkpt><trkpt lat="43.18997414894857" lon="12.307171559039245"><ele>380.0</ele><time>2026-04-10T13:27:08Z</time></trkpt><trkpt lat="43.189886338585694" lon="12.307130022227925"><ele>379.5</ele><time>2026-04-10T13:27:09Z</time></trkpt><trkpt lat="43.18979892856868" lon="12.307089136909676"><ele>379.0</ele><time>2026-04-10T13:27:10Z</time></trkpt><trkpt lat="43.18971898344392" lon="12.30704600857893"><ele>378.5</ele><time>2026-04-10T13:27:11Z</time></trkpt><trkpt lat="43.18963393672371" lon="12.307011472798914"><ele>378.0</ele><time>2026-04-10T13:27:12Z</time></trkpt><trkpt lat="43.18954905492988" lon="12.306973877099134"><ele>377.5</ele><time>2026-04-10T13:27:13Z</time></trkpt><trkpt lat="43.18947099003159" lon="12.306928769608009"><ele>377.0</ele><time>2026-04-10T13:27:14Z</time></trkpt><trkpt lat="43.18938491361951" lon="12.306902970279001"><ele>377.0</ele><time>2026-04-10T13:27:15Z</time></trkpt><trkpt lat="43.18929648639017" lon="12.306882775763995"><ele>377.0</ele><time>2026-04-10T13:27:16Z</time></trkpt><trkpt lat="43.189203479237" lon="12.306873664871592"><ele>377.0</ele><time>2026-04-10T13:27:17Z</time></trkpt><trkpt lat="43.1891018049808" lon="12.306873619971235"><ele>377.0</ele><time>2026-04-10T13:27:18Z</time></trkpt><trkpt lat="43.189000780777846" lon="12.30687061857702"><ele>377.0</ele><time>2026-04-10T13:27:19Z</time></trkpt><trkpt lat="43.18889536750804" lon="12.306875218866821"><ele>375.8</ele><time>2026-04-10T13:27:20Z</time></trkpt><trkpt lat="43.18878803403208" lon="12.306871890799012"><ele>374.6</ele><time>2026-04-10T13:27:21Z</time></trkpt><trkpt lat="43.18867927792755" lon="12.306869524664501"><ele>373.40000000000003</ele><time>2026-04-10T13:27:22Z</time></trkpt><trkpt lat="43.18857150511141" lon="12.306839758655288"><ele>372.20000000000005</ele><time>2026-04-10T13:27:23Z</time></trkpt><trkpt lat="43.1884653322495" lon="12.306834478628312"><ele>371.0</ele><time>2026-04-10T13:27:23.999Z</time></trkpt><trkpt lat="43.18835226319881" lon="12.306824218967872"><ele>371.0</ele><time>2026-04-10T13:27:24.999Z</time></trkpt><trkpt lat="43.188243102787624" lon="12.306787505259726"><ele>371.0</ele><time>2026-04-10T13:27:25.999Z</time></trkpt><trkpt lat="43.18813188771604" lon="12.306744623003343"><ele>371.0</ele><time>2026-04-10T13:27:26.999Z</time></trkpt><trkpt lat="43.188021665311105" lon="12.306696749506814"><ele>371.0</ele><time>2026-04-10T13:27:27.999Z</time></trkpt><trkpt lat="43.18791904703891" lon="12.306612897999582"><ele>372.25</ele><time>2026-04-10T13:27:28.999Z</time></trkpt><trkpt lat="43.187818361846375" lon="12.306531279157374"><ele>373.5</ele><time>2026-04-10T13:27:29.999Z</time></trkpt><trkpt lat="43.18772532730678" lon="12.30645275727837"><ele>374.75</ele><time>2026-04-10T13:27:30.999Z</time></trkpt><trkpt lat="43.18764567563082" lon="12.306335659407758"><ele>376.0</ele><time>2026-04-10T13:27:31.999Z</time></trkpt><trkpt lat="43.187572221713516" lon="12.306211581486261"><ele>374.4</ele><time>2026-04-10T13:27:32.999Z</time></trkpt><trkpt lat="43.187505902042325" lon="12.30609377891292"><ele>372.8</ele><time>2026-04-10T13:27:33.999Z</time></trkpt><trkpt lat="43.187431396522676" lon="12.305977457415354"><ele>371.2</ele><time>2026-04-10T13:27:34.999Z</time></trkpt><trkpt lat="43.18735809976701" lon="12.30586346350244"><ele>369.59999999999997</ele><time>2026-04-10T13:27:35.999Z</time></trkpt><trkpt lat="43.18728240791224" lon="12.305754176463294"><ele>368.0</ele><time>2026-04-10T13:27:36.999Z</time></trkpt><trkpt lat="43.187195754715944" lon="12.30565651663333"><ele>364.79999999999995</ele><time>2026-04-10T13:27:37.999Z</time></trkpt><trkpt lat="43.187112309582886" lon="12.30556620775383"><ele>361.6</ele><time>2026-04-10T13:27:38.999Z</time></trkpt><trkpt lat="43.18702326784747" lon="12.305486593103742"><ele>358.4</ele><time>2026-04-10T13:27:39.999Z</time></trkpt><trkpt lat="43.18694012748307" lon="12.305407293531326"><ele>355.20000000000005</ele><time>2026-04-10T13:27:40.999Z</time></trkpt><trkpt lat="43.186848440621866" lon="12.305345165058643"><ele>352.0</ele><time>2026-04-10T13:27:41.999Z</time></trkpt><trkpt lat="43.18676003042954" lon="12.3053013977606"><ele>352.0</ele><time>2026-04-10T13:27:42.999Z</time></trkpt><trkpt lat="43.18666039063461" lon="12.305280633018846"><ele>352.0</ele><time>2026-04-10T13:27:43.999Z</time></trkpt><trkpt lat="43.18655895728391" lon="12.305264604659978"><ele>352.0</ele><time>2026-04-10T13:27:44.999Z</time></trkpt><trkpt lat="43.18645696232769" lon="12.305242586166578"><ele>352.0</ele><time>2026-04-10T13:27:45.999Z</time></trkpt><trkpt lat="43.18635169689304" lon="12.305221663721648"><ele>352.0</ele><time>2026-04-10T13:27:46.999Z</time></trkpt><trkpt lat="43.18624112407692" lon="12.305214253075157"><ele>348.75</ele><time>2026-04-10T13:27:47.999Z</time></trkpt><trkpt lat="43.186126528099734" lon="12.305215509014525"><ele>345.5</ele><time>2026-04-10T13:27:48.999Z</time></trkpt><trkpt lat="43.186013443618094" lon="12.305234900072154"><ele>342.25</ele><time>2026-04-10T13:27:49.999Z</time></trkpt><trkpt lat="43.18590293347689" lon="12.305278196746155"><ele>339.0</ele><time>2026-04-10T13:27:50.999Z</time></trkpt><trkpt lat="43.18579829991142" lon="12.305346024890614"><ele>339.0</ele><time>2026-04-10T13:27:51.999Z</time></trkpt><trkpt lat="43.185701246864326" lon="12.305424479354832"><ele>339.0</ele><time>2026-04-10T13:27:52.999Z</time></trkpt><trkpt lat="43.18560988525946" lon="12.305511084781758"><ele>339.0</ele><time>2026-04-10T13:27:53.999Z</time></trkpt><trkpt lat="43.18552692289782" lon="12.305616478057747"><ele>339.0</ele><time>2026-04-10T13:27:54.999Z</time></trkpt><trkpt lat="43.18545965593156" lon="12.305733046249449"><ele>339.0</ele><time>2026-04-10T13:27:55.999Z</time></trkpt><trkpt lat="43.185402967137165" lon="12.305856649431352"><ele>338.79999999999995</ele><time>2026-04-10T13:27:57Z</time></trkpt><trkpt lat="43.1853531446555" lon="12.30598465271353"><ele>338.59999999999997</ele><time>2026-04-10T13:27:58Z</time></trkpt><trkpt lat="43.185312830786614" lon="12.306115871781762"><ele>338.4</ele><time>2026-04-10T13:27:59Z</time></trkpt><trkpt lat="43.18526825477779" lon="12.306249947107522"><ele>338.2</ele><time>2026-04-10T13:28:00Z</time></trkpt><trkpt lat="43.18522524445377" lon="12.306379579219453"><ele>338.0</ele><time>2026-04-10T13:28:01Z</time></trkpt><trkpt lat="43.18517492548588" lon="12.306510181362016"><ele>338.0</ele><time>2026-04-10T13:28:02Z</time></trkpt><trkpt lat="43.185112525410005" lon="12.306638193832782"><ele>338.0</ele><time>2026-04-10T13:28:03Z</time></trkpt><trkpt lat="43.185029679068926" lon="12.306744106121377"><ele>338.0</ele><time>2026-04-10T13:28:04Z</time></trkpt><trkpt lat="43.18494563589393" lon="12.306830179133422"><ele>338.0</ele><time>2026-04-10T13:28:05Z</time></trkpt><trkpt lat="43.18485710280669" lon="12.306927597708095"><ele>338.0</ele><time>2026-04-10T13:28:06Z</time></trkpt><trkpt lat="43.18477395167526" lon="12.307034195279176"><ele>334.75</ele><time>2026-04-10T13:28:07Z</time></trkpt><trkpt lat="43.18469408570801" lon="12.30714906657704"><ele>331.5</ele><time>2026-04-10T13:28:08Z</time></trkpt><trkpt lat="43.18462132646679" lon="12.307278561568413"><ele>328.25</ele><time>2026-04-10T13:28:09Z</time></trkpt><trkpt lat="43.18455009878858" lon="12.30739856907594"><ele>325.0</ele><time>2026-04-10T13:28:10Z</time></trkpt><trkpt lat="43.184472515361804" lon="12.307515353301069"><ele>325.0</ele><time>2026-04-10T13:28:11Z</time></trkpt><trkpt lat="43.18438583637121" lon="12.307618821559599"><ele>325.0</ele><time>2026-04-10T13:28:12Z</time></trkpt><trkpt lat="43.18429179681763" lon="12.30772011079389"><ele>325.0</ele><time>2026-04-10T13:28:13Z</time></trkpt><trkpt lat="43.18419454655647" lon="12.307821264103303"><ele>325.0</ele><time>2026-04-10T13:28:14Z</time></trkpt><trkpt lat="43.18409080331899" lon="12.307926698191052"><ele>322.25</ele><time>2026-04-10T13:28:15Z</time></trkpt><trkpt lat="43.18398304059721" lon="12.308029772564334"><ele>319.5</ele><time>2026-04-10T13:28:16Z</time></trkpt><trkpt lat="43.18387190613047" lon="12.30814046388524"><ele>316.75</ele><time>2026-04-10T13:28:17Z</time></trkpt><trkpt lat="43.18376546393251" lon="12.308251745315713"><ele>314.0</ele><time>2026-04-10T13:28:18Z</time></trkpt><trkpt lat="43.183654534081036" lon="12.308363524021082"><ele>314.0</ele><time>2026-04-10T13:28:19Z</time></trkpt><trkpt lat="43.18353018246795" lon="12.308453482519857"><ele>314.0</ele><time>2026-04-10T13:28:20Z</time></trkpt><trkpt lat="43.183423616281765" lon="12.30852972677574"><ele>314.0</ele><time>2026-04-10T13:28:21Z</time></trkpt><trkpt lat="43.18332187673908" lon="12.308580677984477"><ele>314.0</ele><time>2026-04-10T13:28:22Z</time></trkpt><trkpt lat="43.18322711290436" lon="12.308613916469218"><ele>314.8</ele><time>2026-04-10T13:28:23Z</time></trkpt><trkpt lat="43.18313437177241" lon="12.308623982356362"><ele>315.59999999999997</ele><time>2026-04-10T13:28:24Z</time></trkpt><trkpt lat="43.183053030337135" lon="12.30857001327073"><ele>316.4</ele><time>2026-04-10T13:28:25Z</time></trkpt><trkpt lat="43.18298020640442" lon="12.308479610551762"><ele>317.2</ele><time>2026-04-10T13:28:26Z</time></trkpt><trkpt lat="43.18291557242088" lon="12.308353164880206"><ele>318.0</ele><time>2026-04-10T13:28:27Z</time></trkpt><trkpt lat="43.182875418802695" lon="12.308199900878593"><ele>314.25</ele><time>2026-04-10T13:28:28Z</time></trkpt><trkpt lat="43.18284697596281" lon="12.308037198609442"><ele>310.5</ele><time>2026-04-10T13:28:29Z</time></trkpt><trkpt lat="43.18279908504729" lon="12.30788347802718"><ele>306.75</ele><time>2026-04-10T13:28:30Z</time></trkpt><trkpt lat="43.18271560863805" lon="12.307748006408001"><ele>303.0</ele><time>2026-04-10T13:28:31Z</time></trkpt><trkpt lat="43.18261070468398" lon="12.307651188727533"><ele>303.0</ele><time>2026-04-10T13:28:32Z</time></trkpt><trkpt lat="43.18250057112797" lon="12.307582670406537"><ele>303.0</ele><time>2026-04-10T13:28:33Z</time></trkpt><trkpt lat="43.18238707801221" lon="12.307526890315108"><ele>303.0</ele><time>2026-04-10T13:28:34Z</time></trkpt><trkpt lat="43.18227342264536" lon="12.307475185346771"><ele>303.0</ele><time>2026-04-10T13:28:35Z</time></trkpt><trkpt lat="43.182171913862476" lon="12.307399869938742"><ele>304.5</ele><time>2026-04-10T13:28:36Z</time></trkpt><trkpt lat="43.18206376476792" lon="12.30733459413933"><ele>306.0</ele><time>2026-04-10T13:28:37Z</time></trkpt><trkpt lat="43.18195695090898" lon="12.30727286962749"><ele>307.5</ele><time>2026-04-10T13:28:38Z</time></trkpt><trkpt lat="43.18184347177416" lon="12.307228497835256"><ele>309.0</ele><time>2026-04-10T13:28:39Z</time></trkpt><trkpt lat="43.18173969646932" lon="12.307167473847892"><ele>306.0</ele><time>2026-04-10T13:28:40Z</time></trkpt><trkpt lat="43.1816339429855" lon="12.307101995018522"><ele>303.0</ele><time>2026-04-10T13:28:41Z</time></trkpt><trkpt lat="43.181527507938284" lon="12.307039978879805"><ele>300.0</ele><time>2026-04-10T13:28:42Z</time></trkpt><trkpt lat="43.18141608736165" lon="12.306981132895542"><ele>297.0</ele><time>2026-04-10T13:28:43Z</time></trkpt><trkpt lat="43.18131378228181" lon="12.306913517519606"><ele>297.0</ele><time>2026-04-10T13:28:44Z</time></trkpt><trkpt lat="43.18121462944918" lon="12.306830312906765"><ele>297.0</ele><time>2026-04-10T13:28:45Z</time></trkpt><trkpt lat="43.18111356311013" lon="12.306767531477698"><ele>297.0</ele><time>2026-04-10T13:28:46Z</time></trkpt><trkpt lat="43.18100944170374" lon="12.306709036929186"><ele>297.0</ele><time>2026-04-10T13:28:47Z</time></trkpt><trkpt lat="43.18089875002033" lon="12.306674022182234"><ele>297.0</ele><time>2026-04-10T13:28:48Z</time></trkpt><trkpt lat="43.18080088641486" lon="12.306613582079947"><ele>297.0</ele><time>2026-04-10T13:28:49Z</time></trkpt><trkpt lat="43.18069685238714" lon="12.306577520296946"><ele>297.0</ele><time>2026-04-10T13:28:50Z</time></trkpt><trkpt lat="43.18059430451412" lon="12.30653532282823"><ele>297.0</ele><time>2026-04-10T13:28:51Z</time></trkpt><trkpt lat="43.180494512065856" lon="12.306503740425125"><ele>297.0</ele><time>2026-04-10T13:28:52Z</time></trkpt><trkpt lat="43.180392845428756" lon="12.306494418947919"><ele>296.4</ele><time>2026-04-10T13:28:53Z</time></trkpt><trkpt lat="43.18029510157396" lon="12.306488944553383"><ele>295.79999999999995</ele><time>2026-04-10T13:28:54Z</time></trkpt><trkpt lat="43.18019686348119" lon="12.306486639143097"><ele>295.2</ele><time>2026-04-10T13:28:55Z</time></trkpt><trkpt lat="43.180099963002036" lon="12.30648337742295"><ele>294.59999999999997</ele><time>2026-04-10T13:28:56Z</time></trkpt><trkpt lat="43.18000860431399" lon="12.306490112067157"><ele>294.0</ele><time>2026-04-10T13:28:57Z</time></trkpt><trkpt lat="43.179930727264086" lon="12.306485650551412"><ele>292.59999999999997</ele><time>2026-04-10T13:28:58Z</time></trkpt><trkpt lat="43.179822415218005" lon="12.306480291181561"><ele>291.2</ele><time>2026-04-10T13:29:00Z</time></trkpt><trkpt lat="43.179687150747036" lon="12.306449689836413"><ele>289.79999999999995</ele><time>2026-04-10T13:29:02Z</time></trkpt><trkpt lat="43.17960602306565" lon="12.306503882531612"><ele>288.4</ele><time>2026-04-10T13:29:03Z</time></trkpt><trkpt lat="43.17951910775444" lon="12.30654189748547"><ele>287.0</ele><time>2026-04-10T13:29:04Z</time></trkpt><trkpt lat="43.17943914687037" lon="12.306594155199582"><ele>287.0</ele><time>2026-04-10T13:29:05Z</time></trkpt><trkpt lat="43.17935995695757" lon="12.306656538538551"><ele>287.0</ele><time>2026-04-10T13:29:06Z</time></trkpt><trkpt lat="43.17926655261591" lon="12.306695982526831"><ele>287.0</ele><time>2026-04-10T13:29:07Z</time></trkpt><trkpt lat="43.17918880333824" lon="12.306759352855806"><ele>287.0</ele><time>2026-04-10T13:29:08Z</time></trkpt><trkpt lat="43.17912594604088" lon="12.306835157895051"><ele>287.0</ele><time>2026-04-10T13:29:09Z</time></trkpt><trkpt lat="43.17905251505139" lon="12.306886339510392"><ele>287.0</ele><time>2026-04-10T13:29:10Z</time></trkpt><trkpt lat="43.1789790749724" lon="12.306934740233467"><ele>286.1666666666667</ele><time>2026-04-10T13:29:11Z</time></trkpt><trkpt lat="43.178902955542746" lon="12.306981474448746"><ele>285.33333333333337</ele><time>2026-04-10T13:29:12Z</time></trkpt><trkpt lat="43.17881878377496" lon="12.307010877553259"><ele>284.5</ele><time>2026-04-10T13:29:13Z</time></trkpt><trkpt lat="43.17873001026893" lon="12.307032277269839"><ele>283.6666666666667</ele><time>2026-04-10T13:29:14Z</time></trkpt><trkpt lat="43.17863932447061" lon="12.307051854766357"><ele>282.8333333333333</ele><time>2026-04-10T13:29:15Z</time></trkpt><trkpt lat="43.17854588203072" lon="12.307075968037092"><ele>282.0</ele><time>2026-04-10T13:29:16Z</time></trkpt><trkpt lat="43.17844815977513" lon="12.307096130102003"><ele>282.0</ele><time>2026-04-10T13:29:17Z</time></trkpt><trkpt lat="43.17835421054126" lon="12.307111756405416"><ele>282.0</ele><time>2026-04-10T13:29:18Z</time></trkpt><trkpt lat="43.178258831404996" lon="12.307114839228525"><ele>282.0</ele><time>2026-04-10T13:29:19Z</time></trkpt><trkpt lat="43.17816507270098" lon="12.307136214336776"><ele>282.0</ele><time>2026-04-10T13:29:20Z</time></trkpt><trkpt lat="43.1780725575929" lon="12.307130556176011"><ele>282.0</ele><time>2026-04-10T13:29:21Z</time></trkpt><trkpt lat="43.17797927513628" lon="12.30714716158079"><ele>282.0</ele><time>2026-04-10T13:29:22Z</time></trkpt><trkpt lat="43.177887373844456" lon="12.307185805123673"><ele>282.0</ele><time>2026-04-10T13:29:23Z</time></trkpt><trkpt lat="43.17779030422042" lon="12.307200422637866"><ele>282.0</ele><time>2026-04-10T13:29:24Z</time></trkpt><trkpt lat="43.177694521051905" lon="12.307219882226331"><ele>282.0</ele><time>2026-04-10T13:29:25Z</time></trkpt><trkpt lat="43.17760067457189" lon="12.30724466694566"><ele>282.0</ele><time>2026-04-10T13:29:26Z</time></trkpt><trkpt lat="43.17750765721394" lon="12.307282766201276"><ele>282.0</ele><time>2026-04-10T13:29:27Z</time></trkpt><trkpt lat="43.177419376612384" lon="12.307330188063707"><ele>282.0</ele><time>2026-04-10T13:29:28Z</time></trkpt><trkpt lat="43.17733690723937" lon="12.307393447679107"><ele>282.0</ele><time>2026-04-10T13:29:29Z</time></trkpt><trkpt lat="43.177259770732576" lon="12.307470617538332"><ele>282.0</ele><time>2026-04-10T13:29:30Z</time></trkpt><trkpt lat="43.177182319035325" lon="12.30754832572755"><ele>282.0</ele><time>2026-04-10T13:29:31Z</time></trkpt><trkpt lat="43.177109766490716" lon="12.307636958830187"><ele>282.2</ele><time>2026-04-10T13:29:32Z</time></trkpt><trkpt lat="43.177044921970555" lon="12.30772715143636"><ele>282.4</ele><time>2026-04-10T13:29:33Z</time></trkpt><trkpt lat="43.17697729958069" lon="12.307821420744059"><ele>282.6</ele><time>2026-04-10T13:29:34Z</time></trkpt><trkpt lat="43.176923068330694" lon="12.307917170504341"><ele>282.8</ele><time>2026-04-10T13:29:35Z</time></trkpt><trkpt lat="43.17686626982495" lon="12.308022072926791"><ele>283.0</ele><time>2026-04-10T13:29:36Z</time></trkpt><trkpt lat="43.17680846192576" lon="12.308125488241577"><ele>282.2</ele><time>2026-04-10T13:29:37Z</time></trkpt><trkpt lat="43.17675119463348" lon="12.308226828121914"><ele>281.4</ele><time>2026-04-10T13:29:38Z</time></trkpt><trkpt lat="43.17669886953229" lon="12.308331100650555"><ele>280.59999999999997</ele><time>2026-04-10T13:29:39Z</time></trkpt><trkpt lat="43.17665819508405" lon="12.308441491913495"><ele>279.8</ele><time>2026-04-10T13:29:40Z</time></trkpt><trkpt lat="43.176632248428916" lon="12.308566027081524"><ele>279.0</ele><time>2026-04-10T13:29:41Z</time></trkpt><trkpt lat="43.176632938919816" lon="12.308698843272087"><ele>279.0</ele><time>2026-04-10T13:29:42Z</time></trkpt><trkpt lat="43.176654732395235" lon="12.308831668674172"><ele>279.0</ele><time>2026-04-10T13:29:43Z</time></trkpt><trkpt lat="43.176694626907995" lon="12.30895233534859"><ele>279.0</ele><time>2026-04-10T13:29:44Z</time></trkpt><trkpt lat="43.17673589089381" lon="12.309060372982076"><ele>279.0</ele><time>2026-04-10T13:29:45Z</time></trkpt><trkpt lat="43.17677395514983" lon="12.309164291596991"><ele>279.0</ele><time>2026-04-10T13:29:46Z</time></trkpt><trkpt lat="43.17681412739439" lon="12.309276467153655"><ele>278.0</ele><time>2026-04-10T13:29:47Z</time></trkpt><trkpt lat="43.17685690885811" lon="12.309380387434592"><ele>277.0</ele><time>2026-04-10T13:29:48Z</time></trkpt><trkpt lat="43.1769115408156" lon="12.309474141044733"><ele>276.0</ele><time>2026-04-10T13:29:49Z</time></trkpt><trkpt lat="43.17697259644557" lon="12.309565969002405"><ele>275.0</ele><time>2026-04-10T13:29:50Z</time></trkpt><trkpt lat="43.17703904424603" lon="12.309657449515774"><ele>274.0</ele><time>2026-04-10T13:29:51Z</time></trkpt><trkpt lat="43.17710415558896" lon="12.309750708921928"><ele>274.4</ele><time>2026-04-10T13:29:52Z</time></trkpt><trkpt lat="43.177169687867604" lon="12.309843714306616"><ele>274.79999999999995</ele><time>2026-04-10T13:29:53Z</time></trkpt><trkpt lat="43.177234518250316" lon="12.309935661209444"><ele>275.20000000000005</ele><time>2026-04-10T13:29:54Z</time></trkpt><trkpt lat="43.177299775920375" lon="12.310032499021514"><ele>275.6</ele><time>2026-04-10T13:29:55Z</time></trkpt><trkpt lat="43.17736107355274" lon="12.310127077916157"><ele>276.0</ele><time>2026-04-10T13:29:56Z</time></trkpt><trkpt lat="43.17742697218905" lon="12.310221966027507"><ele>276.0</ele><time>2026-04-10T13:29:57Z</time></trkpt><trkpt lat="43.1774810143941" lon="12.310320830975861"><ele>276.0</ele><time>2026-04-10T13:29:58Z</time></trkpt><trkpt lat="43.17751377753971" lon="12.31043869288776"><ele>276.0</ele><time>2026-04-10T13:29:59Z</time></trkpt><trkpt lat="43.17754779142653" lon="12.310554428140085"><ele>276.0</ele><time>2026-04-10T13:30:00Z</time></trkpt><trkpt lat="43.17757482461009" lon="12.310671195413912"><ele>276.0</ele><time>2026-04-10T13:30:01Z</time></trkpt><trkpt lat="43.17756424518359" lon="12.310795609831516"><ele>275.0</ele><time>2026-04-10T13:30:02Z</time></trkpt><trkpt lat="43.177579343819716" lon="12.310916540210766"><ele>274.0</ele><time>2026-04-10T13:30:03Z</time></trkpt><trkpt lat="43.17756966120024" lon="12.311037543525007"><ele>273.0</ele><time>2026-04-10T13:30:04Z</time></trkpt><trkpt lat="43.177581682711676" lon="12.311157618210691"><ele>272.0</ele><time>2026-04-10T13:30:05Z</time></trkpt><trkpt lat="43.17761299222211" lon="12.311285068531886"><ele>271.0</ele><time>2026-04-10T13:30:06Z</time></trkpt><trkpt lat="43.17765815832135" lon="12.311392981173869"><ele>271.2</ele><time>2026-04-10T13:30:07Z</time></trkpt><trkpt lat="43.17770001711336" lon="12.311506079619457"><ele>271.40000000000003</ele><time>2026-04-10T13:30:08Z</time></trkpt><trkpt lat="43.17772312486352" lon="12.311622576095944"><ele>271.6</ele><time>2026-04-10T13:30:09Z</time></trkpt><trkpt lat="43.17771435868791" lon="12.311741651164832"><ele>271.8</ele><time>2026-04-10T13:30:10Z</time></trkpt><trkpt lat="43.17763798736834" lon="12.311823356097898"><ele>272.0</ele><time>2026-04-10T13:30:11Z</time></trkpt><trkpt lat="43.17760224568117" lon="12.31194580793025"><ele>272.0</ele><time>2026-04-10T13:30:12Z</time></trkpt><trkpt lat="43.17754082481324" lon="12.312046505886602"><ele>272.0</ele><time>2026-04-10T13:30:13Z</time></trkpt><trkpt lat="43.17750103312441" lon="12.312159688774939"><ele>272.0</ele><time>2026-04-10T13:30:14Z</time></trkpt><trkpt lat="43.177462322944756" lon="12.312279383217573"><ele>272.0</ele><time>2026-04-10T13:30:15Z</time></trkpt><trkpt lat="43.17741908900574" lon="12.312395544685677"><ele>272.0</ele><time>2026-04-10T13:30:16Z</time></trkpt><trkpt lat="43.17737431266787" lon="12.312504703261919"><ele>271.2</ele><time>2026-04-10T13:30:17Z</time></trkpt><trkpt lat="43.17732937765608" lon="12.312615024506089"><ele>270.4</ele><time>2026-04-10T13:30:18Z</time></trkpt><trkpt lat="43.17728460131966" lon="12.312725653232887"><ele>269.6</ele><time>2026-04-10T13:30:19Z</time></trkpt><trkpt lat="43.17724363205786" lon="12.312840359693586"><ele>268.8</ele><time>2026-04-10T13:30:20Z</time></trkpt><trkpt lat="43.17720569053927" lon="12.312950538733523"><ele>268.0</ele><time>2026-04-10T13:30:21Z</time></trkpt><trkpt lat="43.17716438319185" lon="12.313067289811274"><ele>268.0</ele><time>2026-04-10T13:30:22Z</time></trkpt><trkpt lat="43.177121680290114" lon="12.313179094638011"><ele>268.0</ele><time>2026-04-10T13:30:23Z</time></trkpt><trkpt lat="43.177074364216516" lon="12.313288780303175"><ele>268.0</ele><time>2026-04-10T13:30:24Z</time></trkpt><trkpt lat="43.177032465852335" lon="12.313402816220076"><ele>268.0</ele><time>2026-04-10T13:30:25Z</time></trkpt><trkpt lat="43.17698290878364" lon="12.313512480779098"><ele>268.0</ele><time>2026-04-10T13:30:26Z</time></trkpt><trkpt lat="43.17691972469845" lon="12.313604240108981"><ele>268.0</ele><time>2026-04-10T13:30:27Z</time></trkpt><trkpt lat="43.17683405358145" lon="12.313673167903833"><ele>268.0</ele><time>2026-04-10T13:30:28Z</time></trkpt><trkpt lat="43.17673808166896" lon="12.313697521451111"><ele>268.0</ele><time>2026-04-10T13:30:29Z</time></trkpt><trkpt lat="43.176647441823995" lon="12.313735918978436"><ele>268.0</ele><time>2026-04-10T13:30:30Z</time></trkpt><trkpt lat="43.17655339701806" lon="12.313745206046232"><ele>268.0</ele><time>2026-04-10T13:30:31Z</time></trkpt><trkpt lat="43.17645859879498" lon="12.313761260900666"><ele>267.6</ele><time>2026-04-10T13:30:32Z</time></trkpt><trkpt lat="43.176362632451195" lon="12.313791963908365"><ele>267.20000000000005</ele><time>2026-04-10T13:30:33Z</time></trkpt><trkpt lat="43.1762772840123" lon="12.31384112090223"><ele>266.8</ele><time>2026-04-10T13:30:34Z</time></trkpt><trkpt lat="43.17619819454941" lon="12.313907625819986"><ele>266.40000000000003</ele><time>2026-04-10T13:30:35Z</time></trkpt><trkpt lat="43.17612565987474" lon="12.313988891383858"><ele>266.0</ele><time>2026-04-10T13:30:36Z</time></trkpt><trkpt lat="43.17605470004356" lon="12.314068240083422"><ele>266.0</ele><time>2026-04-10T13:30:37Z</time></trkpt><trkpt lat="43.175980503337456" lon="12.314145253468967"><ele>266.0</ele><time>2026-04-10T13:30:38Z</time></trkpt><trkpt lat="43.17590604053984" lon="12.314224745335459"><ele>266.0</ele><time>2026-04-10T13:30:39Z</time></trkpt><trkpt lat="43.17583088176147" lon="12.314306003685301"><ele>266.0</ele><time>2026-04-10T13:30:40Z</time></trkpt><trkpt lat="43.175759642645076" lon="12.314385612456798"><ele>266.0</ele><time>2026-04-10T13:30:41Z</time></trkpt><trkpt lat="43.17568609690346" lon="12.314466564346949"><ele>265.8</ele><time>2026-04-10T13:30:42Z</time></trkpt><trkpt lat="43.175610668541694" lon="12.314543364826397"><ele>265.6</ele><time>2026-04-10T13:30:43Z</time></trkpt><trkpt lat="43.175536033007596" lon="12.314619228560826"><ele>265.4</ele><time>2026-04-10T13:30:44Z</time></trkpt><trkpt lat="43.175461351930515" lon="12.314698579051212"><ele>265.2</ele><time>2026-04-10T13:30:45Z</time></trkpt><trkpt lat="43.175386207884976" lon="12.314779857014845"><ele>265.0</ele><time>2026-04-10T13:30:46Z</time></trkpt><trkpt lat="43.17530665170869" lon="12.314859157485726"><ele>265.0</ele><time>2026-04-10T13:30:47Z</time></trkpt><trkpt lat="43.17522912220983" lon="12.31493221418187"><ele>265.0</ele><time>2026-04-10T13:30:48Z</time></trkpt><trkpt lat="43.175151666847334" lon="12.315005748276208"><ele>265.0</ele><time>2026-04-10T13:30:49Z</time></trkpt><trkpt lat="43.1750742983609" lon="12.315082592338594"><ele>265.0</ele><time>2026-04-10T13:30:50Z</time></trkpt><trkpt lat="43.17500180789017" lon="12.315157725021605"><ele>265.0</ele><time>2026-04-10T13:30:51Z</time></trkpt><trkpt lat="43.17492740213091" lon="12.31523033279761"><ele>265.0</ele><time>2026-04-10T13:30:52Z</time></trkpt><trkpt lat="43.174850912579366" lon="12.31530235027401"><ele>265.0</ele><time>2026-04-10T13:30:53Z</time></trkpt><trkpt lat="43.174780200579725" lon="12.315366486815737"><ele>265.0</ele><time>2026-04-10T13:30:54Z</time></trkpt><trkpt lat="43.17472123831687" lon="12.315427397473288"><ele>265.0</ele><time>2026-04-10T13:30:55Z</time></trkpt><trkpt lat="43.17467228051762" lon="12.315485340343614"><ele>265.0</ele><time>2026-04-10T13:30:56Z</time></trkpt><trkpt lat="43.17461078385568" lon="12.315522000372336"><ele>265.0</ele><time>2026-04-10T13:30:57Z</time></trkpt><trkpt lat="43.1745480434853" lon="12.315581576143295"><ele>265.0</ele><time>2026-04-10T13:30:58Z</time></trkpt><trkpt lat="43.17448844896622" lon="12.315658426358166"><ele>265.0</ele><time>2026-04-10T13:30:59Z</time></trkpt><trkpt lat="43.17444060857438" lon="12.315731274303904"><ele>265.0</ele><time>2026-04-10T13:31:00Z</time></trkpt><trkpt lat="43.1743472454488" lon="12.31578150584609"><ele>265.0</ele><time>2026-04-10T13:31:02Z</time></trkpt><trkpt lat="43.17428691628076" lon="12.31588181385258"><ele>265.0</ele><time>2026-04-10T13:31:04Z</time></trkpt><trkpt lat="43.174233729825445" lon="12.315943997220174"><ele>265.0</ele><time>2026-04-10T13:31:05Z</time></trkpt><trkpt lat="43.17418023058875" lon="12.315997013591776"><ele>265.0</ele><time>2026-04-10T13:31:06Z</time></trkpt><trkpt lat="43.1741133409325" lon="12.31603675254539"><ele>265.0</ele><time>2026-04-10T13:31:07Z</time></trkpt><trkpt lat="43.174053674607556" lon="12.316095550766017"><ele>265.0</ele><time>2026-04-10T13:31:08Z</time></trkpt><trkpt lat="43.17398430230164" lon="12.316163913749616"><ele>265.0</ele><time>2026-04-10T13:31:09Z</time></trkpt><trkpt lat="43.17392020793106" lon="12.316227289545552"><ele>265.0</ele><time>2026-04-10T13:31:10Z</time></trkpt><trkpt lat="43.173854541172275" lon="12.316293679657365"><ele>265.0</ele><time>2026-04-10T13:31:11Z</time></trkpt><trkpt lat="43.17378582844295" lon="12.316363149289948"><ele>265.3333333333333</ele><time>2026-04-10T13:31:12Z</time></trkpt><trkpt lat="43.173715709542215" lon="12.316434040585419"><ele>265.66666666666663</ele><time>2026-04-10T13:31:13Z</time></trkpt><trkpt lat="43.17364794012246" lon="12.316502556519435"><ele>266.0</ele><time>2026-04-10T13:31:14Z</time></trkpt><trkpt lat="43.17357889423024" lon="12.316567700942684"><ele>266.3333333333333</ele><time>2026-04-10T13:31:15Z</time></trkpt><trkpt lat="43.17350843650146" lon="12.316631379335838"><ele>266.6666666666667</ele><time>2026-04-10T13:31:16Z</time></trkpt><trkpt lat="43.17343939934617" lon="12.31669104243997"><ele>267.0</ele><time>2026-04-10T13:31:17Z</time></trkpt><trkpt lat="43.17336878883856" lon="12.316752065261156"><ele>267.0</ele><time>2026-04-10T13:31:18Z</time></trkpt><trkpt lat="43.17329946397766" lon="12.31681609271044"><ele>267.0</ele><time>2026-04-10T13:31:19Z</time></trkpt><trkpt lat="43.17323927296603" lon="12.316889572531723"><ele>267.0</ele><time>2026-04-10T13:31:20Z</time></trkpt><trkpt lat="43.17318211087803" lon="12.316962490365468"><ele>267.0</ele><time>2026-04-10T13:31:21Z</time></trkpt><trkpt lat="43.173129007188784" lon="12.317042051915461"><ele>267.0</ele><time>2026-04-10T13:31:22Z</time></trkpt><trkpt lat="43.173051380919254" lon="12.317136298829235"><ele>267.0</ele><time>2026-04-10T13:31:24Z</time></trkpt><trkpt lat="43.172996617816416" lon="12.317194799154292"><ele>267.0</ele><time>2026-04-10T13:31:26Z</time></trkpt><trkpt lat="43.17289356545879" lon="12.317285069349465"><ele>267.0</ele><time>2026-04-10T13:31:28Z</time></trkpt><trkpt lat="43.17283570463622" lon="12.317340654708595"><ele>267.0</ele><time>2026-04-10T13:31:29Z</time></trkpt><trkpt lat="43.17276906329393" lon="12.317394234734545"><ele>267.0</ele><time>2026-04-10T13:31:30Z</time></trkpt><trkpt lat="43.172708129564256" lon="12.317454457822892"><ele>267.0</ele><time>2026-04-10T13:31:31Z</time></trkpt><trkpt lat="43.17265153987464" lon="12.317507082473528"><ele>267.0</ele><time>2026-04-10T13:31:32Z</time></trkpt><trkpt lat="43.1725938985142" lon="12.317546548155908"><ele>267.0</ele><time>2026-04-10T13:31:33Z</time></trkpt><trkpt lat="43.17251554120683" lon="12.317633370410407"><ele>267.0</ele><time>2026-04-10T13:31:35Z</time></trkpt><trkpt lat="43.172414749562186" lon="12.317734162057494"><ele>267.0</ele><time>2026-04-10T13:31:37Z</time></trkpt><trkpt lat="43.172345246778335" lon="12.31778490781891"><ele>267.0</ele><time>2026-04-10T13:31:38Z</time></trkpt><trkpt lat="43.172295146419515" lon="12.317849927119232"><ele>267.0</ele><time>2026-04-10T13:31:39Z</time></trkpt><trkpt lat="43.17223838078707" lon="12.317928448050594"><ele>267.0</ele><time>2026-04-10T13:31:40Z</time></trkpt><trkpt lat="43.1721725188619" lon="12.318000957648707"><ele>267.0</ele><time>2026-04-10T13:31:41Z</time></trkpt><trkpt lat="43.17211224470935" lon="12.318057765191677"><ele>267.0</ele><time>2026-04-10T13:31:42Z</time></trkpt><trkpt lat="43.1720420940649" lon="12.31812056240957"><ele>267.0</ele><time>2026-04-10T13:31:43Z</time></trkpt><trkpt lat="43.1719631446808" lon="12.318190670423038"><ele>267.0</ele><time>2026-04-10T13:31:44Z</time></trkpt><trkpt lat="43.17188772161944" lon="12.3182657748638"><ele>267.0</ele><time>2026-04-10T13:31:45Z</time></trkpt><trkpt lat="43.17181131322584" lon="12.318339444236516"><ele>267.0</ele><time>2026-04-10T13:31:46Z</time></trkpt><trkpt lat="43.17173689663744" lon="12.318417478064369"><ele>267.0</ele><time>2026-04-10T13:31:47Z</time></trkpt><trkpt lat="43.17165937716153" lon="12.318496200139398"><ele>267.0</ele><time>2026-04-10T13:31:48Z</time></trkpt><trkpt lat="43.171583664242284" lon="12.318573625153522"><ele>267.0</ele><time>2026-04-10T13:31:49Z</time></trkpt><trkpt lat="43.17150804886246" lon="12.318645705567533"><ele>267.0</ele><time>2026-04-10T13:31:50Z</time></trkpt><trkpt lat="43.171430986574826" lon="12.318718270772374"><ele>266.6</ele><time>2026-04-10T13:31:51Z</time></trkpt><trkpt lat="43.17135605994663" lon="12.31879313202844"><ele>266.2</ele><time>2026-04-10T13:31:52Z</time></trkpt><trkpt lat="43.17128091851833" lon="12.31886838918871"><ele>265.8</ele><time>2026-04-10T13:31:53Z</time></trkpt><trkpt lat="43.17120597577574" lon="12.318942686461591"><ele>265.4</ele><time>2026-04-10T13:31:54Z</time></trkpt><trkpt lat="43.17113031332078" lon="12.31901750769307"><ele>265.0</ele><time>2026-04-10T13:31:55.001Z</time></trkpt><trkpt lat="43.17105566539266" lon="12.319090839073922"><ele>265.0</ele><time>2026-04-10T13:31:56.001Z</time></trkpt><trkpt lat="43.17098013480918" lon="12.319168292190518"><ele>265.0</ele><time>2026-04-10T13:31:57.001Z</time></trkpt><trkpt lat="43.17090634805935" lon="12.319245020408017"><ele>265.0</ele><time>2026-04-10T13:31:58.001Z</time></trkpt><trkpt lat="43.170830057477176" lon="12.319318961625441"><ele>265.0</ele><time>2026-04-10T13:31:59.001Z</time></trkpt><trkpt lat="43.17075405523141" lon="12.319394853595492"><ele>265.0</ele><time>2026-04-10T13:32:00.001Z</time></trkpt><trkpt lat="43.17067827134554" lon="12.31946894420731"><ele>265.0</ele><time>2026-04-10T13:32:01.001Z</time></trkpt><trkpt lat="43.170603500800894" lon="12.319543640558038"><ele>265.0</ele><time>2026-04-10T13:32:02.001Z</time></trkpt><trkpt lat="43.17052764905963" lon="12.319621621599103"><ele>265.0</ele><time>2026-04-10T13:32:03.001Z</time></trkpt><trkpt lat="43.170451031817365" lon="12.319697860421407"><ele>265.0</ele><time>2026-04-10T13:32:04.001Z</time></trkpt><trkpt lat="43.17037511060753" lon="12.319773730919643"><ele>265.0</ele><time>2026-04-10T13:32:05.001Z</time></trkpt><trkpt lat="43.170300060475824" lon="12.31984706986798"><ele>265.4</ele><time>2026-04-10T13:32:06.001Z</time></trkpt><trkpt lat="43.17022564819496" lon="12.319920733367427"><ele>265.8</ele><time>2026-04-10T13:32:07.001Z</time></trkpt><trkpt lat="43.170152265035" lon="12.319996772312743"><ele>266.2</ele><time>2026-04-10T13:32:08.001Z</time></trkpt><trkpt lat="43.17007677718871" lon="12.320074556696774"><ele>266.6</ele><time>2026-04-10T13:32:09.001Z</time></trkpt><trkpt lat="43.169999628584044" lon="12.32015126837636"><ele>267.0</ele><time>2026-04-10T13:32:10.001Z</time></trkpt><trkpt lat="43.16992088703938" lon="12.320229043375676"><ele>267.0</ele><time>2026-04-10T13:32:11.001Z</time></trkpt><trkpt lat="43.169846027897094" lon="12.32030761396289"><ele>267.0</ele><time>2026-04-10T13:32:12.001Z</time></trkpt><trkpt lat="43.169770519651365" lon="12.32038463753021"><ele>267.0</ele><time>2026-04-10T13:32:13.001Z</time></trkpt><trkpt lat="43.16969758930146" lon="12.320461765909872"><ele>267.0</ele><time>2026-04-10T13:32:14.001Z</time></trkpt><trkpt lat="43.16962197599735" lon="12.320537283264235"><ele>267.0</ele><time>2026-04-10T13:32:15.001Z</time></trkpt><trkpt lat="43.169545962414844" lon="12.320613913205035"><ele>266.8</ele><time>2026-04-10T13:32:16.001Z</time></trkpt><trkpt lat="43.16946999077181" lon="12.320691050136823"><ele>266.6</ele><time>2026-04-10T13:32:17.001Z</time></trkpt><trkpt lat="43.16939391895112" lon="12.32076917185626"><ele>266.40000000000003</ele><time>2026-04-10T13:32:18.001Z</time></trkpt><trkpt lat="43.16931978687038" lon="12.320844100249703"><ele>266.2</ele><time>2026-04-10T13:32:19.001Z</time></trkpt><trkpt lat="43.16924570984083" lon="12.320920403814279"><ele>266.0</ele><time>2026-04-10T13:32:20.001Z</time></trkpt><trkpt lat="43.16917143033326" lon="12.320996742666496"><ele>266.0</ele><time>2026-04-10T13:32:21.001Z</time></trkpt><trkpt lat="43.16909823890363" lon="12.321070929650308"><ele>266.0</ele><time>2026-04-10T13:32:22.001Z</time></trkpt><trkpt lat="43.169027619044826" lon="12.321148332745588"><ele>266.0</ele><time>2026-04-10T13:32:23.001Z</time></trkpt><trkpt lat="43.168955551693806" lon="12.32122401439917"><ele>266.0</ele><time>2026-04-10T13:32:24.001Z</time></trkpt><trkpt lat="43.16888290182043" lon="12.321298607771165"><ele>266.0</ele><time>2026-04-10T13:32:25.001Z</time></trkpt><trkpt lat="43.16881333095419" lon="12.321378480490326"><ele>267.0</ele><time>2026-04-10T13:32:26.001Z</time></trkpt><trkpt lat="43.16874635153685" lon="12.321468177527581"><ele>268.0</ele><time>2026-04-10T13:32:27.001Z</time></trkpt><trkpt lat="43.168679006288585" lon="12.321557515310184"><ele>269.0</ele><time>2026-04-10T13:32:28.001Z</time></trkpt><trkpt lat="43.16861632698509" lon="12.321652385143546"><ele>270.0</ele><time>2026-04-10T13:32:29.001Z</time></trkpt><trkpt lat="43.16855591243424" lon="12.321749165464341"><ele>271.0</ele><time>2026-04-10T13:32:30.001Z</time></trkpt><trkpt lat="43.168500917553956" lon="12.32184992016139"><ele>271.0</ele><time>2026-04-10T13:32:31.001Z</time></trkpt><trkpt lat="43.168447712297855" lon="12.321950903268734"><ele>271.0</ele><time>2026-04-10T13:32:32.001Z</time></trkpt><trkpt lat="43.16839350778354" lon="12.322048825520303"><ele>271.0</ele><time>2026-04-10T13:32:33.001Z</time></trkpt><trkpt lat="43.168340209046846" lon="12.322145151415677"><ele>271.0</ele><time>2026-04-10T13:32:34.001Z</time></trkpt><trkpt lat="43.16828781686101" lon="12.32223994408332"><ele>271.0</ele><time>2026-04-10T13:32:35.001Z</time></trkpt><trkpt lat="43.16823499568472" lon="12.322332540910669"><ele>271.0</ele><time>2026-04-10T13:32:36.001Z</time></trkpt><trkpt lat="43.16818095450579" lon="12.322426147065709"><ele>272.66666666666663</ele><time>2026-04-10T13:32:37.001Z</time></trkpt><trkpt lat="43.16812795691536" lon="12.322517677027053"><ele>274.3333333333333</ele><time>2026-04-10T13:32:38.001Z</time></trkpt><trkpt lat="43.1680740935829" lon="12.322611327285568"><ele>276.0</ele><time>2026-04-10T13:32:39.001Z</time></trkpt><trkpt lat="43.168023515451246" lon="12.322704769329613"><ele>277.6666666666667</ele><time>2026-04-10T13:32:40.001Z</time></trkpt><trkpt lat="43.16797292103952" lon="12.322797272879264"><ele>279.33333333333337</ele><time>2026-04-10T13:32:41.001Z</time></trkpt><trkpt lat="43.1679226578115" lon="12.322880973717716"><ele>281.0</ele><time>2026-04-10T13:32:42.001Z</time></trkpt><trkpt lat="43.16787368561311" lon="12.322970955175673"><ele>281.0</ele><time>2026-04-10T13:32:43.001Z</time></trkpt><trkpt lat="43.16782288822995" lon="12.323057888763183"><ele>281.0</ele><time>2026-04-10T13:32:44.001Z</time></trkpt><trkpt lat="43.167778327881145" lon="12.323126715066042"><ele>281.0</ele><time>2026-04-10T13:32:45.001Z</time></trkpt><trkpt lat="43.167698520331975" lon="12.323240032614299"><ele>281.0</ele><time>2026-04-10T13:32:47.001Z</time></trkpt><trkpt lat="43.16763890376757" lon="12.3233165683367"><ele>281.0</ele><time>2026-04-10T13:32:49.001Z</time></trkpt><trkpt lat="43.16755476307845" lon="12.323364181225834"><ele>281.0</ele><time>2026-04-10T13:32:52.001Z</time></trkpt><trkpt lat="43.16752468736575" lon="12.323469237662891"><ele>280.6666666666667</ele><time>2026-04-10T13:33:06.001Z</time></trkpt><trkpt lat="43.16751253984691" lon="12.323580170376625"><ele>280.33333333333337</ele><time>2026-04-10T13:33:08.001Z</time></trkpt><trkpt lat="43.167450741292626" lon="12.32370977925215"><ele>280.0</ele><time>2026-04-10T13:33:10.001Z</time></trkpt><trkpt lat="43.16741256677411" lon="12.32378690378585"><ele>279.6666666666667</ele><time>2026-04-10T13:33:11.001Z</time></trkpt><trkpt lat="43.16738109753266" lon="12.323869722250507"><ele>279.3333333333333</ele><time>2026-04-10T13:33:12.001Z</time></trkpt><trkpt lat="43.16735440878206" lon="12.323959813619453"><ele>279.0</ele><time>2026-04-10T13:33:13.001Z</time></trkpt><trkpt lat="43.167331069868105" lon="12.324060251002928"><ele>279.0</ele><time>2026-04-10T13:33:14.001Z</time></trkpt><trkpt lat="43.16731160106738" lon="12.324164384711228"><ele>279.0</ele><time>2026-04-10T13:33:15.001Z</time></trkpt><trkpt lat="43.16729160233279" lon="12.3242727404704"><ele>279.0</ele><time>2026-04-10T13:33:16.001Z</time></trkpt><trkpt lat="43.1672773445423" lon="12.324384729579403"><ele>279.0</ele><time>2026-04-10T13:33:17.001Z</time></trkpt><trkpt lat="43.167259492811205" lon="12.324493551452374"><ele>279.0</ele><time>2026-04-10T13:33:18.001Z</time></trkpt><trkpt lat="43.16724148546877" lon="12.324604554433622"><ele>279.0</ele><time>2026-04-10T13:33:19.001Z</time></trkpt><trkpt lat="43.16722001832018" lon="12.32471751318909"><ele>279.3333333333333</ele><time>2026-04-10T13:33:20.001Z</time></trkpt><trkpt lat="43.167200610778444" lon="12.324824088170544"><ele>279.6666666666667</ele><time>2026-04-10T13:33:21.001Z</time></trkpt><trkpt lat="43.167184215315054" lon="12.324934712284225"><ele>280.0</ele><time>2026-04-10T13:33:22.001Z</time></trkpt><trkpt lat="43.16716371123125" lon="12.32504953284404"><ele>280.33333333333337</ele><time>2026-04-10T13:33:23.001Z</time></trkpt><trkpt lat="43.16714574506966" lon="12.32516278899165"><ele>280.6666666666667</ele><time>2026-04-10T13:33:24.001Z</time></trkpt><trkpt lat="43.16713129586017" lon="12.325271556668728"><ele>281.0</ele><time>2026-04-10T13:33:25.001Z</time></trkpt><trkpt lat="43.16711823075976" lon="12.325382048918906"><ele>281.0</ele><time>2026-04-10T13:33:26.001Z</time></trkpt><trkpt lat="43.16709829254426" lon="12.325491268102288"><ele>281.0</ele><time>2026-04-10T13:33:27.001Z</time></trkpt><trkpt lat="43.16707816276895" lon="12.325600506863458"><ele>281.0</ele><time>2026-04-10T13:33:28.001Z</time></trkpt><trkpt lat="43.16706283135081" lon="12.325716378956322"><ele>281.0</ele><time>2026-04-10T13:33:29.001Z</time></trkpt><trkpt lat="43.16704875507687" lon="12.325830153954406"><ele>281.0</ele><time>2026-04-10T13:33:30.001Z</time></trkpt><trkpt lat="43.16703510711291" lon="12.32594343870423"><ele>281.0</ele><time>2026-04-10T13:33:31.001Z</time></trkpt><trkpt lat="43.16701785303448" lon="12.326053645580446"><ele>281.0</ele><time>2026-04-10T13:33:32.001Z</time></trkpt><trkpt lat="43.16700047988204" lon="12.326166276119071"><ele>281.0</ele><time>2026-04-10T13:33:33.001Z</time></trkpt><trkpt lat="43.16698101883816" lon="12.326281589915835"><ele>281.0</ele><time>2026-04-10T13:33:34.001Z</time></trkpt><trkpt lat="43.166959104967944" lon="12.326396923651576"><ele>281.0</ele><time>2026-04-10T13:33:35.001Z</time></trkpt><trkpt lat="43.166929346520654" lon="12.326505908060605"><ele>281.0</ele><time>2026-04-10T13:33:36.001Z</time></trkpt><trkpt lat="43.16689061442981" lon="12.326613121382906"><ele>281.0</ele><time>2026-04-10T13:33:37.001Z</time></trkpt><trkpt lat="43.166848877820364" lon="12.32672292094815"><ele>281.0</ele><time>2026-04-10T13:33:38.001Z</time></trkpt><trkpt lat="43.16679625846315" lon="12.32681932966351"><ele>281.0</ele><time>2026-04-10T13:33:39.001Z</time></trkpt><trkpt lat="43.166736149893964" lon="12.32691358391651"><ele>281.0</ele><time>2026-04-10T13:33:40.001Z</time></trkpt><trkpt lat="43.16667243417291" lon="12.326999450114638"><ele>281.0</ele><time>2026-04-10T13:33:41.001Z</time></trkpt><trkpt lat="43.16661011949345" lon="12.327087057866477"><ele>281.0</ele><time>2026-04-10T13:33:42.001Z</time></trkpt><trkpt lat="43.16655032126642" lon="12.327171027425006"><ele>281.0</ele><time>2026-04-10T13:33:43.001Z</time></trkpt><trkpt lat="43.1664911991739" lon="12.327248634570767"><ele>282.33333333333337</ele><time>2026-04-10T13:33:44.001Z</time></trkpt><trkpt lat="43.16643474484864" lon="12.327325907558533"><ele>283.6666666666667</ele><time>2026-04-10T13:33:45.001Z</time></trkpt><trkpt lat="43.16637918090192" lon="12.327400429285067"><ele>285.0</ele><time>2026-04-10T13:33:46.001Z</time></trkpt><trkpt lat="43.166324474028805" lon="12.3274777889048"><ele>286.3333333333333</ele><time>2026-04-10T13:33:47.001Z</time></trkpt><trkpt lat="43.16627172664248" lon="12.32755282255482"><ele>287.66666666666663</ele><time>2026-04-10T13:33:48.001Z</time></trkpt><trkpt lat="43.16621630631361" lon="12.32762551509731"><ele>289.0</ele><time>2026-04-10T13:33:49.001Z</time></trkpt><trkpt lat="43.16616021778684" lon="12.32769403023623"><ele>289.0</ele><time>2026-04-10T13:33:50.001Z</time></trkpt><trkpt lat="43.16610415391502" lon="12.327759862988858"><ele>289.0</ele><time>2026-04-10T13:33:51.001Z</time></trkpt><trkpt lat="43.166049684005145" lon="12.327828436779546"><ele>289.0</ele><time>2026-04-10T13:33:52.001Z</time></trkpt><trkpt lat="43.1659949794282" lon="12.327899955752825"><ele>289.0</ele><time>2026-04-10T13:33:53.001Z</time></trkpt><trkpt lat="43.16593872256331" lon="12.327968176274362"><ele>289.0</ele><time>2026-04-10T13:33:54.001Z</time></trkpt><trkpt lat="43.16588300934121" lon="12.328040212668794"><ele>289.0</ele><time>2026-04-10T13:33:55.001Z</time></trkpt><trkpt lat="43.165827027904044" lon="12.328112845417772"><ele>288.66666666666663</ele><time>2026-04-10T13:33:56.001Z</time></trkpt><trkpt lat="43.165767373929896" lon="12.328182301351092"><ele>288.3333333333333</ele><time>2026-04-10T13:33:57.001Z</time></trkpt><trkpt lat="43.16569506824182" lon="12.328253864338846"><ele>288.0</ele><time>2026-04-10T13:33:58.001Z</time></trkpt><trkpt lat="43.165626390733834" lon="12.328335676448017"><ele>287.6666666666667</ele><time>2026-04-10T13:33:59.001Z</time></trkpt><trkpt lat="43.16555313992087" lon="12.32838345976696"><ele>287.33333333333337</ele><time>2026-04-10T13:34:00.001Z</time></trkpt><trkpt lat="43.16547430404254" lon="12.32844509699619"><ele>287.0</ele><time>2026-04-10T13:34:01.001Z</time></trkpt><trkpt lat="43.165385726263416" lon="12.328496617375261"><ele>286.8</ele><time>2026-04-10T13:34:02.001Z</time></trkpt><trkpt lat="43.16529580451511" lon="12.328540297265501"><ele>286.6</ele><time>2026-04-10T13:34:03.001Z</time></trkpt><trkpt lat="43.16520021914355" lon="12.328589448517823"><ele>286.40000000000003</ele><time>2026-04-10T13:34:04.001Z</time></trkpt><trkpt lat="43.165105456053425" lon="12.328634777673608"><ele>286.2</ele><time>2026-04-10T13:34:05.001Z</time></trkpt><trkpt lat="43.165010906494594" lon="12.328681619170757"><ele>286.0</ele><time>2026-04-10T13:34:06.001Z</time></trkpt><trkpt lat="43.16491398550469" lon="12.328726299856328"><ele>285.8</ele><time>2026-04-10T13:34:07.001Z</time></trkpt><trkpt lat="43.16481687845211" lon="12.32876620991829"><ele>285.6</ele><time>2026-04-10T13:34:08.001Z</time></trkpt><trkpt lat="43.164714673956205" lon="12.328797500909129"><ele>285.4</ele><time>2026-04-10T13:34:09.001Z</time></trkpt><trkpt lat="43.16461132223777" lon="12.328820667259103"><ele>285.2</ele><time>2026-04-10T13:34:10.001Z</time></trkpt><trkpt lat="43.16450674100843" lon="12.328837197252229"><ele>285.0</ele><time>2026-04-10T13:34:11.001Z</time></trkpt><trkpt lat="43.16439927315265" lon="12.328851885933227"><ele>285.0</ele><time>2026-04-10T13:34:12.001Z</time></trkpt><trkpt lat="43.16429116479493" lon="12.328865169319865"><ele>285.0</ele><time>2026-04-10T13:34:13.001Z</time></trkpt><trkpt lat="43.16418421148467" lon="12.32887452754283"><ele>285.0</ele><time>2026-04-10T13:34:14.001Z</time></trkpt><trkpt lat="43.16407352785014" lon="12.328877275159376"><ele>285.0</ele><time>2026-04-10T13:34:15.001Z</time></trkpt><trkpt lat="43.16395946413215" lon="12.328881781671097"><ele>285.0</ele><time>2026-04-10T13:34:16.001Z</time></trkpt><trkpt lat="43.16384275941398" lon="12.32888406418927"><ele>282.75</ele><time>2026-04-10T13:34:17.001Z</time></trkpt><trkpt lat="43.163719799363236" lon="12.328889368792536"><ele>280.5</ele><time>2026-04-10T13:34:18.001Z</time></trkpt><trkpt lat="43.16359835863484" lon="12.328886256520384"><ele>278.25</ele><time>2026-04-10T13:34:19.001Z</time></trkpt><trkpt lat="43.16347271194678" lon="12.328886006887974"><ele>276.0</ele><time>2026-04-10T13:34:20.001Z</time></trkpt><trkpt lat="43.16334649751763" lon="12.328889003754457"><ele>275.0</ele><time>2026-04-10T13:34:21.001Z</time></trkpt><trkpt lat="43.163223619479886" lon="12.328893739790901"><ele>274.0</ele><time>2026-04-10T13:34:22.001Z</time></trkpt><trkpt lat="43.16310576563379" lon="12.328913578516998"><ele>273.0</ele><time>2026-04-10T13:34:23.001Z</time></trkpt><trkpt lat="43.16299342586483" lon="12.328948274493948"><ele>272.0</ele><time>2026-04-10T13:34:24.001Z</time></trkpt><trkpt lat="43.16288794159732" lon="12.329000128183244"><ele>272.0</ele><time>2026-04-10T13:34:25.001Z</time></trkpt><trkpt lat="43.16278908081595" lon="12.329062097433578"><ele>272.0</ele><time>2026-04-10T13:34:26.001Z</time></trkpt><trkpt lat="43.16269735109457" lon="12.329113409941117"><ele>272.0</ele><time>2026-04-10T13:34:27.001Z</time></trkpt><trkpt lat="43.16260059572416" lon="12.329147274020913"><ele>272.0</ele><time>2026-04-10T13:34:28.001Z</time></trkpt><trkpt lat="43.16250341969361" lon="12.329154225070521"><ele>272.0</ele><time>2026-04-10T13:34:29.001Z</time></trkpt><trkpt lat="43.16241106342314" lon="12.329149796206629"><ele>272.6666666666667</ele><time>2026-04-10T13:34:30.001Z</time></trkpt><trkpt lat="43.162315752776045" lon="12.329149023092054"><ele>273.33333333333337</ele><time>2026-04-10T13:34:31.001Z</time></trkpt><trkpt lat="43.16223019922775" lon="12.329134225717567"><ele>274.0</ele><time>2026-04-10T13:34:32.001Z</time></trkpt><trkpt lat="43.16214225743676" lon="12.329123609400723"><ele>274.6666666666667</ele><time>2026-04-10T13:34:33.001Z</time></trkpt><trkpt lat="43.1620544746853" lon="12.329115644569084"><ele>275.3333333333333</ele><time>2026-04-10T13:34:34.001Z</time></trkpt><trkpt lat="43.16196828141203" lon="12.329113389497568"><ele>276.0</ele><time>2026-04-10T13:34:35.001Z</time></trkpt><trkpt lat="43.16188567397804" lon="12.329117495100988"><ele>276.0</ele><time>2026-04-10T13:34:36.001Z</time></trkpt><trkpt lat="43.16180227612353" lon="12.329121517776336"><ele>276.0</ele><time>2026-04-10T13:34:37.001Z</time></trkpt><trkpt lat="43.16172010659741" lon="12.329130881341637"><ele>276.0</ele><time>2026-04-10T13:34:38.001Z</time></trkpt><trkpt lat="43.16163591571548" lon="12.329148753469314"><ele>276.0</ele><time>2026-04-10T13:34:39.001Z</time></trkpt><trkpt lat="43.16155337267827" lon="12.32916219845538"><ele>276.0</ele><time>2026-04-10T13:34:40.001Z</time></trkpt><trkpt lat="43.16147712167906" lon="12.329178062850856"><ele>276.0</ele><time>2026-04-10T13:34:41.001Z</time></trkpt><trkpt lat="43.16139615953903" lon="12.329191643793836"><ele>275.3333333333333</ele><time>2026-04-10T13:34:42.001Z</time></trkpt><trkpt lat="43.16131558389634" lon="12.329215504953968"><ele>274.6666666666667</ele><time>2026-04-10T13:34:43.001Z</time></trkpt><trkpt lat="43.16123309167829" lon="12.3292377932627"><ele>274.0</ele><time>2026-04-10T13:34:44.001Z</time></trkpt><trkpt lat="43.161150823834625" lon="12.329267874391187"><ele>273.33333333333337</ele><time>2026-04-10T13:34:45.001Z</time></trkpt><trkpt lat="43.16106754547796" lon="12.329306494657565"><ele>272.6666666666667</ele><time>2026-04-10T13:34:46.001Z</time></trkpt><trkpt lat="43.16098561385141" lon="12.329363283685483"><ele>272.0</ele><time>2026-04-10T13:34:47.001Z</time></trkpt><trkpt lat="43.160907274742854" lon="12.329425948651144"><ele>272.0</ele><time>2026-04-10T13:34:48.001Z</time></trkpt><trkpt lat="43.160830564155106" lon="12.329492740857658"><ele>272.0</ele><time>2026-04-10T13:34:49.001Z</time></trkpt><trkpt lat="43.16076049630777" lon="12.329578474388528"><ele>272.0</ele><time>2026-04-10T13:34:50.001Z</time></trkpt><trkpt lat="43.160689465927774" lon="12.329665393520566"><ele>272.0</ele><time>2026-04-10T13:34:51.001Z</time></trkpt><trkpt lat="43.16062070446707" lon="12.32975091808573"><ele>272.0</ele><time>2026-04-10T13:34:52.001Z</time></trkpt><trkpt lat="43.16055055642949" lon="12.329839072240118"><ele>272.2</ele><time>2026-04-10T13:34:53.001Z</time></trkpt><trkpt lat="43.16048238682297" lon="12.3299284622201"><ele>272.4</ele><time>2026-04-10T13:34:54.001Z</time></trkpt><trkpt lat="43.16041296693292" lon="12.33001840794496"><ele>272.6</ele><time>2026-04-10T13:34:55.001Z</time></trkpt><trkpt lat="43.160350018441946" lon="12.330111836330067"><ele>272.8</ele><time>2026-04-10T13:34:56.001Z</time></trkpt><trkpt lat="43.160287783536965" lon="12.330208075149944"><ele>273.0</ele><time>2026-04-10T13:34:57.001Z</time></trkpt><trkpt lat="43.16022350212243" lon="12.330297539851614"><ele>273.0</ele><time>2026-04-10T13:34:58.001Z</time></trkpt><trkpt lat="43.16015847261915" lon="12.3303873065367"><ele>273.0</ele><time>2026-04-10T13:34:59.001Z</time></trkpt><trkpt lat="43.160096432095486" lon="12.330476569506777"><ele>273.0</ele><time>2026-04-10T13:35:00.001Z</time></trkpt><trkpt lat="43.16003245110322" lon="12.330569219285342"><ele>273.0</ele><time>2026-04-10T13:35:01.001Z</time></trkpt><trkpt lat="43.15996741874993" lon="12.330663021185442"><ele>273.0</ele><time>2026-04-10T13:35:02.001Z</time></trkpt><trkpt lat="43.15990377354509" lon="12.330747963416187"><ele>273.4</ele><time>2026-04-10T13:35:03.001Z</time></trkpt><trkpt lat="43.15984066109434" lon="12.330841552800383"><ele>273.8</ele><time>2026-04-10T13:35:04.001Z</time></trkpt><trkpt lat="43.15976926195306" lon="12.330926689475964"><ele>274.2</ele><time>2026-04-10T13:35:05.001Z</time></trkpt><trkpt lat="43.159701457744035" lon="12.331012933197078"><ele>274.6</ele><time>2026-04-10T13:35:06.001Z</time></trkpt><trkpt lat="43.159633396977" lon="12.331102233940017"><ele>275.0</ele><time>2026-04-10T13:35:07.001Z</time></trkpt><trkpt lat="43.159570844062905" lon="12.331197587759302"><ele>275.0</ele><time>2026-04-10T13:35:08.001Z</time></trkpt><trkpt lat="43.1595067324205" lon="12.331290912204647"><ele>275.0</ele><time>2026-04-10T13:35:09.001Z</time></trkpt><trkpt lat="43.159444982305004" lon="12.331384748335402"><ele>275.0</ele><time>2026-04-10T13:35:10.001Z</time></trkpt><trkpt lat="43.15938663017028" lon="12.331488647671998"><ele>275.0</ele><time>2026-04-10T13:35:11.001Z</time></trkpt><trkpt lat="43.15932421678511" lon="12.331581628857851"><ele>275.0</ele><time>2026-04-10T13:35:12.001Z</time></trkpt><trkpt lat="43.159260034430346" lon="12.331674449191137"><ele>275.0</ele><time>2026-04-10T13:35:13.001Z</time></trkpt><trkpt lat="43.15919907786795" lon="12.331768162265513"><ele>275.0</ele><time>2026-04-10T13:35:14.001Z</time></trkpt><trkpt lat="43.15913599844265" lon="12.33186016365235"><ele>275.0</ele><time>2026-04-10T13:35:15.001Z</time></trkpt><trkpt lat="43.159078868667926" lon="12.331961087753493"><ele>275.0</ele><time>2026-04-10T13:35:16.001Z</time></trkpt><trkpt lat="43.159019067945934" lon="12.332053220915196"><ele>275.0</ele><time>2026-04-10T13:35:17.001Z</time></trkpt><trkpt lat="43.15895388651942" lon="12.33213787050406"><ele>275.4</ele><time>2026-04-10T13:35:18.001Z</time></trkpt><trkpt lat="43.15889542059926" lon="12.332236370655488"><ele>275.8</ele><time>2026-04-10T13:35:19.001Z</time></trkpt><trkpt lat="43.15884145566756" lon="12.332335506677353"><ele>276.2</ele><time>2026-04-10T13:35:20.001Z</time></trkpt><trkpt lat="43.15878885651257" lon="12.332433715027497"><ele>276.6</ele><time>2026-04-10T13:35:21.001Z</time></trkpt><trkpt lat="43.15873050229956" lon="12.33252571410152"><ele>277.0</ele><time>2026-04-10T13:35:22.001Z</time></trkpt><trkpt lat="43.158675008452235" lon="12.332621180366965"><ele>277.0</ele><time>2026-04-10T13:35:23.001Z</time></trkpt><trkpt lat="43.15861690026319" lon="12.332716656206587"><ele>277.0</ele><time>2026-04-10T13:35:24.001Z</time></trkpt><trkpt lat="43.15855719387893" lon="12.332808392673538"><ele>277.0</ele><time>2026-04-10T13:35:25.001Z</time></trkpt><trkpt lat="43.15850394236056" lon="12.332901650587036"><ele>277.0</ele><time>2026-04-10T13:35:26.001Z</time></trkpt><trkpt lat="43.15844623402334" lon="12.332995397380458"><ele>277.0</ele><time>2026-04-10T13:35:27.001Z</time></trkpt><trkpt lat="43.158391424352565" lon="12.333087228300053"><ele>277.0</ele><time>2026-04-10T13:35:28.001Z</time></trkpt><trkpt lat="43.15833761881321" lon="12.333178173280993"><ele>277.3333333333333</ele><time>2026-04-10T13:35:29.001Z</time></trkpt><trkpt lat="43.158285669224135" lon="12.333274589411376"><ele>277.66666666666663</ele><time>2026-04-10T13:35:30.001Z</time></trkpt><trkpt lat="43.1582320981695" lon="12.333369322572437"><ele>278.0</ele><time>2026-04-10T13:35:31.001Z</time></trkpt><trkpt lat="43.158180287056574" lon="12.33346197766906"><ele>278.3333333333333</ele><time>2026-04-10T13:35:32.001Z</time></trkpt><trkpt lat="43.15812363294463" lon="12.333555457661166"><ele>278.6666666666667</ele><time>2026-04-10T13:35:33.001Z</time></trkpt><trkpt lat="43.15807030342092" lon="12.333652932440634"><ele>279.0</ele><time>2026-04-10T13:35:34.001Z</time></trkpt><trkpt lat="43.158020915209555" lon="12.333755546073494"><ele>279.0</ele><time>2026-04-10T13:35:35.001Z</time></trkpt><trkpt lat="43.157967139939494" lon="12.333850983994084"><ele>279.0</ele><time>2026-04-10T13:35:36.001Z</time></trkpt><trkpt lat="43.15791406153057" lon="12.33395446552878"><ele>279.0</ele><time>2026-04-10T13:35:37.001Z</time></trkpt><trkpt lat="43.157863152544714" lon="12.334057630936698"><ele>279.0</ele><time>2026-04-10T13:35:38.001Z</time></trkpt><trkpt lat="43.15782002894507" lon="12.334174957088605"><ele>279.0</ele><time>2026-04-10T13:35:39.001Z</time></trkpt><trkpt lat="43.15777546523401" lon="12.334288887565057"><ele>279.2</ele><time>2026-04-10T13:35:40.001Z</time></trkpt><trkpt lat="43.15773453738538" lon="12.334408779034314"><ele>279.4</ele><time>2026-04-10T13:35:41.001Z</time></trkpt><trkpt lat="43.15769470203495" lon="12.334525962460022"><ele>279.6</ele><time>2026-04-10T13:35:42.001Z</time></trkpt><trkpt lat="43.15765997737079" lon="12.334641259879305"><ele>279.8</ele><time>2026-04-10T13:35:43.001Z</time></trkpt><trkpt lat="43.15763240600503" lon="12.334764501478887"><ele>280.0</ele><time>2026-04-10T13:35:44.001Z</time></trkpt><trkpt lat="43.15760566932914" lon="12.33488315406676"><ele>280.2</ele><time>2026-04-10T13:35:45.001Z</time></trkpt><trkpt lat="43.157580776405" lon="12.33499991850055"><ele>280.4</ele><time>2026-04-10T13:35:46.001Z</time></trkpt><trkpt lat="43.157556706811896" lon="12.33512646578194"><ele>280.6</ele><time>2026-04-10T13:35:47.001Z</time></trkpt><trkpt lat="43.157529494343045" lon="12.335244758226018"><ele>280.8</ele><time>2026-04-10T13:35:48.001Z</time></trkpt><trkpt lat="43.15749499907247" lon="12.335361537576077"><ele>281.0</ele><time>2026-04-10T13:35:49.001Z</time></trkpt><trkpt lat="43.157456390348884" lon="12.33547655972914"><ele>281.2</ele><time>2026-04-10T13:35:50.001Z</time></trkpt><trkpt lat="43.1574160247583" lon="12.335597478097387"><ele>281.40000000000003</ele><time>2026-04-10T13:35:51.001Z</time></trkpt><trkpt lat="43.15736995703922" lon="12.335713084477446"><ele>281.6</ele><time>2026-04-10T13:35:52.001Z</time></trkpt><trkpt lat="43.15732411119507" lon="12.335828063939623"><ele>281.8</ele><time>2026-04-10T13:35:53.001Z</time></trkpt><trkpt lat="43.1572763881139" lon="12.33594215640778"><ele>282.0</ele><time>2026-04-10T13:35:54.001Z</time></trkpt><trkpt lat="43.1572278437489" lon="12.336051951401897"><ele>281.8</ele><time>2026-04-10T13:35:55.001Z</time></trkpt><trkpt lat="43.15716056274835" lon="12.336147817604681"><ele>281.6</ele><time>2026-04-10T13:35:56.001Z</time></trkpt><trkpt lat="43.157121267207295" lon="12.336261439944678"><ele>281.40000000000003</ele><time>2026-04-10T13:35:57.001Z</time></trkpt><trkpt lat="43.157062555299284" lon="12.336359304410962"><ele>281.2</ele><time>2026-04-10T13:35:58.001Z</time></trkpt><trkpt lat="43.15700568955062" lon="12.3364622283095"><ele>281.0</ele><time>2026-04-10T13:35:59.001Z</time></trkpt><trkpt lat="43.1569555372991" lon="12.336567681057312"><ele>281.0</ele><time>2026-04-10T13:36:00.001Z</time></trkpt><trkpt lat="43.15690651348046" lon="12.336676654887205"><ele>281.0</ele><time>2026-04-10T13:36:01.001Z</time></trkpt><trkpt lat="43.15685748017753" lon="12.336783107926944"><ele>281.0</ele><time>2026-04-10T13:36:02.001Z</time></trkpt><trkpt lat="43.156809116650706" lon="12.33688860163483"><ele>281.0</ele><time>2026-04-10T13:36:03.001Z</time></trkpt><trkpt lat="43.156763233737486" lon="12.337001444101228"><ele>281.0</ele><time>2026-04-10T13:36:04.001Z</time></trkpt><trkpt lat="43.15671814441916" lon="12.337113536363018"><ele>281.40000000000003</ele><time>2026-04-10T13:36:05.001Z</time></trkpt><trkpt lat="43.156671112168716" lon="12.337223819421334"><ele>281.8</ele><time>2026-04-10T13:36:06.001Z</time></trkpt><trkpt lat="43.15662399871001" lon="12.337332914423346"><ele>282.20000000000005</ele><time>2026-04-10T13:36:07.001Z</time></trkpt><trkpt lat="43.156580076112306" lon="12.337449355688081"><ele>282.6</ele><time>2026-04-10T13:36:08.001Z</time></trkpt><trkpt lat="43.15653840531788" lon="12.337564349066948"><ele>283.0</ele><time>2026-04-10T13:36:09.001Z</time></trkpt><trkpt lat="43.156479328718675" lon="12.33766115739903"><ele>283.0</ele><time>2026-04-10T13:36:10.001Z</time></trkpt><trkpt lat="43.15644494418491" lon="12.337782284817989"><ele>283.0</ele><time>2026-04-10T13:36:11.001Z</time></trkpt><trkpt lat="43.15639233901754" lon="12.337885809484234"><ele>283.0</ele><time>2026-04-10T13:36:12.001Z</time></trkpt><trkpt lat="43.156338038525426" lon="12.337990108684012"><ele>283.0</ele><time>2026-04-10T13:36:13.001Z</time></trkpt><trkpt lat="43.156285410040454" lon="12.338092668288892"><ele>283.0</ele><time>2026-04-10T13:36:14.001Z</time></trkpt><trkpt lat="43.15623560892121" lon="12.338199354596009"><ele>283.0</ele><time>2026-04-10T13:36:15.001Z</time></trkpt><trkpt lat="43.15618370231535" lon="12.338302405346832"><ele>283.0</ele><time>2026-04-10T13:36:16.001Z</time></trkpt><trkpt lat="43.15613486237431" lon="12.338407747967562"><ele>283.0</ele><time>2026-04-10T13:36:17.001Z</time></trkpt><trkpt lat="43.156084845160876" lon="12.338513942103381"><ele>283.0</ele><time>2026-04-10T13:36:18.001Z</time></trkpt><trkpt lat="43.15603498725395" lon="12.338620007248831"><ele>283.0</ele><time>2026-04-10T13:36:19.001Z</time></trkpt><trkpt lat="43.15598633410417" lon="12.338730419844829"><ele>283.0</ele><time>2026-04-10T13:36:20.001Z</time></trkpt><trkpt lat="43.15593762197643" lon="12.338836634013417"><ele>283.0</ele><time>2026-04-10T13:36:21.001Z</time></trkpt><trkpt lat="43.155887663730596" lon="12.338947783972868"><ele>283.0</ele><time>2026-04-10T13:36:22.001Z</time></trkpt><trkpt lat="43.15583889745244" lon="12.339051738984848"><ele>283.0</ele><time>2026-04-10T13:36:23.001Z</time></trkpt><trkpt lat="43.15578994308615" lon="12.339158204146974"><ele>283.0</ele><time>2026-04-10T13:36:24.001Z</time></trkpt><trkpt lat="43.155740097721235" lon="12.339265567481586"><ele>283.2</ele><time>2026-04-10T13:36:25.001Z</time></trkpt><trkpt lat="43.15569259375792" lon="12.3393718116041"><ele>283.4</ele><time>2026-04-10T13:36:26.001Z</time></trkpt><trkpt lat="43.155644320484186" lon="12.339480022514822"><ele>283.59999999999997</ele><time>2026-04-10T13:36:27.001Z</time></trkpt><trkpt lat="43.15559730401597" lon="12.339585773355351"><ele>283.8</ele><time>2026-04-10T13:36:28.001Z</time></trkpt><trkpt lat="43.15554324524868" lon="12.339693750008497"><ele>284.0</ele><time>2026-04-10T13:36:29.001Z</time></trkpt><trkpt lat="43.15549370964074" lon="12.339800139955763"><ele>284.4</ele><time>2026-04-10T13:36:30.001Z</time></trkpt><trkpt lat="43.15544534771048" lon="12.339903641851656"><ele>284.79999999999995</ele><time>2026-04-10T13:36:31.001Z</time></trkpt><trkpt lat="43.15539229868988" lon="12.340008922616395"><ele>285.20000000000005</ele><time>2026-04-10T13:36:32.001Z</time></trkpt><trkpt lat="43.155340019253295" lon="12.340113037041903"><ele>285.6</ele><time>2026-04-10T13:36:33.001Z</time></trkpt><trkpt lat="43.155285349965325" lon="12.340214264143897"><ele>286.0</ele><time>2026-04-10T13:36:34.001Z</time></trkpt><trkpt lat="43.15522701286379" lon="12.340315096657699"><ele>286.0</ele><time>2026-04-10T13:36:35.001Z</time></trkpt><trkpt lat="43.15516579052467" lon="12.34041453851151"><ele>286.0</ele><time>2026-04-10T13:36:36.001Z</time></trkpt><trkpt lat="43.15510373761514" lon="12.34050960668488"><ele>286.0</ele><time>2026-04-10T13:36:37.001Z</time></trkpt><trkpt lat="43.15503933891442" lon="12.340602998596049"><ele>286.0</ele><time>2026-04-10T13:36:38.001Z</time></trkpt><trkpt lat="43.15497413554158" lon="12.34069327947336"><ele>286.0</ele><time>2026-04-10T13:36:39.001Z</time></trkpt><trkpt lat="43.15490727315566" lon="12.340779892117887"><ele>286.16666666666663</ele><time>2026-04-10T13:36:40.001Z</time></trkpt><trkpt lat="43.154840824272576" lon="12.34086412563504"><ele>286.3333333333333</ele><time>2026-04-10T13:36:41.001Z</time></trkpt><trkpt lat="43.15477214776569" lon="12.34094316594757"><ele>286.5</ele><time>2026-04-10T13:36:42.001Z</time></trkpt><trkpt lat="43.154705223630735" lon="12.34102270462667"><ele>286.6666666666667</ele><time>2026-04-10T13:36:43.001Z</time></trkpt><trkpt lat="43.15464171783903" lon="12.341098045766214"><ele>286.83333333333337</ele><time>2026-04-10T13:36:44.001Z</time></trkpt><trkpt lat="43.15457718516702" lon="12.341182410290916"><ele>287.0</ele><time>2026-04-10T13:36:45.001Z</time></trkpt><trkpt lat="43.15451523290117" lon="12.341262486622435"><ele>287.0</ele><time>2026-04-10T13:36:46.001Z</time></trkpt><trkpt lat="43.15445281969666" lon="12.341342910353504"><ele>287.0</ele><time>2026-04-10T13:36:47.001Z</time></trkpt><trkpt lat="43.15439304232021" lon="12.341425458342545"><ele>287.0</ele><time>2026-04-10T13:36:48.001Z</time></trkpt><trkpt lat="43.15433617283253" lon="12.3415125574488"><ele>287.0</ele><time>2026-04-10T13:36:49.001Z</time></trkpt><trkpt lat="43.15427193697568" lon="12.34159644210153"><ele>287.0</ele><time>2026-04-10T13:36:50.001Z</time></trkpt><trkpt lat="43.154207226238135" lon="12.341693129492496"><ele>287.0</ele><time>2026-04-10T13:36:51.001Z</time></trkpt><trkpt lat="43.154145919208474" lon="12.341786833378652"><ele>287.2</ele><time>2026-04-10T13:36:52.001Z</time></trkpt><trkpt lat="43.15408275944782" lon="12.341882651763038"><ele>287.4</ele><time>2026-04-10T13:36:53.001Z</time></trkpt><trkpt lat="43.15401926657051" lon="12.341976566317427"><ele>287.6</ele><time>2026-04-10T13:36:54.001Z</time></trkpt><trkpt lat="43.15395576528428" lon="12.342069729391488"><ele>287.8</ele><time>2026-04-10T13:36:55.001Z</time></trkpt><trkpt lat="43.15389415342294" lon="12.342164062144578"><ele>288.0</ele><time>2026-04-10T13:36:56.001Z</time></trkpt><trkpt lat="43.15383101192424" lon="12.342255988067372"><ele>288.2</ele><time>2026-04-10T13:36:57.001Z</time></trkpt><trkpt lat="43.15376801203691" lon="12.34234965374986"><ele>288.4</ele><time>2026-04-10T13:36:58.001Z</time></trkpt><trkpt lat="43.15370498173949" lon="12.342443174112779"><ele>288.59999999999997</ele><time>2026-04-10T13:36:59.001Z</time></trkpt><trkpt lat="43.1536447623515" lon="12.342537186726943"><ele>288.8</ele><time>2026-04-10T13:37:00.001Z</time></trkpt><trkpt lat="43.15358339096104" lon="12.342632985834737"><ele>289.0</ele><time>2026-04-10T13:37:01.001Z</time></trkpt><trkpt lat="43.15352097135703" lon="12.342728827610031"><ele>289.0</ele><time>2026-04-10T13:37:02.001Z</time></trkpt><trkpt lat="43.1534557956841" lon="12.34282397266408"><ele>289.0</ele><time>2026-04-10T13:37:03.001Z</time></trkpt><trkpt lat="43.15339404011518" lon="12.342915574561252"><ele>289.0</ele><time>2026-04-10T13:37:04.001Z</time></trkpt><trkpt lat="43.153329848377155" lon="12.343010125954013"><ele>289.0</ele><time>2026-04-10T13:37:05.001Z</time></trkpt><trkpt lat="43.15326629421499" lon="12.343099436573528"><ele>289.0</ele><time>2026-04-10T13:37:06.001Z</time></trkpt><trkpt lat="43.1532059898911" lon="12.34319266052956"><ele>289.2</ele><time>2026-04-10T13:37:07.001Z</time></trkpt><trkpt lat="43.15314415832105" lon="12.34328677019164"><ele>289.4</ele><time>2026-04-10T13:37:08.001Z</time></trkpt><trkpt lat="43.15308194645781" lon="12.343378463794396"><ele>289.6</ele><time>2026-04-10T13:37:09.001Z</time></trkpt><trkpt lat="43.15301997349159" lon="12.343471214173185"><ele>289.8</ele><time>2026-04-10T13:37:10.001Z</time></trkpt><trkpt lat="43.152956049332374" lon="12.343565184722511"><ele>290.0</ele><time>2026-04-10T13:37:11.001Z</time></trkpt><trkpt lat="43.15289235976872" lon="12.343654871449585"><ele>290.0</ele><time>2026-04-10T13:37:12.001Z</time></trkpt><trkpt lat="43.15282928699949" lon="12.343745536772683"><ele>290.0</ele><time>2026-04-10T13:37:13.001Z</time></trkpt><trkpt lat="43.15276669278632" lon="12.343842104704724"><ele>290.0</ele><time>2026-04-10T13:37:14.001Z</time></trkpt><trkpt lat="43.15270850863649" lon="12.343938227221589"><ele>290.0</ele><time>2026-04-10T13:37:15.001Z</time></trkpt><trkpt lat="43.15265589510483" lon="12.344045386258555"><ele>290.0</ele><time>2026-04-10T13:37:16.001Z</time></trkpt><trkpt lat="43.15261565056514" lon="12.344161456388504"><ele>290.4</ele><time>2026-04-10T13:37:17.001Z</time></trkpt><trkpt lat="43.15258658317989" lon="12.344287234395058"><ele>290.8</ele><time>2026-04-10T13:37:18.001Z</time></trkpt><trkpt lat="43.15256152034923" lon="12.344415812020928"><ele>291.2</ele><time>2026-04-10T13:37:19.001Z</time></trkpt><trkpt lat="43.15253615707273" lon="12.34454116016128"><ele>291.6</ele><time>2026-04-10T13:37:20.001Z</time></trkpt><trkpt lat="43.152513909019675" lon="12.344668552620234"><ele>292.0</ele><time>2026-04-10T13:37:21.001Z</time></trkpt><trkpt lat="43.15249049534387" lon="12.344795427884206"><ele>292.0</ele><time>2026-04-10T13:37:22.001Z</time></trkpt><trkpt lat="43.152468033755426" lon="12.344917775160868"><ele>292.0</ele><time>2026-04-10T13:37:23.001Z</time></trkpt><trkpt lat="43.15244677188737" lon="12.345043053976365"><ele>292.0</ele><time>2026-04-10T13:37:24.001Z</time></trkpt><trkpt lat="43.15242357367101" lon="12.345165849548582"><ele>292.0</ele><time>2026-04-10T13:37:25.001Z</time></trkpt><trkpt lat="43.15239752864584" lon="12.345290707155085"><ele>292.0</ele><time>2026-04-10T13:37:26.001Z</time></trkpt><trkpt lat="43.15236752406093" lon="12.345408608992196"><ele>291.8</ele><time>2026-04-10T13:37:27.001Z</time></trkpt><trkpt lat="43.15233343144342" lon="12.34553128924038"><ele>291.6</ele><time>2026-04-10T13:37:28.001Z</time></trkpt><trkpt lat="43.15229668110946" lon="12.345645386051759"><ele>291.40000000000003</ele><time>2026-04-10T13:37:29.001Z</time></trkpt><trkpt lat="43.15225453743066" lon="12.34575882398611"><ele>291.2</ele><time>2026-04-10T13:37:30.001Z</time></trkpt><trkpt lat="43.15220851017904" lon="12.345867858684832"><ele>291.0</ele><time>2026-04-10T13:37:31.001Z</time></trkpt><trkpt lat="43.152158223256166" lon="12.345970623613372"><ele>291.0</ele><time>2026-04-10T13:37:32.001Z</time></trkpt><trkpt lat="43.15209870387554" lon="12.346070059377366"><ele>291.0</ele><time>2026-04-10T13:37:33.001Z</time></trkpt><trkpt lat="43.15203532740101" lon="12.346165444437453"><ele>291.0</ele><time>2026-04-10T13:37:34.001Z</time></trkpt><trkpt lat="43.151970217380935" lon="12.346256863505438"><ele>291.0</ele><time>2026-04-10T13:37:35.001Z</time></trkpt><trkpt lat="43.151902922931704" lon="12.346346052159221"><ele>291.0</ele><time>2026-04-10T13:37:36.001Z</time></trkpt><trkpt lat="43.151836291042756" lon="12.34642940161897"><ele>291.0</ele><time>2026-04-10T13:37:37.001Z</time></trkpt><trkpt lat="43.15176691612917" lon="12.346512759917056"><ele>291.0</ele><time>2026-04-10T13:37:38.001Z</time></trkpt><trkpt lat="43.15169521332298" lon="12.346595782490935"><ele>291.0</ele><time>2026-04-10T13:37:39.001Z</time></trkpt><trkpt lat="43.15162227993841" lon="12.346678138511992"><ele>291.0</ele><time>2026-04-10T13:37:40.001Z</time></trkpt><trkpt lat="43.151546579180426" lon="12.346753924324862"><ele>291.0</ele><time>2026-04-10T13:37:41.001Z</time></trkpt><trkpt lat="43.15146947493483" lon="12.346828597363904"><ele>291.40000000000003</ele><time>2026-04-10T13:37:42.001Z</time></trkpt><trkpt lat="43.151392079175345" lon="12.34690224825836"><ele>291.8</ele><time>2026-04-10T13:37:43.001Z</time></trkpt><trkpt lat="43.15131378106848" lon="12.346972504760549"><ele>292.20000000000005</ele><time>2026-04-10T13:37:44.001Z</time></trkpt><trkpt lat="43.15123358780002" lon="12.347035572309736"><ele>292.6</ele><time>2026-04-10T13:37:45.001Z</time></trkpt><trkpt lat="43.15115052443832" lon="12.347104293194569"><ele>293.0</ele><time>2026-04-10T13:37:46.001Z</time></trkpt><trkpt lat="43.15106721413335" lon="12.347161170363016"><ele>293.2</ele><time>2026-04-10T13:37:47.001Z</time></trkpt><trkpt lat="43.150982724836204" lon="12.347211234716262"><ele>293.4</ele><time>2026-04-10T13:37:48.001Z</time></trkpt><trkpt lat="43.150897729831094" lon="12.347258167613026"><ele>293.59999999999997</ele><time>2026-04-10T13:37:49.001Z</time></trkpt><trkpt lat="43.15081178785409" lon="12.347304809792202"><ele>293.8</ele><time>2026-04-10T13:37:50.001Z</time></trkpt><trkpt lat="43.15072677487013" lon="12.347348534749068"><ele>294.0</ele><time>2026-04-10T13:37:51.001Z</time></trkpt><trkpt lat="43.15064040586363" lon="12.34738931185352"><ele>294.8</ele><time>2026-04-10T13:37:52.001Z</time></trkpt><trkpt lat="43.15055270305112" lon="12.347439210173752"><ele>295.59999999999997</ele><time>2026-04-10T13:37:53.001Z</time></trkpt><trkpt lat="43.150469937673705" lon="12.347492296494895"><ele>296.4</ele><time>2026-04-10T13:37:54.001Z</time></trkpt><trkpt lat="43.1503876866714" lon="12.347546165716972"><ele>297.2</ele><time>2026-04-10T13:37:55.001Z</time></trkpt><trkpt lat="43.15030773820271" lon="12.347603473618747"><ele>298.0</ele><time>2026-04-10T13:37:56.001Z</time></trkpt><trkpt lat="43.15023088844266" lon="12.347662960733478"><ele>298.0</ele><time>2026-04-10T13:37:57.001Z</time></trkpt><trkpt lat="43.15015630314407" lon="12.347734069644114"><ele>298.0</ele><time>2026-04-10T13:37:58.001Z</time></trkpt><trkpt lat="43.15008653832916" lon="12.347797956454198"><ele>298.0</ele><time>2026-04-10T13:37:59.001Z</time></trkpt><trkpt lat="43.15001612638592" lon="12.347866186703213"><ele>298.0</ele><time>2026-04-10T13:38:00.001Z</time></trkpt><trkpt lat="43.14994710937913" lon="12.347937625482505"><ele>298.0</ele><time>2026-04-10T13:38:01.001Z</time></trkpt><trkpt lat="43.14987633508462" lon="12.347995884070974"><ele>298.0</ele><time>2026-04-10T13:38:02.001Z</time></trkpt><trkpt lat="43.14982016685713" lon="12.348067281153535"><ele>298.16666666666663</ele><time>2026-04-10T13:38:03.001Z</time></trkpt><trkpt lat="43.14976008501527" lon="12.348148231531168"><ele>298.3333333333333</ele><time>2026-04-10T13:38:04.001Z</time></trkpt><trkpt lat="43.149699524385184" lon="12.348241093253401"><ele>298.5</ele><time>2026-04-10T13:38:05.001Z</time></trkpt><trkpt lat="43.14965122644339" lon="12.348334095617949"><ele>298.6666666666667</ele><time>2026-04-10T13:38:06.001Z</time></trkpt><trkpt lat="43.149599794481894" lon="12.348434130248338"><ele>298.83333333333337</ele><time>2026-04-10T13:38:07.001Z</time></trkpt><trkpt lat="43.149550561978224" lon="12.34853111173903"><ele>299.0</ele><time>2026-04-10T13:38:08.001Z</time></trkpt><trkpt lat="43.14949914045547" lon="12.348631827136124"><ele>299.0</ele><time>2026-04-10T13:38:09.001Z</time></trkpt><trkpt lat="43.149446571151294" lon="12.34873858120592"><ele>299.0</ele><time>2026-04-10T13:38:10.001Z</time></trkpt><trkpt lat="43.149394948463296" lon="12.34883291850652"><ele>299.0</ele><time>2026-04-10T13:38:11Z</time></trkpt><trkpt lat="43.14934342581794" lon="12.3489265412122"><ele>299.0</ele><time>2026-04-10T13:38:12Z</time></trkpt><trkpt lat="43.14929254497668" lon="12.349020297341141"><ele>299.0</ele><time>2026-04-10T13:38:13Z</time></trkpt><trkpt lat="43.14923844518628" lon="12.349117863340918"><ele>299.0</ele><time>2026-04-10T13:38:14Z</time></trkpt><trkpt lat="43.14918082787515" lon="12.349212849376887"><ele>299.1666666666667</ele><time>2026-04-10T13:38:15Z</time></trkpt><trkpt lat="43.149125136849044" lon="12.349302251927154"><ele>299.33333333333337</ele><time>2026-04-10T13:38:16Z</time></trkpt><trkpt lat="43.1490694351208" lon="12.349395202243802"><ele>299.5</ele><time>2026-04-10T13:38:17Z</time></trkpt><trkpt lat="43.149003857355645" lon="12.349491388050252"><ele>299.6666666666667</ele><time>2026-04-10T13:38:18Z</time></trkpt><trkpt lat="43.14894344392021" lon="12.349569938333707"><ele>299.8333333333333</ele><time>2026-04-10T13:38:19Z</time></trkpt><trkpt lat="43.148877330561575" lon="12.349653845760878"><ele>300.0</ele><time>2026-04-10T13:38:20Z</time></trkpt><trkpt lat="43.148810430145886" lon="12.349742262964861"><ele>300.3333333333333</ele><time>2026-04-10T13:38:21Z</time></trkpt><trkpt lat="43.14874155143135" lon="12.349828377684675"><ele>300.6666666666667</ele><time>2026-04-10T13:38:22Z</time></trkpt><trkpt lat="43.14867625942341" lon="12.349901306668661"><ele>301.0</ele><time>2026-04-10T13:38:23Z</time></trkpt><trkpt lat="43.14860928660455" lon="12.349983178663567"><ele>301.33333333333337</ele><time>2026-04-10T13:38:24Z</time></trkpt><trkpt lat="43.148539895238684" lon="12.350058670170332"><ele>301.6666666666667</ele><time>2026-04-10T13:38:25Z</time></trkpt><trkpt lat="43.14847035728527" lon="12.350131991679593"><ele>302.0</ele><time>2026-04-10T13:38:26Z</time></trkpt><trkpt lat="43.1483975121652" lon="12.350196671086811"><ele>302.0</ele><time>2026-04-10T13:38:27Z</time></trkpt><trkpt lat="43.14832301143951" lon="12.350265169133522"><ele>302.0</ele><time>2026-04-10T13:38:28Z</time></trkpt><trkpt lat="43.14824621483112" lon="12.350327026423173"><ele>302.0</ele><time>2026-04-10T13:38:29Z</time></trkpt><trkpt lat="43.148170700246936" lon="12.35038734022684"><ele>302.0</ele><time>2026-04-10T13:38:30Z</time></trkpt><trkpt lat="43.148092362224254" lon="12.35044348043165"><ele>302.0</ele><time>2026-04-10T13:38:31Z</time></trkpt><trkpt lat="43.148012273580704" lon="12.350491672153094"><ele>302.0</ele><time>2026-04-10T13:38:32Z</time></trkpt><trkpt lat="43.147929710289084" lon="12.35054410707651"><ele>302.33333333333337</ele><time>2026-04-10T13:38:33Z</time></trkpt><trkpt lat="43.14784853677588" lon="12.35059049844003"><ele>302.6666666666667</ele><time>2026-04-10T13:38:34Z</time></trkpt><trkpt lat="43.147767814033" lon="12.350634120485376"><ele>303.0</ele><time>2026-04-10T13:38:35Z</time></trkpt><trkpt lat="43.14768380411076" lon="12.350670388169174"><ele>303.3333333333333</ele><time>2026-04-10T13:38:36Z</time></trkpt><trkpt lat="43.14759988242347" lon="12.350708696253546"><ele>303.66666666666663</ele><time>2026-04-10T13:38:37Z</time></trkpt><trkpt lat="43.14751384081246" lon="12.350741241343016"><ele>304.0</ele><time>2026-04-10T13:38:38Z</time></trkpt><trkpt lat="43.14743001679713" lon="12.350767909070795"><ele>304.0</ele><time>2026-04-10T13:38:39Z</time></trkpt><trkpt lat="43.14734602285467" lon="12.350793232014789"><ele>304.0</ele><time>2026-04-10T13:38:40Z</time></trkpt><trkpt lat="43.14725922552623" lon="12.350818266736843"><ele>304.0</ele><time>2026-04-10T13:38:41Z</time></trkpt><trkpt lat="43.147172712206945" lon="12.350834071885485"><ele>304.0</ele><time>2026-04-10T13:38:42Z</time></trkpt><trkpt lat="43.14708591224212" lon="12.350847427188716"><ele>304.0</ele><time>2026-04-10T13:38:43Z</time></trkpt><trkpt lat="43.14699812515096" lon="12.350854774213822"><ele>304.0</ele><time>2026-04-10T13:38:44Z</time></trkpt><trkpt lat="43.14690923865923" lon="12.350861756023109"><ele>304.0</ele><time>2026-04-10T13:38:45Z</time></trkpt><trkpt lat="43.14682086758161" lon="12.350866978834738"><ele>304.0</ele><time>2026-04-10T13:38:46Z</time></trkpt><trkpt lat="43.1467346018461" lon="12.350875670116968"><ele>304.0</ele><time>2026-04-10T13:38:47Z</time></trkpt><trkpt lat="43.14664756207297" lon="12.350885656087959"><ele>304.0</ele><time>2026-04-10T13:38:48Z</time></trkpt><trkpt lat="43.14656534398576" lon="12.350891174549991"><ele>304.0</ele><time>2026-04-10T13:38:49Z</time></trkpt><trkpt lat="43.146482026157294" lon="12.350900515344264"><ele>304.0</ele><time>2026-04-10T13:38:50Z</time></trkpt><trkpt lat="43.146402515263475" lon="12.350909730177477"><ele>304.3333333333333</ele><time>2026-04-10T13:38:51Z</time></trkpt><trkpt lat="43.14632137054218" lon="12.350923931611375"><ele>304.66666666666663</ele><time>2026-04-10T13:38:52Z</time></trkpt><trkpt lat="43.146243805357244" lon="12.350946171587315"><ele>305.0</ele><time>2026-04-10T13:38:53Z</time></trkpt><trkpt lat="43.14617033652863" lon="12.350978378718027"><ele>305.3333333333333</ele><time>2026-04-10T13:38:54Z</time></trkpt><trkpt lat="43.14610033022555" lon="12.351020295805789"><ele>305.6666666666667</ele><time>2026-04-10T13:38:55Z</time></trkpt><trkpt lat="43.14603521592348" lon="12.351077913633445"><ele>306.0</ele><time>2026-04-10T13:38:56Z</time></trkpt><trkpt lat="43.14597110320032" lon="12.351127181624925"><ele>306.0</ele><time>2026-04-10T13:38:57Z</time></trkpt><trkpt lat="43.14590552477406" lon="12.351181551511807"><ele>306.0</ele><time>2026-04-10T13:38:58Z</time></trkpt><trkpt lat="43.145842971026454" lon="12.351235794051368"><ele>306.0</ele><time>2026-04-10T13:38:59Z</time></trkpt><trkpt lat="43.14578201464769" lon="12.351297622151307"><ele>306.0</ele><time>2026-04-10T13:39:00Z</time></trkpt><trkpt lat="43.145719540807384" lon="12.351361954607935"><ele>306.0</ele><time>2026-04-10T13:39:01Z</time></trkpt><trkpt lat="43.14565954294418" lon="12.351429109101863"><ele>306.0</ele><time>2026-04-10T13:39:02Z</time></trkpt><trkpt lat="43.14560082883869" lon="12.351501172996544"><ele>306.6666666666667</ele><time>2026-04-10T13:39:03Z</time></trkpt><trkpt lat="43.145542265176715" lon="12.351573270002422"><ele>307.3333333333333</ele><time>2026-04-10T13:39:04Z</time></trkpt><trkpt lat="43.145480843772106" lon="12.351650747503333"><ele>308.0</ele><time>2026-04-10T13:39:05Z</time></trkpt><trkpt lat="43.14542153648646" lon="12.351730837023672"><ele>308.66666666666663</ele><time>2026-04-10T13:39:06Z</time></trkpt><trkpt lat="43.1453594227657" lon="12.351811166025081"><ele>309.3333333333333</ele><time>2026-04-10T13:39:07Z</time></trkpt><trkpt lat="43.14529365182913" lon="12.35188858735122"><ele>310.0</ele><time>2026-04-10T13:39:08Z</time></trkpt><trkpt lat="43.145233134719774" lon="12.351962788751644"><ele>310.0</ele><time>2026-04-10T13:39:09Z</time></trkpt><trkpt lat="43.14517096747287" lon="12.352044599885513"><ele>310.0</ele><time>2026-04-10T13:39:10Z</time></trkpt><trkpt lat="43.14510893970959" lon="12.352122749610794"><ele>310.0</ele><time>2026-04-10T13:39:11Z</time></trkpt><trkpt lat="43.145044878362306" lon="12.35220324074997"><ele>310.0</ele><time>2026-04-10T13:39:12Z</time></trkpt><trkpt lat="43.144981378422806" lon="12.352282197912182"><ele>310.0</ele><time>2026-04-10T13:39:13Z</time></trkpt><trkpt lat="43.14491974226705" lon="12.35236723525921"><ele>310.0</ele><time>2026-04-10T13:39:14Z</time></trkpt><trkpt lat="43.144855812246476" lon="12.352446913306107"><ele>310.5</ele><time>2026-04-10T13:39:15Z</time></trkpt><trkpt lat="43.14479134155943" lon="12.352529355406068"><ele>311.0</ele><time>2026-04-10T13:39:16Z</time></trkpt><trkpt lat="43.1447282902975" lon="12.352616363466103"><ele>311.5</ele><time>2026-04-10T13:39:17Z</time></trkpt><trkpt lat="43.144665887390694" lon="12.352697000597898"><ele>312.0</ele><time>2026-04-10T13:39:18Z</time></trkpt><trkpt lat="43.14460115432456" lon="12.352776079396286"><ele>312.5</ele><time>2026-04-10T13:39:19Z</time></trkpt><trkpt lat="43.1445377035805" lon="12.352859015330896"><ele>313.0</ele><time>2026-04-10T13:39:20Z</time></trkpt><trkpt lat="43.14447633759348" lon="12.352942810204912"><ele>313.0</ele><time>2026-04-10T13:39:21Z</time></trkpt><trkpt lat="43.1444156182802" lon="12.353031304117028"><ele>313.0</ele><time>2026-04-10T13:39:22Z</time></trkpt><trkpt lat="43.1443553250428" lon="12.353116629042452"><ele>313.0</ele><time>2026-04-10T13:39:23Z</time></trkpt><trkpt lat="43.1442943199173" lon="12.353200357656107"><ele>313.0</ele><time>2026-04-10T13:39:24Z</time></trkpt><trkpt lat="43.1442376181486" lon="12.353290895415276"><ele>313.0</ele><time>2026-04-10T13:39:25Z</time></trkpt><trkpt lat="43.1441794572836" lon="12.353384067569577"><ele>313.0</ele><time>2026-04-10T13:39:26Z</time></trkpt><trkpt lat="43.14412925033991" lon="12.353480304241254"><ele>313.3333333333333</ele><time>2026-04-10T13:39:27Z</time></trkpt><trkpt lat="43.1440870308093" lon="12.353587441031213"><ele>313.66666666666663</ele><time>2026-04-10T13:39:28Z</time></trkpt><trkpt lat="43.14405504084915" lon="12.353696614261223"><ele>314.0</ele><time>2026-04-10T13:39:29Z</time></trkpt><trkpt lat="43.144038045572536" lon="12.35381263047686"><ele>314.3333333333333</ele><time>2026-04-10T13:39:30Z</time></trkpt><trkpt lat="43.14403544929761" lon="12.353928771757372"><ele>314.6666666666667</ele><time>2026-04-10T13:39:31Z</time></trkpt><trkpt lat="43.144044210934105" lon="12.354042522269223"><ele>315.0</ele><time>2026-04-10T13:39:32Z</time></trkpt><trkpt lat="43.14406126609044" lon="12.354156377433998"><ele>315.6666666666667</ele><time>2026-04-10T13:39:33Z</time></trkpt><trkpt lat="43.14407884515415" lon="12.354260902099268"><ele>316.3333333333333</ele><time>2026-04-10T13:39:34Z</time></trkpt><trkpt lat="43.14410492048157" lon="12.354367190961575"><ele>317.0</ele><time>2026-04-10T13:39:35Z</time></trkpt><trkpt lat="43.144135044887285" lon="12.354471147050635"><ele>317.66666666666663</ele><time>2026-04-10T13:39:36Z</time></trkpt><trkpt lat="43.14416755728486" lon="12.354572724964678"><ele>318.3333333333333</ele><time>2026-04-10T13:39:37Z</time></trkpt><trkpt lat="43.144198960216336" lon="12.354674203530829"><ele>319.0</ele><time>2026-04-10T13:39:38Z</time></trkpt><trkpt lat="43.14422200389755" lon="12.354777076048983"><ele>320.3333333333333</ele><time>2026-04-10T13:39:39Z</time></trkpt><trkpt lat="43.144246988500015" lon="12.354879795204809"><ele>321.66666666666663</ele><time>2026-04-10T13:39:40Z</time></trkpt><trkpt lat="43.14427242064397" lon="12.354980287915247"><ele>323.0</ele><time>2026-04-10T13:39:41Z</time></trkpt><trkpt lat="43.14429423308846" lon="12.355082362962916"><ele>324.3333333333333</ele><time>2026-04-10T13:39:42Z</time></trkpt><trkpt lat="43.1443041143414" lon="12.355189026814216"><ele>325.6666666666667</ele><time>2026-04-10T13:39:43Z</time></trkpt><trkpt lat="43.14430472018809" lon="12.355295021884565"><ele>327.0</ele><time>2026-04-10T13:39:44Z</time></trkpt><trkpt lat="43.14429500363123" lon="12.355403985723871"><ele>327.0</ele><time>2026-04-10T13:39:45Z</time></trkpt><trkpt lat="43.144280703570104" lon="12.355507228638883"><ele>327.0</ele><time>2026-04-10T13:39:46Z</time></trkpt><trkpt lat="43.14425532353572" lon="12.355608121016004"><ele>327.0</ele><time>2026-04-10T13:39:47Z</time></trkpt><trkpt lat="43.14422517552011" lon="12.355698240603392"><ele>327.0</ele><time>2026-04-10T13:39:48Z</time></trkpt><trkpt lat="43.14418846707159" lon="12.35578878032458"><ele>327.0</ele><time>2026-04-10T13:39:49Z</time></trkpt><trkpt lat="43.14414347334287" lon="12.355877774648874"><ele>327.0</ele><time>2026-04-10T13:39:50Z</time></trkpt><trkpt lat="43.144089348237564" lon="12.355953562240439"><ele>327.3333333333333</ele><time>2026-04-10T13:39:51Z</time></trkpt><trkpt lat="43.144028112092954" lon="12.356016531733966"><ele>327.6666666666667</ele><time>2026-04-10T13:39:52Z</time></trkpt><trkpt lat="43.14396243826562" lon="12.356071474267823"><ele>328.0</ele><time>2026-04-10T13:39:53Z</time></trkpt><trkpt lat="43.1438938972041" lon="12.356114243539919"><ele>328.33333333333337</ele><time>2026-04-10T13:39:54Z</time></trkpt><trkpt lat="43.14382322104291" lon="12.356159022735214"><ele>328.6666666666667</ele><time>2026-04-10T13:39:55Z</time></trkpt><trkpt lat="43.14375130526534" lon="12.356199718048632"><ele>329.0</ele><time>2026-04-10T13:39:56Z</time></trkpt><trkpt lat="43.143676680594474" lon="12.356229466917082"><ele>329.0</ele><time>2026-04-10T13:39:57Z</time></trkpt><trkpt lat="43.14360109128059" lon="12.356253185124373"><ele>329.0</ele><time>2026-04-10T13:39:58Z</time></trkpt><trkpt lat="43.14352595643542" lon="12.35626530582509"><ele>329.0</ele><time>2026-04-10T13:39:59Z</time></trkpt><trkpt lat="43.14344864293314" lon="12.35626483350842"><ele>329.0</ele><time>2026-04-10T13:40:00Z</time></trkpt><trkpt lat="43.143377427933984" lon="12.356257461924748"><ele>329.0</ele><time>2026-04-10T13:40:01Z</time></trkpt><trkpt lat="43.143303456376316" lon="12.356240486477295"><ele>329.0</ele><time>2026-04-10T13:40:02Z</time></trkpt><trkpt lat="43.14323529733318" lon="12.356202061202579"><ele>331.42857142857144</ele><time>2026-04-10T13:40:03Z</time></trkpt><trkpt lat="43.14317149953259" lon="12.356154861933778"><ele>333.8571428571429</ele><time>2026-04-10T13:40:04Z</time></trkpt><trkpt lat="43.1431186671726" lon="12.356092042061375"><ele>336.2857142857143</ele><time>2026-04-10T13:40:05Z</time></trkpt><trkpt lat="43.14306976004917" lon="12.356023835819828"><ele>338.7142857142857</ele><time>2026-04-10T13:40:06Z</time></trkpt><trkpt lat="43.14302546555124" lon="12.355949015941754"><ele>341.14285714285717</ele><time>2026-04-10T13:40:07Z</time></trkpt><trkpt lat="43.1429793983518" lon="12.355880582994233"><ele>343.57142857142856</ele><time>2026-04-10T13:40:08Z</time></trkpt><trkpt lat="43.14293567697613" lon="12.3558107101401"><ele>346.0</ele><time>2026-04-10T13:40:09Z</time></trkpt><trkpt lat="43.14289314145654" lon="12.355740669585542"><ele>346.0</ele><time>2026-04-10T13:40:10Z</time></trkpt><trkpt lat="43.142849436185756" lon="12.35566961159112"><ele>346.0</ele><time>2026-04-10T13:40:11Z</time></trkpt><trkpt lat="43.14280607297264" lon="12.355595846977753"><ele>346.0</ele><time>2026-04-10T13:40:12Z</time></trkpt><trkpt lat="43.14276213361836" lon="12.35552493935084"><ele>346.0</ele><time>2026-04-10T13:40:13Z</time></trkpt><trkpt lat="43.14271898719287" lon="12.355453575439801"><ele>346.0</ele><time>2026-04-10T13:40:14Z</time></trkpt><trkpt lat="43.14267373936447" lon="12.355377737281213"><ele>346.0</ele><time>2026-04-10T13:40:15Z</time></trkpt><trkpt lat="43.14262918526833" lon="12.355304189529766"><ele>346.0</ele><time>2026-04-10T13:40:16Z</time></trkpt><trkpt lat="43.142579769973494" lon="12.355228103469429"><ele>345.2857142857143</ele><time>2026-04-10T13:40:17Z</time></trkpt><trkpt lat="43.142532419690745" lon="12.35515540341611"><ele>344.5714285714286</ele><time>2026-04-10T13:40:18Z</time></trkpt><trkpt lat="43.14249022438711" lon="12.355080316264551"><ele>343.8571428571429</ele><time>2026-04-10T13:40:19Z</time></trkpt><trkpt lat="43.14244253112922" lon="12.355003602119604"><ele>343.1428571428571</ele><time>2026-04-10T13:40:20Z</time></trkpt><trkpt lat="43.142393908475476" lon="12.354928538693354"><ele>342.42857142857144</ele><time>2026-04-10T13:40:21Z</time></trkpt><trkpt lat="43.14234992985309" lon="12.354850825678826"><ele>341.7142857142857</ele><time>2026-04-10T13:40:22Z</time></trkpt><trkpt lat="43.142298408800805" lon="12.354774763022418"><ele>341.0</ele><time>2026-04-10T13:40:23Z</time></trkpt><trkpt lat="43.14225099182576" lon="12.354701396860477"><ele>340.83333333333337</ele><time>2026-04-10T13:40:24Z</time></trkpt><trkpt lat="43.14219423560044" lon="12.354635549032773"><ele>340.6666666666667</ele><time>2026-04-10T13:40:25Z</time></trkpt><trkpt lat="43.142129740528624" lon="12.354575077932683"><ele>340.5</ele><time>2026-04-10T13:40:26Z</time></trkpt><trkpt lat="43.14206741919786" lon="12.354523406502578"><ele>340.3333333333333</ele><time>2026-04-10T13:40:27Z</time></trkpt><trkpt lat="43.14199668306384" lon="12.354479234090538"><ele>340.16666666666663</ele><time>2026-04-10T13:40:28Z</time></trkpt><trkpt lat="43.14192365840326" lon="12.354446144863275"><ele>340.0</ele><time>2026-04-10T13:40:29Z</time></trkpt><trkpt lat="43.14184775850554" lon="12.354424495713289"><ele>340.0</ele><time>2026-04-10T13:40:30Z</time></trkpt><trkpt lat="43.14177108012235" lon="12.354413221173253"><ele>340.0</ele><time>2026-04-10T13:40:31Z</time></trkpt><trkpt lat="43.14169446917669" lon="12.354410621562911"><ele>340.0</ele><time>2026-04-10T13:40:32Z</time></trkpt><trkpt lat="43.141615949903084" lon="12.354410890952668"><ele>340.0</ele><time>2026-04-10T13:40:33Z</time></trkpt><trkpt lat="43.14153536242189" lon="12.35441271816158"><ele>340.0</ele><time>2026-04-10T13:40:34Z</time></trkpt><trkpt lat="43.14145808163995" lon="12.354418215285051"><ele>340.0</ele><time>2026-04-10T13:40:35Z</time></trkpt><trkpt lat="43.141380280998185" lon="12.354433074039488"><ele>340.16666666666663</ele><time>2026-04-10T13:40:36Z</time></trkpt><trkpt lat="43.141302399278075" lon="12.354452973787128"><ele>340.3333333333333</ele><time>2026-04-10T13:40:37Z</time></trkpt><trkpt lat="43.14122755878988" lon="12.354481350884063"><ele>340.5</ele><time>2026-04-10T13:40:38Z</time></trkpt><trkpt lat="43.141153933428605" lon="12.354512046148603"><ele>340.6666666666667</ele><time>2026-04-10T13:40:39Z</time></trkpt><trkpt lat="43.14107984052999" lon="12.354541332780258"><ele>340.83333333333337</ele><time>2026-04-10T13:40:40Z</time></trkpt><trkpt lat="43.14101026733495" lon="12.35456484236268"><ele>341.0</ele><time>2026-04-10T13:40:41Z</time></trkpt><trkpt lat="43.14094306722741" lon="12.354589993164675"><ele>341.0</ele><time>2026-04-10T13:40:42Z</time></trkpt><trkpt lat="43.14087387195741" lon="12.354627764323865"><ele>341.0</ele><time>2026-04-10T13:40:43Z</time></trkpt><trkpt lat="43.14081440123531" lon="12.354669300986616"><ele>341.0</ele><time>2026-04-10T13:40:44Z</time></trkpt><trkpt lat="43.14075142387425" lon="12.354713533786123"><ele>341.0</ele><time>2026-04-10T13:40:45Z</time></trkpt><trkpt lat="43.140693506792836" lon="12.354752975453463"><ele>341.0</ele><time>2026-04-10T13:40:46Z</time></trkpt><trkpt lat="43.14063047403591" lon="12.354803842482777"><ele>341.0</ele><time>2026-04-10T13:40:47Z</time></trkpt><trkpt lat="43.14057255157234" lon="12.354855613726965"><ele>341.0</ele><time>2026-04-10T13:40:48Z</time></trkpt><trkpt lat="43.14052098627234" lon="12.354910304004004"><ele>342.42857142857144</ele><time>2026-04-10T13:40:49Z</time></trkpt><trkpt lat="43.140474478681085" lon="12.35497184103897"><ele>343.8571428571429</ele><time>2026-04-10T13:40:50Z</time></trkpt><trkpt lat="43.1404280645599" lon="12.355035553771149"><ele>345.28571428571433</ele><time>2026-04-10T13:40:51Z</time></trkpt><trkpt lat="43.140383415607324" lon="12.355106837713889"><ele>346.7142857142857</ele><time>2026-04-10T13:40:52Z</time></trkpt><trkpt lat="43.140344023499175" lon="12.355182533475071"><ele>348.14285714285717</ele><time>2026-04-10T13:40:53Z</time></trkpt><trkpt lat="43.14030454494863" lon="12.35526174846236"><ele>349.5714285714286</ele><time>2026-04-10T13:40:54Z</time></trkpt><trkpt lat="43.140268791468806" lon="12.355344019116448"><ele>351.0</ele><time>2026-04-10T13:40:55Z</time></trkpt><trkpt lat="43.14023486727734" lon="12.355427427395524"><ele>351.00000000000006</ele><time>2026-04-10T13:40:56Z</time></trkpt><trkpt lat="43.140201393138035" lon="12.35551247444555"><ele>351.0</ele><time>2026-04-10T13:40:57Z</time></trkpt><trkpt lat="43.140169912887515" lon="12.355596457777164"><ele>351.0</ele><time>2026-04-10T13:40:58Z</time></trkpt><trkpt lat="43.140140080066786" lon="12.355681852351067"><ele>351.0</ele><time>2026-04-10T13:40:59Z</time></trkpt><trkpt lat="43.14011014957926" lon="12.355767488231646"><ele>351.0</ele><time>2026-04-10T13:41:00Z</time></trkpt><trkpt lat="43.14007688278064" lon="12.355861218097447"><ele>351.00000000000006</ele><time>2026-04-10T13:41:01Z</time></trkpt><trkpt lat="43.14004221553025" lon="12.355948650451513"><ele>351.0</ele><time>2026-04-10T13:41:02Z</time></trkpt><trkpt lat="43.1400015047306" lon="12.356038135203999"><ele>352.0</ele><time>2026-04-10T13:41:03Z</time></trkpt><trkpt lat="43.139955629902175" lon="12.356120421496925"><ele>353.0</ele><time>2026-04-10T13:41:04Z</time></trkpt><trkpt lat="43.13990677984416" lon="12.356199318087809"><ele>354.0</ele><time>2026-04-10T13:41:05Z</time></trkpt><trkpt lat="43.139848961616984" lon="12.356271026854422"><ele>355.0</ele><time>2026-04-10T13:41:06Z</time></trkpt><trkpt lat="43.1397831492093" lon="12.356330373623424"><ele>356.0</ele><time>2026-04-10T13:41:07Z</time></trkpt><trkpt lat="43.139710698262846" lon="12.356375103084694"><ele>357.0</ele><time>2026-04-10T13:41:08Z</time></trkpt><trkpt lat="43.139634634907004" lon="12.356406811127373"><ele>357.1666666666667</ele><time>2026-04-10T13:41:09Z</time></trkpt><trkpt lat="43.139554732569096" lon="12.356427271061182"><ele>357.3333333333333</ele><time>2026-04-10T13:41:10Z</time></trkpt><trkpt lat="43.139472618913196" lon="12.35642728133637"><ele>357.5</ele><time>2026-04-10T13:41:11Z</time></trkpt><trkpt lat="43.13939609975237" lon="12.356419999314927"><ele>357.66666666666663</ele><time>2026-04-10T13:41:12Z</time></trkpt><trkpt lat="43.13931942904607" lon="12.356406242442828"><ele>357.8333333333333</ele><time>2026-04-10T13:41:13Z</time></trkpt><trkpt lat="43.13924604927323" lon="12.356379242845135"><ele>358.0</ele><time>2026-04-10T13:41:14Z</time></trkpt><trkpt lat="43.139181881604145" lon="12.356344691127207"><ele>358.00000000000006</ele><time>2026-04-10T13:41:15Z</time></trkpt><trkpt lat="43.13911313900691" lon="12.356303799093139"><ele>358.0</ele><time>2026-04-10T13:41:16Z</time></trkpt><trkpt lat="43.1390495148437" lon="12.356267188508378"><ele>358.0</ele><time>2026-04-10T13:41:17Z</time></trkpt><trkpt lat="43.138985798547814" lon="12.356225990764376"><ele>358.0</ele><time>2026-04-10T13:41:18Z</time></trkpt><trkpt lat="43.13892111241259" lon="12.356180912367797"><ele>358.0</ele><time>2026-04-10T13:41:19Z</time></trkpt><trkpt lat="43.13885592378489" lon="12.356149308555944"><ele>358.00000000000006</ele><time>2026-04-10T13:41:20Z</time></trkpt><trkpt lat="43.13879016303391" lon="12.356113655437047"><ele>358.0</ele><time>2026-04-10T13:41:21Z</time></trkpt><trkpt lat="43.13871765203613" lon="12.356088059279243"><ele>358.5714285714286</ele><time>2026-04-10T13:41:22Z</time></trkpt><trkpt lat="43.13864862134039" lon="12.356075711951984"><ele>359.14285714285717</ele><time>2026-04-10T13:41:23Z</time></trkpt><trkpt lat="43.13857520464459" lon="12.356070329195946"><ele>359.7142857142857</ele><time>2026-04-10T13:41:24Z</time></trkpt><trkpt lat="43.138501469216386" lon="12.356087544685865"><ele>360.28571428571433</ele><time>2026-04-10T13:41:25Z</time></trkpt><trkpt lat="43.138426023431926" lon="12.35610544789478"><ele>360.85714285714283</ele><time>2026-04-10T13:41:26Z</time></trkpt><trkpt lat="43.13835704368757" lon="12.356130114391194"><ele>361.42857142857144</ele><time>2026-04-10T13:41:27Z</time></trkpt><trkpt lat="43.138289003856606" lon="12.356187542030783"><ele>362.0</ele><time>2026-04-10T13:41:28Z</time></trkpt><trkpt lat="43.13822566282062" lon="12.356249407321974"><ele>363.83333333333337</ele><time>2026-04-10T13:41:29Z</time></trkpt><trkpt lat="43.138163424482336" lon="12.35630948305865"><ele>365.6666666666667</ele><time>2026-04-10T13:41:30Z</time></trkpt><trkpt lat="43.138105881334575" lon="12.356374963133552"><ele>367.5</ele><time>2026-04-10T13:41:31Z</time></trkpt><trkpt lat="43.138044985373604" lon="12.356438552376817"><ele>369.3333333333333</ele><time>2026-04-10T13:41:32Z</time></trkpt><trkpt lat="43.137981617366755" lon="12.356495365069462"><ele>371.16666666666663</ele><time>2026-04-10T13:41:33Z</time></trkpt><trkpt lat="43.13791896147576" lon="12.356555590814168"><ele>373.0</ele><time>2026-04-10T13:41:34Z</time></trkpt><trkpt lat="43.1378551971662" lon="12.356618340005603"><ele>373.8333333333333</ele><time>2026-04-10T13:41:35Z</time></trkpt><trkpt lat="43.13778575214135" lon="12.356665050568907"><ele>374.66666666666663</ele><time>2026-04-10T13:41:36Z</time></trkpt><trkpt lat="43.137713892089614" lon="12.35669440837437"><ele>375.5</ele><time>2026-04-10T13:41:37Z</time></trkpt><trkpt lat="43.13763507962603" lon="12.356708948618298"><ele>376.3333333333333</ele><time>2026-04-10T13:41:38Z</time></trkpt><trkpt lat="43.13755816110997" lon="12.356711094569825"><ele>377.1666666666667</ele><time>2026-04-10T13:41:39Z</time></trkpt><trkpt lat="43.137482842649476" lon="12.3566993163478"><ele>378.0</ele><time>2026-04-10T13:41:40Z</time></trkpt><trkpt lat="43.1374097509204" lon="12.356676007308293"><ele>381.2857142857143</ele><time>2026-04-10T13:41:41Z</time></trkpt><trkpt lat="43.13734048018432" lon="12.356638643130784"><ele>384.57142857142856</ele><time>2026-04-10T13:41:42Z</time></trkpt><trkpt lat="43.13727829619047" lon="12.356588626366348"><ele>387.8571428571429</ele><time>2026-04-10T13:41:43Z</time></trkpt><trkpt lat="43.13722048052738" lon="12.356523939319304"><ele>391.1428571428571</ele><time>2026-04-10T13:41:44Z</time></trkpt><trkpt lat="43.1371657345117" lon="12.356455296921634"><ele>394.42857142857144</ele><time>2026-04-10T13:41:45Z</time></trkpt><trkpt lat="43.13711555509094" lon="12.356376267984968"><ele>397.7142857142857</ele><time>2026-04-10T13:41:46Z</time></trkpt><trkpt lat="43.137077813614916" lon="12.35628931002926"><ele>401.0</ele><time>2026-04-10T13:41:47Z</time></trkpt><trkpt lat="43.13704519064911" lon="12.356198649934182"><ele>401.16666666666663</ele><time>2026-04-10T13:41:48Z</time></trkpt><trkpt lat="43.13702587278139" lon="12.35610266628486"><ele>401.3333333333333</ele><time>2026-04-10T13:41:49Z</time></trkpt><trkpt lat="43.13701425953484" lon="12.356002681096745"><ele>401.5</ele><time>2026-04-10T13:41:50Z</time></trkpt><trkpt lat="43.13701353169674" lon="12.355905260212147"><ele>401.66666666666663</ele><time>2026-04-10T13:41:51Z</time></trkpt><trkpt lat="43.13702899409339" lon="12.355749920391585"><ele>401.8333333333333</ele><time>2026-04-10T13:41:53Z</time></trkpt><trkpt lat="43.13705578959532" lon="12.355624530572083"><ele>402.0</ele><time>2026-04-10T13:41:55Z</time></trkpt><trkpt lat="43.137092724878876" lon="12.355477594808862"><ele>400.5</ele><time>2026-04-10T13:41:57Z</time></trkpt><trkpt lat="43.1371306234648" lon="12.355315879580886"><ele>399.0</ele><time>2026-04-10T13:41:59Z</time></trkpt><trkpt lat="43.137149429992725" lon="12.355230553078163"><ele>397.5</ele><time>2026-04-10T13:42:00Z</time></trkpt><trkpt lat="43.137160854920474" lon="12.355142322410963"><ele>396.0</ele><time>2026-04-10T13:42:01Z</time></trkpt><trkpt lat="43.13716962529968" lon="12.355042248716568"><ele>394.5</ele><time>2026-04-10T13:42:02Z</time></trkpt><trkpt lat="43.13717199501098" lon="12.354942749657226"><ele>393.0</ele><time>2026-04-10T13:42:03Z</time></trkpt><trkpt lat="43.13716135482561" lon="12.354843674017252"><ele>393.0</ele><time>2026-04-10T13:42:04Z</time></trkpt><trkpt lat="43.13714454906917" lon="12.354737494256792"><ele>393.0</ele><time>2026-04-10T13:42:05Z</time></trkpt><trkpt lat="43.137117601846406" lon="12.35463405980899"><ele>393.0</ele><time>2026-04-10T13:42:06Z</time></trkpt><trkpt lat="43.1370850695913" lon="12.354532855551227"><ele>393.0</ele><time>2026-04-10T13:42:07Z</time></trkpt><trkpt lat="43.137041309812204" lon="12.354441766979507"><ele>393.0</ele><time>2026-04-10T13:42:08Z</time></trkpt><trkpt lat="43.136991215544214" lon="12.35435946079628"><ele>393.0</ele><time>2026-04-10T13:42:09Z</time></trkpt><trkpt lat="43.13693833851789" lon="12.35428619989066"><ele>394.14285714285717</ele><time>2026-04-10T13:42:10Z</time></trkpt><trkpt lat="43.13688578199793" lon="12.354224637932168"><ele>395.2857142857143</ele><time>2026-04-10T13:42:11Z</time></trkpt><trkpt lat="43.13683336264933" lon="12.354170658026467"><ele>396.42857142857144</ele><time>2026-04-10T13:42:12Z</time></trkpt><trkpt lat="43.136773725073006" lon="12.354118895198242"><ele>397.57142857142856</ele><time>2026-04-10T13:42:13Z</time></trkpt><trkpt lat="43.13671315357808" lon="12.354065980868192"><ele>398.7142857142857</ele><time>2026-04-10T13:42:14Z</time></trkpt><trkpt lat="43.13665055513135" lon="12.354017490778286"><ele>399.8571428571429</ele><time>2026-04-10T13:42:15Z</time></trkpt><trkpt lat="43.136585616270146" lon="12.353961766992759"><ele>401.0</ele><time>2026-04-10T13:42:16Z</time></trkpt><trkpt lat="43.136518836715844" lon="12.353906218187683"><ele>399.49999999999994</ele><time>2026-04-10T13:42:17Z</time></trkpt><trkpt lat="43.136452039302924" lon="12.353853638092536"><ele>398.0</ele><time>2026-04-10T13:42:18Z</time></trkpt><trkpt lat="43.13638894235886" lon="12.353799686439856"><ele>396.5</ele><time>2026-04-10T13:42:19Z</time></trkpt><trkpt lat="43.136322648487024" lon="12.353745858918812"><ele>395.0</ele><time>2026-04-10T13:42:20Z</time></trkpt><trkpt lat="43.13625622009283" lon="12.353690627405864"><ele>393.49999999999994</ele><time>2026-04-10T13:42:21Z</time></trkpt><trkpt lat="43.13618777095558" lon="12.353636656841257"><ele>392.0</ele><time>2026-04-10T13:42:22Z</time></trkpt><trkpt lat="43.136118319453466" lon="12.353578130934359"><ele>391.99999999999994</ele><time>2026-04-10T13:42:23Z</time></trkpt><trkpt lat="43.13605530149874" lon="12.3535201672407"><ele>392.0</ele><time>2026-04-10T13:42:24Z</time></trkpt><trkpt lat="43.13598714301949" lon="12.353460389615837"><ele>392.0</ele><time>2026-04-10T13:42:25Z</time></trkpt><trkpt lat="43.13592347819227" lon="12.353411187722841"><ele>392.0</ele><time>2026-04-10T13:42:26Z</time></trkpt><trkpt lat="43.13585672167176" lon="12.353355729235583"><ele>391.99999999999994</ele><time>2026-04-10T13:42:27Z</time></trkpt><trkpt lat="43.13578997976664" lon="12.35329724814413"><ele>392.0</ele><time>2026-04-10T13:42:28Z</time></trkpt><trkpt lat="43.13572219682215" lon="12.353239197623454"><ele>392.3333333333333</ele><time>2026-04-10T13:42:29Z</time></trkpt><trkpt lat="43.135656304962936" lon="12.353171832295242"><ele>392.66666666666663</ele><time>2026-04-10T13:42:30Z</time></trkpt><trkpt lat="43.13558896457595" lon="12.353111310131675"><ele>393.0</ele><time>2026-04-10T13:42:31Z</time></trkpt><trkpt lat="43.13552128208198" lon="12.353049495931854"><ele>393.33333333333337</ele><time>2026-04-10T13:42:32Z</time></trkpt><trkpt lat="43.135450795503196" lon="12.352987224157392"><ele>393.6666666666667</ele><time>2026-04-10T13:42:33Z</time></trkpt><trkpt lat="43.13537968716244" lon="12.35292829900194"><ele>394.0</ele><time>2026-04-10T13:42:34Z</time></trkpt><trkpt lat="43.13530984109916" lon="12.35286972368302"><ele>394.00000000000006</ele><time>2026-04-10T13:42:35Z</time></trkpt><trkpt lat="43.1352428342454" lon="12.35281449560732"><ele>394.0</ele><time>2026-04-10T13:42:36Z</time></trkpt><trkpt lat="43.135170947080894" lon="12.352759468306438"><ele>394.0</ele><time>2026-04-10T13:42:37Z</time></trkpt><trkpt lat="43.135104817715614" lon="12.352705022406843"><ele>394.0</ele><time>2026-04-10T13:42:38Z</time></trkpt><trkpt lat="43.135036064978024" lon="12.352653230945112"><ele>394.00000000000006</ele><time>2026-04-10T13:42:39Z</time></trkpt><trkpt lat="43.13496907982235" lon="12.352612068317693"><ele>394.0</ele><time>2026-04-10T13:42:40Z</time></trkpt><trkpt lat="43.13490746676617" lon="12.352577824037791"><ele>394.79999999999995</ele><time>2026-04-10T13:42:41Z</time></trkpt><trkpt lat="43.134796926616225" lon="12.352539924894693"><ele>395.59999999999997</ele><time>2026-04-10T13:42:43Z</time></trkpt><trkpt lat="43.134707752717276" lon="12.352496180312409"><ele>396.4</ele><time>2026-04-10T13:42:45Z</time></trkpt><trkpt lat="43.13462023849731" lon="12.352466880814976"><ele>397.2</ele><time>2026-04-10T13:42:47Z</time></trkpt><trkpt lat="43.13450695380538" lon="12.352430551710926"><ele>398.0</ele><time>2026-04-10T13:42:49Z</time></trkpt><trkpt lat="43.13444391442975" lon="12.352410495199832"><ele>397.99999999999994</ele><time>2026-04-10T13:42:50Z</time></trkpt><trkpt lat="43.13437801006872" lon="12.352389750421464"><ele>398.0</ele><time>2026-04-10T13:42:51Z</time></trkpt><trkpt lat="43.134314737232266" lon="12.352370472146662"><ele>398.0</ele><time>2026-04-10T13:42:52Z</time></trkpt><trkpt lat="43.134245052523276" lon="12.352350595800972"><ele>398.0</ele><time>2026-04-10T13:42:53Z</time></trkpt><trkpt lat="43.1341748859769" lon="12.352329619548195"><ele>398.0</ele><time>2026-04-10T13:42:54Z</time></trkpt><trkpt lat="43.13410265817078" lon="12.352305939899416"><ele>397.99999999999994</ele><time>2026-04-10T13:42:55Z</time></trkpt><trkpt lat="43.134031849471405" lon="12.352287709982003"><ele>398.0</ele><time>2026-04-10T13:42:56Z</time></trkpt><trkpt lat="43.133954649653234" lon="12.35227324087742"><ele>397.99999999999994</ele><time>2026-04-10T13:42:57Z</time></trkpt><trkpt lat="43.13387569487664" lon="12.352269920849178"><ele>398.0</ele><time>2026-04-10T13:42:58Z</time></trkpt><trkpt lat="43.13379638302242" lon="12.352272590428726"><ele>398.0</ele><time>2026-04-10T13:42:59Z</time></trkpt><trkpt lat="43.13371918055405" lon="12.352289834733083"><ele>398.0</ele><time>2026-04-10T13:43:00Z</time></trkpt><trkpt lat="43.13364134779141" lon="12.352313549079902"><ele>397.99999999999994</ele><time>2026-04-10T13:43:01Z</time></trkpt><trkpt lat="43.133557949623906" lon="12.352339238170142"><ele>398.0</ele><time>2026-04-10T13:43:02Z</time></trkpt><trkpt lat="43.13348305442746" lon="12.352376315740207"><ele>398.0</ele><time>2026-04-10T13:43:03Z</time></trkpt><trkpt lat="43.133406902874505" lon="12.35241824827033"><ele>398.0</ele><time>2026-04-10T13:43:04Z</time></trkpt><trkpt lat="43.13332867670884" lon="12.352475475868165"><ele>398.0</ele><time>2026-04-10T13:43:05Z</time></trkpt><trkpt lat="43.133246296007925" lon="12.352535819293552"><ele>398.0</ele><time>2026-04-10T13:43:06Z</time></trkpt><trkpt lat="43.133162376115536" lon="12.352599079756347"><ele>398.0</ele><time>2026-04-10T13:43:07Z</time></trkpt><trkpt lat="43.13308081769609" lon="12.35265904035937"><ele>394.79999999999995</ele><time>2026-04-10T13:43:08Z</time></trkpt><trkpt lat="43.13299660839198" lon="12.35271974202197"><ele>391.6</ele><time>2026-04-10T13:43:09Z</time></trkpt><trkpt lat="43.13291319248101" lon="12.352781463771857"><ele>388.4</ele><time>2026-04-10T13:43:10Z</time></trkpt><trkpt lat="43.13283476929188" lon="12.352851506748172"><ele>385.20000000000005</ele><time>2026-04-10T13:43:11Z</time></trkpt><trkpt lat="43.132758891800734" lon="12.352927417379393"><ele>382.0</ele><time>2026-04-10T13:43:12Z</time></trkpt><trkpt lat="43.13268491909396" lon="12.353010083903275"><ele>381.0</ele><time>2026-04-10T13:43:13Z</time></trkpt><trkpt lat="43.13261596946686" lon="12.35309402243831"><ele>380.0</ele><time>2026-04-10T13:43:14Z</time></trkpt><trkpt lat="43.13254801732585" lon="12.35318181847662"><ele>379.0</ele><time>2026-04-10T13:43:15Z</time></trkpt><trkpt lat="43.13248291242155" lon="12.353275085552893"><ele>378.0</ele><time>2026-04-10T13:43:16Z</time></trkpt><trkpt lat="43.132422758181754" lon="12.353370820990012"><ele>377.0</ele><time>2026-04-10T13:43:17Z</time></trkpt><trkpt lat="43.13236781733857" lon="12.353476077280494"><ele>377.0</ele><time>2026-04-10T13:43:18Z</time></trkpt><trkpt lat="43.13231890082933" lon="12.353586242177498"><ele>377.0</ele><time>2026-04-10T13:43:19Z</time></trkpt><trkpt lat="43.132273503214996" lon="12.353700327852152"><ele>377.0</ele><time>2026-04-10T13:43:20Z</time></trkpt><trkpt lat="43.13222757732193" lon="12.353816119891146"><ele>377.0</ele><time>2026-04-10T13:43:21Z</time></trkpt><trkpt lat="43.132184430714176" lon="12.353925762862005"><ele>377.0</ele><time>2026-04-10T13:43:22Z</time></trkpt><trkpt lat="43.13214384094473" lon="12.354039792675138"><ele>378.8</ele><time>2026-04-10T13:43:23Z</time></trkpt><trkpt lat="43.13210620963211" lon="12.354156449414258"><ele>380.6</ele><time>2026-04-10T13:43:24Z</time></trkpt><trkpt lat="43.132067732388066" lon="12.354271316796154"><ele>382.40000000000003</ele><time>2026-04-10T13:43:25Z</time></trkpt><trkpt lat="43.13202641796334" lon="12.354382744994115"><ele>384.20000000000005</ele><time>2026-04-10T13:43:26Z</time></trkpt><trkpt lat="43.13197770903014" lon="12.354491335044415"><ele>386.0</ele><time>2026-04-10T13:43:27Z</time></trkpt><trkpt lat="43.13191988136127" lon="12.35459187358726"><ele>386.0</ele><time>2026-04-10T13:43:28Z</time></trkpt><trkpt lat="43.1318483084628" lon="12.354672463485684"><ele>386.0</ele><time>2026-04-10T13:43:29Z</time></trkpt><trkpt lat="43.13176205372237" lon="12.354726696324308"><ele>386.0</ele><time>2026-04-10T13:43:30Z</time></trkpt><trkpt lat="43.13166840934718" lon="12.354750710013594"><ele>386.0</ele><time>2026-04-10T13:43:31Z</time></trkpt><trkpt lat="43.1315774755073" lon="12.354742896698061"><ele>386.0</ele><time>2026-04-10T13:43:32Z</time></trkpt><trkpt lat="43.131488518073766" lon="12.35471302780362"><ele>386.49999999999994</ele><time>2026-04-10T13:43:33Z</time></trkpt><trkpt lat="43.13140506574444" lon="12.354665186679727"><ele>387.0</ele><time>2026-04-10T13:43:34Z</time></trkpt><trkpt lat="43.13132450345066" lon="12.35462062200536"><ele>387.5</ele><time>2026-04-10T13:43:35Z</time></trkpt><trkpt lat="43.13124452840141" lon="12.35458257649594"><ele>388.0</ele><time>2026-04-10T13:43:36Z</time></trkpt><trkpt lat="43.131162377702374" lon="12.35454951564078"><ele>388.49999999999994</ele><time>2026-04-10T13:43:37Z</time></trkpt><trkpt lat="43.13108177211345" lon="12.354515006737923"><ele>389.0</ele><time>2026-04-10T13:43:38Z</time></trkpt><trkpt lat="43.13099889148833" lon="12.35448484072688"><ele>388.99999999999994</ele><time>2026-04-10T13:43:39Z</time></trkpt><trkpt lat="43.13091429871953" lon="12.354464829127753"><ele>389.0</ele><time>2026-04-10T13:43:40Z</time></trkpt><trkpt lat="43.13082617250145" lon="12.354464327547857"><ele>389.0</ele><time>2026-04-10T13:43:41Z</time></trkpt><trkpt lat="43.13073785907427" lon="12.354480090455326"><ele>389.0</ele><time>2026-04-10T13:43:42Z</time></trkpt><trkpt lat="43.130650135592575" lon="12.354519490632867"><ele>388.99999999999994</ele><time>2026-04-10T13:43:43Z</time></trkpt><trkpt lat="43.13056911147774" lon="12.354571226307678"><ele>389.0</ele><time>2026-04-10T13:43:44Z</time></trkpt><trkpt lat="43.13049603836373" lon="12.354641855577102"><ele>389.6</ele><time>2026-04-10T13:43:45Z</time></trkpt><trkpt lat="43.13042784485696" lon="12.354728121187113"><ele>390.2</ele><time>2026-04-10T13:43:46Z</time></trkpt><trkpt lat="43.130370248409484" lon="12.354821094223084"><ele>390.8</ele><time>2026-04-10T13:43:47Z</time></trkpt><trkpt lat="43.130318220187384" lon="12.3549254620715"><ele>391.40000000000003</ele><time>2026-04-10T13:43:48Z</time></trkpt><trkpt lat="43.130272285910756" lon="12.355032151779618"><ele>392.0</ele><time>2026-04-10T13:43:49Z</time></trkpt><trkpt lat="43.13022715343339" lon="12.355144471308247"><ele>392.0</ele><time>2026-04-10T13:43:50Z</time></trkpt><trkpt lat="43.13018961024572" lon="12.355259377406353"><ele>392.0</ele><time>2026-04-10T13:43:51Z</time></trkpt><trkpt lat="43.130158095184875" lon="12.355377358624054"><ele>392.0</ele><time>2026-04-10T13:43:52Z</time></trkpt><trkpt lat="43.1301299640766" lon="12.355503598735712"><ele>392.0</ele><time>2026-04-10T13:43:53Z</time></trkpt><trkpt lat="43.130109033717986" lon="12.355625315002468"><ele>392.0</ele><time>2026-04-10T13:43:54Z</time></trkpt><trkpt lat="43.130092714040636" lon="12.355752518278784"><ele>392.66666666666663</ele><time>2026-04-10T13:43:55Z</time></trkpt><trkpt lat="43.1300815093235" lon="12.35587433290724"><ele>393.3333333333333</ele><time>2026-04-10T13:43:56Z</time></trkpt><trkpt lat="43.130074614150985" lon="12.356007964825492"><ele>394.0</ele><time>2026-04-10T13:43:57Z</time></trkpt><trkpt lat="43.130068916318216" lon="12.356127098512404"><ele>394.66666666666663</ele><time>2026-04-10T13:43:58Z</time></trkpt><trkpt lat="43.13006714425554" lon="12.356244425155616"><ele>395.3333333333333</ele><time>2026-04-10T13:43:59Z</time></trkpt><trkpt lat="43.130062557327165" lon="12.356357482356042"><ele>396.0</ele><time>2026-04-10T13:44:00Z</time></trkpt><trkpt lat="43.13005531365482" lon="12.35646773770244"><ele>396.3333333333333</ele><time>2026-04-10T13:44:01Z</time></trkpt><trkpt lat="43.13004832598806" lon="12.356575147177702"><ele>396.66666666666663</ele><time>2026-04-10T13:44:02Z</time></trkpt><trkpt lat="43.130042601538364" lon="12.35669028729512"><ele>397.0</ele><time>2026-04-10T13:44:03Z</time></trkpt><trkpt lat="43.13003636273646" lon="12.356813572693271"><ele>397.3333333333333</ele><time>2026-04-10T13:44:04Z</time></trkpt><trkpt lat="43.13003135054378" lon="12.356930540756942"><ele>397.66666666666663</ele><time>2026-04-10T13:44:05Z</time></trkpt><trkpt lat="43.13002434415617" lon="12.357051676644216"><ele>398.0</ele><time>2026-04-10T13:44:06Z</time></trkpt><trkpt lat="43.13001721192312" lon="12.357173348017575"><ele>397.79999999999995</ele><time>2026-04-10T13:44:07Z</time></trkpt><trkpt lat="43.13000935804631" lon="12.357297418804533"><ele>397.6</ele><time>2026-04-10T13:44:08Z</time></trkpt><trkpt lat="43.130003083973016" lon="12.35742321254761"><ele>397.4</ele><time>2026-04-10T13:44:09Z</time></trkpt><trkpt lat="43.12999691783505" lon="12.357546799746482"><ele>397.20000000000005</ele><time>2026-04-10T13:44:10Z</time></trkpt><trkpt lat="43.12999071408996" lon="12.357673036109496"><ele>397.0</ele><time>2026-04-10T13:44:11Z</time></trkpt><trkpt lat="43.12998398128008" lon="12.357796937878264"><ele>397.00000000000006</ele><time>2026-04-10T13:44:12Z</time></trkpt><trkpt lat="43.12997508565006" lon="12.357919507115982"><ele>397.0</ele><time>2026-04-10T13:44:13Z</time></trkpt><trkpt lat="43.12996725642214" lon="12.358044376127356"><ele>397.0</ele><time>2026-04-10T13:44:14Z</time></trkpt><trkpt lat="43.129960884534775" lon="12.358166596667372"><ele>397.0</ele><time>2026-04-10T13:44:15Z</time></trkpt><trkpt lat="43.12995526273691" lon="12.358288453066871"><ele>397.00000000000006</ele><time>2026-04-10T13:44:16Z</time></trkpt><trkpt lat="43.12994797556204" lon="12.358408109609625"><ele>397.0</ele><time>2026-04-10T13:44:17Z</time></trkpt><trkpt lat="43.12994349756844" lon="12.358531339652423"><ele>397.00000000000006</ele><time>2026-04-10T13:44:18Z</time></trkpt><trkpt lat="43.12993673260944" lon="12.358651228314368"><ele>397.0</ele><time>2026-04-10T13:44:19Z</time></trkpt><trkpt lat="43.12992945423974" lon="12.358771857980603"><ele>397.0</ele><time>2026-04-10T13:44:20Z</time></trkpt><trkpt lat="43.129923363740446" lon="12.358892711839376"><ele>397.0</ele><time>2026-04-10T13:44:21Z</time></trkpt><trkpt lat="43.1299181128829" lon="12.359014535538313"><ele>397.00000000000006</ele><time>2026-04-10T13:44:22Z</time></trkpt><trkpt lat="43.129914113753564" lon="12.359133453941256"><ele>397.0</ele><time>2026-04-10T13:44:23Z</time></trkpt><trkpt lat="43.129917583466025" lon="12.359252447644277"><ele>397.50000000000006</ele><time>2026-04-10T13:44:24Z</time></trkpt><trkpt lat="43.12992766208014" lon="12.359372191798661"><ele>398.0</ele><time>2026-04-10T13:44:25Z</time></trkpt><trkpt lat="43.12993987206728" lon="12.359491974382605"><ele>398.5</ele><time>2026-04-10T13:44:26Z</time></trkpt><trkpt lat="43.12996488001943" lon="12.359608760420903"><ele>399.0</ele><time>2026-04-10T13:44:27Z</time></trkpt><trkpt lat="43.13000313406516" lon="12.359722942926977"><ele>399.50000000000006</ele><time>2026-04-10T13:44:28Z</time></trkpt><trkpt lat="43.13005051577871" lon="12.359831224205523"><ele>400.0</ele><time>2026-04-10T13:44:29Z</time></trkpt><trkpt lat="43.130108284288326" lon="12.35993529238967"><ele>400.0</ele><time>2026-04-10T13:44:30Z</time></trkpt><trkpt lat="43.13017219446978" lon="12.36003098278322"><ele>400.0</ele><time>2026-04-10T13:44:31Z</time></trkpt><trkpt lat="43.13023896630918" lon="12.360120586959406"><ele>400.0</ele><time>2026-04-10T13:44:32Z</time></trkpt><trkpt lat="43.13030656645074" lon="12.360215443171759"><ele>400.0</ele><time>2026-04-10T13:44:33Z</time></trkpt><trkpt lat="43.13035667034593" lon="12.360324053371365"><ele>400.0</ele><time>2026-04-10T13:44:34Z</time></trkpt><trkpt lat="43.13038257688177" lon="12.360439124364785"><ele>398.8</ele><time>2026-04-10T13:44:35Z</time></trkpt><trkpt lat="43.130394680604724" lon="12.360559950452824"><ele>397.6</ele><time>2026-04-10T13:44:36Z</time></trkpt><trkpt lat="43.130389440480066" lon="12.360683459049243"><ele>396.4</ele><time>2026-04-10T13:44:37Z</time></trkpt><trkpt lat="43.130370682578395" lon="12.360811287834277"><ele>395.2</ele><time>2026-04-10T13:44:38Z</time></trkpt><trkpt lat="43.130351457937984" lon="12.360934053615509"><ele>394.0</ele><time>2026-04-10T13:44:39Z</time></trkpt><trkpt lat="43.130341922769176" lon="12.36106284588811"><ele>394.0</ele><time>2026-04-10T13:44:40Z</time></trkpt><trkpt lat="43.130336683052064" lon="12.361194454836447"><ele>394.0</ele><time>2026-04-10T13:44:41Z</time></trkpt><trkpt lat="43.130330069351544" lon="12.361325712615505"><ele>394.0</ele><time>2026-04-10T13:44:42Z</time></trkpt><trkpt lat="43.13032317449767" lon="12.361454098810768"><ele>394.0</ele><time>2026-04-10T13:44:43Z</time></trkpt><trkpt lat="43.130315306847315" lon="12.36158314675641"><ele>394.0</ele><time>2026-04-10T13:44:44Z</time></trkpt><trkpt lat="43.130307459542855" lon="12.361711589177808"><ele>393.4</ele><time>2026-04-10T13:44:45Z</time></trkpt><trkpt lat="43.130308864487844" lon="12.361838424579945"><ele>392.79999999999995</ele><time>2026-04-10T13:44:46Z</time></trkpt><trkpt lat="43.13033135450689" lon="12.361961111902895"><ele>392.20000000000005</ele><time>2026-04-10T13:44:47Z</time></trkpt><trkpt lat="43.13036133763187" lon="12.362084875510888"><ele>391.6</ele><time>2026-04-10T13:44:48Z</time></trkpt><trkpt lat="43.13044460675793" lon="12.362165823785379"><ele>391.0</ele><time>2026-04-10T13:44:49Z</time></trkpt><trkpt lat="43.13053166652313" lon="12.362211923838549"><ele>391.00000000000006</ele><time>2026-04-10T13:44:50Z</time></trkpt><trkpt lat="43.130581366548064" lon="12.362319650661597"><ele>391.0</ele><time>2026-04-10T13:44:51Z</time></trkpt><trkpt lat="43.13059313134177" lon="12.362420961932981"><ele>391.0</ele><time>2026-04-10T13:44:52Z</time></trkpt><trkpt lat="43.13057064392261" lon="12.362531553984526"><ele>391.0</ele><time>2026-04-10T13:44:53Z</time></trkpt><trkpt lat="43.13052980225281" lon="12.36263505320629"><ele>391.00000000000006</ele><time>2026-04-10T13:44:54Z</time></trkpt><trkpt lat="43.13047109237389" lon="12.362727325660112"><ele>391.0</ele><time>2026-04-10T13:44:55Z</time></trkpt><trkpt lat="43.130398900273335" lon="12.362797623725893"><ele>391.0</ele><time>2026-04-10T13:44:56Z</time></trkpt><trkpt lat="43.130318005175525" lon="12.362851961443067"><ele>391.0</ele><time>2026-04-10T13:44:57Z</time></trkpt><trkpt lat="43.13023571415159" lon="12.36291011989073"><ele>391.0</ele><time>2026-04-10T13:44:58Z</time></trkpt><trkpt lat="43.13016015147381" lon="12.362962047905505"><ele>391.0</ele><time>2026-04-10T13:44:59Z</time></trkpt><trkpt lat="43.13006875895222" lon="12.363009096277404"><ele>391.0</ele><time>2026-04-10T13:45:00Z</time></trkpt><trkpt lat="43.129979888285504" lon="12.363049863718867"><ele>392.20000000000005</ele><time>2026-04-10T13:45:01Z</time></trkpt><trkpt lat="43.129892337968776" lon="12.363093199241916"><ele>393.40000000000003</ele><time>2026-04-10T13:45:02Z</time></trkpt><trkpt lat="43.12980349582272" lon="12.363136255936878"><ele>394.6</ele><time>2026-04-10T13:45:03Z</time></trkpt><trkpt lat="43.129717553041004" lon="12.363186433945835"><ele>395.8</ele><time>2026-04-10T13:45:04Z</time></trkpt><trkpt lat="43.12962831844741" lon="12.36323566735415"><ele>397.0</ele><time>2026-04-10T13:45:05Z</time></trkpt><trkpt lat="43.1295413775149" lon="12.363283589264482"><ele>397.0</ele><time>2026-04-10T13:45:06Z</time></trkpt><trkpt lat="43.1294538000119" lon="12.363330259363982"><ele>397.0</ele><time>2026-04-10T13:45:07Z</time></trkpt><trkpt lat="43.12936624223818" lon="12.363372239409843"><ele>397.0</ele><time>2026-04-10T13:45:08Z</time></trkpt><trkpt lat="43.12927808660534" lon="12.36341348757375"><ele>397.0</ele><time>2026-04-10T13:45:09Z</time></trkpt><trkpt lat="43.12918752532325" lon="12.363453755974138"><ele>397.0</ele><time>2026-04-10T13:45:10Z</time></trkpt><trkpt lat="43.12909938403454" lon="12.363493338738065"><ele>397.20000000000005</ele><time>2026-04-10T13:45:11Z</time></trkpt><trkpt lat="43.12901072287249" lon="12.363538430526134"><ele>397.4</ele><time>2026-04-10T13:45:12Z</time></trkpt><trkpt lat="43.128925793115116" lon="12.363584476472507"><ele>397.6</ele><time>2026-04-10T13:45:13Z</time></trkpt><trkpt lat="43.128839919325834" lon="12.363623186021643"><ele>397.79999999999995</ele><time>2026-04-10T13:45:14Z</time></trkpt><trkpt lat="43.128753892084966" lon="12.363668050523366"><ele>398.0</ele><time>2026-04-10T13:45:15Z</time></trkpt><trkpt lat="43.128668306678826" lon="12.36370759623183"><ele>398.0</ele><time>2026-04-10T13:45:16Z</time></trkpt><trkpt lat="43.12858295298425" lon="12.363750197404443"><ele>398.0</ele><time>2026-04-10T13:45:17Z</time></trkpt><trkpt lat="43.12849900844631" lon="12.363794457863483"><ele>398.0</ele><time>2026-04-10T13:45:18Z</time></trkpt><trkpt lat="43.12841360014003" lon="12.363839131734633"><ele>398.0</ele><time>2026-04-10T13:45:19Z</time></trkpt><trkpt lat="43.12832882161304" lon="12.363882800142589"><ele>398.0</ele><time>2026-04-10T13:45:20Z</time></trkpt><trkpt lat="43.128245754026025" lon="12.36392828342519"><ele>399.99999999999994</ele><time>2026-04-10T13:45:21Z</time></trkpt><trkpt lat="43.12816388480266" lon="12.36398157980208"><ele>402.0</ele><time>2026-04-10T13:45:22Z</time></trkpt><trkpt lat="43.12808174039447" lon="12.364037310589694"><ele>404.0</ele><time>2026-04-10T13:45:23Z</time></trkpt><trkpt lat="43.12800202571209" lon="12.364083540729965"><ele>406.0</ele><time>2026-04-10T13:45:24Z</time></trkpt><trkpt lat="43.12792716257305" lon="12.364149967299973"><ele>407.99999999999994</ele><time>2026-04-10T13:45:25Z</time></trkpt><trkpt lat="43.12784974680691" lon="12.364183227572505"><ele>410.0</ele><time>2026-04-10T13:45:26Z</time></trkpt><trkpt lat="43.12784438666547" lon="12.364360959643445"><ele>409.99999999999994</ele><time>2026-04-10T13:45:27Z</time></trkpt><trkpt lat="43.12781421675349" lon="12.364476672672206"><ele>410.0</ele><time>2026-04-10T13:45:28Z</time></trkpt><trkpt lat="43.12777934245972" lon="12.364587114731258"><ele>410.0</ele><time>2026-04-10T13:45:29Z</time></trkpt><trkpt lat="43.12775119390327" lon="12.364701521338334"><ele>410.0</ele><time>2026-04-10T13:45:30Z</time></trkpt><trkpt lat="43.12772988208253" lon="12.364826291169765"><ele>409.99999999999994</ele><time>2026-04-10T13:45:31Z</time></trkpt><trkpt lat="43.12770709656874" lon="12.364945254305628"><ele>410.0</ele><time>2026-04-10T13:45:32Z</time></trkpt><trkpt lat="43.127685975366376" lon="12.36506573149957"><ele>408.8</ele><time>2026-04-10T13:45:33Z</time></trkpt><trkpt lat="43.12767045179863" lon="12.365190578770452"><ele>407.6</ele><time>2026-04-10T13:45:34Z</time></trkpt><trkpt lat="43.12765124970984" lon="12.365299538655082"><ele>406.4</ele><time>2026-04-10T13:45:35Z</time></trkpt><trkpt lat="43.12761998471135" lon="12.365430955553846"><ele>405.2</ele><time>2026-04-10T13:45:36Z</time></trkpt><trkpt lat="43.12759939485896" lon="12.365566559057521"><ele>404.0</ele><time>2026-04-10T13:45:37Z</time></trkpt><trkpt lat="43.127579097457534" lon="12.365694697378382"><ele>403.0</ele><time>2026-04-10T13:45:38Z</time></trkpt><trkpt lat="43.127556136187245" lon="12.365831926974709"><ele>402.0</ele><time>2026-04-10T13:45:39Z</time></trkpt><trkpt lat="43.12754129682968" lon="12.365950666199664"><ele>401.0</ele><time>2026-04-10T13:45:40Z</time></trkpt><trkpt lat="43.12752428921394" lon="12.366075782034214"><ele>400.0</ele><time>2026-04-10T13:45:41Z</time></trkpt><trkpt lat="43.127495934536114" lon="12.366198208420029"><ele>399.0</ele><time>2026-04-10T13:45:42Z</time></trkpt><trkpt lat="43.12745285288309" lon="12.36630790244433"><ele>402.6</ele><time>2026-04-10T13:45:43Z</time></trkpt><trkpt lat="43.12738903389994" lon="12.366401024504778"><ele>406.2</ele><time>2026-04-10T13:45:44Z</time></trkpt><trkpt lat="43.127299745410966" lon="12.366451667466045"><ele>409.8</ele><time>2026-04-10T13:45:45Z</time></trkpt><trkpt lat="43.12720221960369" lon="12.366460525417656"><ele>413.40000000000003</ele><time>2026-04-10T13:45:46Z</time></trkpt><trkpt lat="43.12711269541077" lon="12.366441430019876"><ele>417.0</ele><time>2026-04-10T13:45:47Z</time></trkpt><trkpt lat="43.12702278649644" lon="12.3664158366228"><ele>417.0</ele><time>2026-04-10T13:45:48Z</time></trkpt><trkpt lat="43.12693653177988" lon="12.366398098343293"><ele>417.0</ele><time>2026-04-10T13:45:49Z</time></trkpt><trkpt lat="43.12684930394883" lon="12.366382852680271"><ele>417.0</ele><time>2026-04-10T13:45:50Z</time></trkpt><trkpt lat="43.126759408772436" lon="12.366365312727348"><ele>417.0</ele><time>2026-04-10T13:45:51Z</time></trkpt><trkpt lat="43.12666879119658" lon="12.366348372839598"><ele>417.0</ele><time>2026-04-10T13:45:52Z</time></trkpt><trkpt lat="43.126580998739215" lon="12.366341731329738"><ele>417.0</ele><time>2026-04-10T13:45:53Z</time></trkpt><trkpt lat="43.12649173713015" lon="12.366334594346293"><ele>414.6</ele><time>2026-04-10T13:45:54Z</time></trkpt><trkpt lat="43.12640163059028" lon="12.366338957666253"><ele>412.20000000000005</ele><time>2026-04-10T13:45:55Z</time></trkpt><trkpt lat="43.12631228168039" lon="12.36635047797589"><ele>409.8</ele><time>2026-04-10T13:45:56Z</time></trkpt><trkpt lat="43.126223487927675" lon="12.366370250225133"><ele>407.4</ele><time>2026-04-10T13:45:57Z</time></trkpt><trkpt lat="43.126133883445306" lon="12.36640523417487"><ele>405.0</ele><time>2026-04-10T13:45:58Z</time></trkpt><trkpt lat="43.12605301558247" lon="12.366461801397534"><ele>405.0</ele><time>2026-04-10T13:45:59Z</time></trkpt><trkpt lat="43.12597319559535" lon="12.366529037649904"><ele>405.0</ele><time>2026-04-10T13:46:00Z</time></trkpt><trkpt lat="43.12590135286521" lon="12.366612592495175"><ele>405.0</ele><time>2026-04-10T13:46:01Z</time></trkpt><trkpt lat="43.12584050184922" lon="12.36670708003933"><ele>405.0</ele><time>2026-04-10T13:46:02Z</time></trkpt><trkpt lat="43.1257929222531" lon="12.36681949187783"><ele>405.0</ele><time>2026-04-10T13:46:03Z</time></trkpt><trkpt lat="43.125763018334375" lon="12.366936870928184"><ele>405.0</ele><time>2026-04-10T13:46:04Z</time></trkpt><trkpt lat="43.125744829692785" lon="12.367062617514739"><ele>405.0</ele><time>2026-04-10T13:46:05Z</time></trkpt><trkpt lat="43.12574098014734" lon="12.367190742692532"><ele>405.0</ele><time>2026-04-10T13:46:06Z</time></trkpt><trkpt lat="43.12574605075134" lon="12.367323283447964"><ele>405.0</ele><time>2026-04-10T13:46:07Z</time></trkpt><trkpt lat="43.1257550561702" lon="12.367458506992525"><ele>405.0</ele><time>2026-04-10T13:46:08Z</time></trkpt><trkpt lat="43.12575158945495" lon="12.367584314104166"><ele>406.0</ele><time>2026-04-10T13:46:09Z</time></trkpt><trkpt lat="43.12574264633275" lon="12.367719568229123"><ele>407.0</ele><time>2026-04-10T13:46:10Z</time></trkpt><trkpt lat="43.12572230345155" lon="12.36784767219886"><ele>408.0</ele><time>2026-04-10T13:46:11Z</time></trkpt><trkpt lat="43.125698007021846" lon="12.367979154251035"><ele>409.0</ele><time>2026-04-10T13:46:12Z</time></trkpt><trkpt lat="43.125661457320966" lon="12.36809884723565"><ele>410.0</ele><time>2026-04-10T13:46:13Z</time></trkpt><trkpt lat="43.125612019868235" lon="12.368200077770743"><ele>407.2</ele><time>2026-04-10T13:46:14Z</time></trkpt><trkpt lat="43.125540959501144" lon="12.368280084156826"><ele>404.4</ele><time>2026-04-10T13:46:15Z</time></trkpt><trkpt lat="43.12546175459287" lon="12.368344544906567"><ele>401.6</ele><time>2026-04-10T13:46:16Z</time></trkpt><trkpt lat="43.125391334686356" lon="12.368407723603877"><ele>398.8</ele><time>2026-04-10T13:46:17Z</time></trkpt><trkpt lat="43.12531748956809" lon="12.36847827362664"><ele>396.0</ele><time>2026-04-10T13:46:18Z</time></trkpt><trkpt lat="43.12523986913625" lon="12.368552671062979"><ele>396.0</ele><time>2026-04-10T13:46:19Z</time></trkpt><trkpt lat="43.1251749314793" lon="12.36863073939084"><ele>396.0</ele><time>2026-04-10T13:46:20Z</time></trkpt><trkpt lat="43.12510862495195" lon="12.368719606181717"><ele>396.0</ele><time>2026-04-10T13:46:21Z</time></trkpt><trkpt lat="43.12505634090276" lon="12.368823381169408"><ele>396.0</ele><time>2026-04-10T13:46:22Z</time></trkpt><trkpt lat="43.12501405814843" lon="12.3689394192187"><ele>396.0</ele><time>2026-04-10T13:46:23Z</time></trkpt><trkpt lat="43.12498378321051" lon="12.369063250123707"><ele>395.4</ele><time>2026-04-10T13:46:24Z</time></trkpt><trkpt lat="43.124962075646415" lon="12.369193701487927"><ele>394.8</ele><time>2026-04-10T13:46:25Z</time></trkpt><trkpt lat="43.12494863525337" lon="12.369324186203466"><ele>394.2</ele><time>2026-04-10T13:46:26Z</time></trkpt><trkpt lat="43.12493243955299" lon="12.369454983174029"><ele>393.59999999999997</ele><time>2026-04-10T13:46:27Z</time></trkpt><trkpt lat="43.12490218671871" lon="12.36957533502448"><ele>393.0</ele><time>2026-04-10T13:46:28Z</time></trkpt><trkpt lat="43.124851418947195" lon="12.369681789816173"><ele>395.4</ele><time>2026-04-10T13:46:29Z</time></trkpt><trkpt lat="43.1247795206643" lon="12.369767955805331"><ele>397.79999999999995</ele><time>2026-04-10T13:46:30Z</time></trkpt><trkpt lat="43.1246882152115" lon="12.369810984180566"><ele>400.2</ele><time>2026-04-10T13:46:31Z</time></trkpt><trkpt lat="43.12458967772774" lon="12.369802075043204"><ele>402.6</ele><time>2026-04-10T13:46:32Z</time></trkpt><trkpt lat="43.124500837191555" lon="12.36976954048335"><ele>405.0</ele><time>2026-04-10T13:46:33Z</time></trkpt><trkpt lat="43.124413376998646" lon="12.369748821273385"><ele>405.0</ele><time>2026-04-10T13:46:34Z</time></trkpt><trkpt lat="43.12432735405804" lon="12.369741583743663"><ele>405.0</ele><time>2026-04-10T13:46:35Z</time></trkpt><trkpt lat="43.12423929498718" lon="12.369740780522141"><ele>405.0</ele><time>2026-04-10T13:46:36Z</time></trkpt><trkpt lat="43.12414752597012" lon="12.369746700729793"><ele>405.0</ele><time>2026-04-10T13:46:37Z</time></trkpt><trkpt lat="43.12406393786801" lon="12.369759022752646"><ele>405.0</ele><time>2026-04-10T13:46:38Z</time></trkpt><trkpt lat="43.12397273678251" lon="12.369776556109342"><ele>405.0</ele><time>2026-04-10T13:46:39Z</time></trkpt><trkpt lat="43.123881432947805" lon="12.369797418225039"><ele>405.5</ele><time>2026-04-10T13:46:40Z</time></trkpt><trkpt lat="43.12379378956472" lon="12.369805123736665"><ele>406.0</ele><time>2026-04-10T13:46:41Z</time></trkpt><trkpt lat="43.123703808199004" lon="12.369831227648278"><ele>406.5</ele><time>2026-04-10T13:46:42Z</time></trkpt><trkpt lat="43.12361651106615" lon="12.369855689359937"><ele>407.0</ele><time>2026-04-10T13:46:43Z</time></trkpt><trkpt lat="43.12352953808479" lon="12.369886755950798"><ele>407.5</ele><time>2026-04-10T13:46:44Z</time></trkpt><trkpt lat="43.12345034122255" lon="12.369927410278951"><ele>408.0</ele><time>2026-04-10T13:46:45Z</time></trkpt><trkpt lat="43.12338915824274" lon="12.369980304382624"><ele>408.0</ele><time>2026-04-10T13:46:46Z</time></trkpt><trkpt lat="43.123320111339446" lon="12.370055134036676"><ele>408.0</ele><time>2026-04-10T13:46:47Z</time></trkpt><trkpt lat="43.1232630066816" lon="12.370131486197801"><ele>408.0</ele><time>2026-04-10T13:46:48Z</time></trkpt><trkpt lat="43.1231993203572" lon="12.370210795798457"><ele>408.0</ele><time>2026-04-10T13:46:49Z</time></trkpt><trkpt lat="43.12313667345721" lon="12.37029447626631"><ele>408.0</ele><time>2026-04-10T13:46:50Z</time></trkpt><trkpt lat="43.12306993319147" lon="12.370376352830569"><ele>408.0</ele><time>2026-04-10T13:46:51Z</time></trkpt><trkpt lat="43.12300332636005" lon="12.370470163644718"><ele>408.59999999999997</ele><time>2026-04-10T13:46:52Z</time></trkpt><trkpt lat="43.12294594903967" lon="12.370567496084707"><ele>409.2</ele><time>2026-04-10T13:46:53Z</time></trkpt><trkpt lat="43.12288723067561" lon="12.370669273586108"><ele>409.8</ele><time>2026-04-10T13:46:54Z</time></trkpt><trkpt lat="43.12283476568974" lon="12.370781439169962"><ele>410.4</ele><time>2026-04-10T13:46:55Z</time></trkpt><trkpt lat="43.12278950164058" lon="12.37089884753584"><ele>411.0</ele><time>2026-04-10T13:46:56Z</time></trkpt><trkpt lat="43.12275658093773" lon="12.37102019561325"><ele>411.0</ele><time>2026-04-10T13:46:57Z</time></trkpt><trkpt lat="43.12273131727922" lon="12.371144815332482"><ele>411.0</ele><time>2026-04-10T13:46:58Z</time></trkpt><trkpt lat="43.122714802286225" lon="12.371272264709848"><ele>411.0</ele><time>2026-04-10T13:46:59Z</time></trkpt><trkpt lat="43.12270103632544" lon="12.371397116754315"><ele>411.0</ele><time>2026-04-10T13:47:00Z</time></trkpt><trkpt lat="43.12268324167762" lon="12.371517300982049"><ele>411.0</ele><time>2026-04-10T13:47:01Z</time></trkpt><trkpt lat="43.122664766212516" lon="12.371638850774776"><ele>409.6666666666667</ele><time>2026-04-10T13:47:02Z</time></trkpt><trkpt lat="43.122645909348186" lon="12.371751738817808"><ele>408.33333333333337</ele><time>2026-04-10T13:47:03Z</time></trkpt><trkpt lat="43.12263288242644" lon="12.37186139856784"><ele>407.0</ele><time>2026-04-10T13:47:04Z</time></trkpt><trkpt lat="43.12261517671271" lon="12.371955786571002"><ele>405.6666666666667</ele><time>2026-04-10T13:47:05Z</time></trkpt><trkpt lat="43.122588556844136" lon="12.372034796764892"><ele>404.33333333333337</ele><time>2026-04-10T13:47:06Z</time></trkpt><trkpt lat="43.1224774667287" lon="12.372107196234383"><ele>403.0</ele><time>2026-04-10T13:47:08Z</time></trkpt><trkpt lat="43.12240823619542" lon="12.372114110067367"><ele>402.4</ele><time>2026-04-10T13:47:09Z</time></trkpt><trkpt lat="43.122323940785954" lon="12.37210146632321"><ele>401.79999999999995</ele><time>2026-04-10T13:47:10Z</time></trkpt><trkpt lat="43.12223765302798" lon="12.372069468291878"><ele>401.2</ele><time>2026-04-10T13:47:11Z</time></trkpt><trkpt lat="43.12215415056099" lon="12.372034976100418"><ele>400.6</ele><time>2026-04-10T13:47:12Z</time></trkpt><trkpt lat="43.12205850270681" lon="12.371999363561171"><ele>400.0</ele><time>2026-04-10T13:47:13Z</time></trkpt><trkpt lat="43.121960096318446" lon="12.37197672754562"><ele>400.0</ele><time>2026-04-10T13:47:14Z</time></trkpt><trkpt lat="43.12186202279092" lon="12.371955219993"><ele>400.0</ele><time>2026-04-10T13:47:15Z</time></trkpt><trkpt lat="43.121766409211105" lon="12.371929201354307"><ele>400.0</ele><time>2026-04-10T13:47:16Z</time></trkpt><trkpt lat="43.121671624448275" lon="12.371897842437386"><ele>400.0</ele><time>2026-04-10T13:47:17Z</time></trkpt><trkpt lat="43.12158219300969" lon="12.37186678462398"><ele>400.0</ele><time>2026-04-10T13:47:18Z</time></trkpt><trkpt lat="43.12148892480231" lon="12.371844144665923"><ele>399.4</ele><time>2026-04-10T13:47:19Z</time></trkpt><trkpt lat="43.121393223335375" lon="12.371834514672626"><ele>398.8</ele><time>2026-04-10T13:47:20Z</time></trkpt><trkpt lat="43.12130034440722" lon="12.371817812332543"><ele>398.20000000000005</ele><time>2026-04-10T13:47:21Z</time></trkpt><trkpt lat="43.121204438355434" lon="12.3718046622225"><ele>397.6</ele><time>2026-04-10T13:47:22Z</time></trkpt><trkpt lat="43.12110924953143" lon="12.371795332919499"><ele>397.0</ele><time>2026-04-10T13:47:23Z</time></trkpt><trkpt lat="43.121018275889845" lon="12.371785143043356"><ele>397.0</ele><time>2026-04-10T13:47:24Z</time></trkpt><trkpt lat="43.12092473615893" lon="12.371781581995338"><ele>397.0</ele><time>2026-04-10T13:47:25Z</time></trkpt><trkpt lat="43.12083161717315" lon="12.37177767716406"><ele>397.0</ele><time>2026-04-10T13:47:26Z</time></trkpt><trkpt lat="43.12073525217519" lon="12.371771908156367"><ele>397.0</ele><time>2026-04-10T13:47:27Z</time></trkpt><trkpt lat="43.120642026145575" lon="12.371759982394892"><ele>397.0</ele><time>2026-04-10T13:47:28Z</time></trkpt><trkpt lat="43.12055213580482" lon="12.37175117711905"><ele>396.8</ele><time>2026-04-10T13:47:29Z</time></trkpt><trkpt lat="43.12046435614864" lon="12.371743746862384"><ele>396.6</ele><time>2026-04-10T13:47:30Z</time></trkpt><trkpt lat="43.12037105417675" lon="12.371738941264958"><ele>396.40000000000003</ele><time>2026-04-10T13:47:31Z</time></trkpt><trkpt lat="43.12028345540114" lon="12.371726571494435"><ele>396.20000000000005</ele><time>2026-04-10T13:47:32Z</time></trkpt><trkpt lat="43.12019013813051" lon="12.371712160046997"><ele>396.0</ele><time>2026-04-10T13:47:33Z</time></trkpt><trkpt lat="43.12009380947508" lon="12.37169668881139"><ele>396.0</ele><time>2026-04-10T13:47:34Z</time></trkpt><trkpt lat="43.12000028939659" lon="12.371685804512694"><ele>396.0</ele><time>2026-04-10T13:47:35Z</time></trkpt><trkpt lat="43.11990555964571" lon="12.371675108750125"><ele>396.0</ele><time>2026-04-10T13:47:36Z</time></trkpt><trkpt lat="43.11981157688304" lon="12.371661913549145"><ele>396.0</ele><time>2026-04-10T13:47:37Z</time></trkpt><trkpt lat="43.119717977929625" lon="12.371647454021785"><ele>396.0</ele><time>2026-04-10T13:47:38Z</time></trkpt><trkpt lat="43.11962503815295" lon="12.371640363134444"><ele>394.8</ele><time>2026-04-10T13:47:39Z</time></trkpt><trkpt lat="43.11953290459411" lon="12.371633782806725"><ele>393.6</ele><time>2026-04-10T13:47:40Z</time></trkpt><trkpt lat="43.119446661458916" lon="12.371621844878934"><ele>392.4</ele><time>2026-04-10T13:47:41Z</time></trkpt><trkpt lat="43.11935510879254" lon="12.371615949438452"><ele>391.2</ele><time>2026-04-10T13:47:42Z</time></trkpt><trkpt lat="43.11926199186286" lon="12.371622047848106"><ele>390.0</ele><time>2026-04-10T13:47:43Z</time></trkpt><trkpt lat="43.11916381329574" lon="12.371636561866449"><ele>389.4</ele><time>2026-04-10T13:47:44Z</time></trkpt><trkpt lat="43.11906725788805" lon="12.371650735675994"><ele>388.8</ele><time>2026-04-10T13:47:45Z</time></trkpt><trkpt lat="43.11896710538712" lon="12.371660642613335"><ele>388.20000000000005</ele><time>2026-04-10T13:47:46Z</time></trkpt><trkpt lat="43.11887069261626" lon="12.371663693479952"><ele>387.6</ele><time>2026-04-10T13:47:47Z</time></trkpt><trkpt lat="43.118774087857766" lon="12.371669664726344"><ele>387.0</ele><time>2026-04-10T13:47:48Z</time></trkpt><trkpt lat="43.11867802676301" lon="12.37167697312844"><ele>387.0</ele><time>2026-04-10T13:47:49Z</time></trkpt><trkpt lat="43.118586566505705" lon="12.371691660777335"><ele>387.0</ele><time>2026-04-10T13:47:50Z</time></trkpt><trkpt lat="43.11848790501437" lon="12.371698632591109"><ele>387.0</ele><time>2026-04-10T13:47:51Z</time></trkpt><trkpt lat="43.118395972769314" lon="12.371717134619121"><ele>387.0</ele><time>2026-04-10T13:47:52Z</time></trkpt><trkpt lat="43.11830607982778" lon="12.371720946895575"><ele>387.0</ele><time>2026-04-10T13:47:53Z</time></trkpt><trkpt lat="43.118224815131605" lon="12.371714629939914"><ele>387.0</ele><time>2026-04-10T13:47:54Z</time></trkpt><trkpt lat="43.1181541490024" lon="12.371688680359439"><ele>387.0</ele><time>2026-04-10T13:47:55Z</time></trkpt><trkpt lat="43.1180899040947" lon="12.371646118500216"><ele>387.0</ele><time>2026-04-10T13:47:56Z</time></trkpt><trkpt lat="43.118087924572414" lon="12.371430009330819"><ele>387.0</ele><time>2026-04-10T13:47:58Z</time></trkpt><trkpt lat="43.11812555126297" lon="12.371332016986505"><ele>387.0</ele><time>2026-04-10T13:47:59Z</time></trkpt><trkpt lat="43.11817111513317" lon="12.37122959681756"><ele>386.20000000000005</ele><time>2026-04-10T13:48:00Z</time></trkpt><trkpt lat="43.1182193539688" lon="12.371137658706456"><ele>385.4</ele><time>2026-04-10T13:48:01Z</time></trkpt><trkpt lat="43.11827061372214" lon="12.371032091509033"><ele>384.6</ele><time>2026-04-10T13:48:02Z</time></trkpt><trkpt lat="43.118320716443456" lon="12.37092712832186"><ele>383.79999999999995</ele><time>2026-04-10T13:48:03Z</time></trkpt><trkpt lat="43.118371732764764" lon="12.37081543980726"><ele>383.0</ele><time>2026-04-10T13:48:04Z</time></trkpt><trkpt lat="43.11842902372771" lon="12.370712098481418"><ele>383.0</ele><time>2026-04-10T13:48:05Z</time></trkpt><trkpt lat="43.11848037170351" lon="12.370599787472779"><ele>383.0</ele><time>2026-04-10T13:48:06Z</time></trkpt><trkpt lat="43.11853793925753" lon="12.370495815441855"><ele>383.0</ele><time>2026-04-10T13:48:07Z</time></trkpt><trkpt lat="43.11859716238698" lon="12.370404116328524"><ele>383.0</ele><time>2026-04-10T13:48:08Z</time></trkpt><trkpt lat="43.118662380635975" lon="12.37031970160327"><ele>383.0</ele><time>2026-04-10T13:48:09Z</time></trkpt><trkpt lat="43.11872824829767" lon="12.370242096632143"><ele>384.33333333333337</ele><time>2026-04-10T13:48:10Z</time></trkpt><trkpt lat="43.11879815343016" lon="12.370175811875214"><ele>385.6666666666667</ele><time>2026-04-10T13:48:11Z</time></trkpt><trkpt lat="43.11886460718888" lon="12.370104673143077"><ele>387.0</ele><time>2026-04-10T13:48:12Z</time></trkpt><trkpt lat="43.11893755318943" lon="12.37005253774551"><ele>388.33333333333337</ele><time>2026-04-10T13:48:13Z</time></trkpt><trkpt lat="43.11899794982937" lon="12.369973871673267"><ele>389.6666666666667</ele><time>2026-04-10T13:48:14Z</time></trkpt><trkpt lat="43.11906102441628" lon="12.369904165092796"><ele>391.0</ele><time>2026-04-10T13:48:15Z</time></trkpt><trkpt lat="43.1191248753582" lon="12.36983283917552"><ele>391.00000000000006</ele><time>2026-04-10T13:48:16Z</time></trkpt><trkpt lat="43.119176395934375" lon="12.369757787183262"><ele>391.0</ele><time>2026-04-10T13:48:17Z</time></trkpt><trkpt lat="43.11922201700422" lon="12.369671853313019"><ele>391.0</ele><time>2026-04-10T13:48:18Z</time></trkpt><trkpt lat="43.11925478509843" lon="12.369570781023011"><ele>391.0</ele><time>2026-04-10T13:48:19Z</time></trkpt><trkpt lat="43.11927787991038" lon="12.369457691812476"><ele>391.00000000000006</ele><time>2026-04-10T13:48:20Z</time></trkpt><trkpt lat="43.11930672615068" lon="12.369350070813937"><ele>391.0</ele><time>2026-04-10T13:48:21Z</time></trkpt><trkpt lat="43.119340040422735" lon="12.369235055793107"><ele>390.4</ele><time>2026-04-10T13:48:22Z</time></trkpt><trkpt lat="43.11937507082118" lon="12.369122933482702"><ele>389.8</ele><time>2026-04-10T13:48:23Z</time></trkpt><trkpt lat="43.119411144069936" lon="12.369001088597889"><ele>389.2</ele><time>2026-04-10T13:48:24Z</time></trkpt><trkpt lat="43.11943920379672" lon="12.368877933116586"><ele>388.59999999999997</ele><time>2026-04-10T13:48:25Z</time></trkpt><trkpt lat="43.119476872956554" lon="12.368748680816802"><ele>388.0</ele><time>2026-04-10T13:48:26Z</time></trkpt><trkpt lat="43.119505797241985" lon="12.368629793678158"><ele>387.0</ele><time>2026-04-10T13:48:27Z</time></trkpt><trkpt lat="43.11952722553823" lon="12.368504956557093"><ele>386.0</ele><time>2026-04-10T13:48:28Z</time></trkpt><trkpt lat="43.119533066865266" lon="12.368375403838572"><ele>385.0</ele><time>2026-04-10T13:48:29Z</time></trkpt><trkpt lat="43.11951491278617" lon="12.36824862412358"><ele>384.0</ele><time>2026-04-10T13:48:30Z</time></trkpt><trkpt lat="43.119494553097624" lon="12.368118131998827"><ele>383.0</ele><time>2026-04-10T13:48:31Z</time></trkpt><trkpt lat="43.11947881609865" lon="12.367998996233704"><ele>381.0</ele><time>2026-04-10T13:48:32Z</time></trkpt><trkpt lat="43.11947758521758" lon="12.36786204835663"><ele>379.0</ele><time>2026-04-10T13:48:33Z</time></trkpt><trkpt lat="43.11952216580229" lon="12.367722624492762"><ele>377.0</ele><time>2026-04-10T13:48:34Z</time></trkpt><trkpt lat="43.11957423266154" lon="12.367589154077612"><ele>375.0</ele><time>2026-04-10T13:48:35Z</time></trkpt><trkpt lat="43.119612597372665" lon="12.367430308462461"><ele>373.0</ele><time>2026-04-10T13:48:36Z</time></trkpt><trkpt lat="43.11966660187237" lon="12.367279020837918"><ele>370.75</ele><time>2026-04-10T13:48:37Z</time></trkpt><trkpt lat="43.11972165230659" lon="12.367129310348755"><ele>368.5</ele><time>2026-04-10T13:48:38Z</time></trkpt><trkpt lat="43.119773244955" lon="12.366972945105614"><ele>366.25</ele><time>2026-04-10T13:48:39Z</time></trkpt><trkpt lat="43.11982387761838" lon="12.366815677927372"><ele>364.0</ele><time>2026-04-10T13:48:40Z</time></trkpt><trkpt lat="43.119862895896105" lon="12.366653281698945"><ele>364.0</ele><time>2026-04-10T13:48:41Z</time></trkpt><trkpt lat="43.11987694409258" lon="12.366482336586627"><ele>364.0</ele><time>2026-04-10T13:48:42Z</time></trkpt><trkpt lat="43.11988150778638" lon="12.366330577498124"><ele>364.0</ele><time>2026-04-10T13:48:43Z</time></trkpt><trkpt lat="43.11987680930702" lon="12.366193684702909"><ele>364.0</ele><time>2026-04-10T13:48:44Z</time></trkpt><trkpt lat="43.1198566161009" lon="12.366063011936866"><ele>364.0</ele><time>2026-04-10T13:48:45Z</time></trkpt><trkpt lat="43.11981522374683" lon="12.365927588483633"><ele>362.2</ele><time>2026-04-10T13:48:46Z</time></trkpt><trkpt lat="43.11975351644622" lon="12.36580706511379"><ele>360.4</ele><time>2026-04-10T13:48:47Z</time></trkpt><trkpt lat="43.119685457881765" lon="12.365697429866984"><ele>358.6</ele><time>2026-04-10T13:48:48Z</time></trkpt><trkpt lat="43.11961848760336" lon="12.365593530632895"><ele>356.8</ele><time>2026-04-10T13:48:49Z</time></trkpt><trkpt lat="43.11955816144007" lon="12.365485366178618"><ele>355.0</ele><time>2026-04-10T13:48:50Z</time></trkpt><trkpt lat="43.11948716446307" lon="12.365373807479962"><ele>353.5</ele><time>2026-04-10T13:48:51Z</time></trkpt><trkpt lat="43.11939884357583" lon="12.365267541654614"><ele>352.0</ele><time>2026-04-10T13:48:52Z</time></trkpt><trkpt lat="43.119295113374314" lon="12.365172433793678"><ele>350.5</ele><time>2026-04-10T13:48:53Z</time></trkpt><trkpt lat="43.11917936768476" lon="12.365085426627697"><ele>349.0</ele><time>2026-04-10T13:48:54Z</time></trkpt><trkpt lat="43.11906130078028" lon="12.365006699077894"><ele>346.5</ele><time>2026-04-10T13:48:55Z</time></trkpt><trkpt lat="43.11894218271263" lon="12.364944352016044"><ele>344.0</ele><time>2026-04-10T13:48:56Z</time></trkpt><trkpt lat="43.118825443009996" lon="12.36489392746954"><ele>341.5</ele><time>2026-04-10T13:48:57Z</time></trkpt><trkpt lat="43.118704721500734" lon="12.36484349213447"><ele>339.0</ele><time>2026-04-10T13:48:58Z</time></trkpt><trkpt lat="43.11857196890332" lon="12.364808735344736"><ele>339.0</ele><time>2026-04-10T13:48:59Z</time></trkpt><trkpt lat="43.11843799285782" lon="12.364766723722186"><ele>339.0</ele><time>2026-04-10T13:49:00Z</time></trkpt><trkpt lat="43.11831118225225" lon="12.364718091383194"><ele>339.0</ele><time>2026-04-10T13:49:01Z</time></trkpt><trkpt lat="43.118208397204306" lon="12.364689232511104"><ele>339.0</ele><time>2026-04-10T13:49:02Z</time></trkpt><trkpt lat="43.11812414625086" lon="12.364666912998274"><ele>337.4</ele><time>2026-04-10T13:49:03Z</time></trkpt><trkpt lat="43.11800307585981" lon="12.36463418636069"><ele>335.79999999999995</ele><time>2026-04-10T13:49:05Z</time></trkpt><trkpt lat="43.11792523921783" lon="12.364629623730835"><ele>334.20000000000005</ele><time>2026-04-10T13:49:06Z</time></trkpt><trkpt lat="43.11784049461097" lon="12.364651474010104"><ele>332.6</ele><time>2026-04-10T13:49:07Z</time></trkpt><trkpt lat="43.117743762130026" lon="12.36468219506572"><ele>331.0</ele><time>2026-04-10T13:49:08Z</time></trkpt><trkpt lat="43.117648690713274" lon="12.36470486335163"><ele>330.4</ele><time>2026-04-10T13:49:09Z</time></trkpt><trkpt lat="43.11754788766018" lon="12.364714232364769"><ele>329.8</ele><time>2026-04-10T13:49:10Z</time></trkpt><trkpt lat="43.117445693811334" lon="12.364712314346663"><ele>329.2</ele><time>2026-04-10T13:49:11Z</time></trkpt><trkpt lat="43.11733647944142" lon="12.364714780314205"><ele>328.59999999999997</ele><time>2026-04-10T13:49:12Z</time></trkpt><trkpt lat="43.11722394247397" lon="12.36471301558297"><ele>328.0</ele><time>2026-04-10T13:49:13Z</time></trkpt><trkpt lat="43.11710611760767" lon="12.364719289728313"><ele>326.0</ele><time>2026-04-10T13:49:14Z</time></trkpt><trkpt lat="43.11698113634154" lon="12.364725150360735"><ele>324.0</ele><time>2026-04-10T13:49:15Z</time></trkpt><trkpt lat="43.11685384091418" lon="12.364735442708831"><ele>322.0</ele><time>2026-04-10T13:49:16Z</time></trkpt><trkpt lat="43.116730541961076" lon="12.364762293815206"><ele>320.0</ele><time>2026-04-10T13:49:17Z</time></trkpt><trkpt lat="43.116596071697806" lon="12.364812056673552"><ele>318.2</ele><time>2026-04-10T13:49:18Z</time></trkpt><trkpt lat="43.11648192030206" lon="12.364885540673633"><ele>316.4</ele><time>2026-04-10T13:49:19Z</time></trkpt><trkpt lat="43.1163871068109" lon="12.364954322968376"><ele>314.6</ele><time>2026-04-10T13:49:20Z</time></trkpt><trkpt lat="43.11628714921244" lon="12.364918297076674"><ele>312.8</ele><time>2026-04-10T13:49:21Z</time></trkpt><trkpt lat="43.116178255439735" lon="12.364901400405435"><ele>311.0</ele><time>2026-04-10T13:49:22Z</time></trkpt><trkpt lat="43.11605553621069" lon="12.364898435601365"><ele>311.0</ele><time>2026-04-10T13:49:23Z</time></trkpt><trkpt lat="43.11594161013475" lon="12.364873859316583"><ele>311.0</ele><time>2026-04-10T13:49:24Z</time></trkpt><trkpt lat="43.11582391810303" lon="12.36484790975478"><ele>311.0</ele><time>2026-04-10T13:49:25Z</time></trkpt><trkpt lat="43.11570630295808" lon="12.364831908345991"><ele>311.0</ele><time>2026-04-10T13:49:26Z</time></trkpt><trkpt lat="43.11558466895271" lon="12.364806708510786"><ele>309.75</ele><time>2026-04-10T13:49:27Z</time></trkpt><trkpt lat="43.11546207216998" lon="12.364783607844034"><ele>308.5</ele><time>2026-04-10T13:49:28Z</time></trkpt><trkpt lat="43.11533630551111" lon="12.364759274038551"><ele>307.25</ele><time>2026-04-10T13:49:29Z</time></trkpt><trkpt lat="43.1152083076583" lon="12.364735023245464"><ele>306.0</ele><time>2026-04-10T13:49:30Z</time></trkpt><trkpt lat="43.11509107011183" lon="12.3646885674198"><ele>306.0</ele><time>2026-04-10T13:49:31Z</time></trkpt><trkpt lat="43.114965241509836" lon="12.36468224791372"><ele>306.0</ele><time>2026-04-10T13:49:32Z</time></trkpt><trkpt lat="43.114838398841215" lon="12.364652167324705"><ele>306.0</ele><time>2026-04-10T13:49:33Z</time></trkpt><trkpt lat="43.11470199397183" lon="12.364624908117738"><ele>306.0</ele><time>2026-04-10T13:49:34Z</time></trkpt><trkpt lat="43.11456780735943" lon="12.364599866583266"><ele>303.25</ele><time>2026-04-10T13:49:35Z</time></trkpt><trkpt lat="43.1144347043447" lon="12.364573317965233"><ele>300.5</ele><time>2026-04-10T13:49:36Z</time></trkpt><trkpt lat="43.114310330180956" lon="12.364543995080501"><ele>297.75</ele><time>2026-04-10T13:49:37Z</time></trkpt><trkpt lat="43.114212397172544" lon="12.36449092948428"><ele>295.0</ele><time>2026-04-10T13:49:38Z</time></trkpt><trkpt lat="43.114139364963634" lon="12.364407299271615"><ele>295.0</ele><time>2026-04-10T13:49:39Z</time></trkpt><trkpt lat="43.11408542910961" lon="12.364296994102416"><ele>295.0</ele><time>2026-04-10T13:49:40Z</time></trkpt><trkpt lat="43.11405861926948" lon="12.364168824684063"><ele>295.0</ele><time>2026-04-10T13:49:41Z</time></trkpt><trkpt lat="43.11405482875595" lon="12.36404358298865"><ele>295.0</ele><time>2026-04-10T13:49:42Z</time></trkpt><trkpt lat="43.114078269789175" lon="12.36393386471007"><ele>295.0</ele><time>2026-04-10T13:49:43Z</time></trkpt><trkpt lat="43.11412189654469" lon="12.363844040091669"><ele>295.0</ele><time>2026-04-10T13:49:44Z</time></trkpt><trkpt lat="43.11416353225931" lon="12.363762264517447"><ele>295.14285714285717</ele><time>2026-04-10T13:49:45Z</time></trkpt><trkpt lat="43.114198026286104" lon="12.36368286962068"><ele>295.2857142857143</ele><time>2026-04-10T13:49:46Z</time></trkpt><trkpt lat="43.114228331081414" lon="12.363594297127031"><ele>295.42857142857144</ele><time>2026-04-10T13:49:47Z</time></trkpt><trkpt lat="43.114264913450235" lon="12.363504567143279"><ele>295.57142857142856</ele><time>2026-04-10T13:49:48Z</time></trkpt><trkpt lat="43.114305413165916" lon="12.363418518280218"><ele>295.7142857142857</ele><time>2026-04-10T13:49:49Z</time></trkpt><trkpt lat="43.114349908877585" lon="12.363335495354686"><ele>295.8571428571429</ele><time>2026-04-10T13:49:50Z</time></trkpt><trkpt lat="43.114392331108554" lon="12.363250771490844"><ele>296.0</ele><time>2026-04-10T13:49:51Z</time></trkpt><trkpt lat="43.11444227232336" lon="12.363171008086427"><ele>296.0</ele><time>2026-04-10T13:49:52Z</time></trkpt><trkpt lat="43.114495730016365" lon="12.363089416918623"><ele>296.0</ele><time>2026-04-10T13:49:53Z</time></trkpt><trkpt lat="43.11454736417456" lon="12.363030481909485"><ele>296.0</ele><time>2026-04-10T13:49:54Z</time></trkpt><trkpt lat="43.114604890465316" lon="12.362941191647604"><ele>296.0</ele><time>2026-04-10T13:49:55Z</time></trkpt><trkpt lat="43.114665723582824" lon="12.36287496304172"><ele>296.0</ele><time>2026-04-10T13:49:56Z</time></trkpt><trkpt lat="43.11472431133448" lon="12.362801631483153"><ele>296.0</ele><time>2026-04-10T13:49:57Z</time></trkpt><trkpt lat="43.11478802318901" lon="12.362736075877784"><ele>295.6666666666667</ele><time>2026-04-10T13:49:58Z</time></trkpt><trkpt lat="43.11485049165877" lon="12.362671503286332"><ele>295.33333333333337</ele><time>2026-04-10T13:49:59Z</time></trkpt><trkpt lat="43.114907074705634" lon="12.362590698990852"><ele>295.0</ele><time>2026-04-10T13:50:00Z</time></trkpt><trkpt lat="43.11496584013485" lon="12.36252019578912"><ele>294.6666666666667</ele><time>2026-04-10T13:50:01Z</time></trkpt><trkpt lat="43.11502223943971" lon="12.362444591192721"><ele>294.3333333333333</ele><time>2026-04-10T13:50:02Z</time></trkpt><trkpt lat="43.11508297837735" lon="12.362372139364155"><ele>294.0</ele><time>2026-04-10T13:50:03Z</time></trkpt><trkpt lat="43.1151475784787" lon="12.362303052156408"><ele>294.1666666666667</ele><time>2026-04-10T13:50:04Z</time></trkpt><trkpt lat="43.1152050907517" lon="12.362223984664348"><ele>294.3333333333333</ele><time>2026-04-10T13:50:05Z</time></trkpt><trkpt lat="43.11526660307387" lon="12.362162073310282"><ele>294.5</ele><time>2026-04-10T13:50:06Z</time></trkpt><trkpt lat="43.115336704515684" lon="12.362093080307204"><ele>294.66666666666663</ele><time>2026-04-10T13:50:07Z</time></trkpt><trkpt lat="43.11539986771181" lon="12.362009983720638"><ele>294.8333333333333</ele><time>2026-04-10T13:50:08Z</time></trkpt><trkpt lat="43.115459303640684" lon="12.361932831499674"><ele>295.0</ele><time>2026-04-10T13:50:09Z</time></trkpt><trkpt lat="43.115519824932605" lon="12.361851714571001"><ele>295.0</ele><time>2026-04-10T13:50:10Z</time></trkpt><trkpt lat="43.11558175950256" lon="12.36177236164847"><ele>295.0</ele><time>2026-04-10T13:50:11Z</time></trkpt><trkpt lat="43.11564255716923" lon="12.361691021459524"><ele>295.0</ele><time>2026-04-10T13:50:12Z</time></trkpt><trkpt lat="43.11570954459712" lon="12.36161272494612"><ele>295.0</ele><time>2026-04-10T13:50:13Z</time></trkpt><trkpt lat="43.11577382253912" lon="12.361522994837026"><ele>295.0</ele><time>2026-04-10T13:50:14Z</time></trkpt><trkpt lat="43.11583883867156" lon="12.361445266818105"><ele>295.0</ele><time>2026-04-10T13:50:15Z</time></trkpt><trkpt lat="43.11590474216677" lon="12.361361237511606"><ele>295.2</ele><time>2026-04-10T13:50:16Z</time></trkpt><trkpt lat="43.11597334558112" lon="12.361280746241787"><ele>295.4</ele><time>2026-04-10T13:50:17Z</time></trkpt><trkpt lat="43.116043671235374" lon="12.361204480929134"><ele>295.6</ele><time>2026-04-10T13:50:18Z</time></trkpt><trkpt lat="43.11611053741189" lon="12.361118073082327"><ele>295.8</ele><time>2026-04-10T13:50:19Z</time></trkpt><trkpt lat="43.11618194020094" lon="12.36103310355362"><ele>296.0</ele><time>2026-04-10T13:50:20Z</time></trkpt><trkpt lat="43.11624899052351" lon="12.36095150517145"><ele>296.0</ele><time>2026-04-10T13:50:21Z</time></trkpt><trkpt lat="43.116315332849695" lon="12.360864047899547"><ele>296.0</ele><time>2026-04-10T13:50:22Z</time></trkpt><trkpt lat="43.11638527392117" lon="12.360785239369235"><ele>296.0</ele><time>2026-04-10T13:50:23Z</time></trkpt><trkpt lat="43.11645495327994" lon="12.360706658116118"><ele>296.0</ele><time>2026-04-10T13:50:24Z</time></trkpt><trkpt lat="43.11652395551111" lon="12.360629969792615"><ele>296.0</ele><time>2026-04-10T13:50:25Z</time></trkpt><trkpt lat="43.116591683626844" lon="12.36055654402311"><ele>296.0</ele><time>2026-04-10T13:50:26Z</time></trkpt><trkpt lat="43.116659655362064" lon="12.360479416289202"><ele>296.0</ele><time>2026-04-10T13:50:27Z</time></trkpt><trkpt lat="43.116725965961415" lon="12.360402010078921"><ele>296.0</ele><time>2026-04-10T13:50:28Z</time></trkpt><trkpt lat="43.11679065168317" lon="12.360327212956154"><ele>296.0</ele><time>2026-04-10T13:50:29Z</time></trkpt><trkpt lat="43.11685295729077" lon="12.36024825630972"><ele>296.0</ele><time>2026-04-10T13:50:30Z</time></trkpt><trkpt lat="43.11691570307596" lon="12.360175822986676"><ele>296.0</ele><time>2026-04-10T13:50:31Z</time></trkpt><trkpt lat="43.11697685021261" lon="12.360101398930134"><ele>296.0</ele><time>2026-04-10T13:50:32Z</time></trkpt><trkpt lat="43.11704038857768" lon="12.360029064884158"><ele>296.0</ele><time>2026-04-10T13:50:33Z</time></trkpt><trkpt lat="43.11710098266041" lon="12.359954732877759"><ele>296.0</ele><time>2026-04-10T13:50:34Z</time></trkpt><trkpt lat="43.117164020900134" lon="12.359883539448104"><ele>296.0</ele><time>2026-04-10T13:50:35Z</time></trkpt><trkpt lat="43.117224597899266" lon="12.359809002985221"><ele>296.0</ele><time>2026-04-10T13:50:36Z</time></trkpt><trkpt lat="43.117286075323186" lon="12.359732477534939"><ele>296.0</ele><time>2026-04-10T13:50:37Z</time></trkpt><trkpt lat="43.117349767242125" lon="12.359662826690021"><ele>296.0</ele><time>2026-04-10T13:50:38Z</time></trkpt><trkpt lat="43.11741131808308" lon="12.359588208388086"><ele>297.0</ele><time>2026-04-10T13:50:39Z</time></trkpt><trkpt lat="43.11747117515511" lon="12.359509199988699"><ele>298.0</ele><time>2026-04-10T13:50:40Z</time></trkpt><trkpt lat="43.11753006508099" lon="12.359430729047888"><ele>299.0</ele><time>2026-04-10T13:50:41Z</time></trkpt><trkpt lat="43.11758848840568" lon="12.35934855765353"><ele>300.0</ele><time>2026-04-10T13:50:42Z</time></trkpt><trkpt lat="43.11764512209523" lon="12.35926286528044"><ele>301.0</ele><time>2026-04-10T13:50:43Z</time></trkpt><trkpt lat="43.1177072081343" lon="12.359174641504856"><ele>302.0</ele><time>2026-04-10T13:50:44Z</time></trkpt><trkpt lat="43.11776639119251" lon="12.359079614084296"><ele>302.0</ele><time>2026-04-10T13:50:45Z</time></trkpt><trkpt lat="43.11782394789608" lon="12.358981986413797"><ele>302.0</ele><time>2026-04-10T13:50:46Z</time></trkpt><trkpt lat="43.11788670617432" lon="12.358890192721818"><ele>302.0</ele><time>2026-04-10T13:50:47Z</time></trkpt><trkpt lat="43.117941138398194" lon="12.358803038490018"><ele>302.0</ele><time>2026-04-10T13:50:48Z</time></trkpt><trkpt lat="43.11799927678026" lon="12.358737490982199"><ele>302.0</ele><time>2026-04-10T13:50:49Z</time></trkpt><trkpt lat="43.11804994290928" lon="12.358666771608732"><ele>302.0</ele><time>2026-04-10T13:50:50Z</time></trkpt><trkpt lat="43.118103093845804" lon="12.358561433112664"><ele>301.1666666666667</ele><time>2026-04-10T13:50:51Z</time></trkpt><trkpt lat="43.11812123730425" lon="12.358447742567016"><ele>300.33333333333337</ele><time>2026-04-10T13:50:52Z</time></trkpt><trkpt lat="43.11812362476888" lon="12.358327022374912"><ele>299.5</ele><time>2026-04-10T13:50:53Z</time></trkpt><trkpt lat="43.118146314010524" lon="12.35821064700378"><ele>298.6666666666667</ele><time>2026-04-10T13:50:54Z</time></trkpt><trkpt lat="43.11817741070854" lon="12.358091672661853"><ele>297.8333333333333</ele><time>2026-04-10T13:50:55Z</time></trkpt><trkpt lat="43.11820085386067" lon="12.357974357833346"><ele>297.0</ele><time>2026-04-10T13:50:56Z</time></trkpt><trkpt lat="43.11820974316809" lon="12.357841186940293"><ele>296.8</ele><time>2026-04-10T13:50:57Z</time></trkpt><trkpt lat="43.118193477477" lon="12.357712127641184"><ele>296.6</ele><time>2026-04-10T13:50:58Z</time></trkpt><trkpt lat="43.11816305248818" lon="12.357587999570011"><ele>296.40000000000003</ele><time>2026-04-10T13:50:59Z</time></trkpt><trkpt lat="43.11812984220242" lon="12.357464761667137"><ele>296.2</ele><time>2026-04-10T13:51:00Z</time></trkpt><trkpt lat="43.11810014187028" lon="12.357337375833241"><ele>296.0</ele><time>2026-04-10T13:51:01Z</time></trkpt><trkpt lat="43.11807471261941" lon="12.357206778336872"><ele>295.0</ele><time>2026-04-10T13:51:02Z</time></trkpt><trkpt lat="43.11804632784446" lon="12.35707709461677"><ele>294.0</ele><time>2026-04-10T13:51:03Z</time></trkpt><trkpt lat="43.11801732310818" lon="12.356949736088346"><ele>293.0</ele><time>2026-04-10T13:51:04Z</time></trkpt><trkpt lat="43.117991990256016" lon="12.356819791765204"><ele>292.0</ele><time>2026-04-10T13:51:05Z</time></trkpt><trkpt lat="43.11797037197745" lon="12.356688434871833"><ele>291.0</ele><time>2026-04-10T13:51:06Z</time></trkpt><trkpt lat="43.11794898114257" lon="12.356558619130613"><ele>291.0</ele><time>2026-04-10T13:51:07Z</time></trkpt><trkpt lat="43.11791886126438" lon="12.35643701507666"><ele>291.0</ele><time>2026-04-10T13:51:08Z</time></trkpt><trkpt lat="43.11788262104324" lon="12.35631456097747"><ele>291.0</ele><time>2026-04-10T13:51:09Z</time></trkpt><trkpt lat="43.11784184906431" lon="12.356189974197886"><ele>291.0</ele><time>2026-04-10T13:51:10Z</time></trkpt><trkpt lat="43.11779946864163" lon="12.356069594677129"><ele>291.0</ele><time>2026-04-10T13:51:11Z</time></trkpt><trkpt lat="43.11775687573681" lon="12.355946989234075"><ele>290.6</ele><time>2026-04-10T13:51:12Z</time></trkpt><trkpt lat="43.11771406914732" lon="12.355824496962812"><ele>290.20000000000005</ele><time>2026-04-10T13:51:13Z</time></trkpt><trkpt lat="43.11767084086375" lon="12.355701601775122"><ele>289.79999999999995</ele><time>2026-04-10T13:51:14Z</time></trkpt><trkpt lat="43.1176249006042" lon="12.355583424622932"><ele>289.4</ele><time>2026-04-10T13:51:15Z</time></trkpt><trkpt lat="43.117578415244644" lon="12.35546665143259"><ele>289.0</ele><time>2026-04-10T13:51:16Z</time></trkpt><trkpt lat="43.11753151626213" lon="12.355347114122502"><ele>288.59999999999997</ele><time>2026-04-10T13:51:17Z</time></trkpt><trkpt lat="43.117488388371584" lon="12.355234848001928"><ele>288.2</ele><time>2026-04-10T13:51:18Z</time></trkpt><trkpt lat="43.11744460285296" lon="12.35512034436945"><ele>287.79999999999995</ele><time>2026-04-10T13:51:19Z</time></trkpt><trkpt lat="43.1174016291717" lon="12.355009479418525"><ele>287.4</ele><time>2026-04-10T13:51:20Z</time></trkpt><trkpt lat="43.117357402032646" lon="12.354900106392495"><ele>287.0</ele><time>2026-04-10T13:51:21Z</time></trkpt><trkpt lat="43.117311479892216" lon="12.354786023336123"><ele>286.2</ele><time>2026-04-10T13:51:22Z</time></trkpt><trkpt lat="43.117269287249066" lon="12.35467253229222"><ele>285.4</ele><time>2026-04-10T13:51:23Z</time></trkpt><trkpt lat="43.11722966596582" lon="12.354560209536182"><ele>284.6</ele><time>2026-04-10T13:51:24Z</time></trkpt><trkpt lat="43.11718612283434" lon="12.35444362996194"><ele>283.8</ele><time>2026-04-10T13:51:25Z</time></trkpt><trkpt lat="43.117140154280065" lon="12.35433081713373"><ele>283.0</ele><time>2026-04-10T13:51:26Z</time></trkpt><trkpt lat="43.11709425048195" lon="12.35421348645864"><ele>283.0</ele><time>2026-04-10T13:51:27Z</time></trkpt><trkpt lat="43.11704787137508" lon="12.354101984398609"><ele>283.0</ele><time>2026-04-10T13:51:28Z</time></trkpt><trkpt lat="43.11700477956178" lon="12.353990548781006"><ele>283.0</ele><time>2026-04-10T13:51:29Z</time></trkpt><trkpt lat="43.11696061256761" lon="12.353880539882143"><ele>283.0</ele><time>2026-04-10T13:51:30Z</time></trkpt><trkpt lat="43.11691677993349" lon="12.35376847613781"><ele>283.0</ele><time>2026-04-10T13:51:31Z</time></trkpt><trkpt lat="43.11687418249889" lon="12.353654286868569"><ele>283.2</ele><time>2026-04-10T13:51:32Z</time></trkpt><trkpt lat="43.11683580391943" lon="12.353543740823664"><ele>283.4</ele><time>2026-04-10T13:51:33Z</time></trkpt><trkpt lat="43.11680921059163" lon="12.35344405954749"><ele>283.59999999999997</ele><time>2026-04-10T13:51:34Z</time></trkpt><trkpt lat="43.116808590815644" lon="12.353296534731466"><ele>283.8</ele><time>2026-04-10T13:51:36Z</time></trkpt><trkpt lat="43.116792466528466" lon="12.35316361704445"><ele>284.0</ele><time>2026-04-10T13:51:38Z</time></trkpt><trkpt lat="43.11669536349981" lon="12.353087267150599"><ele>284.0</ele><time>2026-04-10T13:51:40Z</time></trkpt><trkpt lat="43.116593941781915" lon="12.353169941375995"><ele>284.0</ele><time>2026-04-10T13:51:42Z</time></trkpt><trkpt lat="43.11656439786233" lon="12.35325406339987"><ele>284.0</ele><time>2026-04-10T13:51:43Z</time></trkpt><trkpt lat="43.11653265427463" lon="12.353342206277208"><ele>284.0</ele><time>2026-04-10T13:51:44Z</time></trkpt><trkpt lat="43.11647178363641" lon="12.353401819360878"><ele>284.0</ele><time>2026-04-10T13:51:45Z</time></trkpt><trkpt lat="43.11641114162524" lon="12.353464084169195"><ele>284.0</ele><time>2026-04-10T13:51:46Z</time></trkpt><trkpt lat="43.116354259165114" lon="12.353513189587137"><ele>284.0</ele><time>2026-04-10T13:51:47Z</time></trkpt><trkpt lat="43.116290385645634" lon="12.353568884145085"><ele>284.0</ele><time>2026-04-10T13:51:48Z</time></trkpt><trkpt lat="43.116218934495116" lon="12.353630961663647"><ele>284.0</ele><time>2026-04-10T13:51:49Z</time></trkpt><trkpt lat="43.11614743607503" lon="12.353683336102558"><ele>284.0</ele><time>2026-04-10T13:51:50Z</time></trkpt><trkpt lat="43.11607319652425" lon="12.353737696001435"><ele>284.0</ele><time>2026-04-10T13:51:51Z</time></trkpt><trkpt lat="43.11599955852931" lon="12.353788779990477"><ele>284.0</ele><time>2026-04-10T13:51:52Z</time></trkpt><trkpt lat="43.11592369583428" lon="12.3538264486917"><ele>284.0</ele><time>2026-04-10T13:51:53Z</time></trkpt><trkpt lat="43.11584370987344" lon="12.353847315028814"><ele>284.0</ele><time>2026-04-10T13:51:54Z</time></trkpt><trkpt lat="43.115783442604965" lon="12.3538979901614"><ele>284.0</ele><time>2026-04-10T13:51:55Z</time></trkpt><trkpt lat="43.11572189861614" lon="12.353945123217324"><ele>284.0</ele><time>2026-04-10T13:51:56Z</time></trkpt><trkpt lat="43.115519588974614" lon="12.353769800949676"><ele>283.6666666666667</ele><time>2026-04-10T13:51:58Z</time></trkpt><trkpt lat="43.115434413991466" lon="12.353731077732157"><ele>283.33333333333337</ele><time>2026-04-10T13:51:59Z</time></trkpt><trkpt lat="43.11535399608903" lon="12.353706844759012"><ele>283.0</ele><time>2026-04-10T13:52:00Z</time></trkpt><trkpt lat="43.11526227728004" lon="12.353694408411805"><ele>282.6666666666667</ele><time>2026-04-10T13:52:01Z</time></trkpt><trkpt lat="43.11517731270968" lon="12.353655134276456"><ele>282.3333333333333</ele><time>2026-04-10T13:52:02Z</time></trkpt><trkpt lat="43.1150892304338" lon="12.353628183121335"><ele>282.0</ele><time>2026-04-10T13:52:03Z</time></trkpt><trkpt lat="43.11500265908778" lon="12.35360169417828"><ele>282.0</ele><time>2026-04-10T13:52:04Z</time></trkpt><trkpt lat="43.11490628788748" lon="12.353574416297525"><ele>282.0</ele><time>2026-04-10T13:52:05Z</time></trkpt><trkpt lat="43.114812370475505" lon="12.353548340435268"><ele>282.0</ele><time>2026-04-10T13:52:06Z</time></trkpt><trkpt lat="43.1147210269747" lon="12.353522360080273"><ele>282.0</ele><time>2026-04-10T13:52:07Z</time></trkpt><trkpt lat="43.11462745051482" lon="12.35349500277314"><ele>282.0</ele><time>2026-04-10T13:52:08Z</time></trkpt><trkpt lat="43.114538281798175" lon="12.353468418829632"><ele>282.1666666666667</ele><time>2026-04-10T13:52:09Z</time></trkpt><trkpt lat="43.11444437182063" lon="12.353436366718618"><ele>282.3333333333333</ele><time>2026-04-10T13:52:10Z</time></trkpt><trkpt lat="43.11435309079719" lon="12.353405211939265"><ele>282.5</ele><time>2026-04-10T13:52:11Z</time></trkpt><trkpt lat="43.11426837832057" lon="12.353376299027387"><ele>282.66666666666663</ele><time>2026-04-10T13:52:12Z</time></trkpt><trkpt lat="43.11418970934852" lon="12.353349448750135"><ele>282.8333333333333</ele><time>2026-04-10T13:52:13Z</time></trkpt><trkpt lat="43.11410568618162" lon="12.353322582969165"><ele>283.0</ele><time>2026-04-10T13:52:14Z</time></trkpt><trkpt lat="43.11402441209535" lon="12.353298461461295"><ele>282.0</ele><time>2026-04-10T13:52:15Z</time></trkpt><trkpt lat="43.113939952353746" lon="12.353273394460421"><ele>281.0</ele><time>2026-04-10T13:52:16Z</time></trkpt><trkpt lat="43.11385153141831" lon="12.353247151827656"><ele>280.0</ele><time>2026-04-10T13:52:17Z</time></trkpt><trkpt lat="43.11377236083702" lon="12.353222197512043"><ele>279.0</ele><time>2026-04-10T13:52:18Z</time></trkpt><trkpt lat="43.113693031736304" lon="12.353195858602056"><ele>278.0</ele><time>2026-04-10T13:52:19Z</time></trkpt><trkpt lat="43.11361636182685" lon="12.35317785938656"><ele>277.0</ele><time>2026-04-10T13:52:20Z</time></trkpt><trkpt lat="43.11352854389082" lon="12.353143855493602"><ele>277.0</ele><time>2026-04-10T13:52:21Z</time></trkpt><trkpt lat="43.11344178045521" lon="12.353114095110392"><ele>277.0</ele><time>2026-04-10T13:52:22Z</time></trkpt><trkpt lat="43.113350081291856" lon="12.35309346408256"><ele>277.0</ele><time>2026-04-10T13:52:23Z</time></trkpt><trkpt lat="43.1132684851268" lon="12.35304431875588"><ele>277.0</ele><time>2026-04-10T13:52:24Z</time></trkpt><trkpt lat="43.11317710722236" lon="12.353014350601425"><ele>277.0</ele><time>2026-04-10T13:52:25Z</time></trkpt><trkpt lat="43.11308660149747" lon="12.352984668726942"><ele>277.2</ele><time>2026-04-10T13:52:26Z</time></trkpt><trkpt lat="43.11299536340195" lon="12.352970347839259"><ele>277.4</ele><time>2026-04-10T13:52:27Z</time></trkpt><trkpt lat="43.112905842651884" lon="12.352943660701257"><ele>277.6</ele><time>2026-04-10T13:52:28Z</time></trkpt><trkpt lat="43.11281055523703" lon="12.352921738955542"><ele>277.8</ele><time>2026-04-10T13:52:29Z</time></trkpt><trkpt lat="43.11271917801587" lon="12.352897690633108"><ele>278.0</ele><time>2026-04-10T13:52:30Z</time></trkpt><trkpt lat="43.11263323038512" lon="12.35284692680796"><ele>278.0</ele><time>2026-04-10T13:52:31Z</time></trkpt><trkpt lat="43.11254143968299" lon="12.35282082341408"><ele>278.0</ele><time>2026-04-10T13:52:32Z</time></trkpt><trkpt lat="43.112443635434" lon="12.352805978047641"><ele>278.0</ele><time>2026-04-10T13:52:33Z</time></trkpt><trkpt lat="43.112347452770614" lon="12.352799472103014"><ele>278.0</ele><time>2026-04-10T13:52:34Z</time></trkpt><trkpt lat="43.112254803898004" lon="12.35281164344072"><ele>278.0</ele><time>2026-04-10T13:52:35Z</time></trkpt><trkpt lat="43.1121612220076" lon="12.35281593483692"><ele>277.6</ele><time>2026-04-10T13:52:36Z</time></trkpt><trkpt lat="43.11206513035104" lon="12.35282016952313"><ele>277.20000000000005</ele><time>2026-04-10T13:52:37Z</time></trkpt><trkpt lat="43.11197112278561" lon="12.352829295662108"><ele>276.8</ele><time>2026-04-10T13:52:38Z</time></trkpt><trkpt lat="43.11187643086676" lon="12.352841980529464"><ele>276.40000000000003</ele><time>2026-04-10T13:52:39Z</time></trkpt><trkpt lat="43.111785413541476" lon="12.352849770881495"><ele>276.0</ele><time>2026-04-10T13:52:40Z</time></trkpt><trkpt lat="43.111690928886006" lon="12.352868781191695"><ele>276.0</ele><time>2026-04-10T13:52:41Z</time></trkpt><trkpt lat="43.11160189536485" lon="12.352896392145894"><ele>276.0</ele><time>2026-04-10T13:52:42Z</time></trkpt><trkpt lat="43.11150835270516" lon="12.352921641217272"><ele>276.0</ele><time>2026-04-10T13:52:43Z</time></trkpt><trkpt lat="43.111415609263396" lon="12.352947489563892"><ele>276.0</ele><time>2026-04-10T13:52:44Z</time></trkpt><trkpt lat="43.111329005767274" lon="12.352979884457355"><ele>276.0</ele><time>2026-04-10T13:52:45Z</time></trkpt><trkpt lat="43.11124048229365" lon="12.35301146719935"><ele>276.0</ele><time>2026-04-10T13:52:46Z</time></trkpt><trkpt lat="43.11115267716549" lon="12.353054049031893"><ele>276.0</ele><time>2026-04-10T13:52:47Z</time></trkpt><trkpt lat="43.11106649068707" lon="12.353101881122575"><ele>276.0</ele><time>2026-04-10T13:52:48Z</time></trkpt><trkpt lat="43.110973480078286" lon="12.35314325025245"><ele>276.0</ele><time>2026-04-10T13:52:49Z</time></trkpt><trkpt lat="43.11088986973217" lon="12.353179809768731"><ele>276.0</ele><time>2026-04-10T13:52:50Z</time></trkpt><trkpt lat="43.110822266237165" lon="12.35320660788936"><ele>276.0</ele><time>2026-04-10T13:52:51Z</time></trkpt><trkpt lat="43.11072525771091" lon="12.35324025027092"><ele>275.8333333333333</ele><time>2026-04-10T13:52:53Z</time></trkpt><trkpt lat="43.11062166853976" lon="12.35331994923834"><ele>275.6666666666667</ele><time>2026-04-10T13:52:55Z</time></trkpt><trkpt lat="43.1105463997283" lon="12.353358625750863"><ele>275.5</ele><time>2026-04-10T13:52:56Z</time></trkpt><trkpt lat="43.110478819609185" lon="12.353411782644514"><ele>275.33333333333337</ele><time>2026-04-10T13:52:57Z</time></trkpt><trkpt lat="43.11040143969644" lon="12.353454747991384"><ele>275.1666666666667</ele><time>2026-04-10T13:52:58Z</time></trkpt><trkpt lat="43.110316420604526" lon="12.353489613786826"><ele>275.0</ele><time>2026-04-10T13:52:59Z</time></trkpt><trkpt lat="43.11024356493376" lon="12.353555385122888"><ele>275.0</ele><time>2026-04-10T13:53:00Z</time></trkpt><trkpt lat="43.1101765676466" lon="12.3536320371148"><ele>275.0</ele><time>2026-04-10T13:53:01Z</time></trkpt><trkpt lat="43.11011962632997" lon="12.353693480835643"><ele>275.0</ele><time>2026-04-10T13:53:02Z</time></trkpt><trkpt lat="43.110048715505215" lon="12.35378215341427"><ele>275.0</ele><time>2026-04-10T13:53:04Z</time></trkpt><trkpt lat="43.11001045198266" lon="12.353875931000179"><ele>275.0</ele><time>2026-04-10T13:53:07Z</time></trkpt><trkpt lat="43.10984488484805" lon="12.353754895880355"><ele>274.6</ele><time>2026-04-10T13:53:15Z</time></trkpt><trkpt lat="43.109730936819375" lon="12.353758513759328"><ele>274.2</ele><time>2026-04-10T13:53:17Z</time></trkpt><trkpt lat="43.10960626043854" lon="12.353766841106427"><ele>273.8</ele><time>2026-04-10T13:53:19Z</time></trkpt><trkpt lat="43.10949949826206" lon="12.353789654308907"><ele>273.4</ele><time>2026-04-10T13:53:21Z</time></trkpt><trkpt lat="43.10941401558891" lon="12.353754286272753"><ele>273.0</ele><time>2026-04-10T13:53:23Z</time></trkpt><trkpt lat="43.10933847275659" lon="12.353679439708602"><ele>273.0</ele><time>2026-04-10T13:53:25Z</time></trkpt><trkpt lat="43.10918866851604" lon="12.353620215155317"><ele>273.0</ele><time>2026-04-10T13:53:28Z</time></trkpt><trkpt lat="43.109124772042456" lon="12.353658281357104"><ele>273.0</ele><time>2026-04-10T13:53:29Z</time></trkpt><trkpt lat="43.10906289949949" lon="12.353695175724715"><ele>273.0</ele><time>2026-04-10T13:53:30Z</time></trkpt><trkpt lat="43.10899979899287" lon="12.353732821336749"><ele>273.0</ele><time>2026-04-10T13:53:31Z</time></trkpt><trkpt lat="43.10892261381044" lon="12.353778243945852"><ele>273.0</ele><time>2026-04-10T13:53:32Z</time></trkpt><trkpt lat="43.108899547259995" lon="12.353962133819245"><ele>272.25</ele><time>2026-04-10T13:53:33Z</time></trkpt><trkpt lat="43.108836415158436" lon="12.35401081692381"><ele>271.5</ele><time>2026-04-10T13:53:34Z</time></trkpt><trkpt lat="43.1087297130024" lon="12.354075282145491"><ele>270.75</ele><time>2026-04-10T13:53:36Z</time></trkpt><trkpt lat="43.10861951508803" lon="12.353956611784522"><ele>270.0</ele><time>2026-04-10T13:53:37Z</time></trkpt><trkpt lat="43.108562694458094" lon="12.354190172105026"><ele>270.0</ele><time>2026-04-10T13:53:39Z</time></trkpt><trkpt lat="43.10849740967224" lon="12.354232302254916"><ele>270.0</ele><time>2026-04-10T13:53:40Z</time></trkpt><trkpt lat="43.10843078892515" lon="12.354278138202552"><ele>270.0</ele><time>2026-04-10T13:53:41Z</time></trkpt><trkpt lat="43.10835475923677" lon="12.354328447388538"><ele>270.0</ele><time>2026-04-10T13:53:42Z</time></trkpt><trkpt lat="43.10828390390013" lon="12.35436655357501"><ele>270.0</ele><time>2026-04-10T13:53:43Z</time></trkpt><trkpt lat="43.10819696155301" lon="12.354421200753604"><ele>270.0</ele><time>2026-04-10T13:53:44Z</time></trkpt><trkpt lat="43.10811385083748" lon="12.354467604539046"><ele>270.0</ele><time>2026-04-10T13:53:45Z</time></trkpt><trkpt lat="43.10803420726726" lon="12.354512958528698"><ele>270.0</ele><time>2026-04-10T13:53:46Z</time></trkpt><trkpt lat="43.10795518453538" lon="12.354549377409112"><ele>270.0</ele><time>2026-04-10T13:53:47Z</time></trkpt><trkpt lat="43.107884920125755" lon="12.354590950334908"><ele>270.0</ele><time>2026-04-10T13:53:48Z</time></trkpt><trkpt lat="43.10781616076645" lon="12.354631386443614"><ele>270.0</ele><time>2026-04-10T13:53:49Z</time></trkpt><trkpt lat="43.107749868998916" lon="12.354672297678624"><ele>270.0</ele><time>2026-04-10T13:53:50Z</time></trkpt><trkpt lat="43.10768403070827" lon="12.354717924706987"><ele>270.0</ele><time>2026-04-10T13:53:51Z</time></trkpt><trkpt lat="43.107616181855406" lon="12.354758301858753"><ele>270.0</ele><time>2026-04-10T13:53:52Z</time></trkpt><trkpt lat="43.10754780565783" lon="12.354804876539452"><ele>270.0</ele><time>2026-04-10T13:53:53Z</time></trkpt><trkpt lat="43.107474992174964" lon="12.354848397252972"><ele>270.0</ele><time>2026-04-10T13:53:54Z</time></trkpt><trkpt lat="43.10740406706117" lon="12.354892157128099"><ele>270.0</ele><time>2026-04-10T13:53:55Z</time></trkpt><trkpt lat="43.10734055988492" lon="12.354931796217407"><ele>270.0</ele><time>2026-04-10T13:53:56Z</time></trkpt><trkpt lat="43.10727983107586" lon="12.35496342607276"><ele>270.0</ele><time>2026-04-10T13:53:57Z</time></trkpt><trkpt lat="43.107178651893946" lon="12.35502983670234"><ele>269.8</ele><time>2026-04-10T13:53:59Z</time></trkpt><trkpt lat="43.10708345185885" lon="12.355086363133147"><ele>269.6</ele><time>2026-04-10T13:54:01Z</time></trkpt><trkpt lat="43.10696984983857" lon="12.355154062881093"><ele>269.4</ele><time>2026-04-10T13:54:03Z</time></trkpt><trkpt lat="43.10690054898374" lon="12.35516932520646"><ele>269.2</ele><time>2026-04-10T13:54:04Z</time></trkpt><trkpt lat="43.106827796817306" lon="12.355176760036748"><ele>269.0</ele><time>2026-04-10T13:54:05Z</time></trkpt><trkpt lat="43.10674222507767" lon="12.355173701074667"><ele>269.0</ele><time>2026-04-10T13:54:06Z</time></trkpt><trkpt lat="43.10666065136236" lon="12.355197162841707"><ele>269.0</ele><time>2026-04-10T13:54:07Z</time></trkpt><trkpt lat="43.106571275195414" lon="12.355228298052834"><ele>269.0</ele><time>2026-04-10T13:54:08Z</time></trkpt><trkpt lat="43.10648597463063" lon="12.355269901936119"><ele>269.0</ele><time>2026-04-10T13:54:09Z</time></trkpt><trkpt lat="43.10640477138267" lon="12.355322124268262"><ele>269.0</ele><time>2026-04-10T13:54:10Z</time></trkpt><trkpt lat="43.10632023309077" lon="12.355381420945003"><ele>268.8</ele><time>2026-04-10T13:54:11Z</time></trkpt><trkpt lat="43.10623663363537" lon="12.355435050804337"><ele>268.59999999999997</ele><time>2026-04-10T13:54:12Z</time></trkpt><trkpt lat="43.10615616782968" lon="12.355483904426535"><ele>268.4</ele><time>2026-04-10T13:54:13Z</time></trkpt><trkpt lat="43.106066618460915" lon="12.35554401554642"><ele>268.2</ele><time>2026-04-10T13:54:14Z</time></trkpt><trkpt lat="43.10597842191507" lon="12.355588983274808"><ele>268.0</ele><time>2026-04-10T13:54:15Z</time></trkpt><trkpt lat="43.10589115301454" lon="12.355636798021573"><ele>268.2</ele><time>2026-04-10T13:54:16Z</time></trkpt><trkpt lat="43.10580409815501" lon="12.3556965570531"><ele>268.4</ele><time>2026-04-10T13:54:17Z</time></trkpt><trkpt lat="43.10572061729605" lon="12.355750478640093"><ele>268.59999999999997</ele><time>2026-04-10T13:54:18Z</time></trkpt><trkpt lat="43.10563696134354" lon="12.355800553549573"><ele>268.8</ele><time>2026-04-10T13:54:19Z</time></trkpt><trkpt lat="43.10554918854622" lon="12.355867439728733"><ele>269.0</ele><time>2026-04-10T13:54:20Z</time></trkpt><trkpt lat="43.10546627894067" lon="12.35591363865224"><ele>269.0</ele><time>2026-04-10T13:54:21Z</time></trkpt><trkpt lat="43.10537716714414" lon="12.355953417580498"><ele>269.0</ele><time>2026-04-10T13:54:22Z</time></trkpt><trkpt lat="43.10529095142933" lon="12.356005460797443"><ele>269.0</ele><time>2026-04-10T13:54:23Z</time></trkpt><trkpt lat="43.10520719911504" lon="12.356072958021686"><ele>269.0</ele><time>2026-04-10T13:54:24Z</time></trkpt><trkpt lat="43.10513819720733" lon="12.356131418240762"><ele>269.0</ele><time>2026-04-10T13:54:25Z</time></trkpt><trkpt lat="43.105082233728915" lon="12.356186359120823"><ele>269.0</ele><time>2026-04-10T13:54:26Z</time></trkpt><trkpt lat="43.10500276710503" lon="12.3562893189132"><ele>269.0</ele><time>2026-04-10T13:54:28Z</time></trkpt><trkpt lat="43.104943977536294" lon="12.356362139581115"><ele>269.0</ele><time>2026-04-10T13:54:30Z</time></trkpt><trkpt lat="43.104855788652095" lon="12.356472061396111"><ele>269.0</ele><time>2026-04-10T13:54:40Z</time></trkpt><trkpt lat="43.10477818942169" lon="12.356581217965275"><ele>269.0</ele><time>2026-04-10T13:54:41.999Z</time></trkpt><trkpt lat="43.10472944114625" lon="12.356641313138027"><ele>269.0</ele><time>2026-04-10T13:54:42.999Z</time></trkpt><trkpt lat="43.104668806982886" lon="12.356701057581992"><ele>269.0</ele><time>2026-04-10T13:54:43.999Z</time></trkpt><trkpt lat="43.104603419677" lon="12.356749689976747"><ele>269.0</ele><time>2026-04-10T13:54:44.999Z</time></trkpt><trkpt lat="43.10453261047447" lon="12.35678767928382"><ele>269.0</ele><time>2026-04-10T13:54:45.999Z</time></trkpt><trkpt lat="43.104448508133366" lon="12.356811535628793"><ele>269.0</ele><time>2026-04-10T13:54:46.999Z</time></trkpt><trkpt lat="43.10436798984167" lon="12.356821232248475"><ele>269.0</ele><time>2026-04-10T13:54:47.999Z</time></trkpt><trkpt lat="43.104280657862944" lon="12.356824602378486"><ele>269.0</ele><time>2026-04-10T13:54:48.999Z</time></trkpt><trkpt lat="43.104194597829554" lon="12.35684500061201"><ele>269.0</ele><time>2026-04-10T13:54:49.999Z</time></trkpt><trkpt lat="43.10410312525952" lon="12.356867547036131"><ele>269.0</ele><time>2026-04-10T13:54:50.999Z</time></trkpt><trkpt lat="43.10401254180091" lon="12.35688666411237"><ele>269.0</ele><time>2026-04-10T13:54:51.999Z</time></trkpt><trkpt lat="43.1039254964981" lon="12.356902121875338"><ele>269.0</ele><time>2026-04-10T13:54:52.999Z</time></trkpt><trkpt lat="43.10383302196083" lon="12.35693174902911"><ele>269.0</ele><time>2026-04-10T13:54:53.999Z</time></trkpt><trkpt lat="43.10374738569425" lon="12.356967407263104"><ele>269.14285714285717</ele><time>2026-04-10T13:54:54.999Z</time></trkpt><trkpt lat="43.10367126542734" lon="12.357003997841378"><ele>269.28571428571433</ele><time>2026-04-10T13:54:55.999Z</time></trkpt><trkpt lat="43.10360123129768" lon="12.357042446679776"><ele>269.42857142857144</ele><time>2026-04-10T13:54:56.999Z</time></trkpt><trkpt lat="43.103527971173165" lon="12.357070773697027"><ele>269.57142857142856</ele><time>2026-04-10T13:54:57.999Z</time></trkpt><trkpt lat="43.10345944251938" lon="12.35708346790147"><ele>269.71428571428567</ele><time>2026-04-10T13:54:59Z</time></trkpt><trkpt lat="43.10339603773399" lon="12.357101239590513"><ele>269.85714285714283</ele><time>2026-04-10T13:55:00Z</time></trkpt><trkpt lat="43.10333757274097" lon="12.35713410599564"><ele>270.0</ele><time>2026-04-10T13:55:01Z</time></trkpt><trkpt lat="43.10326879903673" lon="12.357160128810314"><ele>269.6</ele><time>2026-04-10T13:55:02Z</time></trkpt><trkpt lat="43.103185165883154" lon="12.357159481054364"><ele>269.2</ele><time>2026-04-10T13:55:03Z</time></trkpt><trkpt lat="43.10311282114984" lon="12.357121215339529"><ele>268.8</ele><time>2026-04-10T13:55:04Z</time></trkpt><trkpt lat="43.10304306851378" lon="12.357061454212074"><ele>268.4</ele><time>2026-04-10T13:55:05Z</time></trkpt><trkpt lat="43.10304635128797" lon="12.356825266236646"><ele>268.0</ele><time>2026-04-10T13:55:06Z</time></trkpt><trkpt lat="43.102991326176515" lon="12.356779679557356"><ele>268.0</ele><time>2026-04-10T13:55:07Z</time></trkpt><trkpt lat="43.102933290863895" lon="12.356727453882053"><ele>268.0</ele><time>2026-04-10T13:55:08Z</time></trkpt><trkpt lat="43.1028411512455" lon="12.35664394319243"><ele>268.0</ele><time>2026-04-10T13:55:09Z</time></trkpt><trkpt lat="43.10275720991196" lon="12.3565937730773"><ele>268.0</ele><time>2026-04-10T13:55:10Z</time></trkpt><trkpt lat="43.10267906754586" lon="12.356558354393258"><ele>268.0</ele><time>2026-04-10T13:55:11Z</time></trkpt><trkpt lat="43.1025986073235" lon="12.356521885027222"><ele>268.0</ele><time>2026-04-10T13:55:12Z</time></trkpt><trkpt lat="43.10253669800726" lon="12.356488470018784"><ele>268.0</ele><time>2026-04-10T13:55:13Z</time></trkpt><trkpt lat="43.10246062472797" lon="12.35644852362115"><ele>268.0</ele><time>2026-04-10T13:55:14Z</time></trkpt><trkpt lat="43.102399344992236" lon="12.356405860947635"><ele>268.0</ele><time>2026-04-10T13:55:15Z</time></trkpt><trkpt lat="43.10226165268346" lon="12.356318572617468"><ele>268.0</ele><time>2026-04-10T13:55:16Z</time></trkpt><trkpt lat="43.10203098182066" lon="12.356410334705068"><ele>267.75</ele><time>2026-04-10T13:55:17Z</time></trkpt><trkpt lat="43.101924486008194" lon="12.356416814585556"><ele>267.5</ele><time>2026-04-10T13:55:19Z</time></trkpt><trkpt lat="43.10185144862756" lon="12.356414836491386"><ele>267.25</ele><time>2026-04-10T13:55:21Z</time></trkpt><trkpt lat="43.1018141272062" lon="12.356752703349297"><ele>267.0</ele><time>2026-04-10T13:55:23Z</time></trkpt><trkpt lat="43.101809010628884" lon="12.356848073337845"><ele>267.0</ele><time>2026-04-10T13:55:24Z</time></trkpt><trkpt lat="43.10179913863015" lon="12.356944637446475"><ele>267.0</ele><time>2026-04-10T13:55:25Z</time></trkpt><trkpt lat="43.10179026701946" lon="12.357046950333295"><ele>267.0</ele><time>2026-04-10T13:55:26Z</time></trkpt><trkpt lat="43.10178594121147" lon="12.357153938916511"><ele>267.0</ele><time>2026-04-10T13:55:27Z</time></trkpt><trkpt lat="43.10178164319673" lon="12.357265003054744"><ele>267.0</ele><time>2026-04-10T13:55:28Z</time></trkpt><trkpt lat="43.10178316950683" lon="12.35738050214466"><ele>267.0</ele><time>2026-04-10T13:55:29Z</time></trkpt><trkpt lat="43.1018004934923" lon="12.357478705483723"><ele>267.0</ele><time>2026-04-10T13:55:30Z</time></trkpt><trkpt lat="43.10184294557577" lon="12.35762922224536"><ele>267.0</ele><time>2026-04-10T13:55:32Z</time></trkpt><trkpt lat="43.10187894976532" lon="12.357711282924004"><ele>267.0</ele><time>2026-04-10T13:55:33Z</time></trkpt><trkpt lat="43.101917017754865" lon="12.35779416713891"><ele>267.0</ele><time>2026-04-10T13:55:34Z</time></trkpt><trkpt lat="43.101966226930884" lon="12.357883468956073"><ele>267.0</ele><time>2026-04-10T13:55:35Z</time></trkpt><trkpt lat="43.10202100540463" lon="12.357962098402785"><ele>267.0</ele><time>2026-04-10T13:55:36Z</time></trkpt><trkpt lat="43.102065860351914" lon="12.358060757388955"><ele>266.8333333333333</ele><time>2026-04-10T13:55:37Z</time></trkpt><trkpt lat="43.10210967169309" lon="12.358154079836584"><ele>266.6666666666667</ele><time>2026-04-10T13:55:38Z</time></trkpt><trkpt lat="43.10216075767706" lon="12.3582467264822"><ele>266.5</ele><time>2026-04-10T13:55:39Z</time></trkpt><trkpt lat="43.10221301554933" lon="12.358341822071592"><ele>266.33333333333337</ele><time>2026-04-10T13:55:40Z</time></trkpt><trkpt lat="43.102253269891996" lon="12.358456164209375"><ele>266.1666666666667</ele><time>2026-04-10T13:55:42Z</time></trkpt><trkpt lat="43.10224782950503" lon="12.358544635693459"><ele>266.0</ele><time>2026-04-10T13:55:43Z</time></trkpt><trkpt lat="43.10221284881529" lon="12.358651371337723"><ele>266.0</ele><time>2026-04-10T13:55:45Z</time></trkpt><trkpt lat="43.10214833449393" lon="12.358832194574193"><ele>266.0</ele><time>2026-04-10T13:56:01Z</time></trkpt><trkpt lat="43.10209702505264" lon="12.358922906986047"><ele>266.0</ele><time>2026-04-10T13:56:03Z</time></trkpt><trkpt lat="43.102317983901656" lon="12.358911317989067"><ele>266.0</ele><time>2026-04-10T13:56:06Z</time></trkpt><trkpt lat="43.10238281183345" lon="12.358960446728384"><ele>266.0</ele><time>2026-04-10T13:56:07Z</time></trkpt><trkpt lat="43.10249124925719" lon="12.359042624865582"><ele>266.0</ele><time>2026-04-10T13:56:09Z</time></trkpt><trkpt lat="43.102548625155116" lon="12.35908633417611"><ele>266.0</ele><time>2026-04-10T13:56:10Z</time></trkpt><trkpt lat="43.10264483446472" lon="12.359159266477874"><ele>266.0</ele><time>2026-04-10T13:56:12Z</time></trkpt><trkpt lat="43.10270773874793" lon="12.359206852821577"><ele>266.0</ele><time>2026-04-10T13:56:15Z</time></trkpt><trkpt lat="43.10261218710741" lon="12.359524571653287"><ele>266.0</ele><time>2026-04-10T13:56:17Z</time></trkpt></trkseg></trk></gpx>